<?xml version='1.0' encoding='UTF-8'?><gpx version="1.1" creator="JPX - https://github.com/jenetics/jpx" xmlns="http://www.topografix.com/GPX/1/1"><trk><trkseg><trkpt lat="43.35653521663426" lon="5.474403943691237"><ele>173.0</ele><time>2026-04-24T09:11:05.029Z</time></trkpt><trkpt lat="43.35642185605917" lon="5.474439328675019"><ele>173.0</ele><time>2026-04-24T09:11:55.999Z</time></trkpt><trkpt lat="43.35633000443754" lon="5.4744597800722605"><ele>173.0</ele><time>2026-04-24T09:11:57.999Z</time></trkpt><trkpt lat="43.356199923545944" lon="5.474404088070522"><ele>173.0</ele><time>2026-04-24T09:11:59.999Z</time></trkpt><trkpt lat="43.356144115838724" lon="5.4743060610761525"><ele>173.0</ele><time>2026-04-24T09:12:00.999Z</time></trkpt><trkpt lat="43.356101650235146" lon="5.474209161973246"><ele>172.0</ele><time>2026-04-24T09:12:01.999Z</time></trkpt><trkpt lat="43.35604127078544" lon="5.4741374451862965"><ele>171.0</ele><time>2026-04-24T09:12:02.999Z</time></trkpt><trkpt lat="43.355973697835346" lon="5.474079531257032"><ele>170.0</ele><time>2026-04-24T09:12:03.999Z</time></trkpt><trkpt lat="43.3558887522799" lon="5.474074542031467"><ele>169.0</ele><time>2026-04-24T09:12:04.999Z</time></trkpt><trkpt lat="43.355794380629916" lon="5.474091100668172"><ele>168.0</ele><time>2026-04-24T09:12:05.999Z</time></trkpt><trkpt lat="43.355704248108616" lon="5.4741199641217655"><ele>167.0</ele><time>2026-04-24T09:12:06.999Z</time></trkpt><trkpt lat="43.355607812659294" lon="5.474129336884586"><ele>165.6</ele><time>2026-04-24T09:12:07.999Z</time></trkpt><trkpt lat="43.35550355220892" lon="5.474149606645673"><ele>164.2</ele><time>2026-04-24T09:12:08.999Z</time></trkpt><trkpt lat="43.35539793786033" lon="5.4741679833542545"><ele>162.8</ele><time>2026-04-24T09:12:09.998Z</time></trkpt><trkpt lat="43.35529006510054" lon="5.474185859928431"><ele>161.4</ele><time>2026-04-24T09:12:10.998Z</time></trkpt><trkpt lat="43.35518377959498" lon="5.474201958593271"><ele>160.0</ele><time>2026-04-24T09:12:11.998Z</time></trkpt><trkpt lat="43.355076285599594" lon="5.474225515975565"><ele>160.0</ele><time>2026-04-24T09:12:12.998Z</time></trkpt><trkpt lat="43.35496429577101" lon="5.474245454564235"><ele>160.0</ele><time>2026-04-24T09:12:13.998Z</time></trkpt><trkpt lat="43.354855679866205" lon="5.47428450053879"><ele>160.0</ele><time>2026-04-24T09:12:14.998Z</time></trkpt><trkpt lat="43.35475053789761" lon="5.474315849541741"><ele>160.0</ele><time>2026-04-24T09:12:15.998Z</time></trkpt><trkpt lat="43.35464818726852" lon="5.474335305612013"><ele>160.0</ele><time>2026-04-24T09:12:16.998Z</time></trkpt><trkpt lat="43.354569884679364" lon="5.474360226543596"><ele>159.16666666666669</ele><time>2026-04-24T09:12:17.998Z</time></trkpt><trkpt lat="43.35448897195358" lon="5.4744167919983155"><ele>158.33333333333334</ele><time>2026-04-24T09:12:18.998Z</time></trkpt><trkpt lat="43.354410206681" lon="5.474478891314248"><ele>157.5</ele><time>2026-04-24T09:12:19.998Z</time></trkpt><trkpt lat="43.354337673287226" lon="5.474555593716558"><ele>156.66666666666666</ele><time>2026-04-24T09:12:20.998Z</time></trkpt><trkpt lat="43.35427224921439" lon="5.474631024688446"><ele>155.83333333333331</ele><time>2026-04-24T09:12:21.998Z</time></trkpt><trkpt lat="43.354205254550465" lon="5.474699628826268"><ele>155.0</ele><time>2026-04-24T09:12:22.998Z</time></trkpt><trkpt lat="43.35414534900662" lon="5.474777960959387"><ele>155.0</ele><time>2026-04-24T09:12:23.998Z</time></trkpt><trkpt lat="43.35409250122264" lon="5.4748618862796725"><ele>155.0</ele><time>2026-04-24T09:12:24.998Z</time></trkpt><trkpt lat="43.3540397088496" lon="5.474940786784594"><ele>155.0</ele><time>2026-04-24T09:12:25.998Z</time></trkpt><trkpt lat="43.35398228725065" lon="5.475013705735938"><ele>155.0</ele><time>2026-04-24T09:12:26.998Z</time></trkpt><trkpt lat="43.353920022288094" lon="5.475075489651741"><ele>155.0</ele><time>2026-04-24T09:12:27.998Z</time></trkpt><trkpt lat="43.35384392456859" lon="5.475097582122453"><ele>155.0</ele><time>2026-04-24T09:12:28.998Z</time></trkpt><trkpt lat="43.353775561482855" lon="5.475127640617308"><ele>154.33333333333331</ele><time>2026-04-24T09:12:29.998Z</time></trkpt><trkpt lat="43.35371035442904" lon="5.475162825775014"><ele>153.66666666666666</ele><time>2026-04-24T09:12:30.998Z</time></trkpt><trkpt lat="43.35359770788644" lon="5.4752290277011575"><ele>153.0</ele><time>2026-04-24T09:12:32.998Z</time></trkpt><trkpt lat="43.353534253639296" lon="5.475270399318606"><ele>152.33333333333334</ele><time>2026-04-24T09:12:33.998Z</time></trkpt><trkpt lat="43.35346624405403" lon="5.475317566208935"><ele>151.66666666666669</ele><time>2026-04-24T09:12:34.998Z</time></trkpt><trkpt lat="43.353394369466514" lon="5.475361313479849"><ele>151.0</ele><time>2026-04-24T09:12:35.998Z</time></trkpt><trkpt lat="43.35331867099617" lon="5.475389145736829"><ele>151.2</ele><time>2026-04-24T09:12:36.998Z</time></trkpt><trkpt lat="43.35323745305461" lon="5.475443787477735"><ele>151.39999999999998</ele><time>2026-04-24T09:12:37.998Z</time></trkpt><trkpt lat="43.35315557975498" lon="5.475489424199401"><ele>151.6</ele><time>2026-04-24T09:12:38.998Z</time></trkpt><trkpt lat="43.35306836397458" lon="5.475532170821673"><ele>151.79999999999998</ele><time>2026-04-24T09:12:39.998Z</time></trkpt><trkpt lat="43.35298732931313" lon="5.47559695575646"><ele>152.0</ele><time>2026-04-24T09:12:40.998Z</time></trkpt><trkpt lat="43.352905650996604" lon="5.475665187222643"><ele>150.79999999999998</ele><time>2026-04-24T09:12:41.998Z</time></trkpt><trkpt lat="43.352828513153995" lon="5.475733675880033"><ele>149.6</ele><time>2026-04-24T09:12:42.998Z</time></trkpt><trkpt lat="43.352757890359726" lon="5.47580648138341"><ele>148.39999999999998</ele><time>2026-04-24T09:12:43.997Z</time></trkpt><trkpt lat="43.35269729097928" lon="5.475860567231367"><ele>147.2</ele><time>2026-04-24T09:12:44.997Z</time></trkpt><trkpt lat="43.35258889534986" lon="5.475897662866035"><ele>146.0</ele><time>2026-04-24T09:12:46.997Z</time></trkpt><trkpt lat="43.35247578788499" lon="5.475909110954472"><ele>146.0</ele><time>2026-04-24T09:12:48.997Z</time></trkpt><trkpt lat="43.352401184226075" lon="5.475922080345865"><ele>146.0</ele><time>2026-04-24T09:12:51.997Z</time></trkpt><trkpt lat="43.352489621356675" lon="5.475900038532694"><ele>146.0</ele><time>2026-04-24T09:12:56.997Z</time></trkpt><trkpt lat="43.3525728624905" lon="5.47593303832026"><ele>146.0</ele><time>2026-04-24T09:12:59.997Z</time></trkpt><trkpt lat="43.35261527862826" lon="5.476007149562584"><ele>146.0</ele><time>2026-04-24T09:13:02.997Z</time></trkpt><trkpt lat="43.35265739993991" lon="5.476085234627053"><ele>146.0</ele><time>2026-04-24T09:13:04.997Z</time></trkpt><trkpt lat="43.35271279721688" lon="5.476193332897813"><ele>145.75</ele><time>2026-04-24T09:13:06.997Z</time></trkpt><trkpt lat="43.35274014385873" lon="5.476351438712529"><ele>145.5</ele><time>2026-04-24T09:13:08.997Z</time></trkpt><trkpt lat="43.35275220863737" lon="5.4765186132068004"><ele>145.25</ele><time>2026-04-24T09:13:10.997Z</time></trkpt><trkpt lat="43.35272484797415" lon="5.476676584373895"><ele>145.0</ele><time>2026-04-24T09:13:12.998Z</time></trkpt><trkpt lat="43.35270233761464" lon="5.476832535511635"><ele>145.0</ele><time>2026-04-24T09:13:14.998Z</time></trkpt><trkpt lat="43.352688782047174" lon="5.4769807172839595"><ele>145.0</ele><time>2026-04-24T09:13:16.998Z</time></trkpt><trkpt lat="43.35262401664412" lon="5.477106382024234"><ele>145.0</ele><time>2026-04-24T09:13:18.998Z</time></trkpt><trkpt lat="43.35257415727601" lon="5.477234923647095"><ele>145.0</ele><time>2026-04-24T09:13:20.998Z</time></trkpt><trkpt lat="43.35252440406576" lon="5.4773671537759645"><ele>145.0</ele><time>2026-04-24T09:13:22.998Z</time></trkpt><trkpt lat="43.352442439623935" lon="5.477458515117351"><ele>145.0</ele><time>2026-04-24T09:13:24.999Z</time></trkpt><trkpt lat="43.352378241649276" lon="5.477465456948961"><ele>145.0</ele><time>2026-04-24T09:13:25.999Z</time></trkpt><trkpt lat="43.352313707296844" lon="5.477462036257279"><ele>145.0</ele><time>2026-04-24T09:13:26.999Z</time></trkpt><trkpt lat="43.35219674161238" lon="5.477452723768932"><ele>145.0</ele><time>2026-04-24T09:13:28.999Z</time></trkpt><trkpt lat="43.352087416089844" lon="5.47744877505526"><ele>145.0</ele><time>2026-04-24T09:13:30.999Z</time></trkpt><trkpt lat="43.35201752718014" lon="5.4774370905092455"><ele>145.0</ele><time>2026-04-24T09:13:33.999Z</time></trkpt><trkpt lat="43.351955326611986" lon="5.477472752918314"><ele>145.0</ele><time>2026-04-24T09:13:40.999Z</time></trkpt><trkpt lat="43.351955911534056" lon="5.477638932408792"><ele>145.0</ele><time>2026-04-24T09:13:44.999Z</time></trkpt><trkpt lat="43.35196546940013" lon="5.477732350306982"><ele>145.0</ele><time>2026-04-24T09:13:46.999Z</time></trkpt><trkpt lat="43.35197291924419" lon="5.477822281124705"><ele>145.0</ele><time>2026-04-24T09:13:48.999Z</time></trkpt><trkpt lat="43.35196892991399" lon="5.477943176868123"><ele>145.0</ele><time>2026-04-24T09:13:51.999Z</time></trkpt><trkpt lat="43.35197880840733" lon="5.478049024156125"><ele>145.0</ele><time>2026-04-24T09:13:54.999Z</time></trkpt><trkpt lat="43.35197842482155" lon="5.478177227390317"><ele>144.83333333333334</ele><time>2026-04-24T09:13:57.999Z</time></trkpt><trkpt lat="43.35198692471187" lon="5.478282603809395"><ele>144.66666666666669</ele><time>2026-04-24T09:13:59.999Z</time></trkpt><trkpt lat="43.35199175107362" lon="5.478394796010264"><ele>144.5</ele><time>2026-04-24T09:14:01.999Z</time></trkpt><trkpt lat="43.351995875851664" lon="5.478512001807613"><ele>144.33333333333334</ele><time>2026-04-24T09:14:03.999Z</time></trkpt><trkpt lat="43.352004405741724" lon="5.478630375963681"><ele>144.16666666666666</ele><time>2026-04-24T09:14:05.999Z</time></trkpt><trkpt lat="43.35201079827159" lon="5.478752456556253"><ele>144.0</ele><time>2026-04-24T09:14:07.999Z</time></trkpt><trkpt lat="43.35201637797475" lon="5.4788730234257335"><ele>144.4</ele><time>2026-04-24T09:14:09.999Z</time></trkpt><trkpt lat="43.35202192973785" lon="5.478993921003771"><ele>144.8</ele><time>2026-04-24T09:14:11.999Z</time></trkpt><trkpt lat="43.352033931254844" lon="5.479114569084369"><ele>145.2</ele><time>2026-04-24T09:14:13.999Z</time></trkpt><trkpt lat="43.35204769123248" lon="5.479242627133812"><ele>145.6</ele><time>2026-04-24T09:14:15.999Z</time></trkpt><trkpt lat="43.35205378492934" lon="5.479372008242385"><ele>146.0</ele><time>2026-04-24T09:14:17.999Z</time></trkpt><trkpt lat="43.3520647049092" lon="5.479504213118708"><ele>146.0</ele><time>2026-04-24T09:14:19.999Z</time></trkpt><trkpt lat="43.3520776470719" lon="5.47963707263781"><ele>146.0</ele><time>2026-04-24T09:14:21.999Z</time></trkpt><trkpt lat="43.352103942350695" lon="5.47977012080457"><ele>146.0</ele><time>2026-04-24T09:14:23.999Z</time></trkpt><trkpt lat="43.352129034916835" lon="5.479909245396651"><ele>146.0</ele><time>2026-04-24T09:14:25.999Z</time></trkpt><trkpt lat="43.35215879120308" lon="5.480046623296918"><ele>146.0</ele><time>2026-04-24T09:14:27.999Z</time></trkpt><trkpt lat="43.3521901905066" lon="5.480186142127042"><ele>146.4</ele><time>2026-04-24T09:14:29.999Z</time></trkpt><trkpt lat="43.35222533284953" lon="5.480330203434754"><ele>146.8</ele><time>2026-04-24T09:14:31.999Z</time></trkpt><trkpt lat="43.35225774097787" lon="5.48048000435115"><ele>147.20000000000002</ele><time>2026-04-24T09:14:33.999Z</time></trkpt><trkpt lat="43.3522963600502" lon="5.480626024225385"><ele>147.6</ele><time>2026-04-24T09:14:35.999Z</time></trkpt><trkpt lat="43.35233064008769" lon="5.480765486073588"><ele>148.0</ele><time>2026-04-24T09:14:37.999Z</time></trkpt><trkpt lat="43.35236530182463" lon="5.480915148411224"><ele>148.0</ele><time>2026-04-24T09:14:39.999Z</time></trkpt><trkpt lat="43.35240120659946" lon="5.481062476037758"><ele>148.0</ele><time>2026-04-24T09:14:41.999Z</time></trkpt><trkpt lat="43.35243610712561" lon="5.48120606392118"><ele>148.0</ele><time>2026-04-24T09:14:43.999Z</time></trkpt><trkpt lat="43.35247111882447" lon="5.481358828914716"><ele>148.0</ele><time>2026-04-24T09:14:45.999Z</time></trkpt><trkpt lat="43.352502396203434" lon="5.481507165232412"><ele>148.25</ele><time>2026-04-24T09:14:47.999Z</time></trkpt><trkpt lat="43.3525364671979" lon="5.481655561546264"><ele>148.5</ele><time>2026-04-24T09:14:49.999Z</time></trkpt><trkpt lat="43.352570686723205" lon="5.4817980541739475"><ele>148.75</ele><time>2026-04-24T09:14:51.999Z</time></trkpt><trkpt lat="43.352610086127726" lon="5.481944101931599"><ele>149.0</ele><time>2026-04-24T09:14:53.999Z</time></trkpt><trkpt lat="43.352642504558" lon="5.482094972556966"><ele>149.0</ele><time>2026-04-24T09:14:55.999Z</time></trkpt><trkpt lat="43.35268029514609" lon="5.482236612689619"><ele>149.0</ele><time>2026-04-24T09:14:57.999Z</time></trkpt><trkpt lat="43.35271229462016" lon="5.482376304483756"><ele>149.0</ele><time>2026-04-24T09:14:59.999Z</time></trkpt><trkpt lat="43.3527422147194" lon="5.48251206216842"><ele>149.0</ele><time>2026-04-24T09:15:01.999Z</time></trkpt><trkpt lat="43.35277907370024" lon="5.48265058189732"><ele>149.0</ele><time>2026-04-24T09:15:03.999Z</time></trkpt><trkpt lat="43.352803906726514" lon="5.4827883346181485"><ele>149.0</ele><time>2026-04-24T09:15:05.999Z</time></trkpt><trkpt lat="43.352841760286545" lon="5.482923916687016"><ele>149.0</ele><time>2026-04-24T09:15:07.999Z</time></trkpt><trkpt lat="43.35286922313592" lon="5.483055454825315"><ele>149.0</ele><time>2026-04-24T09:15:09.999Z</time></trkpt><trkpt lat="43.35290913771109" lon="5.483174703944427"><ele>149.0</ele><time>2026-04-24T09:15:11.998Z</time></trkpt><trkpt lat="43.35295333455817" lon="5.483294817223079"><ele>149.0</ele><time>2026-04-24T09:15:13.998Z</time></trkpt><trkpt lat="43.35300539363464" lon="5.483413454711578"><ele>150.0</ele><time>2026-04-24T09:15:15.999Z</time></trkpt><trkpt lat="43.35305148771204" lon="5.48353236201858"><ele>151.0</ele><time>2026-04-24T09:15:17.999Z</time></trkpt><trkpt lat="43.35307477342561" lon="5.483658550683633"><ele>152.0</ele><time>2026-04-24T09:15:19.999Z</time></trkpt><trkpt lat="43.353147231484044" lon="5.483743711346707"><ele>153.0</ele><time>2026-04-24T09:15:21.999Z</time></trkpt><trkpt lat="43.35319620898027" lon="5.4838564333398025"><ele>154.0</ele><time>2026-04-24T09:15:23.999Z</time></trkpt><trkpt lat="43.35325724996813" lon="5.4839616053072175"><ele>154.0</ele><time>2026-04-24T09:15:25.999Z</time></trkpt><trkpt lat="43.35331743747392" lon="5.484062494922719"><ele>154.0</ele><time>2026-04-24T09:15:27.999Z</time></trkpt><trkpt lat="43.35338112293318" lon="5.484154187659212"><ele>154.0</ele><time>2026-04-24T09:15:29.999Z</time></trkpt><trkpt lat="43.3534670953988" lon="5.484220264364819"><ele>154.0</ele><time>2026-04-24T09:15:31.999Z</time></trkpt><trkpt lat="43.35354502003609" lon="5.484283478827254"><ele>154.0</ele><time>2026-04-24T09:15:33.999Z</time></trkpt><trkpt lat="43.35363967718589" lon="5.4843214902069395"><ele>154.0</ele><time>2026-04-24T09:15:35.999Z</time></trkpt><trkpt lat="43.353735512502624" lon="5.484378635494149"><ele>154.0</ele><time>2026-04-24T09:15:37.999Z</time></trkpt><trkpt lat="43.353826500169305" lon="5.484430356106436"><ele>154.0</ele><time>2026-04-24T09:15:39.999Z</time></trkpt><trkpt lat="43.35391762235551" lon="5.484484064760035"><ele>154.0</ele><time>2026-04-24T09:15:41.999Z</time></trkpt><trkpt lat="43.35400983677201" lon="5.484526719064387"><ele>154.0</ele><time>2026-04-24T09:15:43.999Z</time></trkpt><trkpt lat="43.35410889911917" lon="5.484563950106766"><ele>154.2</ele><time>2026-04-24T09:15:45.999Z</time></trkpt><trkpt lat="43.354181060283615" lon="5.4846600130328635"><ele>154.4</ele><time>2026-04-24T09:15:47.999Z</time></trkpt><trkpt lat="43.35424125224487" lon="5.484760418640797"><ele>154.6</ele><time>2026-04-24T09:15:49.999Z</time></trkpt><trkpt lat="43.354301241851786" lon="5.484883040560503"><ele>154.8</ele><time>2026-04-24T09:15:51.999Z</time></trkpt><trkpt lat="43.35438577952275" lon="5.4849846975083425"><ele>155.0</ele><time>2026-04-24T09:15:53.999Z</time></trkpt><trkpt lat="43.35444798827539" lon="5.485136202820768"><ele>155.0</ele><time>2026-04-24T09:15:55.999Z</time></trkpt><trkpt lat="43.3544743895923" lon="5.485217691345724"><ele>155.0</ele><time>2026-04-24T09:15:56.999Z</time></trkpt><trkpt lat="43.35450515061217" lon="5.485302072377573"><ele>155.0</ele><time>2026-04-24T09:15:57.999Z</time></trkpt><trkpt lat="43.354536624455655" lon="5.485387156812988"><ele>155.0</ele><time>2026-04-24T09:15:58.999Z</time></trkpt><trkpt lat="43.35456692896687" lon="5.485470396561413"><ele>155.0</ele><time>2026-04-24T09:15:59.999Z</time></trkpt><trkpt lat="43.354599779560516" lon="5.485551720238404"><ele>155.0</ele><time>2026-04-24T09:16:00.999Z</time></trkpt><trkpt lat="43.35463316905823" lon="5.485630493846646"><ele>155.0</ele><time>2026-04-24T09:16:01.999Z</time></trkpt><trkpt lat="43.35466931297595" lon="5.485705650454641"><ele>155.28571428571428</ele><time>2026-04-24T09:16:02.999Z</time></trkpt><trkpt lat="43.354714770813466" lon="5.48577524225316"><ele>155.57142857142856</ele><time>2026-04-24T09:16:03.999Z</time></trkpt><trkpt lat="43.3547627576198" lon="5.48583506813523"><ele>155.85714285714283</ele><time>2026-04-24T09:16:04.999Z</time></trkpt><trkpt lat="43.35481166579845" lon="5.485890197756074"><ele>156.14285714285714</ele><time>2026-04-24T09:16:05.999Z</time></trkpt><trkpt lat="43.354865151242414" lon="5.485941063520797"><ele>156.42857142857142</ele><time>2026-04-24T09:16:06.999Z</time></trkpt><trkpt lat="43.35491789666892" lon="5.485988564962885"><ele>156.7142857142857</ele><time>2026-04-24T09:16:07.999Z</time></trkpt><trkpt lat="43.35502461745695" lon="5.486068992184945"><ele>157.0</ele><time>2026-04-24T09:16:09.999Z</time></trkpt><trkpt lat="43.35513181615161" lon="5.4861405016117635"><ele>157.0</ele><time>2026-04-24T09:16:11.999Z</time></trkpt><trkpt lat="43.355243670034234" lon="5.486209301807364"><ele>157.0</ele><time>2026-04-24T09:16:13.999Z</time></trkpt><trkpt lat="43.35535047898006" lon="5.486284095252352"><ele>157.0</ele><time>2026-04-24T09:16:15.999Z</time></trkpt><trkpt lat="43.35545871124398" lon="5.4863543769992456"><ele>157.0</ele><time>2026-04-24T09:16:17.999Z</time></trkpt><trkpt lat="43.35556508536694" lon="5.486427227060742"><ele>156.79999999999998</ele><time>2026-04-24T09:16:19.999Z</time></trkpt><trkpt lat="43.35567679558767" lon="5.486500345857602"><ele>156.6</ele><time>2026-04-24T09:16:21.999Z</time></trkpt><trkpt lat="43.355786153891906" lon="5.486573313691514"><ele>156.39999999999998</ele><time>2026-04-24T09:16:23.999Z</time></trkpt><trkpt lat="43.35587871189539" lon="5.486636403203425"><ele>156.2</ele><time>2026-04-24T09:16:25.999Z</time></trkpt><trkpt lat="43.35594153271446" lon="5.486699233165815"><ele>156.0</ele><time>2026-04-24T09:16:27.999Z</time></trkpt><trkpt lat="43.3559757063918" lon="5.486804202870021"><ele>156.0</ele><time>2026-04-24T09:16:31.999Z</time></trkpt><trkpt lat="43.35601647818761" lon="5.486885595325593"><ele>156.0</ele><time>2026-04-24T09:16:33.999Z</time></trkpt><trkpt lat="43.3561029660528" lon="5.486945765632237"><ele>156.0</ele><time>2026-04-24T09:16:35.999Z</time></trkpt><trkpt lat="43.356198139240696" lon="5.487005681110671"><ele>156.0</ele><time>2026-04-24T09:16:37.999Z</time></trkpt><trkpt lat="43.35622407841511" lon="5.48708977330038"><ele>156.0</ele><time>2026-04-24T09:16:38.999Z</time></trkpt><trkpt lat="43.356300807223846" lon="5.487189030522396"><ele>156.0</ele><time>2026-04-24T09:16:40.999Z</time></trkpt><trkpt lat="43.35638063229129" lon="5.48729091825944"><ele>156.5</ele><time>2026-04-24T09:16:42.999Z</time></trkpt><trkpt lat="43.356474427848504" lon="5.4873879977557225"><ele>157.0</ele><time>2026-04-24T09:16:44.999Z</time></trkpt><trkpt lat="43.35655879245789" lon="5.487493286788286"><ele>157.5</ele><time>2026-04-24T09:16:46.999Z</time></trkpt><trkpt lat="43.356637386815216" lon="5.487596899480408"><ele>158.0</ele><time>2026-04-24T09:16:48.999Z</time></trkpt><trkpt lat="43.35672747976043" lon="5.487684139824644"><ele>158.0</ele><time>2026-04-24T09:16:50.999Z</time></trkpt><trkpt lat="43.35679567478613" lon="5.487805234506617"><ele>158.0</ele><time>2026-04-24T09:16:52.999Z</time></trkpt><trkpt lat="43.356880107796904" lon="5.487893777445708"><ele>158.0</ele><time>2026-04-24T09:16:54.999Z</time></trkpt><trkpt lat="43.35695848408309" lon="5.48797815145163"><ele>158.0</ele><time>2026-04-24T09:16:56.999Z</time></trkpt><trkpt lat="43.357003622002566" lon="5.488081728069856"><ele>158.0</ele><time>2026-04-24T09:16:58.999Z</time></trkpt><trkpt lat="43.357063997998296" lon="5.488154893687998"><ele>158.33333333333331</ele><time>2026-04-24T09:17:00.999Z</time></trkpt><trkpt lat="43.35708665552547" lon="5.488258265159297"><ele>158.66666666666666</ele><time>2026-04-24T09:17:02.999Z</time></trkpt><trkpt lat="43.35711801450668" lon="5.48837748688099"><ele>159.0</ele><time>2026-04-24T09:17:04.999Z</time></trkpt><trkpt lat="43.35716838540245" lon="5.488482150768538"><ele>159.33333333333334</ele><time>2026-04-24T09:17:06.999Z</time></trkpt><trkpt lat="43.3572022982154" lon="5.488598498677127"><ele>159.66666666666669</ele><time>2026-04-24T09:17:08.999Z</time></trkpt><trkpt lat="43.35722716987203" lon="5.48872171937668"><ele>160.0</ele><time>2026-04-24T09:17:10.999Z</time></trkpt><trkpt lat="43.357253111234606" lon="5.4888509529375"><ele>160.25</ele><time>2026-04-24T09:17:12.999Z</time></trkpt><trkpt lat="43.357283028997884" lon="5.488982821207184"><ele>160.5</ele><time>2026-04-24T09:17:14.999Z</time></trkpt><trkpt lat="43.35729389309478" lon="5.489164850161294"><ele>160.75</ele><time>2026-04-24T09:17:17.999Z</time></trkpt><trkpt lat="43.35735656157877" lon="5.489407627539998"><ele>161.0</ele><time>2026-04-24T09:17:20.999Z</time></trkpt><trkpt lat="43.35738658056918" lon="5.489554168198637"><ele>161.5</ele><time>2026-04-24T09:17:22.999Z</time></trkpt><trkpt lat="43.357422784026866" lon="5.489701570677494"><ele>162.0</ele><time>2026-04-24T09:17:24.999Z</time></trkpt><trkpt lat="43.35744706293773" lon="5.489848777798864"><ele>162.5</ele><time>2026-04-24T09:17:26.999Z</time></trkpt><trkpt lat="43.35747856025398" lon="5.490000264374329"><ele>163.0</ele><time>2026-04-24T09:17:28.999Z</time></trkpt><trkpt lat="43.357512933382175" lon="5.490153422289046"><ele>163.0</ele><time>2026-04-24T09:17:31Z</time></trkpt><trkpt lat="43.35754550451676" lon="5.490307567226438"><ele>163.0</ele><time>2026-04-24T09:17:33Z</time></trkpt><trkpt lat="43.35758028474675" lon="5.490457990160441"><ele>163.0</ele><time>2026-04-24T09:17:35Z</time></trkpt><trkpt lat="43.35761797537567" lon="5.490602524701377"><ele>163.0</ele><time>2026-04-24T09:17:37Z</time></trkpt><trkpt lat="43.357658096809836" lon="5.490758178256868"><ele>163.8</ele><time>2026-04-24T09:17:39Z</time></trkpt><trkpt lat="43.357713084415764" lon="5.490896803880175"><ele>164.60000000000002</ele><time>2026-04-24T09:17:41Z</time></trkpt><trkpt lat="43.357765450800194" lon="5.4910132580502005"><ele>165.39999999999998</ele><time>2026-04-24T09:17:43Z</time></trkpt><trkpt lat="43.357835730254415" lon="5.491110381632472"><ele>166.2</ele><time>2026-04-24T09:17:45Z</time></trkpt><trkpt lat="43.35778081158428" lon="5.491274738992962"><ele>167.0</ele><time>2026-04-24T09:17:49Z</time></trkpt><trkpt lat="43.35770087002054" lon="5.491322441563681"><ele>167.0</ele><time>2026-04-24T09:17:52Z</time></trkpt><trkpt lat="43.357632020337185" lon="5.491323881905499"><ele>167.0</ele><time>2026-04-24T09:17:54Z</time></trkpt><trkpt lat="43.35757028672864" lon="5.491276591786514"><ele>167.0</ele><time>2026-04-24T09:17:56Z</time></trkpt><trkpt lat="43.35748505412653" lon="5.4912407789843485"><ele>167.0</ele><time>2026-04-24T09:17:59Z</time></trkpt><trkpt lat="43.35742673047527" lon="5.49118113579042"><ele>167.0</ele><time>2026-04-24T09:18:02Z</time></trkpt><trkpt lat="43.35736963070076" lon="5.491106147898822"><ele>167.0</ele><time>2026-04-24T09:18:05Z</time></trkpt><trkpt lat="43.35731610323237" lon="5.491050497819096"><ele>167.0</ele><time>2026-04-24T09:18:08Z</time></trkpt><trkpt lat="43.35725975265635" lon="5.490996232758808"><ele>167.0</ele><time>2026-04-24T09:18:11Z</time></trkpt><trkpt lat="43.357197285604016" lon="5.490928820280082"><ele>167.0</ele><time>2026-04-24T09:18:14Z</time></trkpt><trkpt lat="43.357128531598484" lon="5.4908880596298735"><ele>167.0</ele><time>2026-04-24T09:18:18Z</time></trkpt><trkpt lat="43.357117754532204" lon="5.491003659921047"><ele>167.0</ele><time>2026-04-24T09:18:23Z</time></trkpt><trkpt lat="43.35714811337978" lon="5.4910799248258515"><ele>167.0</ele><time>2026-04-24T09:18:25Z</time></trkpt><trkpt lat="43.357201396784774" lon="5.491145027764286"><ele>167.0</ele><time>2026-04-24T09:18:28Z</time></trkpt><trkpt lat="43.3572466498294" lon="5.491214256922874"><ele>167.0</ele><time>2026-04-24T09:18:31Z</time></trkpt><trkpt lat="43.357274043090506" lon="5.491300155751837"><ele>168.16666666666666</ele><time>2026-04-24T09:18:34Z</time></trkpt><trkpt lat="43.3573372204048" lon="5.491374864322528"><ele>169.33333333333331</ele><time>2026-04-24T09:18:38Z</time></trkpt><trkpt lat="43.35738194601376" lon="5.491454256110777"><ele>170.5</ele><time>2026-04-24T09:18:42Z</time></trkpt><trkpt lat="43.35742286767795" lon="5.49154094802547"><ele>171.66666666666666</ele><time>2026-04-24T09:18:47Z</time></trkpt><trkpt lat="43.35744890142389" lon="5.491638560114417"><ele>172.83333333333334</ele><time>2026-04-24T09:18:52Z</time></trkpt><trkpt lat="43.35746550383267" lon="5.491733457617612"><ele>174.0</ele><time>2026-04-24T09:18:56Z</time></trkpt><trkpt lat="43.35746986702349" lon="5.491842404036902"><ele>174.0</ele><time>2026-04-24T09:19:00Z</time></trkpt><trkpt lat="43.35747357938212" lon="5.491947033716869"><ele>174.0</ele><time>2026-04-24T09:19:05Z</time></trkpt><trkpt lat="43.35738843191679" lon="5.491954754966916"><ele>174.0</ele><time>2026-04-24T09:19:10Z</time></trkpt><trkpt lat="43.35733452842295" lon="5.491904263586975"><ele>174.0</ele><time>2026-04-24T09:19:13Z</time></trkpt><trkpt lat="43.35727086713135" lon="5.491881530256119"><ele>174.0</ele><time>2026-04-24T09:19:16Z</time></trkpt><trkpt lat="43.35720192577239" lon="5.4919055387908395"><ele>174.0</ele><time>2026-04-24T09:19:19.999Z</time></trkpt><trkpt lat="43.35715500139707" lon="5.491976484659362"><ele>174.0</ele><time>2026-04-24T09:19:24.999Z</time></trkpt><trkpt lat="43.35713477397815" lon="5.492070715445824"><ele>179.14285714285714</ele><time>2026-04-24T09:19:30Z</time></trkpt><trkpt lat="43.35707211010856" lon="5.492095432214961"><ele>184.28571428571428</ele><time>2026-04-24T09:19:34Z</time></trkpt><trkpt lat="43.35704910505834" lon="5.492186138233624"><ele>189.42857142857144</ele><time>2026-04-24T09:19:39Z</time></trkpt><trkpt lat="43.35699062394339" lon="5.492243576282021"><ele>194.57142857142856</ele><time>2026-04-24T09:19:44Z</time></trkpt><trkpt lat="43.35694029553105" lon="5.492310245387028"><ele>199.71428571428572</ele><time>2026-04-24T09:19:49Z</time></trkpt><trkpt lat="43.35692710942149" lon="5.492410693565223"><ele>204.85714285714286</ele><time>2026-04-24T09:19:54Z</time></trkpt><trkpt lat="43.3569539953084" lon="5.4924974551166965"><ele>210.0</ele><time>2026-04-24T09:19:59Z</time></trkpt><trkpt lat="43.357001298478956" lon="5.492570267916003"><ele>210.0</ele><time>2026-04-24T09:20:04Z</time></trkpt><trkpt lat="43.35713374562339" lon="5.492609782033109"><ele>210.0</ele><time>2026-04-24T09:22:45Z</time></trkpt><trkpt lat="43.35717700057581" lon="5.49268447859259"><ele>210.0</ele><time>2026-04-24T09:22:50Z</time></trkpt><trkpt lat="43.35722843119802" lon="5.4927538432350405"><ele>210.0</ele><time>2026-04-24T09:22:54Z</time></trkpt><trkpt lat="43.357303545858215" lon="5.492799142070378"><ele>210.0</ele><time>2026-04-24T09:22:58Z</time></trkpt><trkpt lat="43.357372272812995" lon="5.4928577871078"><ele>210.0</ele><time>2026-04-24T09:23:01Z</time></trkpt><trkpt lat="43.357436938899646" lon="5.49292042204309"><ele>210.0</ele><time>2026-04-24T09:23:04Z</time></trkpt><trkpt lat="43.357482824351216" lon="5.4930018578996505"><ele>210.0</ele><time>2026-04-24T09:23:07Z</time></trkpt><trkpt lat="43.35750304247612" lon="5.4930887628486715"><ele>210.0</ele><time>2026-04-24T09:23:11Z</time></trkpt><trkpt lat="43.35754981981736" lon="5.493169686644518"><ele>210.0</ele><time>2026-04-24T09:23:14Z</time></trkpt><trkpt lat="43.35759561760273" lon="5.493252397492527"><ele>210.0</ele><time>2026-04-24T09:23:17Z</time></trkpt><trkpt lat="43.357648758904304" lon="5.493341142029682"><ele>210.0</ele><time>2026-04-24T09:23:21Z</time></trkpt><trkpt lat="43.35770156020256" lon="5.4934021993660735"><ele>210.0</ele><time>2026-04-24T09:23:24Z</time></trkpt><trkpt lat="43.35774300539472" lon="5.493478941788503"><ele>210.0</ele><time>2026-04-24T09:23:26Z</time></trkpt><trkpt lat="43.357793742405" lon="5.493536731287251"><ele>210.0</ele><time>2026-04-24T09:23:28Z</time></trkpt><trkpt lat="43.357839378315006" lon="5.493606101095866"><ele>210.0</ele><time>2026-04-24T09:23:30Z</time></trkpt><trkpt lat="43.357884809001284" lon="5.493673104305405"><ele>210.0</ele><time>2026-04-24T09:23:32Z</time></trkpt><trkpt lat="43.35793542928592" lon="5.49377064170655"><ele>210.0</ele><time>2026-04-24T09:23:35Z</time></trkpt><trkpt lat="43.35792311895377" lon="5.4938768650016065"><ele>210.0</ele><time>2026-04-24T09:23:39Z</time></trkpt><trkpt lat="43.357851617620945" lon="5.4938425612630235"><ele>210.0</ele><time>2026-04-24T09:23:43Z</time></trkpt><trkpt lat="43.357803374050576" lon="5.493753774832724"><ele>210.0</ele><time>2026-04-24T09:23:47Z</time></trkpt><trkpt lat="43.35775793180441" lon="5.493672941216232"><ele>210.0</ele><time>2026-04-24T09:23:51Z</time></trkpt><trkpt lat="43.35769976302782" lon="5.493618610915041"><ele>210.0</ele><time>2026-04-24T09:23:55Z</time></trkpt><trkpt lat="43.3576331901133" lon="5.493566915840153"><ele>210.0</ele><time>2026-04-24T09:23:59Z</time></trkpt><trkpt lat="43.357566677356466" lon="5.493521431793287"><ele>210.0</ele><time>2026-04-24T09:24:03Z</time></trkpt><trkpt lat="43.35751086351145" lon="5.493468255468651"><ele>210.0</ele><time>2026-04-24T09:24:07Z</time></trkpt><trkpt lat="43.357455874672425" lon="5.493413570434357"><ele>210.0</ele><time>2026-04-24T09:24:10Z</time></trkpt><trkpt lat="43.3573901697624" lon="5.493374224721824"><ele>210.0</ele><time>2026-04-24T09:24:14Z</time></trkpt><trkpt lat="43.35732913276914" lon="5.493328703789905"><ele>210.0</ele><time>2026-04-24T09:24:18Z</time></trkpt><trkpt lat="43.35726201039575" lon="5.493296757599071"><ele>210.0</ele><time>2026-04-24T09:24:22Z</time></trkpt><trkpt lat="43.357195136200446" lon="5.493278774322383"><ele>210.0</ele><time>2026-04-24T09:24:25Z</time></trkpt><trkpt lat="43.35712436985192" lon="5.493249999799409"><ele>210.0</ele><time>2026-04-24T09:24:28Z</time></trkpt><trkpt lat="43.35705319031566" lon="5.493224836012679"><ele>210.0</ele><time>2026-04-24T09:24:32Z</time></trkpt><trkpt lat="43.356977980745896" lon="5.493211644446115"><ele>210.0</ele><time>2026-04-24T09:24:36Z</time></trkpt><trkpt lat="43.35690743457561" lon="5.493245371289633"><ele>212.71428571428572</ele><time>2026-04-24T09:24:41Z</time></trkpt><trkpt lat="43.35684295434243" lon="5.493283119531185"><ele>215.42857142857144</ele><time>2026-04-24T09:24:45Z</time></trkpt><trkpt lat="43.35677502475193" lon="5.493338513663484"><ele>218.14285714285714</ele><time>2026-04-24T09:24:51Z</time></trkpt><trkpt lat="43.356718546421746" lon="5.493381809234539"><ele>220.85714285714286</ele><time>2026-04-24T09:24:56Z</time></trkpt><trkpt lat="43.356642394602154" lon="5.4934119203529"><ele>223.57142857142858</ele><time>2026-04-24T09:25:01Z</time></trkpt><trkpt lat="43.35657593084535" lon="5.493406659933264"><ele>226.28571428571428</ele><time>2026-04-24T09:25:05Z</time></trkpt><trkpt lat="43.356514776388714" lon="5.49336758560126"><ele>229.0</ele><time>2026-04-24T09:25:09Z</time></trkpt><trkpt lat="43.356455767489116" lon="5.4933212806369625"><ele>229.0</ele><time>2026-04-24T09:25:13Z</time></trkpt><trkpt lat="43.3564029902626" lon="5.493264217338578"><ele>229.0</ele><time>2026-04-24T09:25:17Z</time></trkpt><trkpt lat="43.35635331411036" lon="5.493206915265869"><ele>229.0</ele><time>2026-04-24T09:25:21Z</time></trkpt><trkpt lat="43.3562935199592" lon="5.49314251532138"><ele>229.0</ele><time>2026-04-24T09:25:26Z</time></trkpt><trkpt lat="43.35624264749381" lon="5.493081110968547"><ele>229.0</ele><time>2026-04-24T09:25:30Z</time></trkpt><trkpt lat="43.35618911304171" lon="5.493032824571225"><ele>229.0</ele><time>2026-04-24T09:25:34Z</time></trkpt><trkpt lat="43.35612024147186" lon="5.492981227805265"><ele>229.0</ele><time>2026-04-24T09:25:39Z</time></trkpt><trkpt lat="43.35604746529051" lon="5.492967428206952"><ele>229.71428571428572</ele><time>2026-04-24T09:25:43Z</time></trkpt><trkpt lat="43.35598503084955" lon="5.492981782551651"><ele>230.42857142857144</ele><time>2026-04-24T09:25:47Z</time></trkpt><trkpt lat="43.35592527603332" lon="5.493021426739984"><ele>231.14285714285717</ele><time>2026-04-24T09:25:51Z</time></trkpt><trkpt lat="43.35588239254547" lon="5.493099533336214"><ele>231.85714285714286</ele><time>2026-04-24T09:25:56Z</time></trkpt><trkpt lat="43.35592541268918" lon="5.49317641574068"><ele>232.5714285714286</ele><time>2026-04-24T09:26:00Z</time></trkpt><trkpt lat="43.355991258067284" lon="5.493208871346117"><ele>233.2857142857143</ele><time>2026-04-24T09:26:04Z</time></trkpt><trkpt lat="43.35604110938394" lon="5.493265091962372"><ele>234.0</ele><time>2026-04-24T09:26:08Z</time></trkpt><trkpt lat="43.35610254212478" lon="5.49330462228453"><ele>234.0</ele><time>2026-04-24T09:26:45Z</time></trkpt><trkpt lat="43.35614234051953" lon="5.493378732716372"><ele>234.00000000000003</ele><time>2026-04-24T09:26:50Z</time></trkpt><trkpt lat="43.356174882472324" lon="5.49345472429097"><ele>234.0</ele><time>2026-04-24T09:26:56Z</time></trkpt><trkpt lat="43.35622974449618" lon="5.493503233060782"><ele>234.0</ele><time>2026-04-24T09:27:01Z</time></trkpt><trkpt lat="43.35626899226525" lon="5.493579338009134"><ele>234.00000000000003</ele><time>2026-04-24T09:27:05Z</time></trkpt><trkpt lat="43.35632460736397" lon="5.493653315997573"><ele>234.0</ele><time>2026-04-24T09:27:10Z</time></trkpt><trkpt lat="43.35636656154301" lon="5.493738088016902"><ele>234.0</ele><time>2026-04-24T09:27:15Z</time></trkpt><trkpt lat="43.356425489126" lon="5.49380287109838"><ele>235.85714285714286</ele><time>2026-04-24T09:27:20Z</time></trkpt><trkpt lat="43.35648884710515" lon="5.493859224745087"><ele>237.71428571428572</ele><time>2026-04-24T09:27:25Z</time></trkpt><trkpt lat="43.35655714765105" lon="5.493902617812168"><ele>239.57142857142858</ele><time>2026-04-24T09:27:30Z</time></trkpt><trkpt lat="43.35663435581855" lon="5.493932950453434"><ele>241.42857142857144</ele><time>2026-04-24T09:27:35Z</time></trkpt><trkpt lat="43.35669973902043" lon="5.4939547481929845"><ele>243.28571428571428</ele><time>2026-04-24T09:27:39Z</time></trkpt><trkpt lat="43.356762334620704" lon="5.49397669858605"><ele>245.14285714285717</ele><time>2026-04-24T09:27:43Z</time></trkpt><trkpt lat="43.356823387113295" lon="5.494002660143576"><ele>247.0</ele><time>2026-04-24T09:27:47Z</time></trkpt><trkpt lat="43.35688636701256" lon="5.494033675901127"><ele>246.99999999999997</ele><time>2026-04-24T09:27:51.001Z</time></trkpt><trkpt lat="43.356948721060654" lon="5.494070963501962"><ele>247.0</ele><time>2026-04-24T09:27:55.001Z</time></trkpt><trkpt lat="43.357009888523294" lon="5.494138820318606"><ele>247.0</ele><time>2026-04-24T09:27:59.001Z</time></trkpt><trkpt lat="43.35707252545284" lon="5.494217571408061"><ele>247.0</ele><time>2026-04-24T09:28:03.001Z</time></trkpt><trkpt lat="43.3571272290488" lon="5.4942901698430315"><ele>246.99999999999997</ele><time>2026-04-24T09:28:07.001Z</time></trkpt><trkpt lat="43.357175852272334" lon="5.494369162182337"><ele>247.0</ele><time>2026-04-24T09:28:11.001Z</time></trkpt><trkpt lat="43.35721652188462" lon="5.494451801630794"><ele>246.57142857142858</ele><time>2026-04-24T09:28:15.001Z</time></trkpt><trkpt lat="43.35724132885446" lon="5.494536607788506"><ele>246.1428571428571</ele><time>2026-04-24T09:28:19.001Z</time></trkpt><trkpt lat="43.35725973732703" lon="5.494636482186349"><ele>245.7142857142857</ele><time>2026-04-24T09:28:24Z</time></trkpt><trkpt lat="43.35727221766315" lon="5.494724967115576"><ele>245.28571428571428</ele><time>2026-04-24T09:28:28Z</time></trkpt><trkpt lat="43.3572750802605" lon="5.494822815201725"><ele>244.85714285714283</ele><time>2026-04-24T09:28:33Z</time></trkpt><trkpt lat="43.35727445702512" lon="5.494913336001318"><ele>244.4285714285714</ele><time>2026-04-24T09:28:37Z</time></trkpt><trkpt lat="43.357266943456985" lon="5.4950172086893145"><ele>243.99999999999997</ele><time>2026-04-24T09:28:42Z</time></trkpt><trkpt lat="43.35726656046241" lon="5.495110452702675"><ele>243.99999999999997</ele><time>2026-04-24T09:28:47Z</time></trkpt><trkpt lat="43.357268546393044" lon="5.495203145173954"><ele>244.0</ele><time>2026-04-24T09:28:52Z</time></trkpt><trkpt lat="43.35726499358955" lon="5.495307247288948"><ele>243.99999999999997</ele><time>2026-04-24T09:28:57Z</time></trkpt><trkpt lat="43.35725449277669" lon="5.495405858415231"><ele>243.99999999999997</ele><time>2026-04-24T09:29:03Z</time></trkpt><trkpt lat="43.357260270744625" lon="5.495506098342637"><ele>244.0</ele><time>2026-04-24T09:29:10Z</time></trkpt><trkpt lat="43.35725897211007" lon="5.495603456976018"><ele>243.99999999999997</ele><time>2026-04-24T09:29:16Z</time></trkpt><trkpt lat="43.35725385364056" lon="5.4957007763453305"><ele>243.99999999999997</ele><time>2026-04-24T09:29:22Z</time></trkpt><trkpt lat="43.35725100502511" lon="5.495794724950078"><ele>245.28571428571425</ele><time>2026-04-24T09:29:28Z</time></trkpt><trkpt lat="43.35724888721867" lon="5.495898511624256"><ele>246.57142857142856</ele><time>2026-04-24T09:29:35Z</time></trkpt><trkpt lat="43.357233031187384" lon="5.495989481996693"><ele>247.85714285714286</ele><time>2026-04-24T09:29:41Z</time></trkpt><trkpt lat="43.35723637040763" lon="5.496079983037803"><ele>249.14285714285714</ele><time>2026-04-24T09:29:48Z</time></trkpt><trkpt lat="43.35722646344275" lon="5.496166684852595"><ele>250.42857142857144</ele><time>2026-04-24T09:29:55Z</time></trkpt><trkpt lat="43.3572332989715" lon="5.496269666553889"><ele>251.71428571428575</ele><time>2026-04-24T09:30:02.001Z</time></trkpt><trkpt lat="43.357273997975476" lon="5.49635387595095"><ele>253.00000000000003</ele><time>2026-04-24T09:30:08.001Z</time></trkpt><trkpt lat="43.357255559905006" lon="5.496450656816149"><ele>255.28571428571433</ele><time>2026-04-24T09:30:14.001Z</time></trkpt><trkpt lat="43.35718875093821" lon="5.496446668782422"><ele>257.57142857142856</ele><time>2026-04-24T09:30:48Z</time></trkpt><trkpt lat="43.35714686212849" lon="5.496372966089474"><ele>259.8571428571429</ele><time>2026-04-24T09:30:53Z</time></trkpt><trkpt lat="43.35710577157052" lon="5.496293632882856"><ele>262.14285714285717</ele><time>2026-04-24T09:30:58Z</time></trkpt><trkpt lat="43.357064598710636" lon="5.496222643739578"><ele>264.42857142857144</ele><time>2026-04-24T09:31:03Z</time></trkpt><trkpt lat="43.35700760658602" lon="5.49614994397351"><ele>266.7142857142857</ele><time>2026-04-24T09:31:08Z</time></trkpt><trkpt lat="43.35695474307658" lon="5.496095795143253"><ele>269.0</ele><time>2026-04-24T09:31:12Z</time></trkpt><trkpt lat="43.35689575460046" lon="5.496024177889214"><ele>269.0</ele><time>2026-04-24T09:31:15Z</time></trkpt><trkpt lat="43.3568389989016" lon="5.495964175519407"><ele>269.0</ele><time>2026-04-24T09:31:18Z</time></trkpt><trkpt lat="43.356779786500255" lon="5.495916366898726"><ele>269.0</ele><time>2026-04-24T09:31:21Z</time></trkpt><trkpt lat="43.35671324297378" lon="5.495891364556176"><ele>269.0</ele><time>2026-04-24T09:31:24Z</time></trkpt><trkpt lat="43.356634543099666" lon="5.495923870114345"><ele>269.0</ele><time>2026-04-24T09:31:28Z</time></trkpt><trkpt lat="43.35660562399995" lon="5.496020305192395"><ele>269.0</ele><time>2026-04-24T09:31:33Z</time></trkpt><trkpt lat="43.35664031749634" lon="5.496114249598492"><ele>269.0</ele><time>2026-04-24T09:31:38Z</time></trkpt><trkpt lat="43.35666583363905" lon="5.496209966412286"><ele>269.57142857142856</ele><time>2026-04-24T09:31:42Z</time></trkpt><trkpt lat="43.35669722777498" lon="5.496308169340242"><ele>270.14285714285717</ele><time>2026-04-24T09:31:47Z</time></trkpt><trkpt lat="43.35673011006151" lon="5.496388970428252"><ele>270.7142857142857</ele><time>2026-04-24T09:31:51Z</time></trkpt><trkpt lat="43.35675510566281" lon="5.496479710254885"><ele>271.2857142857143</ele><time>2026-04-24T09:31:56Z</time></trkpt><trkpt lat="43.356784575888035" lon="5.4965564432661855"><ele>271.8571428571429</ele><time>2026-04-24T09:32:00Z</time></trkpt><trkpt lat="43.35680505490258" lon="5.496650925083107"><ele>272.42857142857144</ele><time>2026-04-24T09:32:05.001Z</time></trkpt><trkpt lat="43.35683321779086" lon="5.496744189858572"><ele>273.0</ele><time>2026-04-24T09:32:10Z</time></trkpt><trkpt lat="43.35685541332415" lon="5.49683326056482"><ele>273.0</ele><time>2026-04-24T09:32:15Z</time></trkpt><trkpt lat="43.356881859913834" lon="5.496919011584416"><ele>273.0</ele><time>2026-04-24T09:32:21Z</time></trkpt><trkpt lat="43.35690771968038" lon="5.497014086063908"><ele>273.0</ele><time>2026-04-24T09:32:26Z</time></trkpt><trkpt lat="43.356935299002764" lon="5.497110634247365"><ele>273.0</ele><time>2026-04-24T09:32:32Z</time></trkpt><trkpt lat="43.356960329652345" lon="5.497196784060628"><ele>273.0</ele><time>2026-04-24T09:32:37Z</time></trkpt><trkpt lat="43.356969078182374" lon="5.497293172830644"><ele>273.0</ele><time>2026-04-24T09:32:42Z</time></trkpt><trkpt lat="43.35699505144994" lon="5.497377355543699"><ele>273.0</ele><time>2026-04-24T09:32:47Z</time></trkpt><trkpt lat="43.357017313287606" lon="5.497470015608705"><ele>273.14285714285717</ele><time>2026-04-24T09:32:52Z</time></trkpt><trkpt lat="43.35704527957363" lon="5.497548647905872"><ele>273.2857142857143</ele><time>2026-04-24T09:32:57Z</time></trkpt><trkpt lat="43.357080442758104" lon="5.497641954852797"><ele>273.42857142857144</ele><time>2026-04-24T09:33:03Z</time></trkpt><trkpt lat="43.35710552356714" lon="5.497727583005184"><ele>273.57142857142856</ele><time>2026-04-24T09:33:08Z</time></trkpt><trkpt lat="43.35712832090029" lon="5.497809394589109"><ele>273.7142857142857</ele><time>2026-04-24T09:33:13Z</time></trkpt><trkpt lat="43.35715374817493" lon="5.497890213925489"><ele>273.8571428571429</ele><time>2026-04-24T09:33:18Z</time></trkpt><trkpt lat="43.35717615485389" lon="5.497973549950688"><ele>274.0</ele><time>2026-04-24T09:33:23Z</time></trkpt><trkpt lat="43.357198697011576" lon="5.498059076825429"><ele>275.7142857142857</ele><time>2026-04-24T09:33:28Z</time></trkpt><trkpt lat="43.35722549050948" lon="5.498144231450245"><ele>277.42857142857144</ele><time>2026-04-24T09:33:34Z</time></trkpt><trkpt lat="43.357260867927934" lon="5.498237211770206"><ele>279.1428571428571</ele><time>2026-04-24T09:33:40Z</time></trkpt><trkpt lat="43.357282604015126" lon="5.498335975062277"><ele>280.8571428571429</ele><time>2026-04-24T09:33:45.999Z</time></trkpt><trkpt lat="43.35729806054823" lon="5.49843190555613"><ele>282.57142857142856</ele><time>2026-04-24T09:33:51.999Z</time></trkpt><trkpt lat="43.357303194725915" lon="5.4985277542206905"><ele>284.2857142857143</ele><time>2026-04-24T09:33:57.999Z</time></trkpt><trkpt lat="43.357307787931425" lon="5.4986195736809"><ele>286.0</ele><time>2026-04-24T09:34:03.999Z</time></trkpt><trkpt lat="43.35730379961253" lon="5.498709959643639"><ele>286.99999999999994</ele><time>2026-04-24T09:34:11Z</time></trkpt><trkpt lat="43.3573013126299" lon="5.4988038947857465"><ele>288.0</ele><time>2026-04-24T09:34:17Z</time></trkpt><trkpt lat="43.35729474269075" lon="5.498903378262343"><ele>289.0</ele><time>2026-04-24T09:34:24Z</time></trkpt><trkpt lat="43.35726961125584" lon="5.498995391968571"><ele>290.0</ele><time>2026-04-24T09:34:31Z</time></trkpt><trkpt lat="43.35725944697041" lon="5.499086358579667"><ele>291.0</ele><time>2026-04-24T09:34:56Z</time></trkpt><trkpt lat="43.35725498002677" lon="5.499187071746063"><ele>291.99999999999994</ele><time>2026-04-24T09:35:10Z</time></trkpt><trkpt lat="43.35725616645946" lon="5.499286943213291"><ele>293.0</ele><time>2026-04-24T09:35:18Z</time></trkpt><trkpt lat="43.35726306822053" lon="5.4993770825414074"><ele>292.99999999999994</ele><time>2026-04-24T09:35:26.999Z</time></trkpt><trkpt lat="43.357256393413714" lon="5.499467797327681"><ele>293.0</ele><time>2026-04-24T09:35:32.999Z</time></trkpt><trkpt lat="43.35725042952164" lon="5.499568305084767"><ele>293.0</ele><time>2026-04-24T09:35:42.999Z</time></trkpt><trkpt lat="43.357237679519294" lon="5.499656445571943"><ele>293.0</ele><time>2026-04-24T09:35:48.999Z</time></trkpt><trkpt lat="43.35722124712549" lon="5.499750764747593"><ele>293.0</ele><time>2026-04-24T09:35:55.999Z</time></trkpt><trkpt lat="43.35720363845167" lon="5.499835350073191"><ele>292.99999999999994</ele><time>2026-04-24T09:36:02.999Z</time></trkpt><trkpt lat="43.35717745248697" lon="5.499922279938867"><ele>293.0</ele><time>2026-04-24T09:36:10.999Z</time></trkpt><trkpt lat="43.357153032917154" lon="5.500015622881428"><ele>294.1428571428571</ele><time>2026-04-24T09:36:17Z</time></trkpt><trkpt lat="43.357129932521566" lon="5.500099266744796"><ele>295.2857142857143</ele><time>2026-04-24T09:36:23Z</time></trkpt><trkpt lat="43.35710278947387" lon="5.500197883329354"><ele>296.42857142857144</ele><time>2026-04-24T09:36:30Z</time></trkpt><trkpt lat="43.35707959948664" lon="5.500290234948899"><ele>297.57142857142856</ele><time>2026-04-24T09:36:36Z</time></trkpt><trkpt lat="43.357059235623275" lon="5.500380525269878"><ele>298.7142857142857</ele><time>2026-04-24T09:36:43Z</time></trkpt><trkpt lat="43.357031011993385" lon="5.500467669724736"><ele>299.85714285714283</ele><time>2026-04-24T09:36:50Z</time></trkpt><trkpt lat="43.35701048453995" lon="5.500560277393623"><ele>301.0</ele><time>2026-04-24T09:36:56Z</time></trkpt><trkpt lat="43.35698282791373" lon="5.500654727216881"><ele>303.57142857142856</ele><time>2026-04-24T09:37:02Z</time></trkpt><trkpt lat="43.35696141777491" lon="5.500741457644151"><ele>306.1428571428571</ele><time>2026-04-24T09:37:08Z</time></trkpt><trkpt lat="43.356936865652294" lon="5.500831876072426"><ele>308.7142857142857</ele><time>2026-04-24T09:37:14.999Z</time></trkpt><trkpt lat="43.356915511934545" lon="5.500917917626477"><ele>311.2857142857143</ele><time>2026-04-24T09:37:21.999Z</time></trkpt><trkpt lat="43.35689320816699" lon="5.501007834876294"><ele>313.85714285714283</ele><time>2026-04-24T09:37:29.999Z</time></trkpt><trkpt lat="43.356871356117956" lon="5.501101218519813"><ele>316.42857142857144</ele><time>2026-04-24T09:37:35.999Z</time></trkpt><trkpt lat="43.356851483712134" lon="5.501183880424247"><ele>319.0</ele><time>2026-04-24T09:37:41.999Z</time></trkpt><trkpt lat="43.35682694578885" lon="5.501275099744879"><ele>320.2857142857143</ele><time>2026-04-24T09:37:47.999Z</time></trkpt><trkpt lat="43.35680573363747" lon="5.501366793275268"><ele>321.57142857142856</ele><time>2026-04-24T09:37:54.999Z</time></trkpt><trkpt lat="43.35679623259652" lon="5.501457492388692"><ele>322.85714285714283</ele><time>2026-04-24T09:38:00.999Z</time></trkpt><trkpt lat="43.356804587873214" lon="5.501558058427354"><ele>324.1428571428571</ele><time>2026-04-24T09:38:07.999Z</time></trkpt><trkpt lat="43.35682477262237" lon="5.50165327501951"><ele>325.42857142857144</ele><time>2026-04-24T09:38:14.999Z</time></trkpt><trkpt lat="43.35684870678124" lon="5.501738780680527"><ele>326.71428571428567</ele><time>2026-04-24T09:38:20.999Z</time></trkpt><trkpt lat="43.35687457559434" lon="5.501819515255831"><ele>328.0</ele><time>2026-04-24T09:38:27Z</time></trkpt><trkpt lat="43.35690226010926" lon="5.501902526953527"><ele>327.99999999999994</ele><time>2026-04-24T09:38:33Z</time></trkpt><trkpt lat="43.35692831708051" lon="5.501994239417057"><ele>328.0</ele><time>2026-04-24T09:38:40Z</time></trkpt><trkpt lat="43.35693542821811" lon="5.502080961980796"><ele>328.0</ele><time>2026-04-24T09:38:46Z</time></trkpt><trkpt lat="43.356928845806735" lon="5.502173801774673"><ele>328.0</ele><time>2026-04-24T09:38:53Z</time></trkpt><trkpt lat="43.35691106596594" lon="5.502269889536306"><ele>328.0</ele><time>2026-04-24T09:39:00Z</time></trkpt><trkpt lat="43.356886144549975" lon="5.50235083275851"><ele>327.99999999999994</ele><time>2026-04-24T09:39:07Z</time></trkpt><trkpt lat="43.3568451540037" lon="5.502426034945828"><ele>328.0</ele><time>2026-04-24T09:39:15Z</time></trkpt><trkpt lat="43.35679682775664" lon="5.502507738489123"><ele>328.2857142857143</ele><time>2026-04-24T09:39:23Z</time></trkpt><trkpt lat="43.35675167560077" lon="5.502578181036095"><ele>328.57142857142856</ele><time>2026-04-24T09:39:29.999Z</time></trkpt><trkpt lat="43.35670506915803" lon="5.5026485334832405"><ele>328.8571428571429</ele><time>2026-04-24T09:39:36.999Z</time></trkpt><trkpt lat="43.35665795755142" lon="5.50271230812228"><ele>329.1428571428571</ele><time>2026-04-24T09:39:42.999Z</time></trkpt><trkpt lat="43.35661784928928" lon="5.502780175047811"><ele>329.42857142857144</ele><time>2026-04-24T09:39:49.999Z</time></trkpt><trkpt lat="43.35657865774341" lon="5.502853571719257"><ele>329.7142857142857</ele><time>2026-04-24T09:39:56.999Z</time></trkpt><trkpt lat="43.3565386793663" lon="5.502925136996465"><ele>330.0</ele><time>2026-04-24T09:40:03.999Z</time></trkpt><trkpt lat="43.35650316629447" lon="5.503003374285265"><ele>330.14285714285717</ele><time>2026-04-24T09:40:10.999Z</time></trkpt><trkpt lat="43.35646398687068" lon="5.503087032071476"><ele>330.2857142857143</ele><time>2026-04-24T09:40:18.999Z</time></trkpt><trkpt lat="43.356423220067356" lon="5.503162251832526"><ele>330.42857142857144</ele><time>2026-04-24T09:40:25.999Z</time></trkpt><trkpt lat="43.35638031139976" lon="5.503247246838911"><ele>330.57142857142856</ele><time>2026-04-24T09:40:33Z</time></trkpt><trkpt lat="43.356340368914516" lon="5.503316288771362"><ele>330.7142857142857</ele><time>2026-04-24T09:40:39Z</time></trkpt><trkpt lat="43.356310190235256" lon="5.503400024705716"><ele>330.8571428571429</ele><time>2026-04-24T09:40:45Z</time></trkpt><trkpt lat="43.35628538450872" lon="5.5034987092787055"><ele>331.0</ele><time>2026-04-24T09:41:44Z</time></trkpt><trkpt lat="43.35626570846871" lon="5.503595304944102"><ele>333.57142857142856</ele><time>2026-04-24T09:41:50Z</time></trkpt><trkpt lat="43.35626815042995" lon="5.503690274957667"><ele>336.1428571428571</ele><time>2026-04-24T09:41:55Z</time></trkpt><trkpt lat="43.35627113457738" lon="5.5037798665276245"><ele>338.71428571428567</ele><time>2026-04-24T09:42:00Z</time></trkpt><trkpt lat="43.35626852719829" lon="5.503875202602305"><ele>341.2857142857143</ele><time>2026-04-24T09:42:04.999Z</time></trkpt><trkpt lat="43.35627809453162" lon="5.503973398998952"><ele>343.85714285714283</ele><time>2026-04-24T09:42:09.999Z</time></trkpt><trkpt lat="43.35630944749965" lon="5.504064674593439"><ele>346.4285714285714</ele><time>2026-04-24T09:42:14.999Z</time></trkpt><trkpt lat="43.356372610013686" lon="5.504116959472048"><ele>349.0</ele><time>2026-04-24T09:42:19.999Z</time></trkpt><trkpt lat="43.35644048599348" lon="5.504124277179502"><ele>349.0</ele><time>2026-04-24T09:42:25.999Z</time></trkpt><trkpt lat="43.35651346997731" lon="5.504114054550611"><ele>349.0</ele><time>2026-04-24T09:42:29.999Z</time></trkpt><trkpt lat="43.35659269258289" lon="5.504102619716031"><ele>349.0</ele><time>2026-04-24T09:42:35Z</time></trkpt><trkpt lat="43.35675568099491" lon="5.50410072833375"><ele>349.0</ele><time>2026-04-24T09:42:46Z</time></trkpt><trkpt lat="43.35682588203297" lon="5.50409766694059"><ele>349.0</ele><time>2026-04-24T09:42:51Z</time></trkpt><trkpt lat="43.35690697765446" lon="5.504104173708876"><ele>348.99999999999994</ele><time>2026-04-24T09:42:58Z</time></trkpt><trkpt lat="43.35697001829028" lon="5.504132924252868"><ele>349.0</ele><time>2026-04-24T09:43:04Z</time></trkpt><trkpt lat="43.35702579109376" lon="5.504194462387103"><ele>349.0</ele><time>2026-04-24T09:43:10Z</time></trkpt><trkpt lat="43.35708494240903" lon="5.504245002457795"><ele>349.0</ele><time>2026-04-24T09:43:16Z</time></trkpt><trkpt lat="43.357148526980886" lon="5.504294221796697"><ele>349.0</ele><time>2026-04-24T09:43:22Z</time></trkpt><trkpt lat="43.35721785530934" lon="5.504330691921399"><ele>348.99999999999994</ele><time>2026-04-24T09:43:28Z</time></trkpt><trkpt lat="43.357282443021994" lon="5.504360540198086"><ele>349.0</ele><time>2026-04-24T09:43:33Z</time></trkpt><trkpt lat="43.35735638153709" lon="5.50438035659138"><ele>347.0</ele><time>2026-04-24T09:43:41Z</time></trkpt><trkpt lat="43.357379751080934" lon="5.504515627796984"><ele>345.0</ele><time>2026-04-24T09:43:52Z</time></trkpt><trkpt lat="43.357243721481" lon="5.5046792621346246"><ele>343.0</ele><time>2026-04-24T09:44:06.999Z</time></trkpt><trkpt lat="43.35720104078541" lon="5.5047595271438094"><ele>341.0</ele><time>2026-04-24T09:44:11.999Z</time></trkpt><trkpt lat="43.35715415480375" lon="5.504837271146785"><ele>339.0</ele><time>2026-04-24T09:44:16.999Z</time></trkpt><trkpt lat="43.357104943816644" lon="5.504894923549989"><ele>343.1428571428571</ele><time>2026-04-24T09:44:21.999Z</time></trkpt><trkpt lat="43.35705566880461" lon="5.5049698408534775"><ele>347.28571428571433</ele><time>2026-04-24T09:44:27.999Z</time></trkpt><trkpt lat="43.35700514790831" lon="5.5050306863468315"><ele>351.42857142857144</ele><time>2026-04-24T09:44:31.999Z</time></trkpt><trkpt lat="43.35695651377209" lon="5.5051020098138"><ele>355.57142857142856</ele><time>2026-04-24T09:44:36.999Z</time></trkpt><trkpt lat="43.35690769589189" lon="5.505169932283209"><ele>359.71428571428567</ele><time>2026-04-24T09:44:41.998Z</time></trkpt><trkpt lat="43.35685263148868" lon="5.505237420920867"><ele>363.8571428571429</ele><time>2026-04-24T09:44:47.999Z</time></trkpt><trkpt lat="43.356802453052154" lon="5.5052923269208565"><ele>368.0</ele><time>2026-04-24T09:44:53.999Z</time></trkpt><trkpt lat="43.3567482452381" lon="5.505346450064535"><ele>368.0</ele><time>2026-04-24T09:44:59.999Z</time></trkpt><trkpt lat="43.356694772497775" lon="5.505393643517762"><ele>368.0</ele><time>2026-04-24T09:45:05.999Z</time></trkpt><trkpt lat="43.35663384405965" lon="5.505430125674257"><ele>368.0</ele><time>2026-04-24T09:45:17.999Z</time></trkpt><trkpt lat="43.3565787539802" lon="5.505493215314626"><ele>368.0</ele><time>2026-04-24T09:45:23.999Z</time></trkpt><trkpt lat="43.3565448046143" lon="5.5055690897722815"><ele>368.0</ele><time>2026-04-24T09:45:29.999Z</time></trkpt><trkpt lat="43.35648765861815" lon="5.505617095566673"><ele>368.0</ele><time>2026-04-24T09:45:38.999Z</time></trkpt><trkpt lat="43.356446772616316" lon="5.50568978900903"><ele>368.0</ele><time>2026-04-24T09:45:46.999Z</time></trkpt><trkpt lat="43.35639855441066" lon="5.505762947314414"><ele>371.0</ele><time>2026-04-24T09:45:54.999Z</time></trkpt><trkpt lat="43.356352165607824" lon="5.505828928635178"><ele>374.0</ele><time>2026-04-24T09:46:01.999Z</time></trkpt><trkpt lat="43.356305711135676" lon="5.505903212433016"><ele>377.0</ele><time>2026-04-24T09:46:09.999Z</time></trkpt><trkpt lat="43.3562552351079" lon="5.505964452361918"><ele>380.0</ele><time>2026-04-24T09:46:16.999Z</time></trkpt><trkpt lat="43.356192901837304" lon="5.506021628196734"><ele>383.0</ele><time>2026-04-24T09:46:23.999Z</time></trkpt><trkpt lat="43.35613433848705" lon="5.5060732328175"><ele>386.0</ele><time>2026-04-24T09:46:30.999Z</time></trkpt><trkpt lat="43.35607732241713" lon="5.506122399306918"><ele>389.0</ele><time>2026-04-24T09:46:37.999Z</time></trkpt><trkpt lat="43.356020418939536" lon="5.50616622852849"><ele>389.0</ele><time>2026-04-24T09:46:45Z</time></trkpt><trkpt lat="43.35596252373431" lon="5.506201187366787"><ele>389.0</ele><time>2026-04-24T09:46:51Z</time></trkpt><trkpt lat="43.3559020339809" lon="5.506263267663747"><ele>389.0</ele><time>2026-04-24T09:46:57Z</time></trkpt><trkpt lat="43.355846441371156" lon="5.506315270149478"><ele>389.0</ele><time>2026-04-24T09:47:02Z</time></trkpt><trkpt lat="43.35578588591501" lon="5.5063652490900274"><ele>389.0</ele><time>2026-04-24T09:47:07Z</time></trkpt><trkpt lat="43.355726375166945" lon="5.506413099406407"><ele>389.0</ele><time>2026-04-24T09:47:12Z</time></trkpt><trkpt lat="43.3556707724665" lon="5.506455925909733"><ele>389.0</ele><time>2026-04-24T09:47:16Z</time></trkpt><trkpt lat="43.355598845180715" lon="5.506492421206804"><ele>389.14285714285717</ele><time>2026-04-24T09:47:21Z</time></trkpt><trkpt lat="43.355530877570295" lon="5.506529049602474"><ele>389.2857142857143</ele><time>2026-04-24T09:47:25Z</time></trkpt><trkpt lat="43.355470734632824" lon="5.506569401998998"><ele>389.42857142857144</ele><time>2026-04-24T09:47:29Z</time></trkpt><trkpt lat="43.35539865000096" lon="5.506609899986172"><ele>389.57142857142856</ele><time>2026-04-24T09:47:33Z</time></trkpt><trkpt lat="43.35533517366934" lon="5.506662147524438"><ele>389.71428571428567</ele><time>2026-04-24T09:47:37Z</time></trkpt><trkpt lat="43.3552738297036" lon="5.506714348259504"><ele>389.85714285714283</ele><time>2026-04-24T09:47:41Z</time></trkpt><trkpt lat="43.355218038515225" lon="5.506777533418977"><ele>390.0</ele><time>2026-04-24T09:47:45Z</time></trkpt><trkpt lat="43.35515324560816" lon="5.506837176491807"><ele>390.0</ele><time>2026-04-24T09:47:49Z</time></trkpt><trkpt lat="43.35509198780157" lon="5.506895431125982"><ele>390.0</ele><time>2026-04-24T09:47:53Z</time></trkpt><trkpt lat="43.355023703789385" lon="5.506962351274303"><ele>390.0</ele><time>2026-04-24T09:47:57Z</time></trkpt><trkpt lat="43.3549598170993" lon="5.507016360184678"><ele>390.0</ele><time>2026-04-24T09:48:01Z</time></trkpt><trkpt lat="43.35488207184565" lon="5.50706162513168"><ele>390.0</ele><time>2026-04-24T09:48:05Z</time></trkpt><trkpt lat="43.354819149427726" lon="5.507101252392632"><ele>390.0</ele><time>2026-04-24T09:48:08Z</time></trkpt><trkpt lat="43.35475008660388" lon="5.5071704206399765"><ele>391.6666666666667</ele><time>2026-04-24T09:48:12Z</time></trkpt><trkpt lat="43.354686041519045" lon="5.507246773941373"><ele>393.33333333333337</ele><time>2026-04-24T09:48:16Z</time></trkpt><trkpt lat="43.35464337426981" lon="5.5073144380255314"><ele>395.0</ele><time>2026-04-24T09:48:19Z</time></trkpt><trkpt lat="43.354599364759466" lon="5.507404601035604"><ele>396.6666666666667</ele><time>2026-04-24T09:48:23Z</time></trkpt><trkpt lat="43.35457458201571" lon="5.50750992405093"><ele>398.33333333333337</ele><time>2026-04-24T09:48:26Z</time></trkpt><trkpt lat="43.354530367557054" lon="5.507573942401675"><ele>400.0</ele><time>2026-04-24T09:48:29Z</time></trkpt><trkpt lat="43.3544694867777" lon="5.507642363424531"><ele>400.00000000000006</ele><time>2026-04-24T09:48:32Z</time></trkpt><trkpt lat="43.35444968453559" lon="5.507531341307069"><ele>400.0</ele><time>2026-04-24T09:57:06Z</time></trkpt><trkpt lat="43.3544703088294" lon="5.507433256427885"><ele>400.0</ele><time>2026-04-24T09:57:11Z</time></trkpt><trkpt lat="43.354513420148926" lon="5.507353535232223"><ele>400.0</ele><time>2026-04-24T09:57:17Z</time></trkpt><trkpt lat="43.354557598017514" lon="5.507271425995404"><ele>400.0</ele><time>2026-04-24T09:57:22Z</time></trkpt><trkpt lat="43.35460389883151" lon="5.507196423438249"><ele>400.00000000000006</ele><time>2026-04-24T09:57:26Z</time></trkpt><trkpt lat="43.35464672037006" lon="5.507126040485616"><ele>400.0</ele><time>2026-04-24T09:57:30Z</time></trkpt><trkpt lat="43.354686867031575" lon="5.507058654590546"><ele>398.5714285714286</ele><time>2026-04-24T09:57:34Z</time></trkpt><trkpt lat="43.35473048518367" lon="5.50698726375118"><ele>397.14285714285717</ele><time>2026-04-24T09:57:38Z</time></trkpt><trkpt lat="43.35476984503248" lon="5.506918667724503"><ele>395.7142857142857</ele><time>2026-04-24T09:57:42Z</time></trkpt><trkpt lat="43.35482340230144" lon="5.506843175972088"><ele>394.28571428571433</ele><time>2026-04-24T09:57:47Z</time></trkpt><trkpt lat="43.35486698186206" lon="5.506764992768853"><ele>392.85714285714283</ele><time>2026-04-24T09:57:51Z</time></trkpt><trkpt lat="43.354915244929614" lon="5.506688276601008"><ele>391.42857142857144</ele><time>2026-04-24T09:57:54Z</time></trkpt><trkpt lat="43.35495028273442" lon="5.5066005585489135"><ele>390.0</ele><time>2026-04-24T09:57:58Z</time></trkpt><trkpt lat="43.35493714049554" lon="5.506509413803957"><ele>390.0</ele><time>2026-04-24T09:58:03Z</time></trkpt><trkpt lat="43.35486995534642" lon="5.506517185808914"><ele>390.0</ele><time>2026-04-24T09:58:08Z</time></trkpt><trkpt lat="43.35480830098368" lon="5.506570734766583"><ele>390.0</ele><time>2026-04-24T09:58:13Z</time></trkpt><trkpt lat="43.354748288714845" lon="5.506612120388609"><ele>390.0</ele><time>2026-04-24T09:58:17Z</time></trkpt><trkpt lat="43.35468462583013" lon="5.506650514038279"><ele>390.0</ele><time>2026-04-24T09:58:21Z</time></trkpt><trkpt lat="43.354621439135556" lon="5.506676696069087"><ele>390.0</ele><time>2026-04-24T09:58:25Z</time></trkpt><trkpt lat="43.3545531361045" lon="5.50670701205749"><ele>390.0</ele><time>2026-04-24T09:58:30Z</time></trkpt><trkpt lat="43.354491668738675" lon="5.506733885611488"><ele>392.0</ele><time>2026-04-24T09:58:34Z</time></trkpt><trkpt lat="43.35441635614599" lon="5.506767942375444"><ele>394.0</ele><time>2026-04-24T09:58:39Z</time></trkpt><trkpt lat="43.35435187506501" lon="5.506796035001584"><ele>396.0</ele><time>2026-04-24T09:58:43Z</time></trkpt><trkpt lat="43.35428492590669" lon="5.506834152492956"><ele>398.0</ele><time>2026-04-24T09:58:47Z</time></trkpt><trkpt lat="43.35422266806654" lon="5.506853282076902"><ele>400.0</ele><time>2026-04-24T09:58:50.999Z</time></trkpt><trkpt lat="43.354161891105576" lon="5.5068914516559095"><ele>402.0</ele><time>2026-04-24T09:58:55.999Z</time></trkpt><trkpt lat="43.35409730671626" lon="5.506945719253168"><ele>404.0</ele><time>2026-04-24T09:58:59.999Z</time></trkpt><trkpt lat="43.35404078435079" lon="5.5070246942227605"><ele>403.42857142857144</ele><time>2026-04-24T09:59:04.999Z</time></trkpt><trkpt lat="43.35400026505421" lon="5.507097881276216"><ele>402.85714285714283</ele><time>2026-04-24T09:59:08.999Z</time></trkpt><trkpt lat="43.35397010261927" lon="5.5071775363953135"><ele>402.28571428571433</ele><time>2026-04-24T09:59:12.999Z</time></trkpt><trkpt lat="43.35394273545542" lon="5.5072602790419785"><ele>401.7142857142857</ele><time>2026-04-24T09:59:16.999Z</time></trkpt><trkpt lat="43.35391965724038" lon="5.50736283596802"><ele>401.14285714285717</ele><time>2026-04-24T09:59:21Z</time></trkpt><trkpt lat="43.35390439678065" lon="5.507453921823411"><ele>400.5714285714286</ele><time>2026-04-24T09:59:25Z</time></trkpt><trkpt lat="43.35388933483968" lon="5.507547346210838"><ele>400.0</ele><time>2026-04-24T09:59:29Z</time></trkpt><trkpt lat="43.35388132464165" lon="5.507637030304668"><ele>400.00000000000006</ele><time>2026-04-24T09:59:32Z</time></trkpt><trkpt lat="43.35387213812892" lon="5.507731099432"><ele>400.0</ele><time>2026-04-24T09:59:35Z</time></trkpt><trkpt lat="43.353858464320666" lon="5.507837064777609"><ele>400.0</ele><time>2026-04-24T09:59:39Z</time></trkpt><trkpt lat="43.35385120357655" lon="5.507942143316088"><ele>400.0</ele><time>2026-04-24T09:59:43Z</time></trkpt><trkpt lat="43.35384350090098" lon="5.508043402487125"><ele>400.0</ele><time>2026-04-24T09:59:47Z</time></trkpt><trkpt lat="43.35383689299417" lon="5.508140137263921"><ele>400.00000000000006</ele><time>2026-04-24T09:59:51Z</time></trkpt><trkpt lat="43.35382969105926" lon="5.508247857386199"><ele>400.0</ele><time>2026-04-24T09:59:55Z</time></trkpt><trkpt lat="43.353828640214566" lon="5.508351065353218"><ele>399.50000000000006</ele><time>2026-04-24T09:59:59Z</time></trkpt><trkpt lat="43.35384645289143" lon="5.508462567064384"><ele>399.0</ele><time>2026-04-24T10:00:03Z</time></trkpt><trkpt lat="43.35386525292871" lon="5.508575653172908"><ele>398.5</ele><time>2026-04-24T10:00:07Z</time></trkpt><trkpt lat="43.35388140169511" lon="5.508676059738757"><ele>398.0</ele><time>2026-04-24T10:00:10Z</time></trkpt><trkpt lat="43.35390301395567" lon="5.508789714496805"><ele>397.50000000000006</ele><time>2026-04-24T10:00:13Z</time></trkpt><trkpt lat="43.35390133929025" lon="5.508876844477807"><ele>397.0</ele><time>2026-04-24T10:00:15Z</time></trkpt><trkpt lat="43.353908570113646" lon="5.508994433063628"><ele>398.00000000000006</ele><time>2026-04-24T10:00:18Z</time></trkpt><trkpt lat="43.35389811677324" lon="5.50909349973053"><ele>399.0</ele><time>2026-04-24T10:00:21Z</time></trkpt><trkpt lat="43.35390667376935" lon="5.509214695877816"><ele>400.0</ele><time>2026-04-24T10:00:24Z</time></trkpt><trkpt lat="43.3538964905614" lon="5.509340171531307"><ele>401.0</ele><time>2026-04-24T10:00:27Z</time></trkpt><trkpt lat="43.35389434174173" lon="5.509469692433163"><ele>402.00000000000006</ele><time>2026-04-24T10:00:30Z</time></trkpt><trkpt lat="43.353886233575864" lon="5.509564372260114"><ele>403.0</ele><time>2026-04-24T10:00:32Z</time></trkpt><trkpt lat="43.35387500755106" lon="5.509666369273051"><ele>403.00000000000006</ele><time>2026-04-24T10:00:34Z</time></trkpt><trkpt lat="43.35387807670876" lon="5.509770513536903"><ele>403.0</ele><time>2026-04-24T10:00:36Z</time></trkpt><trkpt lat="43.35388580672568" lon="5.50989572436455"><ele>403.0</ele><time>2026-04-24T10:00:38Z</time></trkpt><trkpt lat="43.35389085526576" lon="5.510018228544434"><ele>403.0</ele><time>2026-04-24T10:00:40Z</time></trkpt><trkpt lat="43.35389059945124" lon="5.510145839842758"><ele>403.00000000000006</ele><time>2026-04-24T10:00:42Z</time></trkpt><trkpt lat="43.35387942614082" lon="5.5102732273428545"><ele>403.0</ele><time>2026-04-24T10:00:44Z</time></trkpt><trkpt lat="43.35386447289326" lon="5.510392055966549"><ele>404.2857142857143</ele><time>2026-04-24T10:00:46Z</time></trkpt><trkpt lat="43.35384811154283" lon="5.5105072331884335"><ele>405.57142857142856</ele><time>2026-04-24T10:00:48Z</time></trkpt><trkpt lat="43.35383281107756" lon="5.510605848601807"><ele>406.85714285714283</ele><time>2026-04-24T10:00:50Z</time></trkpt><trkpt lat="43.35380673145801" lon="5.510700489229562"><ele>408.1428571428571</ele><time>2026-04-24T10:00:52Z</time></trkpt><trkpt lat="43.353786864252214" lon="5.510798509688724"><ele>409.42857142857144</ele><time>2026-04-24T10:00:54Z</time></trkpt><trkpt lat="43.35376951815964" lon="5.510893488932884"><ele>410.71428571428567</ele><time>2026-04-24T10:00:56Z</time></trkpt><trkpt lat="43.35373842276049" lon="5.510980725657602"><ele>412.0</ele><time>2026-04-24T10:00:58Z</time></trkpt><trkpt lat="43.35370874780492" lon="5.5110591567120775"><ele>412.00000000000006</ele><time>2026-04-24T10:01:00Z</time></trkpt><trkpt lat="43.35369661975357" lon="5.511166132389419"><ele>412.0</ele><time>2026-04-24T10:01:03Z</time></trkpt><trkpt lat="43.3537486791869" lon="5.511254304699336"><ele>412.0</ele><time>2026-04-24T10:01:06Z</time></trkpt><trkpt lat="43.35381447287208" lon="5.511331655845064"><ele>412.0</ele><time>2026-04-24T10:01:09Z</time></trkpt><trkpt lat="43.353852386506496" lon="5.51141708754121"><ele>412.00000000000006</ele><time>2026-04-24T10:01:12Z</time></trkpt><trkpt lat="43.35389577899626" lon="5.511508515805957"><ele>412.0</ele><time>2026-04-24T10:01:16Z</time></trkpt><trkpt lat="43.353937451069406" lon="5.511593602869981"><ele>413.57142857142856</ele><time>2026-04-24T10:01:20Z</time></trkpt><trkpt lat="43.353987048852815" lon="5.511649434470639"><ele>415.1428571428571</ele><time>2026-04-24T10:01:23.999Z</time></trkpt><trkpt lat="43.35403828000137" lon="5.51170611094774"><ele>416.71428571428567</ele><time>2026-04-24T10:01:28Z</time></trkpt><trkpt lat="43.35409067999954" lon="5.511760444427924"><ele>418.2857142857143</ele><time>2026-04-24T10:01:32Z</time></trkpt><trkpt lat="43.35415147530511" lon="5.511802183593894"><ele>419.8571428571429</ele><time>2026-04-24T10:01:36Z</time></trkpt><trkpt lat="43.35421226600276" lon="5.511838792550608"><ele>421.4285714285714</ele><time>2026-04-24T10:01:40Z</time></trkpt><trkpt lat="43.354277001523315" lon="5.511854554431484"><ele>423.0</ele><time>2026-04-24T10:01:44Z</time></trkpt><trkpt lat="43.354353734410765" lon="5.511874233486632"><ele>423.0</ele><time>2026-04-24T10:01:49Z</time></trkpt><trkpt lat="43.35441633538366" lon="5.511888740764146"><ele>423.0</ele><time>2026-04-24T10:01:53Z</time></trkpt><trkpt lat="43.354490754152074" lon="5.511899805356313"><ele>423.0</ele><time>2026-04-24T10:01:58Z</time></trkpt><trkpt lat="43.35456319049631" lon="5.511921619004935"><ele>423.0</ele><time>2026-04-24T10:02:03Z</time></trkpt><trkpt lat="43.3546288203771" lon="5.511936502414873"><ele>423.0</ele><time>2026-04-24T10:02:08Z</time></trkpt><trkpt lat="43.3546908115282" lon="5.511957233572685"><ele>423.0</ele><time>2026-04-24T10:02:13Z</time></trkpt><trkpt lat="43.35475037838274" lon="5.511997616012131"><ele>423.0</ele><time>2026-04-24T10:02:18Z</time></trkpt><trkpt lat="43.35481319803274" lon="5.512047725008801"><ele>424.57142857142856</ele><time>2026-04-24T10:02:23Z</time></trkpt><trkpt lat="43.35486217248012" lon="5.5121045331185625"><ele>426.14285714285717</ele><time>2026-04-24T10:02:28Z</time></trkpt><trkpt lat="43.35489343030593" lon="5.512191056937658"><ele>427.7142857142857</ele><time>2026-04-24T10:02:33Z</time></trkpt><trkpt lat="43.35491127172437" lon="5.512291678751518"><ele>429.2857142857143</ele><time>2026-04-24T10:02:38Z</time></trkpt><trkpt lat="43.354907622230186" lon="5.512386906575297"><ele>430.8571428571429</ele><time>2026-04-24T10:02:43Z</time></trkpt><trkpt lat="43.35488303652571" lon="5.512484557434032"><ele>432.42857142857144</ele><time>2026-04-24T10:02:48Z</time></trkpt><trkpt lat="43.35486363334236" lon="5.512569505182542"><ele>434.0</ele><time>2026-04-24T10:02:53Z</time></trkpt><trkpt lat="43.354850925266085" lon="5.512656433872832"><ele>434.0</ele><time>2026-04-24T10:02:58Z</time></trkpt><trkpt lat="43.354850328404204" lon="5.512751741921086"><ele>434.0</ele><time>2026-04-24T10:03:02Z</time></trkpt><trkpt lat="43.35484784137151" lon="5.512844951773679"><ele>434.0</ele><time>2026-04-24T10:03:07Z</time></trkpt><trkpt lat="43.35485389005366" lon="5.512931404947189"><ele>434.0</ele><time>2026-04-24T10:03:11Z</time></trkpt><trkpt lat="43.35486822041651" lon="5.5130201193662165"><ele>434.0</ele><time>2026-04-24T10:03:15Z</time></trkpt><trkpt lat="43.35488372635912" lon="5.5131232301404705"><ele>434.0</ele><time>2026-04-24T10:03:19Z</time></trkpt><trkpt lat="43.35490504122425" lon="5.51322396055701"><ele>434.0</ele><time>2026-04-24T10:03:22.999Z</time></trkpt><trkpt lat="43.35492702207653" lon="5.513318717337237"><ele>434.85714285714283</ele><time>2026-04-24T10:03:26.999Z</time></trkpt><trkpt lat="43.354952392013914" lon="5.5134076069282605"><ele>435.7142857142857</ele><time>2026-04-24T10:03:30.999Z</time></trkpt><trkpt lat="43.354970409823146" lon="5.5135010892497665"><ele>436.57142857142856</ele><time>2026-04-24T10:03:35Z</time></trkpt><trkpt lat="43.35498953286421" lon="5.513594662535632"><ele>437.42857142857144</ele><time>2026-04-24T10:03:39Z</time></trkpt><trkpt lat="43.3550184772969" lon="5.513690224298522"><ele>438.2857142857143</ele><time>2026-04-24T10:03:43Z</time></trkpt><trkpt lat="43.35503821121511" lon="5.513787026848169"><ele>439.1428571428571</ele><time>2026-04-24T10:03:47Z</time></trkpt><trkpt lat="43.355060305151596" lon="5.5138788003004615"><ele>440.0</ele><time>2026-04-24T10:03:51Z</time></trkpt><trkpt lat="43.35507919136266" lon="5.513983984231039"><ele>440.57142857142856</ele><time>2026-04-24T10:03:55Z</time></trkpt><trkpt lat="43.35508132429936" lon="5.514091199690683"><ele>441.1428571428571</ele><time>2026-04-24T10:03:59Z</time></trkpt><trkpt lat="43.35506796874999" lon="5.514187786654602"><ele>441.71428571428567</ele><time>2026-04-24T10:04:03Z</time></trkpt><trkpt lat="43.35503661274579" lon="5.514294542441207"><ele>442.2857142857143</ele><time>2026-04-24T10:04:07Z</time></trkpt><trkpt lat="43.35499483453059" lon="5.514369907044367"><ele>442.8571428571429</ele><time>2026-04-24T10:04:10Z</time></trkpt><trkpt lat="43.3549582038444" lon="5.514441024191447"><ele>443.4285714285714</ele><time>2026-04-24T10:04:12Z</time></trkpt><trkpt lat="43.3549150860092" lon="5.514515641693309"><ele>444.0</ele><time>2026-04-24T10:04:14Z</time></trkpt><trkpt lat="43.35487173648045" lon="5.514586552250849"><ele>445.57142857142856</ele><time>2026-04-24T10:04:16Z</time></trkpt><trkpt lat="43.35483684732669" lon="5.514659500026224"><ele>447.14285714285717</ele><time>2026-04-24T10:04:18Z</time></trkpt><trkpt lat="43.3547976289857" lon="5.51473215995052"><ele>448.7142857142857</ele><time>2026-04-24T10:04:20Z</time></trkpt><trkpt lat="43.35475893134185" lon="5.514803913609731"><ele>450.2857142857143</ele><time>2026-04-24T10:04:22Z</time></trkpt><trkpt lat="43.354718468279394" lon="5.514877629206537"><ele>451.8571428571429</ele><time>2026-04-24T10:04:24Z</time></trkpt><trkpt lat="43.354676051190594" lon="5.514949515225089"><ele>453.42857142857144</ele><time>2026-04-24T10:04:26Z</time></trkpt><trkpt lat="43.354631006530504" lon="5.515022693719721"><ele>455.0</ele><time>2026-04-24T10:04:28Z</time></trkpt><trkpt lat="43.3545842555759" lon="5.515095918584955"><ele>454.99999999999994</ele><time>2026-04-24T10:04:30Z</time></trkpt><trkpt lat="43.35453468427403" lon="5.5151705278072525"><ele>455.0</ele><time>2026-04-24T10:04:32Z</time></trkpt><trkpt lat="43.35448978127138" lon="5.515252818819639"><ele>455.0</ele><time>2026-04-24T10:04:34Z</time></trkpt><trkpt lat="43.354449386875814" lon="5.515343623628737"><ele>455.0</ele><time>2026-04-24T10:04:36Z</time></trkpt><trkpt lat="43.35441781478069" lon="5.51544738407675"><ele>454.99999999999994</ele><time>2026-04-24T10:04:38Z</time></trkpt><trkpt lat="43.354392414420246" lon="5.515567279782332"><ele>455.0</ele><time>2026-04-24T10:04:40Z</time></trkpt><trkpt lat="43.35437775364296" lon="5.515709559979558"><ele>454.4</ele><time>2026-04-24T10:04:42Z</time></trkpt><trkpt lat="43.35435639419487" lon="5.51585442637178"><ele>453.8</ele><time>2026-04-24T10:04:44Z</time></trkpt><trkpt lat="43.35441694977762" lon="5.51600264282053"><ele>453.20000000000005</ele><time>2026-04-24T10:04:46Z</time></trkpt><trkpt lat="43.3544950630345" lon="5.516116950959533"><ele>452.6</ele><time>2026-04-24T10:04:48Z</time></trkpt><trkpt lat="43.354575429560725" lon="5.516195870501929"><ele>452.0</ele><time>2026-04-24T10:04:50Z</time></trkpt><trkpt lat="43.35463422141273" lon="5.516292585277273"><ele>452.0</ele><time>2026-04-24T10:04:52Z</time></trkpt><trkpt lat="43.3546932797326" lon="5.516373231717231"><ele>452.00000000000006</ele><time>2026-04-24T10:04:54Z</time></trkpt><trkpt lat="43.35475462313041" lon="5.516451607637997"><ele>452.00000000000006</ele><time>2026-04-24T10:04:55.999Z</time></trkpt><trkpt lat="43.35482416064055" lon="5.516540452907702"><ele>452.0</ele><time>2026-04-24T10:04:57.999Z</time></trkpt><trkpt lat="43.35489597094246" lon="5.516632201992813"><ele>452.0</ele><time>2026-04-24T10:04:59.999Z</time></trkpt><trkpt lat="43.354964731479214" lon="5.516730377930619"><ele>450.0</ele><time>2026-04-24T10:05:01.999Z</time></trkpt><trkpt lat="43.355032965736655" lon="5.516835644616294"><ele>448.00000000000006</ele><time>2026-04-24T10:05:03.999Z</time></trkpt><trkpt lat="43.35507261044224" lon="5.51696264734588"><ele>446.00000000000006</ele><time>2026-04-24T10:05:05.999Z</time></trkpt><trkpt lat="43.355104502730526" lon="5.517105668354524"><ele>444.0</ele><time>2026-04-24T10:05:07.999Z</time></trkpt><trkpt lat="43.355088921698126" lon="5.517254639101804"><ele>442.0</ele><time>2026-04-24T10:05:09.999Z</time></trkpt><trkpt lat="43.355065543022235" lon="5.517405439120217"><ele>442.0</ele><time>2026-04-24T10:05:11.999Z</time></trkpt><trkpt lat="43.35503195708978" lon="5.5175575061836115"><ele>442.0</ele><time>2026-04-24T10:05:13.999Z</time></trkpt><trkpt lat="43.354991474392676" lon="5.517704695608096"><ele>442.0</ele><time>2026-04-24T10:05:15.999Z</time></trkpt><trkpt lat="43.35493775341763" lon="5.517832990429985"><ele>442.0</ele><time>2026-04-24T10:05:17.999Z</time></trkpt><trkpt lat="43.35486543578466" lon="5.517955167120548"><ele>443.20000000000005</ele><time>2026-04-24T10:05:19.999Z</time></trkpt><trkpt lat="43.35477535708016" lon="5.518073591907826"><ele>444.40000000000003</ele><time>2026-04-24T10:05:21.999Z</time></trkpt><trkpt lat="43.35467217290723" lon="5.5181580925779175"><ele>445.59999999999997</ele><time>2026-04-24T10:05:23.999Z</time></trkpt><trkpt lat="43.35461933082235" lon="5.518210303162996"><ele>446.79999999999995</ele><time>2026-04-24T10:05:24.999Z</time></trkpt><trkpt lat="43.35454225693654" lon="5.5183391011691345"><ele>448.0</ele><time>2026-04-24T10:05:26.999Z</time></trkpt><trkpt lat="43.35449039777397" lon="5.518484669324673"><ele>448.0</ele><time>2026-04-24T10:05:28.999Z</time></trkpt><trkpt lat="43.35444748519082" lon="5.518618225220896"><ele>447.99999999999994</ele><time>2026-04-24T10:05:30.999Z</time></trkpt><trkpt lat="43.35440738001451" lon="5.51874051937757"><ele>447.99999999999994</ele><time>2026-04-24T10:05:32.999Z</time></trkpt><trkpt lat="43.35436066052492" lon="5.518859394366852"><ele>448.0</ele><time>2026-04-24T10:05:34.999Z</time></trkpt><trkpt lat="43.354283153978244" lon="5.518951232124812"><ele>448.0</ele><time>2026-04-24T10:05:36.999Z</time></trkpt><trkpt lat="43.354214149944056" lon="5.5190432013559025"><ele>446.83333333333337</ele><time>2026-04-24T10:05:39Z</time></trkpt><trkpt lat="43.35415166879463" lon="5.519134456267043"><ele>445.6666666666667</ele><time>2026-04-24T10:05:41Z</time></trkpt><trkpt lat="43.35409586215395" lon="5.519231702561278"><ele>444.5</ele><time>2026-04-24T10:05:43Z</time></trkpt><trkpt lat="43.35404942036377" lon="5.51932573331367"><ele>443.33333333333337</ele><time>2026-04-24T10:05:45Z</time></trkpt><trkpt lat="43.35400981367535" lon="5.519419434558886"><ele>442.1666666666667</ele><time>2026-04-24T10:05:47Z</time></trkpt><trkpt lat="43.35397314373065" lon="5.519526050107024"><ele>441.0</ele><time>2026-04-24T10:05:49Z</time></trkpt><trkpt lat="43.3539433067815" lon="5.51964982614274"><ele>440.6</ele><time>2026-04-24T10:05:51Z</time></trkpt><trkpt lat="43.35393037371911" lon="5.519772482452259"><ele>440.20000000000005</ele><time>2026-04-24T10:05:53Z</time></trkpt><trkpt lat="43.353918262559084" lon="5.51989177381952"><ele>439.79999999999995</ele><time>2026-04-24T10:05:55Z</time></trkpt><trkpt lat="43.35389981274961" lon="5.520013347516053"><ele>439.4</ele><time>2026-04-24T10:05:57Z</time></trkpt><trkpt lat="43.353865404955656" lon="5.5201354057144885"><ele>439.0</ele><time>2026-04-24T10:05:59Z</time></trkpt><trkpt lat="43.35376884874584" lon="5.520169129051551"><ele>439.00000000000006</ele><time>2026-04-24T10:06:01Z</time></trkpt><trkpt lat="43.353677505403844" lon="5.520174481412446"><ele>439.0</ele><time>2026-04-24T10:06:03Z</time></trkpt><trkpt lat="43.35358768495647" lon="5.520145359995199"><ele>439.0</ele><time>2026-04-24T10:06:05Z</time></trkpt><trkpt lat="43.3535045845158" lon="5.520115083828677"><ele>439.0</ele><time>2026-04-24T10:06:07Z</time></trkpt><trkpt lat="43.35341719912987" lon="5.5200826856190455"><ele>439.00000000000006</ele><time>2026-04-24T10:06:09Z</time></trkpt><trkpt lat="43.35333065830175" lon="5.5200722058112355"><ele>439.0</ele><time>2026-04-24T10:06:11Z</time></trkpt><trkpt lat="43.35324555156122" lon="5.520029402674639"><ele>439.0</ele><time>2026-04-24T10:06:13Z</time></trkpt><trkpt lat="43.35315257459801" lon="5.5200482291376005"><ele>439.0</ele><time>2026-04-24T10:06:15Z</time></trkpt><trkpt lat="43.353057449717795" lon="5.520060471805177"><ele>439.0</ele><time>2026-04-24T10:06:17Z</time></trkpt><trkpt lat="43.35295993880205" lon="5.520093320702539"><ele>439.0</ele><time>2026-04-24T10:06:19Z</time></trkpt><trkpt lat="43.3528585468217" lon="5.520138646131077"><ele>439.0</ele><time>2026-04-24T10:06:21Z</time></trkpt><trkpt lat="43.35277177876475" lon="5.520146812119383"><ele>438.33333333333337</ele><time>2026-04-24T10:06:23Z</time></trkpt><trkpt lat="43.35270439041842" lon="5.520153915113634"><ele>437.6666666666667</ele><time>2026-04-24T10:06:25Z</time></trkpt><trkpt lat="43.35261649635784" lon="5.5201471992901014"><ele>437.0</ele><time>2026-04-24T10:06:28Z</time></trkpt><trkpt lat="43.35253347551742" lon="5.520124384578442"><ele>436.33333333333337</ele><time>2026-04-24T10:06:31Z</time></trkpt><trkpt lat="43.35245298962288" lon="5.520121523909249"><ele>435.6666666666667</ele><time>2026-04-24T10:06:34Z</time></trkpt><trkpt lat="43.35237044280118" lon="5.520108361773587"><ele>435.0</ele><time>2026-04-24T10:06:37Z</time></trkpt><trkpt lat="43.35228149599177" lon="5.520107304478407"><ele>436.0</ele><time>2026-04-24T10:06:40Z</time></trkpt><trkpt lat="43.352199020696396" lon="5.520157680427662"><ele>437.0</ele><time>2026-04-24T10:06:43Z</time></trkpt><trkpt lat="43.35213772947259" lon="5.520188383572386"><ele>438.0</ele><time>2026-04-24T10:06:45Z</time></trkpt><trkpt lat="43.35206714715015" lon="5.520265660475442"><ele>439.0</ele><time>2026-04-24T10:06:47.999Z</time></trkpt><trkpt lat="43.3519995565801" lon="5.520337697683226"><ele>440.0</ele><time>2026-04-24T10:06:50.999Z</time></trkpt><trkpt lat="43.35193912289111" lon="5.52041656935879"><ele>441.0</ele><time>2026-04-24T10:06:53.999Z</time></trkpt><trkpt lat="43.35186227649752" lon="5.52044629440033"><ele>441.0</ele><time>2026-04-24T10:06:56.999Z</time></trkpt><trkpt lat="43.351801665631235" lon="5.520364844341328"><ele>441.0</ele><time>2026-04-24T10:06:59.999Z</time></trkpt><trkpt lat="43.35179790173685" lon="5.520256304655276"><ele>441.0</ele><time>2026-04-24T10:07:02.999Z</time></trkpt><trkpt lat="43.35177108866459" lon="5.520132291951819"><ele>441.0</ele><time>2026-04-24T10:07:05.999Z</time></trkpt><trkpt lat="43.35173538375875" lon="5.520053741226479"><ele>441.0</ele><time>2026-04-24T10:07:07.999Z</time></trkpt><trkpt lat="43.351689658211974" lon="5.5199851115083645"><ele>441.0</ele><time>2026-04-24T10:07:09.999Z</time></trkpt><trkpt lat="43.35163297128309" lon="5.519925234473231"><ele>441.0</ele><time>2026-04-24T10:07:11.999Z</time></trkpt><trkpt lat="43.35158159686083" lon="5.51985870729101"><ele>441.0</ele><time>2026-04-24T10:07:13.999Z</time></trkpt><trkpt lat="43.35152576082783" lon="5.519793948699645"><ele>441.0</ele><time>2026-04-24T10:07:15.999Z</time></trkpt><trkpt lat="43.351461617985656" lon="5.51974552158403"><ele>441.0</ele><time>2026-04-24T10:07:17.999Z</time></trkpt><trkpt lat="43.35140025832901" lon="5.519683781064404"><ele>441.0</ele><time>2026-04-24T10:07:19.999Z</time></trkpt><trkpt lat="43.35134029787326" lon="5.51960769344387"><ele>441.0</ele><time>2026-04-24T10:07:21.999Z</time></trkpt><trkpt lat="43.35129028571101" lon="5.5195159918896355"><ele>439.8333333333333</ele><time>2026-04-24T10:07:23.999Z</time></trkpt><trkpt lat="43.3512366424407" lon="5.51942539126551"><ele>438.66666666666663</ele><time>2026-04-24T10:07:25.999Z</time></trkpt><trkpt lat="43.35117726999548" lon="5.519341017695402"><ele>437.5</ele><time>2026-04-24T10:07:27.999Z</time></trkpt><trkpt lat="43.35111977965952" lon="5.519257743176204"><ele>436.3333333333333</ele><time>2026-04-24T10:07:29.999Z</time></trkpt><trkpt lat="43.35105400829567" lon="5.519191421038683"><ele>435.16666666666663</ele><time>2026-04-24T10:07:31.999Z</time></trkpt><trkpt lat="43.35098560854885" lon="5.519134696703908"><ele>434.0</ele><time>2026-04-24T10:07:33.999Z</time></trkpt><trkpt lat="43.350911585859905" lon="5.5190827527546125"><ele>434.0</ele><time>2026-04-24T10:07:35.999Z</time></trkpt><trkpt lat="43.35082383874829" lon="5.5190695955989515"><ele>434.0</ele><time>2026-04-24T10:07:37.999Z</time></trkpt><trkpt lat="43.350731079180214" lon="5.519077954358256"><ele>434.0</ele><time>2026-04-24T10:07:39.999Z</time></trkpt><trkpt lat="43.3506343881139" lon="5.519108183800764"><ele>434.0</ele><time>2026-04-24T10:07:41.999Z</time></trkpt><trkpt lat="43.35053640002453" lon="5.519133167144282"><ele>434.0</ele><time>2026-04-24T10:07:43.999Z</time></trkpt><trkpt lat="43.35043153194524" lon="5.519140741624952"><ele>432.8333333333333</ele><time>2026-04-24T10:07:46Z</time></trkpt><trkpt lat="43.35032041302923" lon="5.51916463794849"><ele>431.66666666666663</ele><time>2026-04-24T10:07:48Z</time></trkpt><trkpt lat="43.350207325954486" lon="5.519222317698304"><ele>430.5</ele><time>2026-04-24T10:07:50Z</time></trkpt><trkpt lat="43.350147868180706" lon="5.51925607203317"><ele>429.33333333333337</ele><time>2026-04-24T10:07:51Z</time></trkpt><trkpt lat="43.35008190852513" lon="5.519254126965878"><ele>428.1666666666667</ele><time>2026-04-24T10:07:52Z</time></trkpt><trkpt lat="43.35002005886876" lon="5.519294295435242"><ele>427.0</ele><time>2026-04-24T10:07:53Z</time></trkpt><trkpt lat="43.34995470240802" lon="5.5193109482223806"><ele>427.0</ele><time>2026-04-24T10:07:54Z</time></trkpt><trkpt lat="43.34989150457866" lon="5.519329133134654"><ele>427.0</ele><time>2026-04-24T10:07:55Z</time></trkpt><trkpt lat="43.349825976830886" lon="5.519349007087573"><ele>427.0</ele><time>2026-04-24T10:07:56Z</time></trkpt><trkpt lat="43.34976408811973" lon="5.519375102463359"><ele>427.0</ele><time>2026-04-24T10:07:57Z</time></trkpt><trkpt lat="43.34970358282556" lon="5.519407037909602"><ele>427.0</ele><time>2026-04-24T10:07:58Z</time></trkpt><trkpt lat="43.34964026323074" lon="5.519436444214319"><ele>427.0</ele><time>2026-04-24T10:07:59Z</time></trkpt><trkpt lat="43.34957547828616" lon="5.519453571594462"><ele>427.0</ele><time>2026-04-24T10:08:00Z</time></trkpt><trkpt lat="43.34951928918976" lon="5.519504212852482"><ele>426.42857142857144</ele><time>2026-04-24T10:08:01Z</time></trkpt><trkpt lat="43.349457862484435" lon="5.519539678705031"><ele>425.8571428571429</ele><time>2026-04-24T10:08:02Z</time></trkpt><trkpt lat="43.349391407242614" lon="5.519550218715603"><ele>425.2857142857143</ele><time>2026-04-24T10:08:03Z</time></trkpt><trkpt lat="43.34932568093457" lon="5.519584447436152"><ele>424.7142857142857</ele><time>2026-04-24T10:08:04Z</time></trkpt><trkpt lat="43.349261930149" lon="5.519617647328145"><ele>424.14285714285717</ele><time>2026-04-24T10:08:05Z</time></trkpt><trkpt lat="43.349200655669925" lon="5.519673950063557"><ele>423.57142857142856</ele><time>2026-04-24T10:08:06Z</time></trkpt><trkpt lat="43.34913564332069" lon="5.519727806047196"><ele>423.0</ele><time>2026-04-24T10:08:07Z</time></trkpt><trkpt lat="43.34907006065496" lon="5.5197901576558115"><ele>426.1666666666667</ele><time>2026-04-24T10:08:08Z</time></trkpt><trkpt lat="43.349007545174494" lon="5.51986215572856"><ele>429.33333333333337</ele><time>2026-04-24T10:08:09Z</time></trkpt><trkpt lat="43.34895615886507" lon="5.519946535648429"><ele>432.5</ele><time>2026-04-24T10:08:10Z</time></trkpt><trkpt lat="43.34890320245049" lon="5.520036178540434"><ele>435.6666666666667</ele><time>2026-04-24T10:08:11Z</time></trkpt><trkpt lat="43.34883783216761" lon="5.520097493676732"><ele>438.83333333333337</ele><time>2026-04-24T10:08:12Z</time></trkpt><trkpt lat="43.348777765161685" lon="5.5201724052213885"><ele>442.0</ele><time>2026-04-24T10:08:13Z</time></trkpt><trkpt lat="43.34872354267964" lon="5.520260803842608"><ele>442.50000000000006</ele><time>2026-04-24T10:08:14Z</time></trkpt><trkpt lat="43.34865150416252" lon="5.520316134707323"><ele>443.0</ele><time>2026-04-24T10:08:15Z</time></trkpt><trkpt lat="43.348596126766196" lon="5.520381214834146"><ele>443.5</ele><time>2026-04-24T10:08:16Z</time></trkpt><trkpt lat="43.348511820286866" lon="5.520414406267527"><ele>444.0</ele><time>2026-04-24T10:08:18Z</time></trkpt><trkpt lat="43.34847956198016" lon="5.520323870598667"><ele>444.50000000000006</ele><time>2026-04-24T10:08:20Z</time></trkpt><trkpt lat="43.34848662693948" lon="5.5202165628498046"><ele>445.0</ele><time>2026-04-24T10:08:22Z</time></trkpt><trkpt lat="43.348500313255755" lon="5.520088858155683"><ele>445.00000000000006</ele><time>2026-04-24T10:08:24Z</time></trkpt><trkpt lat="43.3485390430472" lon="5.519994245710033"><ele>445.0</ele><time>2026-04-24T10:08:27Z</time></trkpt><trkpt lat="43.3485550093341" lon="5.519900711477365"><ele>445.0</ele><time>2026-04-24T10:08:29Z</time></trkpt><trkpt lat="43.34855895477601" lon="5.51981342023359"><ele>445.0</ele><time>2026-04-24T10:08:31Z</time></trkpt><trkpt lat="43.348545860050436" lon="5.519725815386248"><ele>445.00000000000006</ele><time>2026-04-24T10:08:33Z</time></trkpt><trkpt lat="43.34853884810967" lon="5.519601205060099"><ele>445.0</ele><time>2026-04-24T10:08:36Z</time></trkpt><trkpt lat="43.348536206981706" lon="5.5194773750583686"><ele>446.33333333333337</ele><time>2026-04-24T10:08:39Z</time></trkpt><trkpt lat="43.348535856422956" lon="5.5193801204855655"><ele>447.6666666666667</ele><time>2026-04-24T10:08:41Z</time></trkpt><trkpt lat="43.34854034291413" lon="5.519284977086344"><ele>449.0</ele><time>2026-04-24T10:08:43Z</time></trkpt><trkpt lat="43.348550770395114" lon="5.519180523517328"><ele>450.33333333333337</ele><time>2026-04-24T10:08:45Z</time></trkpt><trkpt lat="43.34856669716353" lon="5.519081547003409"><ele>451.6666666666667</ele><time>2026-04-24T10:08:47Z</time></trkpt><trkpt lat="43.34860104603676" lon="5.518972523685496"><ele>453.0</ele><time>2026-04-24T10:08:49Z</time></trkpt><trkpt lat="43.34862646819901" lon="5.518866717276671"><ele>453.0</ele><time>2026-04-24T10:08:51Z</time></trkpt><trkpt lat="43.348657673063805" lon="5.518762050268431"><ele>453.0</ele><time>2026-04-24T10:08:53Z</time></trkpt><trkpt lat="43.3486988130354" lon="5.518663583176278"><ele>453.0</ele><time>2026-04-24T10:08:55Z</time></trkpt><trkpt lat="43.34874271797103" lon="5.518565400953585"><ele>453.0</ele><time>2026-04-24T10:08:56.999Z</time></trkpt><trkpt lat="43.34878554103418" lon="5.518466610250782"><ele>453.0</ele><time>2026-04-24T10:08:58.999Z</time></trkpt><trkpt lat="43.34884399373263" lon="5.5183755491397415"><ele>453.0</ele><time>2026-04-24T10:09:00.999Z</time></trkpt><trkpt lat="43.34890025475206" lon="5.518273146704862"><ele>448.4</ele><time>2026-04-24T10:09:02.999Z</time></trkpt><trkpt lat="43.34895458146839" lon="5.518182662576855"><ele>443.79999999999995</ele><time>2026-04-24T10:09:04.999Z</time></trkpt><trkpt lat="43.348992726217" lon="5.518097554351537"><ele>439.2</ele><time>2026-04-24T10:09:06.999Z</time></trkpt><trkpt lat="43.34905802556892" lon="5.518006221615141"><ele>434.6</ele><time>2026-04-24T10:09:08.999Z</time></trkpt><trkpt lat="43.349120816269554" lon="5.517879910488487"><ele>430.0</ele><time>2026-04-24T10:09:10.999Z</time></trkpt><trkpt lat="43.34918855054103" lon="5.517753846305478"><ele>430.00000000000006</ele><time>2026-04-24T10:09:12.999Z</time></trkpt><trkpt lat="43.34924864183062" lon="5.517641987899776"><ele>430.0</ele><time>2026-04-24T10:09:14.999Z</time></trkpt><trkpt lat="43.349304296953534" lon="5.517536289264227"><ele>430.0</ele><time>2026-04-24T10:09:16.999Z</time></trkpt><trkpt lat="43.349352140727355" lon="5.517443369079267"><ele>430.0</ele><time>2026-04-24T10:09:18.999Z</time></trkpt><trkpt lat="43.34938666981936" lon="5.517356681246715"><ele>430.00000000000006</ele><time>2026-04-24T10:09:20.999Z</time></trkpt><trkpt lat="43.34942110932491" lon="5.517264635341707"><ele>430.0</ele><time>2026-04-24T10:09:22.999Z</time></trkpt><trkpt lat="43.34945074338964" lon="5.517160308594143"><ele>430.8</ele><time>2026-04-24T10:09:24.999Z</time></trkpt><trkpt lat="43.34948056868329" lon="5.517058210777594"><ele>431.6</ele><time>2026-04-24T10:09:26.999Z</time></trkpt><trkpt lat="43.34948267857362" lon="5.516937772904192"><ele>432.4</ele><time>2026-04-24T10:09:28.999Z</time></trkpt><trkpt lat="43.349483336846106" lon="5.5168099239274095"><ele>433.2</ele><time>2026-04-24T10:09:30.999Z</time></trkpt><trkpt lat="43.349480904618645" lon="5.516669016170851"><ele>434.0</ele><time>2026-04-24T10:09:32.999Z</time></trkpt><trkpt lat="43.349467206206256" lon="5.516512058169485"><ele>433.99999999999994</ele><time>2026-04-24T10:09:34.999Z</time></trkpt><trkpt lat="43.34942384959962" lon="5.5163503148881725"><ele>434.0</ele><time>2026-04-24T10:09:36.999Z</time></trkpt><trkpt lat="43.34938908062193" lon="5.516263702969743"><ele>434.0</ele><time>2026-04-24T10:09:37.999Z</time></trkpt><trkpt lat="43.34935088328831" lon="5.51617411821088"><ele>434.0</ele><time>2026-04-24T10:09:38.999Z</time></trkpt><trkpt lat="43.349313056309384" lon="5.516091713399091"><ele>433.99999999999994</ele><time>2026-04-24T10:09:39.999Z</time></trkpt><trkpt lat="43.34926862116062" lon="5.516000836536312"><ele>434.0</ele><time>2026-04-24T10:09:40.999Z</time></trkpt><trkpt lat="43.349217703885785" lon="5.515909974233968"><ele>430.4</ele><time>2026-04-24T10:09:41.999Z</time></trkpt><trkpt lat="43.349179997102965" lon="5.515807947993326"><ele>426.79999999999995</ele><time>2026-04-24T10:09:42.999Z</time></trkpt><trkpt lat="43.34912318035794" lon="5.515710535567283"><ele>423.20000000000005</ele><time>2026-04-24T10:09:43.999Z</time></trkpt><trkpt lat="43.34905877502401" lon="5.515611514298025"><ele>419.6</ele><time>2026-04-24T10:09:44.999Z</time></trkpt><trkpt lat="43.34897448439187" lon="5.515524152963787"><ele>416.0</ele><time>2026-04-24T10:09:45.999Z</time></trkpt><trkpt lat="43.34891045139686" lon="5.515409353814614"><ele>417.0</ele><time>2026-04-24T10:09:46.999Z</time></trkpt><trkpt lat="43.34881910232157" lon="5.515327699370032"><ele>418.0</ele><time>2026-04-24T10:09:47.999Z</time></trkpt><trkpt lat="43.34873736510365" lon="5.515233348143555"><ele>419.0</ele><time>2026-04-24T10:09:48.999Z</time></trkpt><trkpt lat="43.34867097981224" lon="5.515115615622026"><ele>420.0</ele><time>2026-04-24T10:09:49.999Z</time></trkpt><trkpt lat="43.348594273730654" lon="5.515005849058007"><ele>421.0</ele><time>2026-04-24T10:09:51Z</time></trkpt><trkpt lat="43.3484996224658" lon="5.514897074781476"><ele>421.0</ele><time>2026-04-24T10:09:52Z</time></trkpt><trkpt lat="43.3484431090931" lon="5.51476214286819"><ele>421.0</ele><time>2026-04-24T10:09:53Z</time></trkpt><trkpt lat="43.34839741783204" lon="5.514624916287688"><ele>421.0</ele><time>2026-04-24T10:09:54Z</time></trkpt><trkpt lat="43.348350783997006" lon="5.514477830835049"><ele>421.0</ele><time>2026-04-24T10:09:55Z</time></trkpt><trkpt lat="43.34830170042367" lon="5.514326781301815"><ele>416.8</ele><time>2026-04-24T10:09:56Z</time></trkpt><trkpt lat="43.348250925825106" lon="5.51419456138087"><ele>412.6</ele><time>2026-04-24T10:09:57Z</time></trkpt><trkpt lat="43.348222575849796" lon="5.514063932191457"><ele>408.4</ele><time>2026-04-24T10:09:58Z</time></trkpt><trkpt lat="43.348201966778404" lon="5.513950880821289"><ele>404.2</ele><time>2026-04-24T10:09:59Z</time></trkpt><trkpt lat="43.34818200677608" lon="5.513864657829472"><ele>400.0</ele><time>2026-04-24T10:10:00Z</time></trkpt><trkpt lat="43.348087816288924" lon="5.51373430818939"><ele>398.1666666666667</ele><time>2026-04-24T10:10:02Z</time></trkpt><trkpt lat="43.34801722921627" lon="5.513713480759246"><ele>396.33333333333337</ele><time>2026-04-24T10:10:03Z</time></trkpt><trkpt lat="43.347944629726" lon="5.513722029605159"><ele>394.5</ele><time>2026-04-24T10:10:04Z</time></trkpt><trkpt lat="43.34787104763449" lon="5.513749635116952"><ele>392.66666666666663</ele><time>2026-04-24T10:10:05Z</time></trkpt><trkpt lat="43.34779628374715" lon="5.513779992744518"><ele>390.8333333333333</ele><time>2026-04-24T10:10:06Z</time></trkpt><trkpt lat="43.34770938071062" lon="5.513780679475956"><ele>389.0</ele><time>2026-04-24T10:10:07Z</time></trkpt><trkpt lat="43.34762652219094" lon="5.5138009912084565"><ele>388.99999999999994</ele><time>2026-04-24T10:10:08Z</time></trkpt><trkpt lat="43.34754818741783" lon="5.513812849311902"><ele>389.0</ele><time>2026-04-24T10:10:09Z</time></trkpt><trkpt lat="43.347474426379065" lon="5.51375016269459"><ele>389.0</ele><time>2026-04-24T10:10:10Z</time></trkpt><trkpt lat="43.34745206918324" lon="5.513651648768381"><ele>389.0</ele><time>2026-04-24T10:10:11Z</time></trkpt><trkpt lat="43.347434284663315" lon="5.5135434848859"><ele>388.99999999999994</ele><time>2026-04-24T10:10:12Z</time></trkpt><trkpt lat="43.347394561494404" lon="5.513428558567358"><ele>389.0</ele><time>2026-04-24T10:10:13Z</time></trkpt><trkpt lat="43.34734746133758" lon="5.513308829933538"><ele>389.0</ele><time>2026-04-24T10:10:14Z</time></trkpt><trkpt lat="43.34728020791489" lon="5.51319096063436"><ele>389.0</ele><time>2026-04-24T10:10:15Z</time></trkpt><trkpt lat="43.347214957707386" lon="5.513074510400952"><ele>389.0</ele><time>2026-04-24T10:10:16Z</time></trkpt><trkpt lat="43.347147346910035" lon="5.512949067592267"><ele>389.0</ele><time>2026-04-24T10:10:17Z</time></trkpt><trkpt lat="43.34708237895196" lon="5.51284006693462"><ele>389.0</ele><time>2026-04-24T10:10:18Z</time></trkpt><trkpt lat="43.34700507420243" lon="5.512716996882933"><ele>388.99999999999994</ele><time>2026-04-24T10:10:19Z</time></trkpt><trkpt lat="43.34692320112005" lon="5.512586511718491"><ele>389.0</ele><time>2026-04-24T10:10:20Z</time></trkpt><trkpt lat="43.346836268422905" lon="5.512510717706724"><ele>389.0</ele><time>2026-04-24T10:10:21Z</time></trkpt><trkpt lat="43.34676881119835" lon="5.512463138546004"><ele>389.0</ele><time>2026-04-24T10:10:22Z</time></trkpt><trkpt lat="43.34670489823937" lon="5.512459950009565"><ele>388.99999999999994</ele><time>2026-04-24T10:10:23Z</time></trkpt><trkpt lat="43.3466448408875" lon="5.512494335932369"><ele>389.0</ele><time>2026-04-24T10:10:24Z</time></trkpt><trkpt lat="43.346567507245254" lon="5.512540529205043"><ele>389.0</ele><time>2026-04-24T10:10:26Z</time></trkpt><trkpt lat="43.3465170429084" lon="5.512615665994811"><ele>389.0</ele><time>2026-04-24T10:10:29Z</time></trkpt><trkpt lat="43.34645322224573" lon="5.5126555094857"><ele>389.0</ele><time>2026-04-24T10:10:34Z</time></trkpt><trkpt lat="43.34639969167448" lon="5.512724721889152"><ele>389.0</ele><time>2026-04-24T10:10:37Z</time></trkpt><trkpt lat="43.34634791918589" lon="5.512783657444685"><ele>389.0</ele><time>2026-04-24T10:10:40Z</time></trkpt><trkpt lat="43.346300706484016" lon="5.512840986593623"><ele>389.0</ele><time>2026-04-24T10:10:43Z</time></trkpt><trkpt lat="43.346215610326794" lon="5.5128537281579595"><ele>389.0</ele><time>2026-04-24T10:10:46Z</time></trkpt><trkpt lat="43.34614602335119" lon="5.512784089165681"><ele>393.16666666666663</ele><time>2026-04-24T10:10:49Z</time></trkpt><trkpt lat="43.34615415879969" lon="5.51269726866799"><ele>397.3333333333333</ele><time>2026-04-24T10:10:51Z</time></trkpt><trkpt lat="43.346170826307066" lon="5.512581259497445"><ele>401.5</ele><time>2026-04-24T10:10:54Z</time></trkpt><trkpt lat="43.34619054001561" lon="5.51245907796695"><ele>405.66666666666663</ele><time>2026-04-24T10:10:57Z</time></trkpt><trkpt lat="43.34620927159481" lon="5.5123403199561105"><ele>409.8333333333333</ele><time>2026-04-24T10:11:00Z</time></trkpt><trkpt lat="43.34623541202683" lon="5.51222688576907"><ele>414.0</ele><time>2026-04-24T10:11:03Z</time></trkpt><trkpt lat="43.34626716471266" lon="5.51211668363316"><ele>411.6666666666667</ele><time>2026-04-24T10:11:06Z</time></trkpt><trkpt lat="43.34630367564683" lon="5.512007028981773"><ele>409.33333333333337</ele><time>2026-04-24T10:11:09Z</time></trkpt><trkpt lat="43.34635170656761" lon="5.51191574835138"><ele>407.0</ele><time>2026-04-24T10:11:12Z</time></trkpt><trkpt lat="43.34639471825003" lon="5.5118402477998725"><ele>404.6666666666667</ele><time>2026-04-24T10:11:15Z</time></trkpt><trkpt lat="43.34646558538889" lon="5.51177497173651"><ele>402.33333333333337</ele><time>2026-04-24T10:11:17.999Z</time></trkpt><trkpt lat="43.34653075275767" lon="5.511703458326723"><ele>400.0</ele><time>2026-04-24T10:11:20.999Z</time></trkpt><trkpt lat="43.3465737288661" lon="5.511604165258944"><ele>400.00000000000006</ele><time>2026-04-24T10:11:23.999Z</time></trkpt><trkpt lat="43.34651151673915" lon="5.511502940697958"><ele>400.0</ele><time>2026-04-24T10:12:57Z</time></trkpt><trkpt lat="43.34644760542638" lon="5.511561431108174"><ele>400.0</ele><time>2026-04-24T10:13:06Z</time></trkpt><trkpt lat="43.3463802783181" lon="5.511611477278215"><ele>400.0</ele><time>2026-04-24T10:13:10Z</time></trkpt><trkpt lat="43.34633230749743" lon="5.51167560323399"><ele>400.00000000000006</ele><time>2026-04-24T10:13:14Z</time></trkpt><trkpt lat="43.346268873295216" lon="5.511688238417121"><ele>400.0</ele><time>2026-04-24T10:13:18Z</time></trkpt><trkpt lat="43.34619682959251" lon="5.511692164754594"><ele>400.00000000000006</ele><time>2026-04-24T10:13:22Z</time></trkpt><trkpt lat="43.346124598852974" lon="5.511700142602704"><ele>400.0</ele><time>2026-04-24T10:13:26Z</time></trkpt><trkpt lat="43.346051308583334" lon="5.511699001809259"><ele>400.0</ele><time>2026-04-24T10:13:29.999Z</time></trkpt><trkpt lat="43.34597248693928" lon="5.511705161929058"><ele>400.0</ele><time>2026-04-24T10:13:33.999Z</time></trkpt><trkpt lat="43.34588948913599" lon="5.511716288985256"><ele>400.00000000000006</ele><time>2026-04-24T10:13:37.999Z</time></trkpt><trkpt lat="43.34582231335686" lon="5.511717159471823"><ele>400.0</ele><time>2026-04-24T10:13:40.999Z</time></trkpt><trkpt lat="43.34574550605967" lon="5.51172376552927"><ele>400.00000000000006</ele><time>2026-04-24T10:13:44.999Z</time></trkpt><trkpt lat="43.34566481019659" lon="5.5117241065432445"><ele>400.0</ele><time>2026-04-24T10:13:48.999Z</time></trkpt><trkpt lat="43.34559017113183" lon="5.511739807503969"><ele>400.0</ele><time>2026-04-24T10:13:52.999Z</time></trkpt><trkpt lat="43.345512097216734" lon="5.511749905240258"><ele>400.0</ele><time>2026-04-24T10:13:57.999Z</time></trkpt><trkpt lat="43.345449405350436" lon="5.511773545038772"><ele>400.0</ele><time>2026-04-24T10:14:01.999Z</time></trkpt><trkpt lat="43.34537401401587" lon="5.511802058579318"><ele>400.00000000000006</ele><time>2026-04-24T10:14:07Z</time></trkpt><trkpt lat="43.345312961085874" lon="5.511831771653523"><ele>400.0</ele><time>2026-04-24T10:14:11Z</time></trkpt><trkpt lat="43.34524317865792" lon="5.5118578778854355"><ele>399.8571428571429</ele><time>2026-04-24T10:14:15Z</time></trkpt><trkpt lat="43.34516851062835" lon="5.511871806183198"><ele>399.7142857142857</ele><time>2026-04-24T10:14:19Z</time></trkpt><trkpt lat="43.345098911431705" lon="5.5118814098365165"><ele>399.57142857142856</ele><time>2026-04-24T10:14:23Z</time></trkpt><trkpt lat="43.34502589330376" lon="5.511887976862943"><ele>399.42857142857144</ele><time>2026-04-24T10:14:27Z</time></trkpt><trkpt lat="43.34495788376747" lon="5.511907113472454"><ele>399.2857142857143</ele><time>2026-04-24T10:14:31Z</time></trkpt><trkpt lat="43.34489696950867" lon="5.51195941763138"><ele>399.14285714285717</ele><time>2026-04-24T10:14:36Z</time></trkpt><trkpt lat="43.34483854974411" lon="5.512023320837065"><ele>399.0</ele><time>2026-04-24T10:14:40Z</time></trkpt><trkpt lat="43.344783347175955" lon="5.512101493396577"><ele>400.7142857142857</ele><time>2026-04-24T10:14:44Z</time></trkpt><trkpt lat="43.344744633285885" lon="5.512184629225641"><ele>402.42857142857144</ele><time>2026-04-24T10:14:48Z</time></trkpt><trkpt lat="43.34472053893701" lon="5.512281593817104"><ele>404.1428571428571</ele><time>2026-04-24T10:14:52Z</time></trkpt><trkpt lat="43.34471412246814" lon="5.512370874596249"><ele>405.8571428571429</ele><time>2026-04-24T10:14:56Z</time></trkpt><trkpt lat="43.34469655150353" lon="5.512461367023906"><ele>407.57142857142856</ele><time>2026-04-24T10:15:00Z</time></trkpt><trkpt lat="43.34468658576756" lon="5.512561752762638"><ele>409.2857142857143</ele><time>2026-04-24T10:15:05Z</time></trkpt><trkpt lat="43.34467507254782" lon="5.512656708283668"><ele>411.0</ele><time>2026-04-24T10:15:09Z</time></trkpt><trkpt lat="43.34466292341541" lon="5.512761404855158"><ele>411.0</ele><time>2026-04-24T10:15:13Z</time></trkpt><trkpt lat="43.34465282732424" lon="5.512868639007329"><ele>411.0</ele><time>2026-04-24T10:15:17Z</time></trkpt><trkpt lat="43.34465331759732" lon="5.512968926603362"><ele>411.0</ele><time>2026-04-24T10:15:21Z</time></trkpt><trkpt lat="43.34465474280742" lon="5.513059466044981"><ele>411.0</ele><time>2026-04-24T10:15:24.999Z</time></trkpt><trkpt lat="43.34465675280784" lon="5.513153348189241"><ele>411.0</ele><time>2026-04-24T10:15:28.999Z</time></trkpt><trkpt lat="43.34461883652362" lon="5.513225589238267"><ele>411.0</ele><time>2026-04-24T10:15:32.999Z</time></trkpt><trkpt lat="43.34454164988156" lon="5.513247281148628"><ele>411.0</ele><time>2026-04-24T10:15:36.999Z</time></trkpt><trkpt lat="43.34447997753028" lon="5.513213524469166"><ele>412.85714285714283</ele><time>2026-04-24T10:15:40.999Z</time></trkpt><trkpt lat="43.34441340790101" lon="5.513188826186696"><ele>414.71428571428567</ele><time>2026-04-24T10:15:44.999Z</time></trkpt><trkpt lat="43.344350579004086" lon="5.513167540574424"><ele>416.57142857142856</ele><time>2026-04-24T10:15:48.999Z</time></trkpt><trkpt lat="43.344284615926604" lon="5.513165702160704"><ele>418.42857142857144</ele><time>2026-04-24T10:15:52.999Z</time></trkpt><trkpt lat="43.344215795151676" lon="5.513173189807214"><ele>420.2857142857143</ele><time>2026-04-24T10:15:56.999Z</time></trkpt><trkpt lat="43.344141490856195" lon="5.513181502658242"><ele>422.14285714285717</ele><time>2026-04-24T10:16:00.999Z</time></trkpt><trkpt lat="43.34406505396372" lon="5.513214693421948"><ele>424.0</ele><time>2026-04-24T10:16:04.999Z</time></trkpt><trkpt lat="43.344003324516784" lon="5.513255618104065"><ele>424.0</ele><time>2026-04-24T10:16:09Z</time></trkpt><trkpt lat="43.34394562630229" lon="5.513302453255065"><ele>424.0</ele><time>2026-04-24T10:16:13Z</time></trkpt><trkpt lat="43.34388667420351" lon="5.513348924463356"><ele>424.0</ele><time>2026-04-24T10:16:17Z</time></trkpt><trkpt lat="43.34382371741945" lon="5.513392652652619"><ele>424.0</ele><time>2026-04-24T10:16:21Z</time></trkpt><trkpt lat="43.34375252843897" lon="5.513450954508053"><ele>424.0</ele><time>2026-04-24T10:16:26Z</time></trkpt><trkpt lat="43.343694107889895" lon="5.513493217482271"><ele>424.0</ele><time>2026-04-24T10:16:30Z</time></trkpt><trkpt lat="43.34363852314393" lon="5.513547284956051"><ele>424.0</ele><time>2026-04-24T10:16:34Z</time></trkpt><trkpt lat="43.34357380825004" lon="5.513580949080678"><ele>423.5714285714286</ele><time>2026-04-24T10:16:38Z</time></trkpt><trkpt lat="43.34352426437087" lon="5.513642635577489"><ele>423.1428571428571</ele><time>2026-04-24T10:16:42Z</time></trkpt><trkpt lat="43.34347571857092" lon="5.513714836738987"><ele>422.7142857142857</ele><time>2026-04-24T10:16:46Z</time></trkpt><trkpt lat="43.34343203792606" lon="5.513790995523775"><ele>422.28571428571433</ele><time>2026-04-24T10:16:50Z</time></trkpt><trkpt lat="43.343384357705055" lon="5.513872628286722"><ele>421.8571428571429</ele><time>2026-04-24T10:16:54Z</time></trkpt><trkpt lat="43.343339222246385" lon="5.513957029492423"><ele>421.42857142857144</ele><time>2026-04-24T10:16:58Z</time></trkpt><trkpt lat="43.34330366270883" lon="5.514043171129832"><ele>421.0</ele><time>2026-04-24T10:17:02Z</time></trkpt><trkpt lat="43.343269881705794" lon="5.514143821987678"><ele>422.7142857142857</ele><time>2026-04-24T10:17:06Z</time></trkpt><trkpt lat="43.343251128376714" lon="5.514232840146352"><ele>424.42857142857144</ele><time>2026-04-24T10:17:09Z</time></trkpt><trkpt lat="43.34323778660052" lon="5.514329162011665"><ele>426.1428571428571</ele><time>2026-04-24T10:17:12Z</time></trkpt><trkpt lat="43.343233868728" lon="5.514422047872611"><ele>427.8571428571429</ele><time>2026-04-24T10:17:15Z</time></trkpt><trkpt lat="43.343239227501044" lon="5.5145176657511445"><ele>429.57142857142856</ele><time>2026-04-24T10:17:18Z</time></trkpt><trkpt lat="43.3432526532318" lon="5.51460574942114"><ele>431.2857142857143</ele><time>2026-04-24T10:17:21Z</time></trkpt><trkpt lat="43.343265992123605" lon="5.514705224096895"><ele>433.0</ele><time>2026-04-24T10:17:24Z</time></trkpt><trkpt lat="43.34327779470009" lon="5.514796827026265"><ele>434.57142857142856</ele><time>2026-04-24T10:17:27Z</time></trkpt><trkpt lat="43.34328928759811" lon="5.514892936583061"><ele>436.1428571428571</ele><time>2026-04-24T10:17:29.999Z</time></trkpt><trkpt lat="43.34330743261644" lon="5.5149864926776395"><ele>437.71428571428567</ele><time>2026-04-24T10:17:32.999Z</time></trkpt><trkpt lat="43.34332299493072" lon="5.515075584372712"><ele>439.2857142857143</ele><time>2026-04-24T10:17:35.999Z</time></trkpt><trkpt lat="43.343352468025216" lon="5.5151568749128055"><ele>440.8571428571429</ele><time>2026-04-24T10:17:38.999Z</time></trkpt><trkpt lat="43.343378763209664" lon="5.515243194513685"><ele>442.4285714285714</ele><time>2026-04-24T10:17:41.999Z</time></trkpt><trkpt lat="43.343406780814725" lon="5.515339206646993"><ele>444.0</ele><time>2026-04-24T10:17:45.999Z</time></trkpt><trkpt lat="43.34342861320311" lon="5.515453537047745"><ele>445.42857142857144</ele><time>2026-04-24T10:17:49.999Z</time></trkpt><trkpt lat="43.34344489736177" lon="5.5155384992870555"><ele>446.8571428571429</ele><time>2026-04-24T10:17:52.999Z</time></trkpt><trkpt lat="43.34345691428333" lon="5.515624303528081"><ele>448.28571428571433</ele><time>2026-04-24T10:17:56.999Z</time></trkpt><trkpt lat="43.3434212009002" lon="5.515705321430807"><ele>449.7142857142857</ele><time>2026-04-24T10:18:00.999Z</time></trkpt><trkpt lat="43.343368060625075" lon="5.515752446779066"><ele>451.1428571428572</ele><time>2026-04-24T10:18:05.999Z</time></trkpt><trkpt lat="43.34330863265764" lon="5.515713674386437"><ele>452.5714285714286</ele><time>2026-04-24T10:18:36Z</time></trkpt><trkpt lat="43.34324636219587" lon="5.515662436171196"><ele>454.0</ele><time>2026-04-24T10:18:39Z</time></trkpt><trkpt lat="43.34317018790691" lon="5.515625892473406"><ele>454.0</ele><time>2026-04-24T10:18:43Z</time></trkpt><trkpt lat="43.343100856525126" lon="5.515616659618572"><ele>454.00000000000006</ele><time>2026-04-24T10:18:47Z</time></trkpt><trkpt lat="43.34304065390333" lon="5.515647215670154"><ele>454.0</ele><time>2026-04-24T10:18:50Z</time></trkpt><trkpt lat="43.34297173279073" lon="5.5156839406651255"><ele>454.0</ele><time>2026-04-24T10:18:53Z</time></trkpt><trkpt lat="43.34288053534857" lon="5.5156725161781255"><ele>454.00000000000006</ele><time>2026-04-24T10:18:57Z</time></trkpt><trkpt lat="43.34284730230307" lon="5.5155930992802595"><ele>454.0</ele><time>2026-04-24T10:19:00Z</time></trkpt><trkpt lat="43.34284940217765" lon="5.515492130507579"><ele>454.0</ele><time>2026-04-24T10:19:06Z</time></trkpt><trkpt lat="43.34282730767336" lon="5.515403743247292"><ele>452.8571428571429</ele><time>2026-04-24T10:19:10Z</time></trkpt><trkpt lat="43.342777861385905" lon="5.515324773242566"><ele>451.7142857142858</ele><time>2026-04-24T10:19:15Z</time></trkpt><trkpt lat="43.342725874206955" lon="5.515249740271817"><ele>450.57142857142856</ele><time>2026-04-24T10:19:20Z</time></trkpt><trkpt lat="43.34267860020822" lon="5.515189776214322"><ele>449.42857142857144</ele><time>2026-04-24T10:19:23.999Z</time></trkpt><trkpt lat="43.34262537401034" lon="5.515133927555388"><ele>448.2857142857143</ele><time>2026-04-24T10:19:27.999Z</time></trkpt><trkpt lat="43.34256533332065" lon="5.515084043818881"><ele>447.1428571428571</ele><time>2026-04-24T10:19:31.999Z</time></trkpt><trkpt lat="43.34249098620535" lon="5.51503698741406"><ele>446.0</ele><time>2026-04-24T10:19:36.999Z</time></trkpt><trkpt lat="43.34243172300687" lon="5.514987251351251"><ele>445.99999999999994</ele><time>2026-04-24T10:19:40.999Z</time></trkpt><trkpt lat="43.34235747658387" lon="5.514956653408599"><ele>446.0</ele><time>2026-04-24T10:19:44.999Z</time></trkpt><trkpt lat="43.34228402436859" lon="5.514889913317762"><ele>446.0</ele><time>2026-04-24T10:19:48.999Z</time></trkpt><trkpt lat="43.34221035411677" lon="5.514839418859696"><ele>446.0</ele><time>2026-04-24T10:19:52.999Z</time></trkpt><trkpt lat="43.34217692276798" lon="5.514935899535191"><ele>445.99999999999994</ele><time>2026-04-24T10:19:56.999Z</time></trkpt><trkpt lat="43.34219423513431" lon="5.515043594656376"><ele>446.0</ele><time>2026-04-24T10:20:01.999Z</time></trkpt><trkpt lat="43.34221841581707" lon="5.515126500227146"><ele>446.0</ele><time>2026-04-24T10:20:05.999Z</time></trkpt><trkpt lat="43.34223503790839" lon="5.5152140101607"><ele>446.0</ele><time>2026-04-24T10:20:10.999Z</time></trkpt><trkpt lat="43.342263537217676" lon="5.515300516169836"><ele>446.0</ele><time>2026-04-24T10:20:15.999Z</time></trkpt><trkpt lat="43.342293511391176" lon="5.515386508547651"><ele>446.0</ele><time>2026-04-24T10:20:19.999Z</time></trkpt><trkpt lat="43.342322954651614" lon="5.515470434705054"><ele>446.0</ele><time>2026-04-24T10:20:24Z</time></trkpt><trkpt lat="43.34236523664508" lon="5.515541026079168"><ele>446.0</ele><time>2026-04-24T10:20:29Z</time></trkpt><trkpt lat="43.34241061043268" lon="5.515610767983267"><ele>446.0</ele><time>2026-04-24T10:20:35Z</time></trkpt><trkpt lat="43.34244445395867" lon="5.51569118973806"><ele>448.42857142857144</ele><time>2026-04-24T10:20:41Z</time></trkpt><trkpt lat="43.34247482970224" lon="5.515768316834995"><ele>450.85714285714283</ele><time>2026-04-24T10:20:47Z</time></trkpt><trkpt lat="43.34251639026554" lon="5.515848656703854"><ele>453.2857142857143</ele><time>2026-04-24T10:20:53Z</time></trkpt><trkpt lat="43.34256408241092" lon="5.515910718242336"><ele>455.71428571428567</ele><time>2026-04-24T10:20:59Z</time></trkpt><trkpt lat="43.342617424100666" lon="5.515977425694236"><ele>458.1428571428571</ele><time>2026-04-24T10:21:05Z</time></trkpt><trkpt lat="43.34264557581256" lon="5.516057927078717"><ele>460.57142857142856</ele><time>2026-04-24T10:21:09Z</time></trkpt><trkpt lat="43.34267702670996" lon="5.5161439971055755"><ele>463.0</ele><time>2026-04-24T10:21:13Z</time></trkpt><trkpt lat="43.34271012621908" lon="5.516234227604536"><ele>465.71428571428567</ele><time>2026-04-24T10:21:17Z</time></trkpt><trkpt lat="43.342737573301655" lon="5.516333591236465"><ele>468.4285714285714</ele><time>2026-04-24T10:21:22Z</time></trkpt><trkpt lat="43.34276366775813" lon="5.516417225134817"><ele>471.1428571428571</ele><time>2026-04-24T10:21:26Z</time></trkpt><trkpt lat="43.342793524165366" lon="5.516498273768435"><ele>473.8571428571429</ele><time>2026-04-24T10:21:29.999Z</time></trkpt><trkpt lat="43.3428237886377" lon="5.516578133031723"><ele>476.5714285714286</ele><time>2026-04-24T10:21:34.999Z</time></trkpt><trkpt lat="43.342862482897566" lon="5.5166476760675"><ele>479.28571428571433</ele><time>2026-04-24T10:21:38.999Z</time></trkpt><trkpt lat="43.34290951073175" lon="5.516706939437533"><ele>482.0</ele><time>2026-04-24T10:21:42.999Z</time></trkpt><trkpt lat="43.342963811206104" lon="5.516782184238388"><ele>482.0</ele><time>2026-04-24T10:21:47.999Z</time></trkpt><trkpt lat="43.34301738282441" lon="5.516861272520478"><ele>482.00000000000006</ele><time>2026-04-24T10:21:52.999Z</time></trkpt><trkpt lat="43.343055573743854" lon="5.516942187701562"><ele>482.0</ele><time>2026-04-24T10:21:57.999Z</time></trkpt><trkpt lat="43.34310058744956" lon="5.517010512895593"><ele>482.0</ele><time>2026-04-24T10:22:02.999Z</time></trkpt><trkpt lat="43.3431392643004" lon="5.517085514142346"><ele>482.00000000000006</ele><time>2026-04-24T10:22:07.999Z</time></trkpt><trkpt lat="43.343185144230326" lon="5.517151011038205"><ele>482.0</ele><time>2026-04-24T10:22:11.999Z</time></trkpt><trkpt lat="43.343233018665885" lon="5.517209097623728"><ele>482.0</ele><time>2026-04-24T10:22:15.999Z</time></trkpt><trkpt lat="43.34329187817803" lon="5.517274665133727"><ele>481.8571428571429</ele><time>2026-04-24T10:22:20.999Z</time></trkpt><trkpt lat="43.34332996171929" lon="5.517359725513672"><ele>481.7142857142858</ele><time>2026-04-24T10:22:25.999Z</time></trkpt><trkpt lat="43.34333789022922" lon="5.517451859869168"><ele>481.57142857142856</ele><time>2026-04-24T10:22:29Z</time></trkpt><trkpt lat="43.34335668441068" lon="5.517564415313465"><ele>481.42857142857144</ele><time>2026-04-24T10:22:34Z</time></trkpt><trkpt lat="43.3433574733796" lon="5.517652021398929"><ele>481.2857142857143</ele><time>2026-04-24T10:22:37Z</time></trkpt><trkpt lat="43.343365637810265" lon="5.5177485178825405"><ele>481.1428571428571</ele><time>2026-04-24T10:22:41Z</time></trkpt><trkpt lat="43.34338994230124" lon="5.517836979532598"><ele>480.99999999999994</ele><time>2026-04-24T10:22:45Z</time></trkpt><trkpt lat="43.34342421718429" lon="5.517931830454589"><ele>482.5714285714285</ele><time>2026-04-24T10:22:49Z</time></trkpt><trkpt lat="43.34347063153188" lon="5.517995549646502"><ele>484.1428571428571</ele><time>2026-04-24T10:22:53Z</time></trkpt><trkpt lat="43.34349655021656" lon="5.51808642612961"><ele>485.7142857142857</ele><time>2026-04-24T10:22:57Z</time></trkpt><trkpt lat="43.34350956168384" lon="5.51817396144658"><ele>487.2857142857143</ele><time>2026-04-24T10:23:01Z</time></trkpt><trkpt lat="43.34350934564183" lon="5.518260908245637"><ele>488.8571428571429</ele><time>2026-04-24T10:23:05Z</time></trkpt><trkpt lat="43.34357974523438" lon="5.518314953400362"><ele>490.4285714285715</ele><time>2026-04-24T10:23:09Z</time></trkpt><trkpt lat="43.343601574528535" lon="5.518396803020491"><ele>492.00000000000006</ele><time>2026-04-24T10:23:12Z</time></trkpt><trkpt lat="43.34360242162718" lon="5.5184952954762"><ele>492.00000000000006</ele><time>2026-04-24T10:23:16Z</time></trkpt><trkpt lat="43.34361558394285" lon="5.518580946256508"><ele>492.0</ele><time>2026-04-24T10:23:20Z</time></trkpt><trkpt lat="43.343626621643644" lon="5.518673141354997"><ele>492.00000000000006</ele><time>2026-04-24T10:23:26Z</time></trkpt><trkpt lat="43.343667889422356" lon="5.518759537287403"><ele>492.00000000000006</ele><time>2026-04-24T10:23:31.999Z</time></trkpt><trkpt lat="43.34369617042384" lon="5.518841708554755"><ele>492.0</ele><time>2026-04-24T10:23:36.999Z</time></trkpt><trkpt lat="43.343722035256896" lon="5.518922532184576"><ele>492.00000000000006</ele><time>2026-04-24T10:23:48.999Z</time></trkpt><trkpt lat="43.34378405672283" lon="5.518965559240833"><ele>492.00000000000006</ele><time>2026-04-24T10:23:55.999Z</time></trkpt><trkpt lat="43.34385101688763" lon="5.518991112322563"><ele>492.28571428571433</ele><time>2026-04-24T10:24:01.999Z</time></trkpt><trkpt lat="43.34391614847092" lon="5.519036282392226"><ele>492.57142857142856</ele><time>2026-04-24T10:24:08.999Z</time></trkpt><trkpt lat="43.34397283016971" lon="5.519096567335259"><ele>492.8571428571429</ele><time>2026-04-24T10:24:25.999Z</time></trkpt><trkpt lat="43.34398574877415" lon="5.519192153858281"><ele>493.14285714285717</ele><time>2026-04-24T10:24:31.999Z</time></trkpt><trkpt lat="43.34399628540177" lon="5.519278153998747"><ele>493.42857142857144</ele><time>2026-04-24T10:24:38Z</time></trkpt><trkpt lat="43.34400042783566" lon="5.519377016276313"><ele>493.7142857142857</ele><time>2026-04-24T10:24:45Z</time></trkpt><trkpt lat="43.3440128538195" lon="5.519482446330475"><ele>494.0</ele><time>2026-04-24T10:24:51Z</time></trkpt><trkpt lat="43.34402535410762" lon="5.519577353940007"><ele>495.28571428571433</ele><time>2026-04-24T10:24:57Z</time></trkpt><trkpt lat="43.34403873509216" lon="5.519669708123564"><ele>496.57142857142856</ele><time>2026-04-24T10:25:03Z</time></trkpt><trkpt lat="43.344057978329445" lon="5.519765745404836"><ele>497.8571428571429</ele><time>2026-04-24T10:25:09Z</time></trkpt><trkpt lat="43.34409056086543" lon="5.5198422605217665"><ele>499.14285714285717</ele><time>2026-04-24T10:25:14Z</time></trkpt><trkpt lat="43.344152934965" lon="5.519910199837859"><ele>500.42857142857144</ele><time>2026-04-24T10:25:20Z</time></trkpt><trkpt lat="43.34418773261756" lon="5.519996955056303"><ele>501.7142857142857</ele><time>2026-04-24T10:25:25.999Z</time></trkpt><trkpt lat="43.34422130049996" lon="5.520085066527778"><ele>503.0</ele><time>2026-04-24T10:25:31.999Z</time></trkpt><trkpt lat="43.34425917632887" lon="5.520159596192013"><ele>503.0</ele><time>2026-04-24T10:25:36.999Z</time></trkpt><trkpt lat="43.34429796730691" lon="5.520228754408722"><ele>503.00000000000006</ele><time>2026-04-24T10:25:41.999Z</time></trkpt><trkpt lat="43.3443360511192" lon="5.5203124698582915"><ele>503.0</ele><time>2026-04-24T10:25:47.999Z</time></trkpt><trkpt lat="43.34438472880028" lon="5.520394416836002"><ele>503.0</ele><time>2026-04-24T10:25:53.999Z</time></trkpt><trkpt lat="43.34442487457879" lon="5.520484630537088"><ele>503.00000000000006</ele><time>2026-04-24T10:25:59.999Z</time></trkpt><trkpt lat="43.344456923540974" lon="5.520560164044157"><ele>503.0</ele><time>2026-04-24T10:26:04.999Z</time></trkpt><trkpt lat="43.34448651455069" lon="5.52063967219723"><ele>503.0</ele><time>2026-04-24T10:26:09.999Z</time></trkpt><trkpt lat="43.344519603964976" lon="5.520721220496568"><ele>503.7142857142857</ele><time>2026-04-24T10:26:15.999Z</time></trkpt><trkpt lat="43.344544832028035" lon="5.520806343506635"><ele>504.42857142857144</ele><time>2026-04-24T10:26:28.999Z</time></trkpt><trkpt lat="43.3445760209791" lon="5.520881636040985"><ele>505.14285714285717</ele><time>2026-04-24T10:26:33.999Z</time></trkpt><trkpt lat="43.34461274557291" lon="5.520975893438322"><ele>505.8571428571429</ele><time>2026-04-24T10:26:40.999Z</time></trkpt><trkpt lat="43.344649232206564" lon="5.521058225255734"><ele>506.57142857142856</ele><time>2026-04-24T10:26:44.999Z</time></trkpt><trkpt lat="43.34469289755624" lon="5.5211377833534145"><ele>507.28571428571433</ele><time>2026-04-24T10:26:49Z</time></trkpt><trkpt lat="43.34473141779789" lon="5.521224179049571"><ele>508.0</ele><time>2026-04-24T10:26:53Z</time></trkpt><trkpt lat="43.34477148265495" lon="5.521301129155374"><ele>509.0</ele><time>2026-04-24T10:26:57Z</time></trkpt><trkpt lat="43.34482161871774" lon="5.521387247696962"><ele>510.0</ele><time>2026-04-24T10:27:02Z</time></trkpt><trkpt lat="43.3448621621884" lon="5.521464759053738"><ele>511.0</ele><time>2026-04-24T10:27:06Z</time></trkpt><trkpt lat="43.34490523166783" lon="5.521543118445759"><ele>512.0</ele><time>2026-04-24T10:27:10Z</time></trkpt><trkpt lat="43.34494135752999" lon="5.521617251146265"><ele>513.0</ele><time>2026-04-24T10:27:14Z</time></trkpt><trkpt lat="43.344986995719225" lon="5.52170195846641"><ele>514.0</ele><time>2026-04-24T10:27:19Z</time></trkpt><trkpt lat="43.34502545218848" lon="5.521781257185411"><ele>515.0</ele><time>2026-04-24T10:27:23Z</time></trkpt><trkpt lat="43.34507030300621" lon="5.521868675995778"><ele>515.0</ele><time>2026-04-24T10:27:28Z</time></trkpt><trkpt lat="43.34512501158118" lon="5.521938844564212"><ele>515.0</ele><time>2026-04-24T10:27:33Z</time></trkpt><trkpt lat="43.34516184322534" lon="5.52202879984605"><ele>515.0</ele><time>2026-04-24T10:27:38Z</time></trkpt><trkpt lat="43.34518461487661" lon="5.522121679728051"><ele>515.0</ele><time>2026-04-24T10:27:43Z</time></trkpt><trkpt lat="43.345218262056136" lon="5.522212013180036"><ele>515.0</ele><time>2026-04-24T10:27:47.999Z</time></trkpt><trkpt lat="43.34524749520496" lon="5.522302722299298"><ele>515.0</ele><time>2026-04-24T10:27:52.999Z</time></trkpt><trkpt lat="43.3452799812449" lon="5.52238611673839"><ele>515.0</ele><time>2026-04-24T10:27:57.999Z</time></trkpt><trkpt lat="43.34529595912885" lon="5.522478839980215"><ele>515.5714285714286</ele><time>2026-04-24T10:28:02.999Z</time></trkpt><trkpt lat="43.34532370858187" lon="5.522564174383043"><ele>516.1428571428571</ele><time>2026-04-24T10:28:06.999Z</time></trkpt><trkpt lat="43.34535195271352" lon="5.522647179674744"><ele>516.7142857142857</ele><time>2026-04-24T10:28:10.999Z</time></trkpt><trkpt lat="43.34537841047811" lon="5.522736547506405"><ele>517.2857142857142</ele><time>2026-04-24T10:28:14.999Z</time></trkpt><trkpt lat="43.345402641855244" lon="5.522818332722173"><ele>517.8571428571428</ele><time>2026-04-24T10:28:18.999Z</time></trkpt><trkpt lat="43.34543232171635" lon="5.522898375886276"><ele>518.4285714285714</ele><time>2026-04-24T10:28:22.999Z</time></trkpt><trkpt lat="43.34549294675677" lon="5.5229339598882214"><ele>519.0</ele><time>2026-04-24T10:28:27.999Z</time></trkpt><trkpt lat="43.34548825740106" lon="5.523040697363055"><ele>520.0</ele><time>2026-04-24T10:28:31.999Z</time></trkpt><trkpt lat="43.34550831251138" lon="5.523127399386648"><ele>521.0</ele><time>2026-04-24T10:28:34.999Z</time></trkpt><trkpt lat="43.34553628297719" lon="5.523242582498291"><ele>522.0</ele><time>2026-04-24T10:28:37.999Z</time></trkpt><trkpt lat="43.34552753817818" lon="5.52333993678982"><ele>523.0</ele><time>2026-04-24T10:28:40.999Z</time></trkpt><trkpt lat="43.34551808931656" lon="5.523446288651665"><ele>524.0</ele><time>2026-04-24T10:28:43.999Z</time></trkpt><trkpt lat="43.3455036543506" lon="5.523549970804779"><ele>525.0</ele><time>2026-04-24T10:28:46.999Z</time></trkpt><trkpt lat="43.34549659897494" lon="5.523667724247329"><ele>526.0</ele><time>2026-04-24T10:28:49.999Z</time></trkpt><trkpt lat="43.34548001930131" lon="5.523789762176628"><ele>527.0</ele><time>2026-04-24T10:28:53Z</time></trkpt><trkpt lat="43.34546059601063" lon="5.523911460222686"><ele>528.0</ele><time>2026-04-24T10:28:56Z</time></trkpt><trkpt lat="43.34545410620329" lon="5.524029447332595"><ele>529.0</ele><time>2026-04-24T10:28:59Z</time></trkpt><trkpt lat="43.34543163839904" lon="5.524135944575963"><ele>530.0</ele><time>2026-04-24T10:29:02Z</time></trkpt><trkpt lat="43.34542409664613" lon="5.524242762795951"><ele>531.0</ele><time>2026-04-24T10:29:05Z</time></trkpt><trkpt lat="43.34540186866357" lon="5.52434354840018"><ele>531.0</ele><time>2026-04-24T10:29:08Z</time></trkpt><trkpt lat="43.34539184675949" lon="5.524440242728087"><ele>531.0</ele><time>2026-04-24T10:35:29.001Z</time></trkpt><trkpt lat="43.345362210534454" lon="5.524523033230566"><ele>531.0</ele><time>2026-04-24T10:35:33Z</time></trkpt><trkpt lat="43.34533842712007" lon="5.524635099174936"><ele>531.0</ele><time>2026-04-24T10:35:37Z</time></trkpt><trkpt lat="43.34531376784081" lon="5.524720468268534"><ele>531.0</ele><time>2026-04-24T10:35:40Z</time></trkpt><trkpt lat="43.34528906847283" lon="5.524819478558538"><ele>531.0</ele><time>2026-04-24T10:35:43Z</time></trkpt><trkpt lat="43.34525812821077" lon="5.524930825764676"><ele>531.5</ele><time>2026-04-24T10:35:46Z</time></trkpt><trkpt lat="43.34522605208327" lon="5.5250506454925725"><ele>532.0</ele><time>2026-04-24T10:35:49Z</time></trkpt><trkpt lat="43.345199413696875" lon="5.525165575673865"><ele>532.5</ele><time>2026-04-24T10:35:52Z</time></trkpt><trkpt lat="43.34517645531236" lon="5.525282004240609"><ele>533.0</ele><time>2026-04-24T10:35:55Z</time></trkpt><trkpt lat="43.34516960671071" lon="5.525404239708177"><ele>533.5</ele><time>2026-04-24T10:35:58Z</time></trkpt><trkpt lat="43.34517966667624" lon="5.525503810740528"><ele>534.0</ele><time>2026-04-24T10:36:00Z</time></trkpt><trkpt lat="43.345216997633905" lon="5.525593260530883"><ele>534.1428571428572</ele><time>2026-04-24T10:36:03Z</time></trkpt><trkpt lat="43.34525676110544" lon="5.52567520603927"><ele>534.2857142857143</ele><time>2026-04-24T10:36:06Z</time></trkpt><trkpt lat="43.345301333039586" lon="5.525746126052679"><ele>534.4285714285714</ele><time>2026-04-24T10:36:09Z</time></trkpt><trkpt lat="43.3453555290037" lon="5.525807850272673"><ele>534.5714285714287</ele><time>2026-04-24T10:36:12Z</time></trkpt><trkpt lat="43.34540820710043" lon="5.5258643694471035"><ele>534.7142857142858</ele><time>2026-04-24T10:36:15Z</time></trkpt><trkpt lat="43.34545966803545" lon="5.52592110131209"><ele>534.8571428571429</ele><time>2026-04-24T10:36:18Z</time></trkpt><trkpt lat="43.34551772889326" lon="5.525977253528006"><ele>535.0</ele><time>2026-04-24T10:36:21Z</time></trkpt><trkpt lat="43.345581834425275" lon="5.526032815103003"><ele>535.2857142857142</ele><time>2026-04-24T10:36:24Z</time></trkpt><trkpt lat="43.34563712263343" lon="5.526096715743759"><ele>535.5714285714286</ele><time>2026-04-24T10:36:27Z</time></trkpt><trkpt lat="43.34568991253138" lon="5.526163288022978"><ele>535.8571428571429</ele><time>2026-04-24T10:36:30Z</time></trkpt><trkpt lat="43.34574119692329" lon="5.526230356384837"><ele>536.1428571428571</ele><time>2026-04-24T10:36:33Z</time></trkpt><trkpt lat="43.34579232157894" lon="5.526296693190927"><ele>536.4285714285714</ele><time>2026-04-24T10:36:36Z</time></trkpt><trkpt lat="43.34583578217929" lon="5.52636914223221"><ele>536.7142857142857</ele><time>2026-04-24T10:36:39Z</time></trkpt><trkpt lat="43.345882974810195" lon="5.526442305833686"><ele>537.0</ele><time>2026-04-24T10:36:42Z</time></trkpt><trkpt lat="43.34592247314048" lon="5.526519419695228"><ele>536.9999999999999</ele><time>2026-04-24T10:36:45Z</time></trkpt><trkpt lat="43.34596459598918" lon="5.526591495174569"><ele>537.0</ele><time>2026-04-24T10:36:48Z</time></trkpt><trkpt lat="43.346009299622494" lon="5.526665128266842"><ele>537.0</ele><time>2026-04-24T10:36:51Z</time></trkpt><trkpt lat="43.34604381932665" lon="5.526759170954923"><ele>537.0</ele><time>2026-04-24T10:36:54Z</time></trkpt><trkpt lat="43.34607576244602" lon="5.526843992078548"><ele>537.0</ele><time>2026-04-24T10:36:57Z</time></trkpt><trkpt lat="43.3461045494858" lon="5.526927124538205"><ele>536.9999999999999</ele><time>2026-04-24T10:37:00Z</time></trkpt><trkpt lat="43.34612472278982" lon="5.527009608829677"><ele>537.0</ele><time>2026-04-24T10:37:03Z</time></trkpt><trkpt lat="43.346165420637064" lon="5.527109706909421"><ele>538.1666666666666</ele><time>2026-04-24T10:37:07Z</time></trkpt><trkpt lat="43.346198429427936" lon="5.527202139643149"><ele>539.3333333333334</ele><time>2026-04-24T10:37:11.001Z</time></trkpt><trkpt lat="43.34622880195044" lon="5.527290904124758"><ele>540.5</ele><time>2026-04-24T10:37:15.001Z</time></trkpt><trkpt lat="43.34626772667663" lon="5.527380966999928"><ele>541.6666666666667</ele><time>2026-04-24T10:37:19.001Z</time></trkpt><trkpt lat="43.3463111674578" lon="5.527485004902426"><ele>542.8333333333334</ele><time>2026-04-24T10:37:23.001Z</time></trkpt><trkpt lat="43.346352934574696" lon="5.527556491863"><ele>544.0</ele><time>2026-04-24T10:37:26.001Z</time></trkpt><trkpt lat="43.34639881061155" lon="5.527644442874791"><ele>543.9999999999999</ele><time>2026-04-24T10:37:30.001Z</time></trkpt><trkpt lat="43.346433410468016" lon="5.527719180008907"><ele>544.0</ele><time>2026-04-24T10:37:34Z</time></trkpt><trkpt lat="43.34647061558525" lon="5.527800931146092"><ele>544.0</ele><time>2026-04-24T10:37:38Z</time></trkpt><trkpt lat="43.346525426473384" lon="5.527865915519802"><ele>544.0</ele><time>2026-04-24T10:37:42Z</time></trkpt><trkpt lat="43.34660079340154" lon="5.5279026820369515"><ele>544.0</ele><time>2026-04-24T10:37:46Z</time></trkpt><trkpt lat="43.34667522470096" lon="5.527930811259649"><ele>543.9999999999999</ele><time>2026-04-24T10:37:51Z</time></trkpt><trkpt lat="43.34674045938776" lon="5.527943151729366"><ele>544.0</ele><time>2026-04-24T10:37:55Z</time></trkpt><trkpt lat="43.346815417762286" lon="5.527966098816573"><ele>545.1428571428571</ele><time>2026-04-24T10:38:00Z</time></trkpt><trkpt lat="43.34688376237771" lon="5.527988503367538"><ele>546.2857142857142</ele><time>2026-04-24T10:38:05Z</time></trkpt><trkpt lat="43.34695156062372" lon="5.52803954397703"><ele>547.4285714285714</ele><time>2026-04-24T10:38:10Z</time></trkpt><trkpt lat="43.347008516622296" lon="5.528093179357782"><ele>548.5714285714286</ele><time>2026-04-24T10:38:15Z</time></trkpt><trkpt lat="43.34705772353812" lon="5.528155739480136"><ele>549.7142857142858</ele><time>2026-04-24T10:38:20Z</time></trkpt><trkpt lat="43.34710611604579" lon="5.528230244531564"><ele>550.8571428571429</ele><time>2026-04-24T10:38:25Z</time></trkpt><trkpt lat="43.34714602855843" lon="5.528306896494651"><ele>552.0</ele><time>2026-04-24T10:38:30Z</time></trkpt><trkpt lat="43.34719923928678" lon="5.528377300835483"><ele>552.7142857142858</ele><time>2026-04-24T10:38:36Z</time></trkpt><trkpt lat="43.34725223877962" lon="5.52844861399649"><ele>553.4285714285714</ele><time>2026-04-24T10:38:41.999Z</time></trkpt><trkpt lat="43.34730040376581" lon="5.528504387099235"><ele>554.1428571428571</ele><time>2026-04-24T10:38:46.999Z</time></trkpt><trkpt lat="43.34735283006811" lon="5.528567806453212"><ele>554.8571428571429</ele><time>2026-04-24T10:38:52.999Z</time></trkpt><trkpt lat="43.347399747770275" lon="5.528639802555363"><ele>555.5714285714286</ele><time>2026-04-24T10:38:58.999Z</time></trkpt><trkpt lat="43.34744548320904" lon="5.528704670662311"><ele>556.2857142857143</ele><time>2026-04-24T10:39:04.999Z</time></trkpt><trkpt lat="43.3474875344212" lon="5.528769304844061"><ele>557.0</ele><time>2026-04-24T10:39:10.999Z</time></trkpt><trkpt lat="43.34753874868605" lon="5.52883877306815"><ele>558.2857142857143</ele><time>2026-04-24T10:39:18Z</time></trkpt><trkpt lat="43.347585139468926" lon="5.528910127848221"><ele>559.5714285714286</ele><time>2026-04-24T10:39:25Z</time></trkpt><trkpt lat="43.34763309006939" lon="5.528981930200902"><ele>560.8571428571429</ele><time>2026-04-24T10:39:31Z</time></trkpt><trkpt lat="43.34767707552833" lon="5.52905581200973"><ele>562.1428571428571</ele><time>2026-04-24T10:39:37Z</time></trkpt><trkpt lat="43.34772508137173" lon="5.529124118292084"><ele>563.4285714285714</ele><time>2026-04-24T10:39:44Z</time></trkpt><trkpt lat="43.347780581595075" lon="5.529192175710389"><ele>564.7142857142858</ele><time>2026-04-24T10:39:51Z</time></trkpt><trkpt lat="43.3478170294278" lon="5.5292646790821065"><ele>566.0</ele><time>2026-04-24T10:39:56Z</time></trkpt><trkpt lat="43.347867809418" lon="5.529333440279382"><ele>566.0</ele><time>2026-04-24T10:40:02Z</time></trkpt><trkpt lat="43.3479156898202" lon="5.529399915389759"><ele>566.0</ele><time>2026-04-24T10:40:10Z</time></trkpt><trkpt lat="43.3479493236201" lon="5.529476274731384"><ele>566.0</ele><time>2026-04-24T10:40:16Z</time></trkpt><trkpt lat="43.34798419703894" lon="5.529553730179035"><ele>566.0</ele><time>2026-04-24T10:40:22Z</time></trkpt><trkpt lat="43.34800914114761" lon="5.529644652802472"><ele>566.0</ele><time>2026-04-24T10:40:27.999Z</time></trkpt><trkpt lat="43.34803632238906" lon="5.529735118240228"><ele>566.0</ele><time>2026-04-24T10:40:33.999Z</time></trkpt><trkpt lat="43.34806859642589" lon="5.529816472153069"><ele>566.0</ele><time>2026-04-24T10:40:38.999Z</time></trkpt><trkpt lat="43.34810044861927" lon="5.529917694904136"><ele>567.7142857142858</ele><time>2026-04-24T10:40:43.999Z</time></trkpt><trkpt lat="43.34812429831209" lon="5.530000747297303"><ele>569.4285714285714</ele><time>2026-04-24T10:40:47.999Z</time></trkpt><trkpt lat="43.34815838578856" lon="5.530092438577368"><ele>571.1428571428571</ele><time>2026-04-24T10:40:52.999Z</time></trkpt><trkpt lat="43.348185281572064" lon="5.530176951058004"><ele>572.8571428571429</ele><time>2026-04-24T10:40:56.999Z</time></trkpt><trkpt lat="43.34821292813289" lon="5.53026674211243"><ele>574.5714285714286</ele><time>2026-04-24T10:41:01.999Z</time></trkpt><trkpt lat="43.34825078903123" lon="5.530353937229792"><ele>576.2857142857143</ele><time>2026-04-24T10:41:06.999Z</time></trkpt><trkpt lat="43.34827849933672" lon="5.530432168728468"><ele>578.0</ele><time>2026-04-24T10:41:10.999Z</time></trkpt><trkpt lat="43.34831316664146" lon="5.530525754288908"><ele>578.8571428571429</ele><time>2026-04-24T10:41:15.999Z</time></trkpt><trkpt lat="43.348343701611874" lon="5.530609887544668"><ele>579.7142857142857</ele><time>2026-04-24T10:41:21Z</time></trkpt><trkpt lat="43.348381521859764" lon="5.530700918520573"><ele>580.5714285714286</ele><time>2026-04-24T10:41:26Z</time></trkpt><trkpt lat="43.34840765135431" lon="5.530794553306741"><ele>581.4285714285714</ele><time>2026-04-24T10:41:31Z</time></trkpt><trkpt lat="43.348399826521685" lon="5.53088665793357"><ele>582.2857142857143</ele><time>2026-04-24T10:41:36Z</time></trkpt><trkpt lat="43.348404266242326" lon="5.530991512342113"><ele>583.1428571428571</ele><time>2026-04-24T10:42:34.999Z</time></trkpt><trkpt lat="43.34839131035039" lon="5.531091574487942"><ele>584.0</ele><time>2026-04-24T10:42:38.999Z</time></trkpt><trkpt lat="43.34835526675809" lon="5.531195471648395"><ele>584.5714285714286</ele><time>2026-04-24T10:42:42.999Z</time></trkpt><trkpt lat="43.34831509643859" lon="5.531279480532754"><ele>585.1428571428571</ele><time>2026-04-24T10:42:45.999Z</time></trkpt><trkpt lat="43.348276921140624" lon="5.531364430320927"><ele>585.7142857142858</ele><time>2026-04-24T10:42:48.999Z</time></trkpt><trkpt lat="43.34823857593911" lon="5.531438060755244"><ele>586.2857142857142</ele><time>2026-04-24T10:42:51.999Z</time></trkpt><trkpt lat="43.34819782049623" lon="5.5315316714985"><ele>586.8571428571429</ele><time>2026-04-24T10:42:55.999Z</time></trkpt><trkpt lat="43.348163463982125" lon="5.531604281953597"><ele>587.4285714285714</ele><time>2026-04-24T10:42:58.999Z</time></trkpt><trkpt lat="43.348121127751575" lon="5.531668982101226"><ele>588.0</ele><time>2026-04-24T10:43:01.999Z</time></trkpt><trkpt lat="43.3480764158997" lon="5.531730343247949"><ele>589.5714285714286</ele><time>2026-04-24T10:43:04.999Z</time></trkpt><trkpt lat="43.3480338788863" lon="5.531806461404582"><ele>591.1428571428571</ele><time>2026-04-24T10:43:07.999Z</time></trkpt><trkpt lat="43.34798840795639" lon="5.531885182010786"><ele>592.7142857142858</ele><time>2026-04-24T10:43:10.999Z</time></trkpt><trkpt lat="43.34794161681093" lon="5.531945992061034"><ele>594.2857142857142</ele><time>2026-04-24T10:43:13.999Z</time></trkpt><trkpt lat="43.347895283742666" lon="5.532010730964537"><ele>595.8571428571429</ele><time>2026-04-24T10:43:16.999Z</time></trkpt><trkpt lat="43.34785141854267" lon="5.532077596856512"><ele>597.4285714285714</ele><time>2026-04-24T10:43:19.999Z</time></trkpt><trkpt lat="43.3477906569374" lon="5.53215948466297"><ele>599.0</ele><time>2026-04-24T10:43:23.999Z</time></trkpt><trkpt lat="43.34772786940416" lon="5.532223053110587"><ele>599.0</ele><time>2026-04-24T10:43:28Z</time></trkpt><trkpt lat="43.34765819500203" lon="5.532287675273002"><ele>599.0</ele><time>2026-04-24T10:43:32Z</time></trkpt><trkpt lat="43.34758691001393" lon="5.532341108014826"><ele>599.0</ele><time>2026-04-24T10:43:36Z</time></trkpt><trkpt lat="43.34752888366928" lon="5.532385623022375"><ele>599.0</ele><time>2026-04-24T10:43:39Z</time></trkpt><trkpt lat="43.34745699824351" lon="5.532433628391725"><ele>599.0</ele><time>2026-04-24T10:43:43Z</time></trkpt><trkpt lat="43.34737569730024" lon="5.532477398829369"><ele>599.0</ele><time>2026-04-24T10:43:47Z</time></trkpt><trkpt lat="43.34731413379184" lon="5.532517815246787"><ele>599.0</ele><time>2026-04-24T10:43:50Z</time></trkpt><trkpt lat="43.34724767081998" lon="5.532557380011662"><ele>599.0</ele><time>2026-04-24T10:43:53Z</time></trkpt><trkpt lat="43.347182935102744" lon="5.532600536990653"><ele>599.0</ele><time>2026-04-24T10:43:57Z</time></trkpt><trkpt lat="43.34712686739549" lon="5.532654731056643"><ele>599.0</ele><time>2026-04-24T10:44:01Z</time></trkpt><trkpt lat="43.34705871355548" lon="5.532686105073736"><ele>599.0</ele><time>2026-04-24T10:44:04.999Z</time></trkpt><trkpt lat="43.34699603350301" lon="5.532703401786396"><ele>599.0</ele><time>2026-04-24T10:44:08.999Z</time></trkpt><trkpt lat="43.34694552201474" lon="5.532766201101997"><ele>599.0</ele><time>2026-04-24T10:44:13.999Z</time></trkpt><trkpt lat="43.34688127609491" lon="5.532801803072189"><ele>600.2857142857143</ele><time>2026-04-24T10:44:18.999Z</time></trkpt><trkpt lat="43.34682042927999" lon="5.532827069883056"><ele>601.5714285714286</ele><time>2026-04-24T10:44:23.999Z</time></trkpt><trkpt lat="43.34675066621056" lon="5.532842035906163"><ele>602.8571428571429</ele><time>2026-04-24T10:44:30.999Z</time></trkpt><trkpt lat="43.3466812983524" lon="5.5328627005447455"><ele>604.1428571428571</ele><time>2026-04-24T10:44:36.999Z</time></trkpt><trkpt lat="43.346617072666895" lon="5.532863042328612"><ele>605.4285714285714</ele><time>2026-04-24T10:44:42.999Z</time></trkpt><trkpt lat="43.346550225328535" lon="5.532875175983552"><ele>606.7142857142857</ele><time>2026-04-24T10:44:49.999Z</time></trkpt><trkpt lat="43.346476461356524" lon="5.532882645044763"><ele>608.0</ele><time>2026-04-24T10:44:55.999Z</time></trkpt><trkpt lat="43.346412501982584" lon="5.532908484622829"><ele>608.0</ele><time>2026-04-24T10:45:01.999Z</time></trkpt><trkpt lat="43.34637007801854" lon="5.532987857391222"><ele>608.0</ele><time>2026-04-24T10:45:07.999Z</time></trkpt><trkpt lat="43.346357271581816" lon="5.533081079465281"><ele>608.0</ele><time>2026-04-24T10:45:13.999Z</time></trkpt><trkpt lat="43.34637387254957" lon="5.533174956238457"><ele>608.0</ele><time>2026-04-24T10:45:20.999Z</time></trkpt><trkpt lat="43.34638103157315" lon="5.533263379151019"><ele>608.0</ele><time>2026-04-24T10:45:26.999Z</time></trkpt><trkpt lat="43.346408491836875" lon="5.533346144207918"><ele>608.0</ele><time>2026-04-24T10:45:33Z</time></trkpt><trkpt lat="43.34638008642116" lon="5.533429041654863"><ele>608.0</ele><time>2026-04-24T10:45:40Z</time></trkpt><trkpt lat="43.34635756382703" lon="5.533516525681835"><ele>610.1428571428571</ele><time>2026-04-24T10:45:45Z</time></trkpt><trkpt lat="43.34630804527958" lon="5.533570407399317"><ele>612.2857142857143</ele><time>2026-04-24T10:45:50Z</time></trkpt><trkpt lat="43.346249728759226" lon="5.533626204409376"><ele>614.4285714285714</ele><time>2026-04-24T10:45:56Z</time></trkpt><trkpt lat="43.346182346727566" lon="5.533676061922903"><ele>616.5714285714286</ele><time>2026-04-24T10:46:02Z</time></trkpt><trkpt lat="43.346143727016724" lon="5.5337490264520195"><ele>618.7142857142858</ele><time>2026-04-24T10:46:06Z</time></trkpt><trkpt lat="43.34610460644504" lon="5.5338444471722275"><ele>620.8571428571429</ele><time>2026-04-24T10:46:11Z</time></trkpt><trkpt lat="43.346077649264004" lon="5.533941067803265"><ele>623.0</ele><time>2026-04-24T10:46:16Z</time></trkpt><trkpt lat="43.346061534090865" lon="5.534047866828367"><ele>623.0</ele><time>2026-04-24T10:46:21Z</time></trkpt><trkpt lat="43.34605148566001" lon="5.534139429048643"><ele>623.0</ele><time>2026-04-24T10:46:24.999Z</time></trkpt><trkpt lat="43.346061279079215" lon="5.534232907243444"><ele>623.0</ele><time>2026-04-24T10:46:28.999Z</time></trkpt><trkpt lat="43.34608330742038" lon="5.534341423728798"><ele>623.0</ele><time>2026-04-24T10:46:32.999Z</time></trkpt><trkpt lat="43.34610315964617" lon="5.534430041845853"><ele>623.0</ele><time>2026-04-24T10:46:35.999Z</time></trkpt><trkpt lat="43.34612427523013" lon="5.534530841556837"><ele>623.0</ele><time>2026-04-24T10:46:38.999Z</time></trkpt><trkpt lat="43.34615370894256" lon="5.534609121250415"><ele>623.0</ele><time>2026-04-24T10:46:41.999Z</time></trkpt><trkpt lat="43.34617774199483" lon="5.534711620858085"><ele>622.8571428571429</ele><time>2026-04-24T10:46:45.999Z</time></trkpt><trkpt lat="43.34619858464621" lon="5.534803963576805"><ele>622.7142857142858</ele><time>2026-04-24T10:46:48.999Z</time></trkpt><trkpt lat="43.346203126896675" lon="5.534914756864599"><ele>622.5714285714286</ele><time>2026-04-24T10:46:51.999Z</time></trkpt><trkpt lat="43.346210730706666" lon="5.535024459354633"><ele>622.4285714285714</ele><time>2026-04-24T10:46:55.999Z</time></trkpt><trkpt lat="43.346206938842016" lon="5.535117430974355"><ele>622.2857142857143</ele><time>2026-04-24T10:46:58.999Z</time></trkpt><trkpt lat="43.346202212588146" lon="5.535205869086889"><ele>622.1428571428571</ele><time>2026-04-24T10:47:01.999Z</time></trkpt><trkpt lat="43.34619757266276" lon="5.535295741165358"><ele>622.0</ele><time>2026-04-24T10:47:04.999Z</time></trkpt><trkpt lat="43.346188177135986" lon="5.535399091514394"><ele>622.0</ele><time>2026-04-24T10:47:08.999Z</time></trkpt><trkpt lat="43.34618128281725" lon="5.535501723165587"><ele>622.0</ele><time>2026-04-24T10:47:12.999Z</time></trkpt><trkpt lat="43.3461771183715" lon="5.535595580871409"><ele>622.0</ele><time>2026-04-24T10:47:16.999Z</time></trkpt><trkpt lat="43.34617142004104" lon="5.535688349175513"><ele>622.0</ele><time>2026-04-24T10:47:20.999Z</time></trkpt><trkpt lat="43.346165995294236" lon="5.535801521170836"><ele>622.0</ele><time>2026-04-24T10:47:24.999Z</time></trkpt><trkpt lat="43.34616272196713" lon="5.535894820567177"><ele>622.0</ele><time>2026-04-24T10:47:28.999Z</time></trkpt><trkpt lat="43.34616886698482" lon="5.535986399269441"><ele>622.0</ele><time>2026-04-24T10:47:32.999Z</time></trkpt><trkpt lat="43.34615695407304" lon="5.536093378597461"><ele>622.0</ele><time>2026-04-24T10:47:37.999Z</time></trkpt><trkpt lat="43.34614963374935" lon="5.53619519080603"><ele>622.0</ele><time>2026-04-24T10:47:43Z</time></trkpt><trkpt lat="43.34613829304194" lon="5.5363101055878845"><ele>622.0</ele><time>2026-04-24T10:47:47Z</time></trkpt><trkpt lat="43.346133158389755" lon="5.536413913563392"><ele>622.0</ele><time>2026-04-24T10:47:51Z</time></trkpt><trkpt lat="43.34613548165949" lon="5.53651199190946"><ele>622.0</ele><time>2026-04-24T10:47:55Z</time></trkpt><trkpt lat="43.34613458819125" lon="5.536613956215248"><ele>622.0</ele><time>2026-04-24T10:47:59Z</time></trkpt><trkpt lat="43.34614460093738" lon="5.536738314403725"><ele>622.1666666666667</ele><time>2026-04-24T10:48:02Z</time></trkpt><trkpt lat="43.346154812080925" lon="5.53685453133206"><ele>622.3333333333334</ele><time>2026-04-24T10:48:05Z</time></trkpt><trkpt lat="43.34616471688216" lon="5.536966361236446"><ele>622.5</ele><time>2026-04-24T10:48:08Z</time></trkpt><trkpt lat="43.34617968139448" lon="5.537069537255079"><ele>622.6666666666666</ele><time>2026-04-24T10:48:11Z</time></trkpt><trkpt lat="43.346189022108646" lon="5.537172244470877"><ele>622.8333333333333</ele><time>2026-04-24T10:48:14Z</time></trkpt><trkpt lat="43.34620326494514" lon="5.537280627831792"><ele>623.0</ele><time>2026-04-24T10:48:17Z</time></trkpt><trkpt lat="43.346218576398655" lon="5.537396322786016"><ele>623.1428571428571</ele><time>2026-04-24T10:48:20Z</time></trkpt><trkpt lat="43.34623137874232" lon="5.537489536282625"><ele>623.2857142857142</ele><time>2026-04-24T10:48:23Z</time></trkpt><trkpt lat="43.34624826374965" lon="5.537587449482826"><ele>623.4285714285714</ele><time>2026-04-24T10:48:27Z</time></trkpt><trkpt lat="43.34626562253039" lon="5.53767848017466"><ele>623.5714285714286</ele><time>2026-04-24T10:48:30Z</time></trkpt><trkpt lat="43.34629372136775" lon="5.537780961567764"><ele>623.7142857142857</ele><time>2026-04-24T10:48:34Z</time></trkpt><trkpt lat="43.34629821755637" lon="5.537868138023871"><ele>623.8571428571429</ele><time>2026-04-24T10:48:37Z</time></trkpt><trkpt lat="43.346303469063756" lon="5.53795614747099"><ele>624.0</ele><time>2026-04-24T10:48:39.999Z</time></trkpt><trkpt lat="43.346315922054664" lon="5.53805302271327"><ele>625.0</ele><time>2026-04-24T10:48:43.999Z</time></trkpt><trkpt lat="43.346309960525815" lon="5.538159834129081"><ele>626.0</ele><time>2026-04-24T10:48:46.999Z</time></trkpt><trkpt lat="43.34629668490843" lon="5.538256766884098"><ele>627.0</ele><time>2026-04-24T10:48:49.999Z</time></trkpt><trkpt lat="43.34627830121154" lon="5.538359100307444"><ele>628.0</ele><time>2026-04-24T10:48:52.999Z</time></trkpt><trkpt lat="43.346248440614666" lon="5.538460939100714"><ele>629.0</ele><time>2026-04-24T10:48:55.999Z</time></trkpt><trkpt lat="43.34621092334816" lon="5.538561323693933"><ele>630.0</ele><time>2026-04-24T10:48:58.999Z</time></trkpt><trkpt lat="43.34615845101802" lon="5.538639139771842"><ele>630.0</ele><time>2026-04-24T10:49:01.999Z</time></trkpt><trkpt lat="43.34609051291555" lon="5.538702190925233"><ele>630.0</ele><time>2026-04-24T10:49:05.999Z</time></trkpt><trkpt lat="43.34602178683822" lon="5.538773242819144"><ele>630.0</ele><time>2026-04-24T10:49:08.999Z</time></trkpt><trkpt lat="43.345955854198536" lon="5.53884047691143"><ele>630.0</ele><time>2026-04-24T10:49:12.999Z</time></trkpt><trkpt lat="43.345897897772026" lon="5.538879792026282"><ele>630.0</ele><time>2026-04-24T10:49:15.999Z</time></trkpt><trkpt lat="43.345829649453414" lon="5.538923044776053"><ele>630.0</ele><time>2026-04-24T10:49:18.999Z</time></trkpt><trkpt lat="43.34577092274707" lon="5.53895619736572"><ele>630.1428571428571</ele><time>2026-04-24T10:49:20.999Z</time></trkpt><trkpt lat="43.34570180977753" lon="5.538969785252092"><ele>630.2857142857142</ele><time>2026-04-24T10:49:23.999Z</time></trkpt><trkpt lat="43.34563431488803" lon="5.538987115180651"><ele>630.4285714285714</ele><time>2026-04-24T10:49:26.999Z</time></trkpt><trkpt lat="43.345558736724946" lon="5.5390240841693315"><ele>630.5714285714286</ele><time>2026-04-24T10:49:28.999Z</time></trkpt><trkpt lat="43.345534095088865" lon="5.5391068433361825"><ele>630.7142857142857</ele><time>2026-04-24T10:49:31.999Z</time></trkpt><trkpt lat="43.34553298346513" lon="5.53921086252369"><ele>630.8571428571429</ele><time>2026-04-24T10:49:34.999Z</time></trkpt><trkpt lat="43.34556631588382" lon="5.539307285389786"><ele>631.0</ele><time>2026-04-24T10:49:37.999Z</time></trkpt><trkpt lat="43.345614060215205" lon="5.539417508932211"><ele>633.0</ele><time>2026-04-24T10:49:40.999Z</time></trkpt><trkpt lat="43.34565468506298" lon="5.539489592969796"><ele>635.0</ele><time>2026-04-24T10:49:42.999Z</time></trkpt><trkpt lat="43.34568594151316" lon="5.539579060543289"><ele>637.0</ele><time>2026-04-24T10:49:46Z</time></trkpt><trkpt lat="43.345709275615235" lon="5.539664737014232"><ele>639.0</ele><time>2026-04-24T10:49:48Z</time></trkpt><trkpt lat="43.345733771378676" lon="5.539766424534303"><ele>641.0</ele><time>2026-04-24T10:49:51Z</time></trkpt><trkpt lat="43.34576389302254" lon="5.5398682415074205"><ele>643.0</ele><time>2026-04-24T10:49:54Z</time></trkpt><trkpt lat="43.3457844091329" lon="5.539978720574593"><ele>645.0</ele><time>2026-04-24T10:49:58Z</time></trkpt><trkpt lat="43.34581202231197" lon="5.540065651673921"><ele>644.6666666666666</ele><time>2026-04-24T10:50:01Z</time></trkpt><trkpt lat="43.3458239847602" lon="5.540158097071181"><ele>644.3333333333334</ele><time>2026-04-24T10:50:04Z</time></trkpt><trkpt lat="43.34584058578524" lon="5.540261476302769"><ele>644.0</ele><time>2026-04-24T10:50:08Z</time></trkpt><trkpt lat="43.345860302136636" lon="5.54034972434903"><ele>643.6666666666667</ele><time>2026-04-24T10:50:11Z</time></trkpt><trkpt lat="43.34589996525521" lon="5.5404602243538275"><ele>643.3333333333334</ele><time>2026-04-24T10:50:15Z</time></trkpt><trkpt lat="43.34594638922269" lon="5.540561164282278"><ele>643.0</ele><time>2026-04-24T10:50:18Z</time></trkpt><trkpt lat="43.346001592925944" lon="5.540638716545044"><ele>643.0</ele><time>2026-04-24T10:50:21Z</time></trkpt><trkpt lat="43.34607087574877" lon="5.540720070022695"><ele>643.0</ele><time>2026-04-24T10:50:24Z</time></trkpt><trkpt lat="43.34611819440855" lon="5.540784460794956"><ele>643.0</ele><time>2026-04-24T10:50:26Z</time></trkpt><trkpt lat="43.34617527396035" lon="5.540856406558654"><ele>643.0</ele><time>2026-04-24T10:50:29Z</time></trkpt><trkpt lat="43.346236855238104" lon="5.540950354117688"><ele>643.0</ele><time>2026-04-24T10:50:32Z</time></trkpt><trkpt lat="43.34628400996619" lon="5.541054721967762"><ele>643.0</ele><time>2026-04-24T10:50:35Z</time></trkpt><trkpt lat="43.34633340720829" lon="5.541128555736599"><ele>643.0</ele><time>2026-04-24T10:50:37Z</time></trkpt><trkpt lat="43.34637121051646" lon="5.541202897111119"><ele>643.0</ele><time>2026-04-24T10:50:39Z</time></trkpt><trkpt lat="43.346416888187726" lon="5.5413026429150545"><ele>643.0</ele><time>2026-04-24T10:50:42Z</time></trkpt><trkpt lat="43.34645446221405" lon="5.541404840880005"><ele>643.0</ele><time>2026-04-24T10:50:45Z</time></trkpt><trkpt lat="43.34649371502634" lon="5.541499381977358"><ele>643.0</ele><time>2026-04-24T10:50:48.999Z</time></trkpt><trkpt lat="43.34652838118326" lon="5.54157203569293"><ele>643.0</ele><time>2026-04-24T10:50:51.999Z</time></trkpt><trkpt lat="43.34656466471959" lon="5.54166990716875"><ele>644.5714285714286</ele><time>2026-04-24T10:50:55.999Z</time></trkpt><trkpt lat="43.346603916207556" lon="5.541766461593691"><ele>646.1428571428572</ele><time>2026-04-24T10:50:59.999Z</time></trkpt><trkpt lat="43.346633577030325" lon="5.541852537245736"><ele>647.7142857142858</ele><time>2026-04-24T10:51:03.999Z</time></trkpt><trkpt lat="43.346668413641865" lon="5.541940606326795"><ele>649.2857142857142</ele><time>2026-04-24T10:51:07.999Z</time></trkpt><trkpt lat="43.34669920624834" lon="5.542030972768109"><ele>650.8571428571429</ele><time>2026-04-24T10:51:11.999Z</time></trkpt><trkpt lat="43.346733291407794" lon="5.542122679876202"><ele>652.4285714285714</ele><time>2026-04-24T10:51:15.999Z</time></trkpt><trkpt lat="43.34676520306475" lon="5.542211754672708"><ele>654.0</ele><time>2026-04-24T10:51:18.999Z</time></trkpt><trkpt lat="43.346791571996796" lon="5.542297802707058"><ele>654.5714285714286</ele><time>2026-04-24T10:51:22.999Z</time></trkpt><trkpt lat="43.346836632666" lon="5.542366033987488"><ele>655.1428571428571</ele><time>2026-04-24T10:51:27.999Z</time></trkpt><trkpt lat="43.346833372426765" lon="5.542455296544299"><ele>655.7142857142858</ele><time>2026-04-24T10:51:31.999Z</time></trkpt><trkpt lat="43.34686180788091" lon="5.5425400523259665"><ele>656.2857142857142</ele><time>2026-04-24T10:51:35.999Z</time></trkpt><trkpt lat="43.34689922840106" lon="5.542630391515712"><ele>656.8571428571429</ele><time>2026-04-24T10:51:40.999Z</time></trkpt><trkpt lat="43.3469109225006" lon="5.542715488104666"><ele>657.4285714285714</ele><time>2026-04-24T10:51:45.999Z</time></trkpt><trkpt lat="43.34694669031778" lon="5.542810403404732"><ele>658.0</ele><time>2026-04-24T10:51:52Z</time></trkpt><trkpt lat="43.34697528110008" lon="5.5429121423623835"><ele>659.2857142857143</ele><time>2026-04-24T10:51:57Z</time></trkpt><trkpt lat="43.34700384357114" lon="5.543001658739996"><ele>660.5714285714286</ele><time>2026-04-24T10:52:02Z</time></trkpt><trkpt lat="43.347014101140935" lon="5.543096569922714"><ele>661.8571428571429</ele><time>2026-04-24T10:52:06Z</time></trkpt><trkpt lat="43.34699335445561" lon="5.543180819384414"><ele>663.1428571428571</ele><time>2026-04-24T10:52:10Z</time></trkpt><trkpt lat="43.34693419384149" lon="5.543242258112894"><ele>664.4285714285714</ele><time>2026-04-24T10:52:15Z</time></trkpt><trkpt lat="43.346890415006946" lon="5.543309216877116"><ele>665.7142857142858</ele><time>2026-04-24T10:52:19Z</time></trkpt><trkpt lat="43.346830189777236" lon="5.543352891313148"><ele>667.0</ele><time>2026-04-24T10:52:23Z</time></trkpt><trkpt lat="43.34676311711538" lon="5.543375237551989"><ele>667.0</ele><time>2026-04-24T10:52:27Z</time></trkpt><trkpt lat="43.34669144962048" lon="5.5434447604058015"><ele>667.0</ele><time>2026-04-24T10:52:31Z</time></trkpt><trkpt lat="43.346633641241056" lon="5.543530695742307"><ele>667.0</ele><time>2026-04-24T10:52:35Z</time></trkpt><trkpt lat="43.346591933534135" lon="5.543618727112867"><ele>667.0</ele><time>2026-04-24T10:52:38Z</time></trkpt><trkpt lat="43.346561961093386" lon="5.543704106374085"><ele>667.0</ele><time>2026-04-24T10:52:41Z</time></trkpt><trkpt lat="43.34652991587315" lon="5.54381880504475"><ele>667.0</ele><time>2026-04-24T10:52:45Z</time></trkpt><trkpt lat="43.34650271598919" lon="5.543915651569638"><ele>666.2857142857143</ele><time>2026-04-24T10:52:49Z</time></trkpt><trkpt lat="43.34648702399896" lon="5.544005410198336"><ele>665.5714285714286</ele><time>2026-04-24T10:52:53Z</time></trkpt><trkpt lat="43.346467531005274" lon="5.544089671653946"><ele>664.8571428571429</ele><time>2026-04-24T10:52:57Z</time></trkpt><trkpt lat="43.346446755295894" lon="5.5441968880100765"><ele>664.1428571428571</ele><time>2026-04-24T10:53:01.999Z</time></trkpt><trkpt lat="43.34642091367316" lon="5.544276813525022"><ele>663.4285714285714</ele><time>2026-04-24T10:53:05.999Z</time></trkpt><trkpt lat="43.34640919083968" lon="5.544383949342669"><ele>662.7142857142858</ele><time>2026-04-24T10:53:10.999Z</time></trkpt><trkpt lat="43.34637757219414" lon="5.544474624771042"><ele>662.0</ele><time>2026-04-24T10:53:14.999Z</time></trkpt><trkpt lat="43.34636003257174" lon="5.544558131798477"><ele>663.8571428571429</ele><time>2026-04-24T10:53:18.999Z</time></trkpt><trkpt lat="43.34632782222878" lon="5.544655030880804"><ele>665.7142857142857</ele><time>2026-04-24T10:53:22.999Z</time></trkpt><trkpt lat="43.34629837333648" lon="5.544737589722803"><ele>667.5714285714286</ele><time>2026-04-24T10:53:26.999Z</time></trkpt><trkpt lat="43.346265743189925" lon="5.54481553190067"><ele>669.4285714285714</ele><time>2026-04-24T10:53:29.999Z</time></trkpt><trkpt lat="43.34621641307289" lon="5.544906273838395"><ele>671.2857142857143</ele><time>2026-04-24T10:53:33.999Z</time></trkpt><trkpt lat="43.346176719187405" lon="5.544985550014651"><ele>673.1428571428571</ele><time>2026-04-24T10:53:36.999Z</time></trkpt><trkpt lat="43.34614204600542" lon="5.545078292067724"><ele>675.0</ele><time>2026-04-24T10:53:40.999Z</time></trkpt><trkpt lat="43.34608145746002" lon="5.545137845407941"><ele>675.0</ele><time>2026-04-24T10:53:43.999Z</time></trkpt><trkpt lat="43.34602790958445" lon="5.545226484698864"><ele>675.0</ele><time>2026-04-24T10:53:47.999Z</time></trkpt><trkpt lat="43.34598698161656" lon="5.545296706410797"><ele>675.0</ele><time>2026-04-24T10:53:50.999Z</time></trkpt><trkpt lat="43.345925922465575" lon="5.545372403312114"><ele>675.0</ele><time>2026-04-24T10:53:54.999Z</time></trkpt><trkpt lat="43.34587498565791" lon="5.5454344720892745"><ele>675.0</ele><time>2026-04-24T10:53:59Z</time></trkpt><trkpt lat="43.34580533219391" lon="5.545496668316338"><ele>675.0</ele><time>2026-04-24T10:54:02Z</time></trkpt><trkpt lat="43.3457493238016" lon="5.5455505477130185"><ele>676.8333333333334</ele><time>2026-04-24T10:54:05Z</time></trkpt><trkpt lat="43.34568799628617" lon="5.545593232110407"><ele>678.6666666666666</ele><time>2026-04-24T10:54:09Z</time></trkpt><trkpt lat="43.34564162863881" lon="5.545675941877879"><ele>680.5</ele><time>2026-04-24T10:54:14Z</time></trkpt><trkpt lat="43.34558655555829" lon="5.545741125161073"><ele>682.3333333333333</ele><time>2026-04-24T10:54:19Z</time></trkpt><trkpt lat="43.34559045310462" lon="5.545838208665163"><ele>684.1666666666666</ele><time>2026-04-24T10:54:24Z</time></trkpt><trkpt lat="43.345649678357574" lon="5.545888561349256"><ele>686.0</ele><time>2026-04-24T10:54:29Z</time></trkpt><trkpt lat="43.34549863714192" lon="5.546044799273599"><ele>685.1666666666666</ele><time>2026-04-24T11:01:44.999Z</time></trkpt><trkpt lat="43.34552293192917" lon="5.546148624765532"><ele>684.3333333333333</ele><time>2026-04-24T11:01:51.999Z</time></trkpt><trkpt lat="43.34558062082382" lon="5.546247827714115"><ele>683.5</ele><time>2026-04-24T11:01:53.999Z</time></trkpt><trkpt lat="43.345666731333175" lon="5.546375245670885"><ele>682.6666666666666</ele><time>2026-04-24T11:01:55.999Z</time></trkpt><trkpt lat="43.345712834099224" lon="5.5464343738455515"><ele>681.8333333333334</ele><time>2026-04-24T11:01:56.999Z</time></trkpt><trkpt lat="43.34576678720225" lon="5.546515866761279"><ele>681.0</ele><time>2026-04-24T11:01:57.999Z</time></trkpt><trkpt lat="43.345819126268935" lon="5.546604501839258"><ele>681.0</ele><time>2026-04-24T11:01:58.999Z</time></trkpt><trkpt lat="43.34587465384585" lon="5.546693798679016"><ele>681.0</ele><time>2026-04-24T11:01:59.999Z</time></trkpt><trkpt lat="43.345938243610895" lon="5.54677830918078"><ele>681.0</ele><time>2026-04-24T11:02:00.999Z</time></trkpt><trkpt lat="43.346009192151215" lon="5.546856145316481"><ele>681.0</ele><time>2026-04-24T11:02:01.999Z</time></trkpt><trkpt lat="43.34608357185255" lon="5.546929286018985"><ele>681.0</ele><time>2026-04-24T11:02:02.999Z</time></trkpt><trkpt lat="43.346163993460266" lon="5.547012906011785"><ele>679.8</ele><time>2026-04-24T11:02:03.999Z</time></trkpt><trkpt lat="43.34622628605925" lon="5.5471244252709715"><ele>678.5999999999999</ele><time>2026-04-24T11:02:04.999Z</time></trkpt><trkpt lat="43.346299589869595" lon="5.547218922883485"><ele>677.4</ele><time>2026-04-24T11:02:05.999Z</time></trkpt><trkpt lat="43.34636611870893" lon="5.547331936526543"><ele>676.2</ele><time>2026-04-24T11:02:06.999Z</time></trkpt><trkpt lat="43.346404171382254" lon="5.547455947316808"><ele>675.0</ele><time>2026-04-24T11:02:07.999Z</time></trkpt><trkpt lat="43.34646288758131" lon="5.547579803364855"><ele>675.0</ele><time>2026-04-24T11:02:08.999Z</time></trkpt><trkpt lat="43.34652574549306" lon="5.547699912436751"><ele>675.0</ele><time>2026-04-24T11:02:09.999Z</time></trkpt><trkpt lat="43.3465960934651" lon="5.547816686559342"><ele>675.0</ele><time>2026-04-24T11:02:10.999Z</time></trkpt><trkpt lat="43.34667913726386" lon="5.547913291556476"><ele>675.0</ele><time>2026-04-24T11:02:11.999Z</time></trkpt><trkpt lat="43.34676419298255" lon="5.547985981369759"><ele>675.0</ele><time>2026-04-24T11:02:12.999Z</time></trkpt><trkpt lat="43.34684815364817" lon="5.54804386057301"><ele>674.0</ele><time>2026-04-24T11:02:13.999Z</time></trkpt><trkpt lat="43.34692636659166" lon="5.548106907183655"><ele>673.0</ele><time>2026-04-24T11:02:14.999Z</time></trkpt><trkpt lat="43.347008774492515" lon="5.548173028541426"><ele>672.0</ele><time>2026-04-24T11:02:15.999Z</time></trkpt><trkpt lat="43.34708889125902" lon="5.548237267895138"><ele>671.0</ele><time>2026-04-24T11:02:16.999Z</time></trkpt><trkpt lat="43.347166289481116" lon="5.548303569213505"><ele>670.0</ele><time>2026-04-24T11:02:17.999Z</time></trkpt><trkpt lat="43.34725619851211" lon="5.548357757484151"><ele>669.8333333333334</ele><time>2026-04-24T11:02:18.999Z</time></trkpt><trkpt lat="43.34731434567215" lon="5.5484248993163225"><ele>669.6666666666667</ele><time>2026-04-24T11:02:19.999Z</time></trkpt><trkpt lat="43.347390286299834" lon="5.548466711358944"><ele>669.5</ele><time>2026-04-24T11:02:23Z</time></trkpt><trkpt lat="43.34746780170035" lon="5.5484524821099175"><ele>669.3333333333334</ele><time>2026-04-24T11:02:43Z</time></trkpt><trkpt lat="43.347548326448035" lon="5.548420572016949"><ele>669.1666666666666</ele><time>2026-04-24T11:02:45Z</time></trkpt><trkpt lat="43.34763711076597" lon="5.548358892529124"><ele>669.0</ele><time>2026-04-24T11:02:47Z</time></trkpt><trkpt lat="43.34772186425133" lon="5.5482562574236125"><ele>669.0</ele><time>2026-04-24T11:02:49Z</time></trkpt><trkpt lat="43.34775454808492" lon="5.548181772454019"><ele>669.0</ele><time>2026-04-24T11:02:50Z</time></trkpt><trkpt lat="43.34778685501417" lon="5.5480968927339545"><ele>669.0</ele><time>2026-04-24T11:02:51Z</time></trkpt><trkpt lat="43.34787353412821" lon="5.547952168944666"><ele>669.0</ele><time>2026-04-24T11:02:53Z</time></trkpt><trkpt lat="43.34791464670598" lon="5.547856897969801"><ele>669.0</ele><time>2026-04-24T11:02:54Z</time></trkpt><trkpt lat="43.3479568891487" lon="5.547761987576926"><ele>669.0</ele><time>2026-04-24T11:02:55Z</time></trkpt><trkpt lat="43.34799628988748" lon="5.547675791296739"><ele>669.6666666666666</ele><time>2026-04-24T11:02:56Z</time></trkpt><trkpt lat="43.34803586738311" lon="5.5475910701284485"><ele>670.3333333333334</ele><time>2026-04-24T11:02:57Z</time></trkpt><trkpt lat="43.348085093621364" lon="5.547513216118765"><ele>671.0</ele><time>2026-04-24T11:02:58Z</time></trkpt><trkpt lat="43.348120921062375" lon="5.547428404440358"><ele>671.6666666666667</ele><time>2026-04-24T11:02:59Z</time></trkpt><trkpt lat="43.34815901714072" lon="5.547338222371"><ele>672.3333333333334</ele><time>2026-04-24T11:03:00Z</time></trkpt><trkpt lat="43.348197137318515" lon="5.5472497206446665"><ele>673.0</ele><time>2026-04-24T11:03:01Z</time></trkpt><trkpt lat="43.34822573016368" lon="5.547141347992212"><ele>671.3333333333334</ele><time>2026-04-24T11:03:02Z</time></trkpt><trkpt lat="43.348275726902294" lon="5.547054376625593"><ele>669.6666666666667</ele><time>2026-04-24T11:03:03Z</time></trkpt><trkpt lat="43.34833292510371" lon="5.546967958017038"><ele>668.0</ele><time>2026-04-24T11:03:04Z</time></trkpt><trkpt lat="43.34837668566312" lon="5.546864122695262"><ele>666.3333333333334</ele><time>2026-04-24T11:03:05Z</time></trkpt><trkpt lat="43.348431981430906" lon="5.546785185328409"><ele>664.6666666666666</ele><time>2026-04-24T11:03:06Z</time></trkpt><trkpt lat="43.34851812317654" lon="5.546742614313874"><ele>663.0</ele><time>2026-04-24T11:03:07Z</time></trkpt><trkpt lat="43.34860707996599" lon="5.5467459928245635"><ele>662.6666666666666</ele><time>2026-04-24T11:03:08Z</time></trkpt><trkpt lat="43.34868369951773" lon="5.546780164133136"><ele>662.3333333333334</ele><time>2026-04-24T11:03:09Z</time></trkpt><trkpt lat="43.34875905290113" lon="5.5467994121089355"><ele>662.0</ele><time>2026-04-24T11:03:10Z</time></trkpt><trkpt lat="43.34883788303888" lon="5.546800343744133"><ele>661.6666666666667</ele><time>2026-04-24T11:03:11Z</time></trkpt><trkpt lat="43.34891024753824" lon="5.546808668775909"><ele>661.3333333333334</ele><time>2026-04-24T11:03:12Z</time></trkpt><trkpt lat="43.34898484903562" lon="5.546812343756995"><ele>661.0</ele><time>2026-04-24T11:03:13Z</time></trkpt><trkpt lat="43.34905788878573" lon="5.54681666932677"><ele>660.8571428571429</ele><time>2026-04-24T11:03:14Z</time></trkpt><trkpt lat="43.349127766260835" lon="5.5468120113397115"><ele>660.7142857142858</ele><time>2026-04-24T11:03:15Z</time></trkpt><trkpt lat="43.349200302344194" lon="5.546791310907016"><ele>660.5714285714287</ele><time>2026-04-24T11:03:16Z</time></trkpt><trkpt lat="43.349268367089074" lon="5.546759511286777"><ele>660.4285714285714</ele><time>2026-04-24T11:03:17Z</time></trkpt><trkpt lat="43.349334824697245" lon="5.546713735067487"><ele>660.2857142857143</ele><time>2026-04-24T11:03:18Z</time></trkpt><trkpt lat="43.3494043931502" lon="5.54667064611141"><ele>660.1428571428572</ele><time>2026-04-24T11:03:19Z</time></trkpt><trkpt lat="43.34946816665291" lon="5.546624239211347"><ele>660.0</ele><time>2026-04-24T11:03:20Z</time></trkpt><trkpt lat="43.34954240606307" lon="5.5465939207975685"><ele>660.0</ele><time>2026-04-24T11:03:21Z</time></trkpt><trkpt lat="43.3496103004806" lon="5.546546049024151"><ele>660.0</ele><time>2026-04-24T11:03:22Z</time></trkpt><trkpt lat="43.34967937207939" lon="5.546485489393276"><ele>660.0</ele><time>2026-04-24T11:03:23Z</time></trkpt><trkpt lat="43.34974325495911" lon="5.546410224168908"><ele>660.0</ele><time>2026-04-24T11:03:24Z</time></trkpt><trkpt lat="43.3498014348383" lon="5.546338659869114"><ele>660.0</ele><time>2026-04-24T11:03:25Z</time></trkpt><trkpt lat="43.349869710154024" lon="5.546252361252721"><ele>660.0</ele><time>2026-04-24T11:03:26Z</time></trkpt><trkpt lat="43.34992407369731" lon="5.546165741028692"><ele>660.1666666666666</ele><time>2026-04-24T11:03:27Z</time></trkpt><trkpt lat="43.34996896993385" lon="5.546068654995861"><ele>660.3333333333334</ele><time>2026-04-24T11:03:28Z</time></trkpt><trkpt lat="43.34999642542906" lon="5.545968610938279"><ele>660.5</ele><time>2026-04-24T11:03:29Z</time></trkpt><trkpt lat="43.350012577468064" lon="5.545866245004648"><ele>660.6666666666667</ele><time>2026-04-24T11:03:30Z</time></trkpt><trkpt lat="43.35003457483889" lon="5.545782053474175"><ele>660.8333333333334</ele><time>2026-04-24T11:03:31Z</time></trkpt><trkpt lat="43.35009904710766" lon="5.545735749125831"><ele>661.0</ele><time>2026-04-24T11:03:32Z</time></trkpt><trkpt lat="43.350213733527326" lon="5.545788701573664"><ele>661.0</ele><time>2026-04-24T11:03:34Z</time></trkpt><trkpt lat="43.350257451782234" lon="5.545860615362463"><ele>661.0</ele><time>2026-04-24T11:03:35Z</time></trkpt><trkpt lat="43.350362665012106" lon="5.545942987770089"><ele>661.0</ele><time>2026-04-24T11:03:37Z</time></trkpt><trkpt lat="43.35046348121128" lon="5.545999731270103"><ele>661.0</ele><time>2026-04-24T11:03:39Z</time></trkpt><trkpt lat="43.35056112355608" lon="5.5460397374050885"><ele>661.0</ele><time>2026-04-24T11:03:40.999Z</time></trkpt><trkpt lat="43.35065950651054" lon="5.546070174964519"><ele>659.8</ele><time>2026-04-24T11:03:42.999Z</time></trkpt><trkpt lat="43.350755272275144" lon="5.546063168395059"><ele>658.5999999999999</ele><time>2026-04-24T11:03:44.999Z</time></trkpt><trkpt lat="43.35085344453631" lon="5.546057138619068"><ele>657.4</ele><time>2026-04-24T11:03:46.999Z</time></trkpt><trkpt lat="43.35094607134681" lon="5.546023100720593"><ele>656.2</ele><time>2026-04-24T11:03:48.999Z</time></trkpt><trkpt lat="43.35102908493693" lon="5.545976118464984"><ele>655.0</ele><time>2026-04-24T11:03:50.999Z</time></trkpt><trkpt lat="43.35110131273628" lon="5.545927050453177"><ele>655.0</ele><time>2026-04-24T11:03:52.999Z</time></trkpt><trkpt lat="43.35117225262918" lon="5.54588447768691"><ele>655.0</ele><time>2026-04-24T11:03:54.999Z</time></trkpt><trkpt lat="43.35123712862656" lon="5.54584206746254"><ele>655.0</ele><time>2026-04-24T11:03:56.999Z</time></trkpt><trkpt lat="43.35130878020366" lon="5.545792620261532"><ele>655.0</ele><time>2026-04-24T11:03:58.999Z</time></trkpt><trkpt lat="43.351385827687274" lon="5.545742763327067"><ele>655.0</ele><time>2026-04-24T11:04:00.999Z</time></trkpt><trkpt lat="43.35146603007383" lon="5.545689629309816"><ele>655.0</ele><time>2026-04-24T11:04:02.999Z</time></trkpt><trkpt lat="43.35154907120999" lon="5.545628039381409"><ele>654.4</ele><time>2026-04-24T11:04:04.999Z</time></trkpt><trkpt lat="43.3516394766136" lon="5.545557051492262"><ele>653.8</ele><time>2026-04-24T11:04:06.999Z</time></trkpt><trkpt lat="43.351737758920635" lon="5.5455095595204655"><ele>653.2</ele><time>2026-04-24T11:04:08.999Z</time></trkpt><trkpt lat="43.35183463701667" lon="5.545455102620139"><ele>652.6</ele><time>2026-04-24T11:04:10.999Z</time></trkpt><trkpt lat="43.35191312019736" lon="5.545427336989323"><ele>652.0</ele><time>2026-04-24T11:04:12.999Z</time></trkpt><trkpt lat="43.351976471494105" lon="5.545448271053446"><ele>652.0</ele><time>2026-04-24T11:04:14.999Z</time></trkpt><trkpt lat="43.35204763437012" lon="5.5454935752728405"><ele>652.0</ele><time>2026-04-24T11:04:16.999Z</time></trkpt><trkpt lat="43.35205647328309" lon="5.545615663590572"><ele>652.0</ele><time>2026-04-24T11:04:18.999Z</time></trkpt><trkpt lat="43.3520897421963" lon="5.545702740482778"><ele>652.0</ele><time>2026-04-24T11:04:20.999Z</time></trkpt><trkpt lat="43.3521331039388" lon="5.545805816188385"><ele>652.0</ele><time>2026-04-24T11:04:22.999Z</time></trkpt><trkpt lat="43.35218974585218" lon="5.545939902667678"><ele>652.0</ele><time>2026-04-24T11:04:24.999Z</time></trkpt><trkpt lat="43.35222449214022" lon="5.546022326921273"><ele>651.6666666666667</ele><time>2026-04-24T11:04:25.999Z</time></trkpt><trkpt lat="43.35225337291255" lon="5.546114707649353"><ele>651.3333333333334</ele><time>2026-04-24T11:04:27Z</time></trkpt><trkpt lat="43.35229220931877" lon="5.546199652566282"><ele>651.0</ele><time>2026-04-24T11:04:28Z</time></trkpt><trkpt lat="43.35231897869455" lon="5.546294464040689"><ele>650.6666666666666</ele><time>2026-04-24T11:04:29Z</time></trkpt><trkpt lat="43.35236815587713" lon="5.5463785477611465"><ele>650.3333333333333</ele><time>2026-04-24T11:04:30Z</time></trkpt><trkpt lat="43.352403914795644" lon="5.546471096648779"><ele>650.0</ele><time>2026-04-24T11:04:31Z</time></trkpt><trkpt lat="43.35244311834677" lon="5.546560485198592"><ele>649.2857142857142</ele><time>2026-04-24T11:04:32Z</time></trkpt><trkpt lat="43.35248260898411" lon="5.546645729651772"><ele>648.5714285714287</ele><time>2026-04-24T11:04:33Z</time></trkpt><trkpt lat="43.35251502286794" lon="5.546731727358044"><ele>647.8571428571429</ele><time>2026-04-24T11:04:34Z</time></trkpt><trkpt lat="43.352549001738794" lon="5.546810899219856"><ele>647.1428571428571</ele><time>2026-04-24T11:04:35Z</time></trkpt><trkpt lat="43.352586870078675" lon="5.5468907916222525"><ele>646.4285714285713</ele><time>2026-04-24T11:04:36Z</time></trkpt><trkpt lat="43.35262367843114" lon="5.546970436501517"><ele>645.7142857142858</ele><time>2026-04-24T11:04:37Z</time></trkpt><trkpt lat="43.35266331020187" lon="5.547047455417507"><ele>645.0</ele><time>2026-04-24T11:04:38Z</time></trkpt><trkpt lat="43.35269299805616" lon="5.547125422169816"><ele>645.0</ele><time>2026-04-24T11:04:39Z</time></trkpt><trkpt lat="43.35272753901999" lon="5.547200979503642"><ele>645.0</ele><time>2026-04-24T11:04:40Z</time></trkpt><trkpt lat="43.35278669180217" lon="5.547349385513191"><ele>645.0</ele><time>2026-04-24T11:04:42Z</time></trkpt><trkpt lat="43.352832945751004" lon="5.547498160975743"><ele>645.0</ele><time>2026-04-24T11:04:44Z</time></trkpt><trkpt lat="43.352863623767" lon="5.547621932655908"><ele>645.0</ele><time>2026-04-24T11:04:46Z</time></trkpt><trkpt lat="43.35289326776391" lon="5.5477447022326825"><ele>644.5</ele><time>2026-04-24T11:04:48Z</time></trkpt><trkpt lat="43.352937556309946" lon="5.547890272900092"><ele>644.0</ele><time>2026-04-24T11:04:50Z</time></trkpt><trkpt lat="43.35297976474261" lon="5.547959342973333"><ele>643.5</ele><time>2026-04-24T11:04:51Z</time></trkpt><trkpt lat="43.352994909034344" lon="5.5480507774485535"><ele>643.0</ele><time>2026-04-24T11:04:52Z</time></trkpt><trkpt lat="43.353026581458565" lon="5.548141373406652"><ele>642.5</ele><time>2026-04-24T11:04:53Z</time></trkpt><trkpt lat="43.35305762602195" lon="5.548233273122941"><ele>642.0</ele><time>2026-04-24T11:04:54Z</time></trkpt><trkpt lat="43.35308619885438" lon="5.548317855908014"><ele>641.6</ele><time>2026-04-24T11:04:55Z</time></trkpt><trkpt lat="43.35313039775715" lon="5.548405527603596"><ele>641.2</ele><time>2026-04-24T11:04:56Z</time></trkpt><trkpt lat="43.353153942124386" lon="5.5485188915183095"><ele>640.8</ele><time>2026-04-24T11:04:57Z</time></trkpt><trkpt lat="43.353151780176525" lon="5.548658639076079"><ele>640.4</ele><time>2026-04-24T11:04:58Z</time></trkpt><trkpt lat="43.35315869556524" lon="5.548797293588146"><ele>640.0</ele><time>2026-04-24T11:04:59Z</time></trkpt><trkpt lat="43.353164473483076" lon="5.548935766101352"><ele>640.0</ele><time>2026-04-24T11:05:00Z</time></trkpt><trkpt lat="43.353169538366664" lon="5.549088932392533"><ele>640.0</ele><time>2026-04-24T11:05:01Z</time></trkpt><trkpt lat="43.35318638861329" lon="5.549230737829988"><ele>640.0</ele><time>2026-04-24T11:05:02Z</time></trkpt><trkpt lat="43.35319183690684" lon="5.549370417587099"><ele>640.0</ele><time>2026-04-24T11:05:03Z</time></trkpt><trkpt lat="43.353210592839496" lon="5.549511864781744"><ele>640.0</ele><time>2026-04-24T11:05:04Z</time></trkpt><trkpt lat="43.353233097956334" lon="5.549651438420852"><ele>639.2</ele><time>2026-04-24T11:05:05Z</time></trkpt><trkpt lat="43.353246935929704" lon="5.5497687711465105"><ele>638.4</ele><time>2026-04-24T11:05:06Z</time></trkpt><trkpt lat="43.3532831060282" lon="5.549873997238744"><ele>637.6</ele><time>2026-04-24T11:05:08Z</time></trkpt><trkpt lat="43.35329381571846" lon="5.549986231384571"><ele>636.8</ele><time>2026-04-24T11:05:19.999Z</time></trkpt><trkpt lat="43.353428418962736" lon="5.549990047153903"><ele>636.0</ele><time>2026-04-24T11:05:21.999Z</time></trkpt><trkpt lat="43.35349079545056" lon="5.550055715389333"><ele>636.0</ele><time>2026-04-24T11:05:23.999Z</time></trkpt><trkpt lat="43.35355118866586" lon="5.550108244504927"><ele>636.0</ele><time>2026-04-24T11:05:25.999Z</time></trkpt><trkpt lat="43.353652389698354" lon="5.550037228041662"><ele>636.0</ele><time>2026-04-24T11:05:28.999Z</time></trkpt><trkpt lat="43.35370292890281" lon="5.549980895826044"><ele>636.0</ele><time>2026-04-24T11:05:30.999Z</time></trkpt><trkpt lat="43.35374699124619" lon="5.549903543781261"><ele>636.0</ele><time>2026-04-24T11:05:32.999Z</time></trkpt><trkpt lat="43.35379601174342" lon="5.549839943403981"><ele>636.0</ele><time>2026-04-24T11:05:34.999Z</time></trkpt><trkpt lat="43.35383741546874" lon="5.549773684317153"><ele>636.0</ele><time>2026-04-24T11:05:36.999Z</time></trkpt><trkpt lat="43.35387936439122" lon="5.549697513208287"><ele>636.0</ele><time>2026-04-24T11:05:38.999Z</time></trkpt><trkpt lat="43.35391663150085" lon="5.549586795333612"><ele>636.0</ele><time>2026-04-24T11:05:41.999Z</time></trkpt><trkpt lat="43.353945957298144" lon="5.549508302108646"><ele>636.0</ele><time>2026-04-24T11:05:43.999Z</time></trkpt><trkpt lat="43.35397632642618" lon="5.54941734633003"><ele>636.0</ele><time>2026-04-24T11:05:45.999Z</time></trkpt><trkpt lat="43.353999990739624" lon="5.549318822980849"><ele>636.0</ele><time>2026-04-24T11:05:47.999Z</time></trkpt><trkpt lat="43.35402578873408" lon="5.549183481657717"><ele>635.4</ele><time>2026-04-24T11:05:50.999Z</time></trkpt><trkpt lat="43.354071875264886" lon="5.548978780965481"><ele>634.8</ele><time>2026-04-24T11:05:52.999Z</time></trkpt><trkpt lat="43.3540778968628" lon="5.548886153297991"><ele>634.1999999999999</ele><time>2026-04-24T11:05:53.999Z</time></trkpt><trkpt lat="43.354080300299586" lon="5.548770469252463"><ele>633.6</ele><time>2026-04-24T11:05:54.999Z</time></trkpt><trkpt lat="43.354031204242304" lon="5.548682356850185"><ele>633.0</ele><time>2026-04-24T11:05:55.999Z</time></trkpt><trkpt lat="43.35399835792368" lon="5.548587939390575"><ele>631.8</ele><time>2026-04-24T11:05:56.999Z</time></trkpt><trkpt lat="43.3539479561586" lon="5.548487229511771"><ele>630.5999999999999</ele><time>2026-04-24T11:05:57.999Z</time></trkpt><trkpt lat="43.353909392474456" lon="5.548368215388874"><ele>629.4000000000001</ele><time>2026-04-24T11:05:58.999Z</time></trkpt><trkpt lat="43.35385384025707" lon="5.548247321875829"><ele>628.2</ele><time>2026-04-24T11:05:59.999Z</time></trkpt><trkpt lat="43.35380743725992" lon="5.54814182058941"><ele>627.0</ele><time>2026-04-24T11:06:00.999Z</time></trkpt><trkpt lat="43.35375985587883" lon="5.548032851712565"><ele>628.6</ele><time>2026-04-24T11:06:01.999Z</time></trkpt><trkpt lat="43.35370421317583" lon="5.547930517797419"><ele>630.2</ele><time>2026-04-24T11:06:02.999Z</time></trkpt><trkpt lat="43.35366391262962" lon="5.5478131841907175"><ele>631.8</ele><time>2026-04-24T11:06:03.999Z</time></trkpt><trkpt lat="43.35362986171185" lon="5.547708362765683"><ele>633.4</ele><time>2026-04-24T11:06:04.999Z</time></trkpt><trkpt lat="43.35357062359996" lon="5.547600509634854"><ele>635.0</ele><time>2026-04-24T11:06:05.999Z</time></trkpt><trkpt lat="43.35353624889919" lon="5.547474979561003"><ele>635.0</ele><time>2026-04-24T11:06:06.999Z</time></trkpt><trkpt lat="43.353492476652896" lon="5.5473651325745"><ele>635.0</ele><time>2026-04-24T11:06:07.999Z</time></trkpt><trkpt lat="43.3534496794525" lon="5.547260077500221"><ele>635.0</ele><time>2026-04-24T11:06:08.999Z</time></trkpt><trkpt lat="43.353398277716266" lon="5.5471507519277825"><ele>635.0</ele><time>2026-04-24T11:06:09.999Z</time></trkpt><trkpt lat="43.35335806320858" lon="5.547037033329962"><ele>635.0</ele><time>2026-04-24T11:06:10.999Z</time></trkpt><trkpt lat="43.35331240051995" lon="5.546921701959533"><ele>633.0</ele><time>2026-04-24T11:06:11.999Z</time></trkpt><trkpt lat="43.35326436837066" lon="5.546793276734884"><ele>631.0</ele><time>2026-04-24T11:06:12.999Z</time></trkpt><trkpt lat="43.35321817171712" lon="5.546651642614476"><ele>629.0</ele><time>2026-04-24T11:06:13.999Z</time></trkpt><trkpt lat="43.3532086730442" lon="5.546509125713313"><ele>627.0</ele><time>2026-04-24T11:06:14.999Z</time></trkpt><trkpt lat="43.353199746172" lon="5.54636716116326"><ele>625.0</ele><time>2026-04-24T11:06:15.999Z</time></trkpt><trkpt lat="43.353204746153224" lon="5.546226345010992"><ele>626.6</ele><time>2026-04-24T11:06:16.999Z</time></trkpt><trkpt lat="43.353250300047364" lon="5.546105688227681"><ele>628.2</ele><time>2026-04-24T11:06:17.999Z</time></trkpt><trkpt lat="43.353311844517165" lon="5.546006600831119"><ele>629.8</ele><time>2026-04-24T11:06:18.999Z</time></trkpt><trkpt lat="43.353393501902396" lon="5.545937497114404"><ele>631.4</ele><time>2026-04-24T11:06:19.999Z</time></trkpt><trkpt lat="43.353478689005115" lon="5.54587989678216"><ele>633.0</ele><time>2026-04-24T11:06:20.999Z</time></trkpt><trkpt lat="43.353568189368005" lon="5.545833088600701"><ele>633.0</ele><time>2026-04-24T11:06:21.999Z</time></trkpt><trkpt lat="43.35365895657586" lon="5.545790948202455"><ele>633.0</ele><time>2026-04-24T11:06:22.999Z</time></trkpt><trkpt lat="43.35375357317162" lon="5.545752985070027"><ele>633.0</ele><time>2026-04-24T11:06:23.999Z</time></trkpt><trkpt lat="43.35384179328171" lon="5.545699813715211"><ele>633.0</ele><time>2026-04-24T11:06:24.999Z</time></trkpt><trkpt lat="43.353933873116404" lon="5.545661351003991"><ele>633.0</ele><time>2026-04-24T11:06:25.999Z</time></trkpt><trkpt lat="43.35401854174132" lon="5.545620440776175"><ele>630.6666666666666</ele><time>2026-04-24T11:06:26.999Z</time></trkpt><trkpt lat="43.3541042092649" lon="5.545577466118993"><ele>628.3333333333334</ele><time>2026-04-24T11:06:27.999Z</time></trkpt><trkpt lat="43.35418917014127" lon="5.545560330171985"><ele>626.0</ele><time>2026-04-24T11:06:28.999Z</time></trkpt><trkpt lat="43.35427283575235" lon="5.5455402708778285"><ele>623.6666666666667</ele><time>2026-04-24T11:06:29.999Z</time></trkpt><trkpt lat="43.35435772015862" lon="5.545536546648967"><ele>621.3333333333334</ele><time>2026-04-24T11:06:30.999Z</time></trkpt><trkpt lat="43.354440118100584" lon="5.545560163523567"><ele>619.0</ele><time>2026-04-24T11:06:31.999Z</time></trkpt><trkpt lat="43.35451485751558" lon="5.545614582046286"><ele>619.0</ele><time>2026-04-24T11:06:32.999Z</time></trkpt><trkpt lat="43.35459967097144" lon="5.545662049964245"><ele>619.0</ele><time>2026-04-24T11:06:33.999Z</time></trkpt><trkpt lat="43.35466796574579" lon="5.545716943122173"><ele>619.0</ele><time>2026-04-24T11:06:34.999Z</time></trkpt><trkpt lat="43.354736510869365" lon="5.545753178573688"><ele>619.0</ele><time>2026-04-24T11:06:35.999Z</time></trkpt><trkpt lat="43.35481306414893" lon="5.545767696214734"><ele>619.0</ele><time>2026-04-24T11:06:36.999Z</time></trkpt><trkpt lat="43.35488658699864" lon="5.545786125085126"><ele>619.0</ele><time>2026-04-24T11:06:37.999Z</time></trkpt><trkpt lat="43.3549633137223" lon="5.545799868657053"><ele>619.3333333333334</ele><time>2026-04-24T11:06:38.999Z</time></trkpt><trkpt lat="43.35503953470677" lon="5.545817166528215"><ele>619.6666666666667</ele><time>2026-04-24T11:06:39.999Z</time></trkpt><trkpt lat="43.3551157689717" lon="5.545850396043198"><ele>620.0</ele><time>2026-04-24T11:06:40.999Z</time></trkpt><trkpt lat="43.355186548296714" lon="5.545890599130608"><ele>620.3333333333334</ele><time>2026-04-24T11:06:41.999Z</time></trkpt><trkpt lat="43.355260660001015" lon="5.545934199687122"><ele>620.6666666666666</ele><time>2026-04-24T11:06:42.999Z</time></trkpt><trkpt lat="43.35532448211885" lon="5.546001095125034"><ele>621.0</ele><time>2026-04-24T11:06:43.999Z</time></trkpt><trkpt lat="43.35540199744232" lon="5.546061093893291"><ele>621.0</ele><time>2026-04-24T11:06:44.999Z</time></trkpt><trkpt lat="43.35547900251679" lon="5.546107777166974"><ele>621.0</ele><time>2026-04-24T11:06:45.999Z</time></trkpt><trkpt lat="43.355539703974934" lon="5.54618859448115"><ele>621.0</ele><time>2026-04-24T11:06:46.999Z</time></trkpt><trkpt lat="43.35560486768961" lon="5.546262587575356"><ele>621.0</ele><time>2026-04-24T11:06:48Z</time></trkpt><trkpt lat="43.35567682477593" lon="5.546335474829554"><ele>621.0</ele><time>2026-04-24T11:06:49Z</time></trkpt><trkpt lat="43.35574960879488" lon="5.546417846177484"><ele>621.0</ele><time>2026-04-24T11:06:50Z</time></trkpt><trkpt lat="43.355827920529016" lon="5.546491481097305"><ele>617.8</ele><time>2026-04-24T11:06:51Z</time></trkpt><trkpt lat="43.355913405265" lon="5.546544179967705"><ele>614.6</ele><time>2026-04-24T11:06:52Z</time></trkpt><trkpt lat="43.35601739094873" lon="5.546584238651555"><ele>611.4</ele><time>2026-04-24T11:06:53Z</time></trkpt><trkpt lat="43.35610866422564" lon="5.546637590722708"><ele>608.2</ele><time>2026-04-24T11:06:54Z</time></trkpt><trkpt lat="43.35620721440631" lon="5.546676202860875"><ele>605.0</ele><time>2026-04-24T11:06:55Z</time></trkpt><trkpt lat="43.356296820221765" lon="5.54670138512119"><ele>603.8333333333333</ele><time>2026-04-24T11:06:56Z</time></trkpt><trkpt lat="43.35638411378927" lon="5.54671319829136"><ele>602.6666666666666</ele><time>2026-04-24T11:06:57Z</time></trkpt><trkpt lat="43.35646039407311" lon="5.546682717367493"><ele>601.5</ele><time>2026-04-24T11:06:58Z</time></trkpt><trkpt lat="43.356535854148675" lon="5.5466592767366265"><ele>600.3333333333334</ele><time>2026-04-24T11:06:59Z</time></trkpt><trkpt lat="43.35661509402018" lon="5.546642084417125"><ele>599.1666666666667</ele><time>2026-04-24T11:07:00Z</time></trkpt><trkpt lat="43.3566681533246" lon="5.54657755677061"><ele>598.0</ele><time>2026-04-24T11:07:01Z</time></trkpt><trkpt lat="43.35675836236922" lon="5.546519702077326"><ele>598.0</ele><time>2026-04-24T11:07:03Z</time></trkpt><trkpt lat="43.35678768681702" lon="5.54638533811108"><ele>598.0</ele><time>2026-04-24T11:07:05Z</time></trkpt><trkpt lat="43.35681976207561" lon="5.5462660853520775"><ele>598.0</ele><time>2026-04-24T11:07:07Z</time></trkpt><trkpt lat="43.35685204316129" lon="5.5461459886142785"><ele>598.0</ele><time>2026-04-24T11:07:09Z</time></trkpt><trkpt lat="43.35684296251405" lon="5.546016528787095"><ele>598.0</ele><time>2026-04-24T11:07:10.999Z</time></trkpt><trkpt lat="43.356815743738075" lon="5.545905250015856"><ele>596.75</ele><time>2026-04-24T11:07:12.999Z</time></trkpt><trkpt lat="43.356726207426476" lon="5.545798861316379"><ele>595.5</ele><time>2026-04-24T11:07:14.999Z</time></trkpt><trkpt lat="43.35662615996638" lon="5.545695970948794"><ele>594.25</ele><time>2026-04-24T11:07:16.999Z</time></trkpt><trkpt lat="43.35654897563335" lon="5.545610584231088"><ele>593.0</ele><time>2026-04-24T11:07:18.999Z</time></trkpt><trkpt lat="43.35647674371233" lon="5.5454982688735885"><ele>593.0</ele><time>2026-04-24T11:07:20.999Z</time></trkpt><trkpt lat="43.35640694172231" lon="5.545380044045572"><ele>593.0</ele><time>2026-04-24T11:07:22.999Z</time></trkpt><trkpt lat="43.356395754034125" lon="5.545251649989719"><ele>593.0</ele><time>2026-04-24T11:07:24.999Z</time></trkpt><trkpt lat="43.35641021007557" lon="5.5451495686352565"><ele>593.0</ele><time>2026-04-24T11:07:25.999Z</time></trkpt><trkpt lat="43.35643941632976" lon="5.545047442673705"><ele>593.0</ele><time>2026-04-24T11:07:26.999Z</time></trkpt><trkpt lat="43.35647795778776" lon="5.544952697497806"><ele>593.0</ele><time>2026-04-24T11:07:27.999Z</time></trkpt><trkpt lat="43.35653847317703" lon="5.544878055299414"><ele>592.0</ele><time>2026-04-24T11:07:28.999Z</time></trkpt><trkpt lat="43.35661622153719" lon="5.544854612466535"><ele>591.0</ele><time>2026-04-24T11:07:29.999Z</time></trkpt><trkpt lat="43.35670644482128" lon="5.544864663783421"><ele>590.0</ele><time>2026-04-24T11:07:30.999Z</time></trkpt><trkpt lat="43.35681098943335" lon="5.544854026752394"><ele>589.0</ele><time>2026-04-24T11:07:31.999Z</time></trkpt><trkpt lat="43.35691804156206" lon="5.544816631646015"><ele>588.0</ele><time>2026-04-24T11:07:32.999Z</time></trkpt><trkpt lat="43.35699660603155" lon="5.544786477952787"><ele>588.0</ele><time>2026-04-24T11:07:33.999Z</time></trkpt><trkpt lat="43.35709942332067" lon="5.5447017809511285"><ele>588.0</ele><time>2026-04-24T11:07:35.999Z</time></trkpt><trkpt lat="43.35718451239442" lon="5.5446030775850215"><ele>588.0</ele><time>2026-04-24T11:07:37.999Z</time></trkpt><trkpt lat="43.35724284150334" lon="5.54447425445676"><ele>588.0</ele><time>2026-04-24T11:07:39.999Z</time></trkpt><trkpt lat="43.357304801680414" lon="5.54435495902304"><ele>588.0</ele><time>2026-04-24T11:07:41.999Z</time></trkpt><trkpt lat="43.35735682928689" lon="5.5442369906496145"><ele>584.3333333333334</ele><time>2026-04-24T11:07:43.999Z</time></trkpt><trkpt lat="43.35739226495106" lon="5.54414032791296"><ele>580.6666666666666</ele><time>2026-04-24T11:07:45.999Z</time></trkpt><trkpt lat="43.357388352866195" lon="5.544034626849546"><ele>577.0</ele><time>2026-04-24T11:09:34Z</time></trkpt><trkpt lat="43.35739610809415" lon="5.543896048127423"><ele>573.3333333333333</ele><time>2026-04-24T11:09:36Z</time></trkpt><trkpt lat="43.35736045397612" lon="5.543818835249896"><ele>569.6666666666666</ele><time>2026-04-24T11:09:37Z</time></trkpt><trkpt lat="43.35730229092443" lon="5.543761025073307"><ele>566.0</ele><time>2026-04-24T11:09:38Z</time></trkpt><trkpt lat="43.35723563194994" lon="5.543727870092674"><ele>566.5</ele><time>2026-04-24T11:09:39Z</time></trkpt><trkpt lat="43.35717660935094" lon="5.543679783572044"><ele>567.0</ele><time>2026-04-24T11:09:39.999Z</time></trkpt><trkpt lat="43.35712668477073" lon="5.543619487245391"><ele>567.5</ele><time>2026-04-24T11:09:40.999Z</time></trkpt><trkpt lat="43.357088828779915" lon="5.543538406957467"><ele>568.0</ele><time>2026-04-24T11:09:41.999Z</time></trkpt><trkpt lat="43.357059972953515" lon="5.543438000904686"><ele>568.5</ele><time>2026-04-24T11:09:42.999Z</time></trkpt><trkpt lat="43.35702107153212" lon="5.543341132978502"><ele>569.0</ele><time>2026-04-24T11:09:43.999Z</time></trkpt><trkpt lat="43.35694917708832" lon="5.543272130020934"><ele>569.0</ele><time>2026-04-24T11:09:44.999Z</time></trkpt><trkpt lat="43.356880344388486" lon="5.543186660051998"><ele>569.0</ele><time>2026-04-24T11:09:45.999Z</time></trkpt><trkpt lat="43.35681020818512" lon="5.543119754661691"><ele>569.0</ele><time>2026-04-24T11:09:46.999Z</time></trkpt><trkpt lat="43.35674817897062" lon="5.543037323328376"><ele>569.0</ele><time>2026-04-24T11:09:47.999Z</time></trkpt><trkpt lat="43.356684170469194" lon="5.542932224619028"><ele>569.0</ele><time>2026-04-24T11:09:48.999Z</time></trkpt><trkpt lat="43.35662350392542" lon="5.542827492287218"><ele>566.8</ele><time>2026-04-24T11:09:49.999Z</time></trkpt><trkpt lat="43.35656657222597" lon="5.542724962491774"><ele>564.5999999999999</ele><time>2026-04-24T11:09:50.999Z</time></trkpt><trkpt lat="43.35651684756262" lon="5.542635412053966"><ele>562.4</ele><time>2026-04-24T11:09:51.999Z</time></trkpt><trkpt lat="43.35644876309695" lon="5.542531448107178"><ele>560.1999999999999</ele><time>2026-04-24T11:09:53.999Z</time></trkpt><trkpt lat="43.35647700819735" lon="5.542431836129868"><ele>558.0</ele><time>2026-04-24T11:09:56.999Z</time></trkpt><trkpt lat="43.35656431186869" lon="5.54251740193408"><ele>558.0</ele><time>2026-04-24T11:09:59.999Z</time></trkpt><trkpt lat="43.356602848784014" lon="5.542600405820134"><ele>558.0</ele><time>2026-04-24T11:10:02.999Z</time></trkpt><trkpt lat="43.35666031661577" lon="5.542649854271197"><ele>558.0</ele><time>2026-04-24T11:10:06.999Z</time></trkpt><trkpt lat="43.356742842318404" lon="5.542709293941353"><ele>558.0</ele><time>2026-04-24T11:10:09.999Z</time></trkpt><trkpt lat="43.35682129817715" lon="5.54273643160584"><ele>558.0</ele><time>2026-04-24T11:10:11.999Z</time></trkpt><trkpt lat="43.35690390996827" lon="5.542756208749191"><ele>558.0</ele><time>2026-04-24T11:10:13.999Z</time></trkpt><trkpt lat="43.356980806386666" lon="5.542755392394553"><ele>558.0</ele><time>2026-04-24T11:10:15.999Z</time></trkpt><trkpt lat="43.357059342884355" lon="5.542742422624138"><ele>558.0</ele><time>2026-04-24T11:10:17.999Z</time></trkpt><trkpt lat="43.357137808711045" lon="5.5427219479809695"><ele>558.0</ele><time>2026-04-24T11:10:19.999Z</time></trkpt><trkpt lat="43.357202812773735" lon="5.5426986635162"><ele>558.0</ele><time>2026-04-24T11:10:21.999Z</time></trkpt><trkpt lat="43.35727213366393" lon="5.542699545196793"><ele>558.0</ele><time>2026-04-24T11:10:23.999Z</time></trkpt><trkpt lat="43.35732951560027" lon="5.542648897739699"><ele>558.0</ele><time>2026-04-24T11:10:25.999Z</time></trkpt><trkpt lat="43.35731648924623" lon="5.542526108036423"><ele>558.0</ele><time>2026-04-24T11:10:28.999Z</time></trkpt><trkpt lat="43.35724865420333" lon="5.542444549608472"><ele>558.0</ele><time>2026-04-24T11:10:30.999Z</time></trkpt><trkpt lat="43.35714821438721" lon="5.54241386546866"><ele>558.0</ele><time>2026-04-24T11:10:32.999Z</time></trkpt><trkpt lat="43.35706956245255" lon="5.542331387517519"><ele>558.0</ele><time>2026-04-24T11:10:34.999Z</time></trkpt><trkpt lat="43.35705632951966" lon="5.5422009647360575"><ele>558.0</ele><time>2026-04-24T11:10:36.999Z</time></trkpt><trkpt lat="43.357110622093856" lon="5.542057391098724"><ele>558.3333333333334</ele><time>2026-04-24T11:10:38.999Z</time></trkpt><trkpt lat="43.35715053303493" lon="5.541982620877563"><ele>558.6666666666666</ele><time>2026-04-24T11:10:39.999Z</time></trkpt><trkpt lat="43.35720986178101" lon="5.541899024788214"><ele>559.0</ele><time>2026-04-24T11:10:40.999Z</time></trkpt><trkpt lat="43.35725274867347" lon="5.541790635602074"><ele>559.3333333333333</ele><time>2026-04-24T11:10:41.999Z</time></trkpt><trkpt lat="43.35730886700774" lon="5.541693563976785"><ele>559.6666666666666</ele><time>2026-04-24T11:10:42.999Z</time></trkpt><trkpt lat="43.35738157093013" lon="5.541597970018328"><ele>560.0</ele><time>2026-04-24T11:10:44Z</time></trkpt><trkpt lat="43.357433818736105" lon="5.541496310247433"><ele>554.5</ele><time>2026-04-24T11:10:45Z</time></trkpt><trkpt lat="43.35742960098978" lon="5.541403851890785"><ele>549.0</ele><time>2026-04-24T11:10:46Z</time></trkpt><trkpt lat="43.357421968314746" lon="5.54131023346796"><ele>543.5</ele><time>2026-04-24T11:10:49Z</time></trkpt><trkpt lat="43.3573540819936" lon="5.541268442373684"><ele>538.0</ele><time>2026-04-24T11:10:53Z</time></trkpt><trkpt lat="43.357310406815806" lon="5.541197869929643"><ele>532.5</ele><time>2026-04-24T11:10:58Z</time></trkpt><trkpt lat="43.357306540960195" lon="5.5410718098269065"><ele>527.0</ele><time>2026-04-24T11:11:01Z</time></trkpt><trkpt lat="43.35729329547097" lon="5.540957927328011"><ele>526.0</ele><time>2026-04-24T11:11:03Z</time></trkpt><trkpt lat="43.35731305509872" lon="5.540830922536718"><ele>525.0</ele><time>2026-04-24T11:11:05Z</time></trkpt><trkpt lat="43.35736145919088" lon="5.540673532764106"><ele>524.0</ele><time>2026-04-24T11:11:07Z</time></trkpt><trkpt lat="43.35738410142428" lon="5.540563981577077"><ele>523.0</ele><time>2026-04-24T11:11:08Z</time></trkpt><trkpt lat="43.35741742022124" lon="5.5404380087887715"><ele>522.0</ele><time>2026-04-24T11:11:09Z</time></trkpt><trkpt lat="43.357472075452925" lon="5.540313130081482"><ele>522.0</ele><time>2026-04-24T11:11:10Z</time></trkpt><trkpt lat="43.35751356249389" lon="5.540172283445865"><ele>522.0</ele><time>2026-04-24T11:11:11Z</time></trkpt><trkpt lat="43.357561790605004" lon="5.540024922445503"><ele>522.0</ele><time>2026-04-24T11:11:12Z</time></trkpt><trkpt lat="43.35763147178979" lon="5.5398756953415305"><ele>522.0</ele><time>2026-04-24T11:11:13Z</time></trkpt><trkpt lat="43.35770375283108" lon="5.539723932721457"><ele>522.0</ele><time>2026-04-24T11:11:14Z</time></trkpt><trkpt lat="43.35777981357077" lon="5.539577798636458"><ele>522.0</ele><time>2026-04-24T11:11:15Z</time></trkpt><trkpt lat="43.35785446359426" lon="5.539436912275274"><ele>522.0</ele><time>2026-04-24T11:11:16Z</time></trkpt><trkpt lat="43.35791678692713" lon="5.539323265459954"><ele>522.0</ele><time>2026-04-24T11:11:17Z</time></trkpt><trkpt lat="43.35795886376517" lon="5.539230291344717"><ele>522.0</ele><time>2026-04-24T11:11:18Z</time></trkpt><trkpt lat="43.3579893158352" lon="5.5391431328143526"><ele>522.3333333333334</ele><time>2026-04-24T11:11:19Z</time></trkpt><trkpt lat="43.358029720158136" lon="5.53902903883281"><ele>522.6666666666666</ele><time>2026-04-24T11:11:21Z</time></trkpt><trkpt lat="43.35804757650042" lon="5.53894495527438"><ele>523.0</ele><time>2026-04-24T11:11:25Z</time></trkpt><trkpt lat="43.35806159663514" lon="5.538841813470751"><ele>523.3333333333333</ele><time>2026-04-24T11:11:29Z</time></trkpt><trkpt lat="43.35806510147201" lon="5.538743756482654"><ele>523.6666666666666</ele><time>2026-04-24T11:11:34Z</time></trkpt><trkpt lat="43.35806993060549" lon="5.538606264141068"><ele>524.0</ele><time>2026-04-24T11:11:38Z</time></trkpt><trkpt lat="43.35807835561525" lon="5.538509945938349"><ele>515.1666666666666</ele><time>2026-04-24T11:11:40Z</time></trkpt><trkpt lat="43.35809165747508" lon="5.538375985112816"><ele>506.3333333333333</ele><time>2026-04-24T11:11:42Z</time></trkpt><trkpt lat="43.35810648905761" lon="5.538260350885279"><ele>497.5</ele><time>2026-04-24T11:11:44Z</time></trkpt><trkpt lat="43.358099927142185" lon="5.538168813631076"><ele>488.66666666666663</ele><time>2026-04-24T11:11:46Z</time></trkpt><trkpt lat="43.358096346947534" lon="5.538059166666237"><ele>479.8333333333333</ele><time>2026-04-24T11:11:48Z</time></trkpt><trkpt lat="43.35809028277308" lon="5.537944279932839"><ele>471.0</ele><time>2026-04-24T11:11:50Z</time></trkpt><trkpt lat="43.35807731191355" lon="5.537823690884132"><ele>469.6</ele><time>2026-04-24T11:11:52Z</time></trkpt><trkpt lat="43.35807154099655" lon="5.537701244635539"><ele>468.20000000000005</ele><time>2026-04-24T11:11:54Z</time></trkpt><trkpt lat="43.35806178390012" lon="5.537564432731993"><ele>466.79999999999995</ele><time>2026-04-24T11:11:56Z</time></trkpt><trkpt lat="43.358053627637766" lon="5.537401588144223"><ele>465.4</ele><time>2026-04-24T11:11:58Z</time></trkpt><trkpt lat="43.35804925098598" lon="5.537253934568591"><ele>464.0</ele><time>2026-04-24T11:12:00Z</time></trkpt><trkpt lat="43.358052993319674" lon="5.5371518104261135"><ele>462.6</ele><time>2026-04-24T11:12:02Z</time></trkpt><trkpt lat="43.358056433239994" lon="5.53703636003682"><ele>461.2</ele><time>2026-04-24T11:12:05Z</time></trkpt><trkpt lat="43.35807142829153" lon="5.536927763882825"><ele>459.80000000000007</ele><time>2026-04-24T11:12:08Z</time></trkpt><trkpt lat="43.358075443730904" lon="5.536774766606953"><ele>458.40000000000003</ele><time>2026-04-24T11:12:10Z</time></trkpt><trkpt lat="43.35806405044329" lon="5.536628254078119"><ele>457.0</ele><time>2026-04-24T11:12:12Z</time></trkpt><trkpt lat="43.358048813650925" lon="5.536453273011817"><ele>457.00000000000006</ele><time>2026-04-24T11:12:14Z</time></trkpt><trkpt lat="43.3580371604456" lon="5.536359816879955"><ele>457.0</ele><time>2026-04-24T11:12:15Z</time></trkpt><trkpt lat="43.35801720845675" lon="5.536262590938088"><ele>457.0</ele><time>2026-04-24T11:12:16Z</time></trkpt><trkpt lat="43.357992733613784" lon="5.536156109115817"><ele>457.0</ele><time>2026-04-24T11:12:17Z</time></trkpt><trkpt lat="43.357970528426996" lon="5.536036625932618"><ele>457.00000000000006</ele><time>2026-04-24T11:12:18Z</time></trkpt><trkpt lat="43.357938977216676" lon="5.5359225170476"><ele>457.0</ele><time>2026-04-24T11:12:19Z</time></trkpt><trkpt lat="43.35790883055638" lon="5.53579787348139"><ele>459.8</ele><time>2026-04-24T11:12:20Z</time></trkpt><trkpt lat="43.357896008823936" lon="5.535693970876166"><ele>462.6</ele><time>2026-04-24T11:12:20.999Z</time></trkpt><trkpt lat="43.35787651333253" lon="5.535574371779484"><ele>465.40000000000003</ele><time>2026-04-24T11:12:21.999Z</time></trkpt><trkpt lat="43.357857560742694" lon="5.535439438059317"><ele>468.20000000000005</ele><time>2026-04-24T11:12:22.999Z</time></trkpt><trkpt lat="43.35783645346825" lon="5.535303630856372"><ele>471.0</ele><time>2026-04-24T11:12:23.999Z</time></trkpt><trkpt lat="43.35783231293999" lon="5.535155400517097"><ele>471.0</ele><time>2026-04-24T11:12:24.999Z</time></trkpt><trkpt lat="43.35780305683218" lon="5.5350075485187435"><ele>471.0</ele><time>2026-04-24T11:12:25.999Z</time></trkpt><trkpt lat="43.357791112482666" lon="5.53485599984639"><ele>471.0</ele><time>2026-04-24T11:12:26.999Z</time></trkpt><trkpt lat="43.35778025827864" lon="5.534699081906869"><ele>471.0</ele><time>2026-04-24T11:12:27.999Z</time></trkpt><trkpt lat="43.3577429783711" lon="5.534555883740954"><ele>471.0</ele><time>2026-04-24T11:12:28.999Z</time></trkpt><trkpt lat="43.35770211769188" lon="5.534429986820608"><ele>468.4</ele><time>2026-04-24T11:12:29.999Z</time></trkpt><trkpt lat="43.35764917512228" lon="5.534291220198452"><ele>465.8</ele><time>2026-04-24T11:12:30.999Z</time></trkpt><trkpt lat="43.35759933003119" lon="5.534169857412233"><ele>463.19999999999993</ele><time>2026-04-24T11:12:31.999Z</time></trkpt><trkpt lat="43.35754655542608" lon="5.534049391133824"><ele>460.59999999999997</ele><time>2026-04-24T11:12:32.999Z</time></trkpt><trkpt lat="43.357511236974034" lon="5.533919176219263"><ele>458.0</ele><time>2026-04-24T11:12:33.999Z</time></trkpt><trkpt lat="43.35746983140244" lon="5.533811058939003"><ele>456.16666666666663</ele><time>2026-04-24T11:12:34.999Z</time></trkpt><trkpt lat="43.35745568040995" lon="5.53370198121339"><ele>454.3333333333333</ele><time>2026-04-24T11:12:35.999Z</time></trkpt><trkpt lat="43.3574461029333" lon="5.533583532891661"><ele>452.5</ele><time>2026-04-24T11:12:36.999Z</time></trkpt><trkpt lat="43.35745497432979" lon="5.53345412194538"><ele>450.66666666666663</ele><time>2026-04-24T11:12:37.999Z</time></trkpt><trkpt lat="43.35749321035376" lon="5.533333150113456"><ele>448.8333333333333</ele><time>2026-04-24T11:12:38.999Z</time></trkpt><trkpt lat="43.35751654879126" lon="5.533215476970099"><ele>447.0</ele><time>2026-04-24T11:12:39.999Z</time></trkpt><trkpt lat="43.357519488342305" lon="5.533115169833692"><ele>447.0</ele><time>2026-04-24T11:12:40.999Z</time></trkpt><trkpt lat="43.35746815061869" lon="5.532949488765062"><ele>447.0</ele><time>2026-04-24T11:12:42.999Z</time></trkpt><trkpt lat="43.357450334499184" lon="5.532843252440888"><ele>447.0</ele><time>2026-04-24T11:12:43.999Z</time></trkpt><trkpt lat="43.35741805726626" lon="5.532734412303075"><ele>447.0</ele><time>2026-04-24T11:12:44.999Z</time></trkpt><trkpt lat="43.35738811861038" lon="5.532633457941665"><ele>447.0</ele><time>2026-04-24T11:12:45.999Z</time></trkpt><trkpt lat="43.357364879187244" lon="5.532546726402539"><ele>447.0</ele><time>2026-04-24T11:12:46.999Z</time></trkpt><trkpt lat="43.357350923441835" lon="5.532456296984922"><ele>445.3333333333333</ele><time>2026-04-24T11:12:48.999Z</time></trkpt><trkpt lat="43.35741913402451" lon="5.532388215283084"><ele>443.66666666666663</ele><time>2026-04-24T11:13:24Z</time></trkpt><trkpt lat="43.357474357607074" lon="5.532438413303862"><ele>442.0</ele><time>2026-04-24T11:13:25Z</time></trkpt><trkpt lat="43.35749812813811" lon="5.532549717781639"><ele>440.3333333333333</ele><time>2026-04-24T11:13:26Z</time></trkpt><trkpt lat="43.357565460991154" lon="5.532640744930895"><ele>438.66666666666663</ele><time>2026-04-24T11:13:28Z</time></trkpt><trkpt lat="43.357614565405854" lon="5.532695575192594"><ele>437.0</ele><time>2026-04-24T11:13:29Z</time></trkpt><trkpt lat="43.35767564862109" lon="5.532733944205966"><ele>436.99999999999994</ele><time>2026-04-24T11:13:30Z</time></trkpt><trkpt lat="43.35774673520354" lon="5.532771656084777"><ele>437.0</ele><time>2026-04-24T11:13:31Z</time></trkpt><trkpt lat="43.35786038170472" lon="5.532789386437523"><ele>437.0</ele><time>2026-04-24T11:13:33Z</time></trkpt><trkpt lat="43.35796107005755" lon="5.532749978050084"><ele>437.0</ele><time>2026-04-24T11:13:35Z</time></trkpt><trkpt lat="43.358015377581076" lon="5.532703994082309"><ele>436.99999999999994</ele><time>2026-04-24T11:13:36Z</time></trkpt><trkpt lat="43.35808344345742" lon="5.532633982967318"><ele>437.0</ele><time>2026-04-24T11:13:38Z</time></trkpt><trkpt lat="43.35814326418686" lon="5.532543212086505"><ele>434.3333333333333</ele><time>2026-04-24T11:13:41Z</time></trkpt><trkpt lat="43.35819134295388" lon="5.532485095233486"><ele>431.66666666666663</ele><time>2026-04-24T11:13:43Z</time></trkpt><trkpt lat="43.35825731381694" lon="5.532405335530463"><ele>429.0</ele><time>2026-04-24T11:13:46Z</time></trkpt><trkpt lat="43.358314231340046" lon="5.532347174608704"><ele>426.33333333333337</ele><time>2026-04-24T11:13:49Z</time></trkpt><trkpt lat="43.35838332346464" lon="5.532315055942947"><ele>423.6666666666667</ele><time>2026-04-24T11:13:52Z</time></trkpt><trkpt lat="43.358474023821856" lon="5.532311449322367"><ele>421.0</ele><time>2026-04-24T11:13:55Z</time></trkpt><trkpt lat="43.35846384166414" lon="5.532494284287243"><ele>421.00000000000006</ele><time>2026-04-24T11:15:16Z</time></trkpt><trkpt lat="43.3584661813154" lon="5.532649733274234"><ele>421.0</ele><time>2026-04-24T11:15:18Z</time></trkpt><trkpt lat="43.35845937056592" lon="5.532736689296596"><ele>421.0</ele><time>2026-04-24T11:15:19Z</time></trkpt><trkpt lat="43.358414623002645" lon="5.532803287556333"><ele>421.0</ele><time>2026-04-24T11:15:20Z</time></trkpt><trkpt lat="43.35837388511831" lon="5.532885779780671"><ele>421.00000000000006</ele><time>2026-04-24T11:15:21Z</time></trkpt><trkpt lat="43.358327827099984" lon="5.532985888051806"><ele>421.0</ele><time>2026-04-24T11:15:22Z</time></trkpt><trkpt lat="43.358299648739" lon="5.533086611786379"><ele>420.83333333333337</ele><time>2026-04-24T11:15:23Z</time></trkpt><trkpt lat="43.358259329441154" lon="5.533187004390986"><ele>420.6666666666667</ele><time>2026-04-24T11:15:24Z</time></trkpt><trkpt lat="43.35821833898298" lon="5.533292197573689"><ele>420.5</ele><time>2026-04-24T11:15:25Z</time></trkpt><trkpt lat="43.358193412196265" lon="5.533407735236544"><ele>420.33333333333337</ele><time>2026-04-24T11:15:26Z</time></trkpt><trkpt lat="43.3581902339178" lon="5.533530802616393"><ele>420.1666666666667</ele><time>2026-04-24T11:15:27Z</time></trkpt><trkpt lat="43.35818428675762" lon="5.533645199399805"><ele>420.0</ele><time>2026-04-24T11:15:28Z</time></trkpt><trkpt lat="43.35821356237812" lon="5.5337603554794805"><ele>420.0</ele><time>2026-04-24T11:15:29Z</time></trkpt><trkpt lat="43.35825939608076" lon="5.533856218171228"><ele>420.0</ele><time>2026-04-24T11:15:30Z</time></trkpt><trkpt lat="43.35828762428933" lon="5.533956411301128"><ele>420.0</ele><time>2026-04-24T11:15:31Z</time></trkpt><trkpt lat="43.358319315714446" lon="5.534053132955129"><ele>420.0</ele><time>2026-04-24T11:15:32Z</time></trkpt><trkpt lat="43.35832991916761" lon="5.534155658761256"><ele>420.0</ele><time>2026-04-24T11:15:33Z</time></trkpt><trkpt lat="43.35835642744059" lon="5.534248355470195"><ele>420.0</ele><time>2026-04-24T11:15:34Z</time></trkpt><trkpt lat="43.358385635942625" lon="5.534341636924843"><ele>420.0</ele><time>2026-04-24T11:15:35Z</time></trkpt><trkpt lat="43.35842711617356" lon="5.534428986302854"><ele>420.0</ele><time>2026-04-24T11:15:36Z</time></trkpt><trkpt lat="43.3584572672289" lon="5.534526613948631"><ele>420.0</ele><time>2026-04-24T11:15:37Z</time></trkpt><trkpt lat="43.35848726807744" lon="5.534616713836183"><ele>420.0</ele><time>2026-04-24T11:15:38Z</time></trkpt><trkpt lat="43.35853046404979" lon="5.534699791223804"><ele>420.0</ele><time>2026-04-24T11:15:39Z</time></trkpt><trkpt lat="43.358579527561425" lon="5.534834350982412"><ele>420.0</ele><time>2026-04-24T11:15:41Z</time></trkpt><trkpt lat="43.35863695660267" lon="5.5349293962279535"><ele>418.6666666666667</ele><time>2026-04-24T11:15:52Z</time></trkpt><trkpt lat="43.358679278323315" lon="5.5349996792655105"><ele>417.33333333333337</ele><time>2026-04-24T11:15:54Z</time></trkpt><trkpt lat="43.358725152469056" lon="5.53508398443527"><ele>416.0</ele><time>2026-04-24T11:15:56Z</time></trkpt><trkpt lat="43.358795265678694" lon="5.535146238285098"><ele>414.6666666666667</ele><time>2026-04-24T11:15:58Z</time></trkpt><trkpt lat="43.3588655645409" lon="5.535181469337297"><ele>413.33333333333337</ele><time>2026-04-24T11:16:00Z</time></trkpt><trkpt lat="43.358943497841366" lon="5.535186276033941"><ele>412.0</ele><time>2026-04-24T11:16:02Z</time></trkpt><trkpt lat="43.35905063950075" lon="5.535218535041347"><ele>412.0</ele><time>2026-04-24T11:16:04Z</time></trkpt><trkpt lat="43.35915400530637" lon="5.5351285635283665"><ele>412.0</ele><time>2026-04-24T11:16:06Z</time></trkpt><trkpt lat="43.359281285419286" lon="5.5350813817076565"><ele>412.0</ele><time>2026-04-24T11:16:08Z</time></trkpt><trkpt lat="43.35934563740394" lon="5.535046563837596"><ele>412.0</ele><time>2026-04-24T11:16:09Z</time></trkpt><trkpt lat="43.35940536244935" lon="5.53498924454993"><ele>412.0</ele><time>2026-04-24T11:16:10Z</time></trkpt><trkpt lat="43.35947487603889" lon="5.534952070917288"><ele>412.00000000000006</ele><time>2026-04-24T11:16:11Z</time></trkpt><trkpt lat="43.359546631236384" lon="5.534898926207877"><ele>412.0</ele><time>2026-04-24T11:16:12Z</time></trkpt><trkpt lat="43.35959907073755" lon="5.534806276700449"><ele>412.0</ele><time>2026-04-24T11:16:13Z</time></trkpt><trkpt lat="43.3596465658729" lon="5.534717069297329"><ele>412.0</ele><time>2026-04-24T11:16:14Z</time></trkpt><trkpt lat="43.35970983405427" lon="5.534646947580932"><ele>412.00000000000006</ele><time>2026-04-24T11:16:15Z</time></trkpt><trkpt lat="43.35976793152629" lon="5.534566304636891"><ele>412.0</ele><time>2026-04-24T11:16:16Z</time></trkpt><trkpt lat="43.359830784785174" lon="5.534482404908875"><ele>411.00000000000006</ele><time>2026-04-24T11:16:17Z</time></trkpt><trkpt lat="43.359884784977375" lon="5.534382298727426"><ele>410.0</ele><time>2026-04-24T11:16:18Z</time></trkpt><trkpt lat="43.35994647555904" lon="5.5342972135469415"><ele>409.0</ele><time>2026-04-24T11:16:19Z</time></trkpt><trkpt lat="43.36000506582098" lon="5.534209951323436"><ele>408.0</ele><time>2026-04-24T11:16:20Z</time></trkpt><trkpt lat="43.36005953368019" lon="5.534128170517806"><ele>407.00000000000006</ele><time>2026-04-24T11:16:21Z</time></trkpt><trkpt lat="43.36011081066051" lon="5.534053671350791"><ele>406.0</ele><time>2026-04-24T11:16:22Z</time></trkpt><trkpt lat="43.360156708539684" lon="5.5339796691663246"><ele>406.0</ele><time>2026-04-24T11:16:23Z</time></trkpt><trkpt lat="43.36021671047467" lon="5.533930237198586"><ele>406.0</ele><time>2026-04-24T11:16:24Z</time></trkpt><trkpt lat="43.36032043592506" lon="5.533896581803242"><ele>406.0</ele><time>2026-04-24T11:16:26Z</time></trkpt><trkpt lat="43.36040702813052" lon="5.533991328337389"><ele>406.0</ele><time>2026-04-24T11:16:28Z</time></trkpt><trkpt lat="43.36042857772865" lon="5.534144756842996"><ele>406.0</ele><time>2026-04-24T11:16:30Z</time></trkpt><trkpt lat="43.360481093513556" lon="5.534271354725452"><ele>406.00000000000006</ele><time>2026-04-24T11:16:32Z</time></trkpt><trkpt lat="43.36052503300257" lon="5.534418987020507"><ele>406.0</ele><time>2026-04-24T11:16:33.999Z</time></trkpt><trkpt lat="43.36057634061992" lon="5.534576655605272"><ele>406.0</ele><time>2026-04-24T11:16:35.999Z</time></trkpt><trkpt lat="43.36060842224488" lon="5.534657595205328"><ele>406.0</ele><time>2026-04-24T11:16:36.999Z</time></trkpt><trkpt lat="43.360627160417216" lon="5.534748037546138"><ele>406.00000000000006</ele><time>2026-04-24T11:16:37.999Z</time></trkpt><trkpt lat="43.36065679270457" lon="5.534825605344419"><ele>406.0</ele><time>2026-04-24T11:16:38.999Z</time></trkpt><trkpt lat="43.36070079841432" lon="5.534900716601448"><ele>407.1666666666667</ele><time>2026-04-24T11:16:39.999Z</time></trkpt><trkpt lat="43.36073562908589" lon="5.534988021099497"><ele>408.33333333333337</ele><time>2026-04-24T11:16:40.999Z</time></trkpt><trkpt lat="43.360784672239745" lon="5.5350616464961675"><ele>409.5</ele><time>2026-04-24T11:16:41.999Z</time></trkpt><trkpt lat="43.360872272394275" lon="5.535042734299982"><ele>410.66666666666663</ele><time>2026-04-24T11:16:42.999Z</time></trkpt><trkpt lat="43.360935736687225" lon="5.535018741369619"><ele>411.8333333333333</ele><time>2026-04-24T11:16:43.999Z</time></trkpt><trkpt lat="43.36105352611491" lon="5.53501501620956"><ele>413.0</ele><time>2026-04-24T11:16:45.999Z</time></trkpt><trkpt lat="43.36115489718224" lon="5.534996693891596"><ele>412.99999999999994</ele><time>2026-04-24T11:16:47.999Z</time></trkpt><trkpt lat="43.36122778063153" lon="5.5350595342095055"><ele>413.0</ele><time>2026-04-24T11:16:49.999Z</time></trkpt><trkpt lat="43.36128238604211" lon="5.535134820241353"><ele>413.0</ele><time>2026-04-24T11:16:51.999Z</time></trkpt><trkpt lat="43.36133351213965" lon="5.535230254101476"><ele>413.0</ele><time>2026-04-24T11:16:53.999Z</time></trkpt><trkpt lat="43.361336074851764" lon="5.535345980931568"><ele>412.99999999999994</ele><time>2026-04-24T11:16:55.999Z</time></trkpt><trkpt lat="43.36135971872268" lon="5.53547390386147"><ele>413.0</ele><time>2026-04-24T11:16:57.999Z</time></trkpt><trkpt lat="43.361409636554" lon="5.535603739584617"><ele>412.2</ele><time>2026-04-24T11:16:59.999Z</time></trkpt><trkpt lat="43.36146855532025" lon="5.535699114179953"><ele>411.4</ele><time>2026-04-24T11:17:02Z</time></trkpt><trkpt lat="43.361537098606675" lon="5.535793975330471"><ele>410.59999999999997</ele><time>2026-04-24T11:17:04Z</time></trkpt><trkpt lat="43.36158150029528" lon="5.535898115592349"><ele>409.79999999999995</ele><time>2026-04-24T11:17:06Z</time></trkpt><trkpt lat="43.36168041498998" lon="5.535976113532358"><ele>409.0</ele><time>2026-04-24T11:17:08Z</time></trkpt><trkpt lat="43.361804074574096" lon="5.535973378803416"><ele>409.00000000000006</ele><time>2026-04-24T11:17:10Z</time></trkpt><trkpt lat="43.36186131215905" lon="5.535918434026407"><ele>409.0</ele><time>2026-04-24T11:17:11Z</time></trkpt><trkpt lat="43.36191806411319" lon="5.535860518129461"><ele>409.0</ele><time>2026-04-24T11:17:12Z</time></trkpt><trkpt lat="43.36198323705031" lon="5.535796076300029"><ele>409.0</ele><time>2026-04-24T11:17:13Z</time></trkpt><trkpt lat="43.36204831705694" lon="5.535734963287851"><ele>409.00000000000006</ele><time>2026-04-24T11:17:14Z</time></trkpt><trkpt lat="43.36212032463141" lon="5.535678002120325"><ele>409.0</ele><time>2026-04-24T11:17:15Z</time></trkpt><trkpt lat="43.36220020075612" lon="5.535623429215828"><ele>407.0</ele><time>2026-04-24T11:17:16Z</time></trkpt><trkpt lat="43.3622774242547" lon="5.535543174275396"><ele>405.0</ele><time>2026-04-24T11:17:17Z</time></trkpt><trkpt lat="43.36235821839375" lon="5.535485153984749"><ele>403.0</ele><time>2026-04-24T11:17:18Z</time></trkpt><trkpt lat="43.362436443262396" lon="5.53540495942972"><ele>401.0</ele><time>2026-04-24T11:17:19Z</time></trkpt><trkpt lat="43.36251269804917" lon="5.535315027784183"><ele>399.0</ele><time>2026-04-24T11:17:20Z</time></trkpt><trkpt lat="43.36257801819978" lon="5.535199047494481"><ele>399.0</ele><time>2026-04-24T11:17:21Z</time></trkpt><trkpt lat="43.362631607316104" lon="5.535094269439468"><ele>399.0</ele><time>2026-04-24T11:17:22Z</time></trkpt><trkpt lat="43.362673955477156" lon="5.535011469820814"><ele>399.0</ele><time>2026-04-24T11:17:23Z</time></trkpt><trkpt lat="43.362714379815216" lon="5.535107776141111"><ele>399.0</ele><time>2026-04-24T11:17:50Z</time></trkpt><trkpt lat="43.3626966939653" lon="5.535248751051508"><ele>399.0</ele><time>2026-04-24T11:17:52Z</time></trkpt><trkpt lat="43.36269072814363" lon="5.53540697378824"><ele>398.8333333333333</ele><time>2026-04-24T11:17:54Z</time></trkpt><trkpt lat="43.362680439738" lon="5.535503452277129"><ele>398.66666666666663</ele><time>2026-04-24T11:17:55Z</time></trkpt><trkpt lat="43.36268511418445" lon="5.535593703222782"><ele>398.5</ele><time>2026-04-24T11:17:56Z</time></trkpt><trkpt lat="43.36267705030696" lon="5.535691084503675"><ele>398.3333333333333</ele><time>2026-04-24T11:17:57Z</time></trkpt><trkpt lat="43.36266841636218" lon="5.535802247363992"><ele>398.16666666666663</ele><time>2026-04-24T11:17:58Z</time></trkpt><trkpt lat="43.36266967519827" lon="5.535925076506866"><ele>398.0</ele><time>2026-04-24T11:17:59Z</time></trkpt><trkpt lat="43.36267357763975" lon="5.536054111816031"><ele>398.0</ele><time>2026-04-24T11:18:00Z</time></trkpt><trkpt lat="43.36266032967058" lon="5.5361615227479755"><ele>398.0</ele><time>2026-04-24T11:18:01Z</time></trkpt><trkpt lat="43.36265893718563" lon="5.536281016082059"><ele>398.0</ele><time>2026-04-24T11:18:02Z</time></trkpt><trkpt lat="43.362658559759446" lon="5.536419471749329"><ele>398.0</ele><time>2026-04-24T11:18:03Z</time></trkpt><trkpt lat="43.362660201130005" lon="5.536537216810395"><ele>398.0</ele><time>2026-04-24T11:18:04Z</time></trkpt><trkpt lat="43.36271490644639" lon="5.536670681560144"><ele>397.57142857142856</ele><time>2026-04-24T11:18:06Z</time></trkpt><trkpt lat="43.36279424546937" lon="5.536750709817424"><ele>397.1428571428571</ele><time>2026-04-24T11:18:08Z</time></trkpt><trkpt lat="43.3628256386249" lon="5.5368309082574765"><ele>396.71428571428567</ele><time>2026-04-24T11:18:09Z</time></trkpt><trkpt lat="43.3628485364918" lon="5.536916307249078"><ele>396.2857142857143</ele><time>2026-04-24T11:18:10Z</time></trkpt><trkpt lat="43.36285318871556" lon="5.537006982653121"><ele>395.8571428571429</ele><time>2026-04-24T11:18:11Z</time></trkpt><trkpt lat="43.3628448159564" lon="5.537103646922835"><ele>395.4285714285714</ele><time>2026-04-24T11:18:12Z</time></trkpt><trkpt lat="43.3628264613313" lon="5.537197868155666"><ele>395.0</ele><time>2026-04-24T11:18:13Z</time></trkpt><trkpt lat="43.36279849583851" lon="5.537316115926734"><ele>394.6</ele><time>2026-04-24T11:18:14Z</time></trkpt><trkpt lat="43.362771681823304" lon="5.53743571314302"><ele>394.2</ele><time>2026-04-24T11:18:15Z</time></trkpt><trkpt lat="43.362751668167" lon="5.537557865095139"><ele>393.79999999999995</ele><time>2026-04-24T11:18:16Z</time></trkpt><trkpt lat="43.362753828058565" lon="5.537688547749408"><ele>393.4</ele><time>2026-04-24T11:18:17Z</time></trkpt><trkpt lat="43.362782039683324" lon="5.537820646778481"><ele>393.0</ele><time>2026-04-24T11:18:18Z</time></trkpt><trkpt lat="43.36281242783869" lon="5.537947728283059"><ele>392.2</ele><time>2026-04-24T11:18:19Z</time></trkpt><trkpt lat="43.362847422178845" lon="5.538069292654341"><ele>391.4</ele><time>2026-04-24T11:18:20Z</time></trkpt><trkpt lat="43.36285084669977" lon="5.538194260691227"><ele>390.59999999999997</ele><time>2026-04-24T11:18:21Z</time></trkpt><trkpt lat="43.36287582125986" lon="5.538319519961958"><ele>389.79999999999995</ele><time>2026-04-24T11:18:22Z</time></trkpt><trkpt lat="43.36290147344216" lon="5.538446355182738"><ele>389.0</ele><time>2026-04-24T11:18:23Z</time></trkpt><trkpt lat="43.36292299291815" lon="5.538570170020821"><ele>388.99999999999994</ele><time>2026-04-24T11:18:24Z</time></trkpt><trkpt lat="43.36294503743728" lon="5.5386852484583"><ele>389.0</ele><time>2026-04-24T11:18:25Z</time></trkpt><trkpt lat="43.36294898026266" lon="5.538801092833287"><ele>389.0</ele><time>2026-04-24T11:18:26Z</time></trkpt><trkpt lat="43.362922330805596" lon="5.538912035676816"><ele>389.0</ele><time>2026-04-24T11:18:27Z</time></trkpt><trkpt lat="43.362879425535205" lon="5.539033531969743"><ele>388.99999999999994</ele><time>2026-04-24T11:18:28Z</time></trkpt><trkpt lat="43.36284361776791" lon="5.539142124951212"><ele>389.0</ele><time>2026-04-24T11:18:29Z</time></trkpt><trkpt lat="43.362781761952455" lon="5.53924638794008"><ele>387.4</ele><time>2026-04-24T11:18:30Z</time></trkpt><trkpt lat="43.362746624466794" lon="5.539372611554408"><ele>385.79999999999995</ele><time>2026-04-24T11:18:31Z</time></trkpt><trkpt lat="43.36269020922464" lon="5.539491030052604"><ele>384.20000000000005</ele><time>2026-04-24T11:18:32Z</time></trkpt><trkpt lat="43.3626307424079" lon="5.5395933147978615"><ele>382.6</ele><time>2026-04-24T11:18:33Z</time></trkpt><trkpt lat="43.36257367292629" lon="5.53968472252691"><ele>381.0</ele><time>2026-04-24T11:18:34Z</time></trkpt><trkpt lat="43.36251855983753" lon="5.539753902208041"><ele>378.8</ele><time>2026-04-24T11:18:35Z</time></trkpt><trkpt lat="43.362440014543346" lon="5.539858524443878"><ele>376.6</ele><time>2026-04-24T11:18:37Z</time></trkpt><trkpt lat="43.36243379569972" lon="5.539984460533538"><ele>374.4</ele><time>2026-04-24T11:18:39Z</time></trkpt><trkpt lat="43.36245888766393" lon="5.54007781202613"><ele>372.2</ele><time>2026-04-24T11:18:44Z</time></trkpt><trkpt lat="43.36255078083317" lon="5.5400441567798495"><ele>370.0</ele><time>2026-04-24T11:18:45Z</time></trkpt><trkpt lat="43.362662716519324" lon="5.5399786080993945"><ele>370.0</ele><time>2026-04-24T11:18:47Z</time></trkpt><trkpt lat="43.36276827211221" lon="5.539931593596536"><ele>370.0</ele><time>2026-04-24T11:18:49Z</time></trkpt><trkpt lat="43.36283226994851" lon="5.5398963853654655"><ele>370.0</ele><time>2026-04-24T11:18:50Z</time></trkpt><trkpt lat="43.36289965263813" lon="5.539851504116917"><ele>370.0</ele><time>2026-04-24T11:18:51Z</time></trkpt><trkpt lat="43.362962532190984" lon="5.539792465141412"><ele>370.0</ele><time>2026-04-24T11:18:52Z</time></trkpt><trkpt lat="43.363031965534944" lon="5.539713940537323"><ele>370.0</ele><time>2026-04-24T11:18:53Z</time></trkpt><trkpt lat="43.36309414516672" lon="5.539644817162555"><ele>368.3333333333333</ele><time>2026-04-24T11:18:54Z</time></trkpt><trkpt lat="43.36316853344026" lon="5.5395891270574245"><ele>366.66666666666663</ele><time>2026-04-24T11:18:55Z</time></trkpt><trkpt lat="43.363261077979544" lon="5.539569280670125"><ele>365.0</ele><time>2026-04-24T11:18:56Z</time></trkpt><trkpt lat="43.3633439981563" lon="5.539585103373233"><ele>363.3333333333333</ele><time>2026-04-24T11:18:57Z</time></trkpt><trkpt lat="43.36342008619808" lon="5.539627853761798"><ele>361.6666666666667</ele><time>2026-04-24T11:18:58Z</time></trkpt><trkpt lat="43.363493310119" lon="5.539699813918331"><ele>360.0</ele><time>2026-04-24T11:18:59Z</time></trkpt><trkpt lat="43.363565397175535" lon="5.539802316345148"><ele>360.0</ele><time>2026-04-24T11:19:00Z</time></trkpt><trkpt lat="43.36363605678904" lon="5.539912254303457"><ele>360.0</ele><time>2026-04-24T11:19:01Z</time></trkpt><trkpt lat="43.36369141946353" lon="5.540036789026944"><ele>360.0</ele><time>2026-04-24T11:19:02Z</time></trkpt><trkpt lat="43.36370628324123" lon="5.540182255826546"><ele>360.0</ele><time>2026-04-24T11:19:03Z</time></trkpt><trkpt lat="43.36374071512464" lon="5.540316308744412"><ele>360.0</ele><time>2026-04-24T11:19:04Z</time></trkpt><trkpt lat="43.36375857929729" lon="5.540445153838395"><ele>358.4</ele><time>2026-04-24T11:19:05Z</time></trkpt><trkpt lat="43.36378140617767" lon="5.540578287337047"><ele>356.8</ele><time>2026-04-24T11:19:05.999Z</time></trkpt><trkpt lat="43.36383289261401" lon="5.5407026786198506"><ele>355.20000000000005</ele><time>2026-04-24T11:19:06.999Z</time></trkpt><trkpt lat="43.36388868444913" lon="5.540786809791662"><ele>353.6</ele><time>2026-04-24T11:19:08Z</time></trkpt><trkpt lat="43.36397891245871" lon="5.540881262214488"><ele>352.0</ele><time>2026-04-24T11:19:10Z</time></trkpt><trkpt lat="43.36406647891944" lon="5.540847753248281"><ele>351.8</ele><time>2026-04-24T11:19:12Z</time></trkpt><trkpt lat="43.364169313293466" lon="5.540864649195027"><ele>351.6</ele><time>2026-04-24T11:19:14Z</time></trkpt><trkpt lat="43.36429711550923" lon="5.540888955649463"><ele>351.40000000000003</ele><time>2026-04-24T11:19:16Z</time></trkpt><trkpt lat="43.36435852604923" lon="5.5409202657308265"><ele>351.20000000000005</ele><time>2026-04-24T11:19:17Z</time></trkpt><trkpt lat="43.364392384708744" lon="5.541044837956823"><ele>351.0</ele><time>2026-04-24T11:19:18Z</time></trkpt><trkpt lat="43.36436914980519" lon="5.541161861690473"><ele>350.0</ele><time>2026-04-24T11:19:19Z</time></trkpt><trkpt lat="43.36436756584741" lon="5.541251476537275"><ele>349.0</ele><time>2026-04-24T11:19:20Z</time></trkpt><trkpt lat="43.36438855634793" lon="5.541414297489989"><ele>348.0</ele><time>2026-04-24T11:19:22Z</time></trkpt><trkpt lat="43.36442007645383" lon="5.541568451243777"><ele>347.0</ele><time>2026-04-24T11:19:24Z</time></trkpt><trkpt lat="43.36443469163213" lon="5.541706989402704"><ele>346.0</ele><time>2026-04-24T11:19:26Z</time></trkpt><trkpt lat="43.36443934927711" lon="5.541833956174657"><ele>346.0</ele><time>2026-04-24T11:19:28Z</time></trkpt><trkpt lat="43.36454619753304" lon="5.5419487481598155"><ele>346.0</ele><time>2026-04-24T11:19:30Z</time></trkpt><trkpt lat="43.364655739220154" lon="5.541989542952672"><ele>346.0</ele><time>2026-04-24T11:19:32Z</time></trkpt><trkpt lat="43.36474945715143" lon="5.542008800234668"><ele>346.0</ele><time>2026-04-24T11:19:34Z</time></trkpt><trkpt lat="43.36484129448826" lon="5.5420269641630355"><ele>346.0</ele><time>2026-04-24T11:19:36Z</time></trkpt><trkpt lat="43.36492679605927" lon="5.542041039831107"><ele>345.8333333333333</ele><time>2026-04-24T11:19:38Z</time></trkpt><trkpt lat="43.36501271227302" lon="5.542051845375275"><ele>345.66666666666663</ele><time>2026-04-24T11:19:40Z</time></trkpt><trkpt lat="43.36507774688762" lon="5.542003756509248"><ele>345.5</ele><time>2026-04-24T11:19:42Z</time></trkpt><trkpt lat="43.36514007960348" lon="5.541984875059082"><ele>345.3333333333333</ele><time>2026-04-24T11:19:45Z</time></trkpt><trkpt lat="43.36519820992463" lon="5.541946732554982"><ele>345.1666666666667</ele><time>2026-04-24T11:19:48Z</time></trkpt><trkpt lat="43.365230687253" lon="5.541853855308561"><ele>345.0</ele><time>2026-04-24T11:19:52Z</time></trkpt><trkpt lat="43.365266663102126" lon="5.541738536823569"><ele>345.0</ele><time>2026-04-24T11:19:56Z</time></trkpt><trkpt lat="43.36529908201579" lon="5.541626806413741"><ele>345.0</ele><time>2026-04-24T11:19:58Z</time></trkpt><trkpt lat="43.36533957050728" lon="5.541470001127579"><ele>345.0</ele><time>2026-04-24T11:20:00Z</time></trkpt><trkpt lat="43.365376102630584" lon="5.5412931936396195"><ele>345.0</ele><time>2026-04-24T11:20:02Z</time></trkpt><trkpt lat="43.36541058880111" lon="5.541208180180724"><ele>345.0</ele><time>2026-04-24T11:20:03Z</time></trkpt><trkpt lat="43.3654554186007" lon="5.541116465586092"><ele>345.1666666666667</ele><time>2026-04-24T11:20:04Z</time></trkpt><trkpt lat="43.365515953618825" lon="5.54104283986756"><ele>345.3333333333333</ele><time>2026-04-24T11:20:05Z</time></trkpt><trkpt lat="43.36557692271519" lon="5.540974255225901"><ele>345.5</ele><time>2026-04-24T11:20:06Z</time></trkpt><trkpt lat="43.36562922976661" lon="5.54088488844393"><ele>345.66666666666663</ele><time>2026-04-24T11:20:07Z</time></trkpt><trkpt lat="43.3656892510184" lon="5.540799931632654"><ele>345.8333333333333</ele><time>2026-04-24T11:20:08Z</time></trkpt><trkpt lat="43.365749830290895" lon="5.540710367042111"><ele>346.0</ele><time>2026-04-24T11:20:09Z</time></trkpt><trkpt lat="43.36580651676494" lon="5.540618051393825"><ele>346.0</ele><time>2026-04-24T11:20:10Z</time></trkpt><trkpt lat="43.36587277402243" lon="5.540532422616532"><ele>346.0</ele><time>2026-04-24T11:20:11Z</time></trkpt><trkpt lat="43.36594013601932" lon="5.5404553406711035"><ele>346.0</ele><time>2026-04-24T11:20:12Z</time></trkpt><trkpt lat="43.36602652433434" lon="5.540390591052761"><ele>346.0</ele><time>2026-04-24T11:20:13Z</time></trkpt><trkpt lat="43.366114830139416" lon="5.540339308029387"><ele>346.0</ele><time>2026-04-24T11:20:14Z</time></trkpt><trkpt lat="43.36620324375806" lon="5.540291190516664"><ele>345.0</ele><time>2026-04-24T11:20:15Z</time></trkpt><trkpt lat="43.36629044716403" lon="5.540229704523737"><ele>344.0</ele><time>2026-04-24T11:20:16Z</time></trkpt><trkpt lat="43.36636170329054" lon="5.54015309835729"><ele>343.0</ele><time>2026-04-24T11:20:17Z</time></trkpt><trkpt lat="43.36642754342954" lon="5.540056409174742"><ele>342.0</ele><time>2026-04-24T11:20:18Z</time></trkpt><trkpt lat="43.36647055310018" lon="5.539937431486927"><ele>341.0</ele><time>2026-04-24T11:20:19Z</time></trkpt><trkpt lat="43.366488191076016" lon="5.539798799841524"><ele>340.8</ele><time>2026-04-24T11:20:20Z</time></trkpt><trkpt lat="43.366513042538756" lon="5.539675239512769"><ele>340.6</ele><time>2026-04-24T11:20:21Z</time></trkpt><trkpt lat="43.36656563721518" lon="5.539567209991847"><ele>340.4</ele><time>2026-04-24T11:20:22Z</time></trkpt><trkpt lat="43.36661544087485" lon="5.539467474664807"><ele>340.2</ele><time>2026-04-24T11:20:23Z</time></trkpt><trkpt lat="43.36669865137817" lon="5.5394028204179815"><ele>340.0</ele><time>2026-04-24T11:20:24Z</time></trkpt><trkpt lat="43.36680212770019" lon="5.53939820157224"><ele>338.6</ele><time>2026-04-24T11:20:25Z</time></trkpt><trkpt lat="43.36690211840341" lon="5.539394089346395"><ele>337.2</ele><time>2026-04-24T11:20:26Z</time></trkpt><trkpt lat="43.36699583772952" lon="5.539354214127988"><ele>335.79999999999995</ele><time>2026-04-24T11:20:27Z</time></trkpt><trkpt lat="43.3670961635266" lon="5.539341002161786"><ele>334.4</ele><time>2026-04-24T11:20:28Z</time></trkpt><trkpt lat="43.36719427601045" lon="5.539293563892032"><ele>333.0</ele><time>2026-04-24T11:20:29Z</time></trkpt><trkpt lat="43.367287077754966" lon="5.539225111618413"><ele>333.0</ele><time>2026-04-24T11:20:30Z</time></trkpt><trkpt lat="43.36737776788928" lon="5.5391558042230145"><ele>333.0</ele><time>2026-04-24T11:20:31Z</time></trkpt><trkpt lat="43.367474840002934" lon="5.5391066204276775"><ele>333.0</ele><time>2026-04-24T11:20:32Z</time></trkpt><trkpt lat="43.367572248171115" lon="5.539045219046624"><ele>333.0</ele><time>2026-04-24T11:20:33Z</time></trkpt><trkpt lat="43.36766987629458" lon="5.5390079547282856"><ele>333.0</ele><time>2026-04-24T11:20:34Z</time></trkpt><trkpt lat="43.367772796121734" lon="5.5389983816015285"><ele>333.0</ele><time>2026-04-24T11:20:35Z</time></trkpt><trkpt lat="43.36786735219016" lon="5.538931501975241"><ele>333.0</ele><time>2026-04-24T11:20:36Z</time></trkpt><trkpt lat="43.36794138927131" lon="5.538848315629033"><ele>333.0</ele><time>2026-04-24T11:20:37Z</time></trkpt><trkpt lat="43.368001258731134" lon="5.538733775379954"><ele>333.0</ele><time>2026-04-24T11:20:38Z</time></trkpt><trkpt lat="43.3680534929176" lon="5.538615078244194"><ele>333.0</ele><time>2026-04-24T11:20:39Z</time></trkpt><trkpt lat="43.36812292889742" lon="5.538514327715198"><ele>331.2</ele><time>2026-04-24T11:20:40Z</time></trkpt><trkpt lat="43.36821020916377" lon="5.538450141568683"><ele>329.4</ele><time>2026-04-24T11:20:41Z</time></trkpt><trkpt lat="43.368306865024415" lon="5.538412144944106"><ele>327.59999999999997</ele><time>2026-04-24T11:20:42Z</time></trkpt><trkpt lat="43.36840794289125" lon="5.538397953209671"><ele>325.79999999999995</ele><time>2026-04-24T11:20:43Z</time></trkpt><trkpt lat="43.36850128946808" lon="5.5383962864857885"><ele>324.0</ele><time>2026-04-24T11:20:44Z</time></trkpt><trkpt lat="43.368583279010394" lon="5.538397121282803"><ele>324.0</ele><time>2026-04-24T11:20:45Z</time></trkpt><trkpt lat="43.36866482305237" lon="5.538405022110515"><ele>324.0</ele><time>2026-04-24T11:20:46Z</time></trkpt><trkpt lat="43.36873143041287" lon="5.538356706725501"><ele>324.0</ele><time>2026-04-24T11:20:47Z</time></trkpt><trkpt lat="43.36880886095036" lon="5.538306514349859"><ele>324.0</ele><time>2026-04-24T11:20:48Z</time></trkpt><trkpt lat="43.36887902407721" lon="5.538248103031013"><ele>324.0</ele><time>2026-04-24T11:20:49Z</time></trkpt><trkpt lat="43.368946477525405" lon="5.538176674003101"><ele>324.0</ele><time>2026-04-24T11:20:50Z</time></trkpt><trkpt lat="43.36899614415715" lon="5.538084777861227"><ele>323.8333333333333</ele><time>2026-04-24T11:20:51Z</time></trkpt><trkpt lat="43.36905996621123" lon="5.538010587335613"><ele>323.6666666666667</ele><time>2026-04-24T11:20:52Z</time></trkpt><trkpt lat="43.369107757127566" lon="5.537925297878055"><ele>323.5</ele><time>2026-04-24T11:20:53Z</time></trkpt><trkpt lat="43.369144466447615" lon="5.5378349018759225"><ele>323.33333333333337</ele><time>2026-04-24T11:20:54Z</time></trkpt><trkpt lat="43.36918886979293" lon="5.537751674778459"><ele>323.1666666666667</ele><time>2026-04-24T11:20:55Z</time></trkpt><trkpt lat="43.36923356313298" lon="5.53767041406074"><ele>323.0</ele><time>2026-04-24T11:20:56Z</time></trkpt><trkpt lat="43.369282489029366" lon="5.537583025356761"><ele>322.0</ele><time>2026-04-24T11:20:57Z</time></trkpt><trkpt lat="43.36934644474095" lon="5.537500905325126"><ele>321.0</ele><time>2026-04-24T11:20:58Z</time></trkpt><trkpt lat="43.3694188860161" lon="5.537430072568811"><ele>320.0</ele><time>2026-04-24T11:20:59Z</time></trkpt><trkpt lat="43.36948488134913" lon="5.537371992075673"><ele>319.0</ele><time>2026-04-24T11:21:00Z</time></trkpt><trkpt lat="43.3695356800848" lon="5.537317094205366"><ele>318.0</ele><time>2026-04-24T11:21:02Z</time></trkpt><trkpt lat="43.36960258476639" lon="5.537312215661002"><ele>317.0</ele><time>2026-04-24T11:21:11Z</time></trkpt><trkpt lat="43.369697963128374" lon="5.537308505738152"><ele>317.0</ele><time>2026-04-24T11:21:21.001Z</time></trkpt><trkpt lat="43.369779972160686" lon="5.537299238205053"><ele>317.0</ele><time>2026-04-24T11:21:23.001Z</time></trkpt><trkpt lat="43.36986392338407" lon="5.53728751099605"><ele>317.0</ele><time>2026-04-24T11:21:25.001Z</time></trkpt><trkpt lat="43.369959776050116" lon="5.537256867519003"><ele>317.0</ele><time>2026-04-24T11:21:27.001Z</time></trkpt><trkpt lat="43.370032636146206" lon="5.537259111551191"><ele>317.0</ele><time>2026-04-24T11:21:29.001Z</time></trkpt><trkpt lat="43.37010337061755" lon="5.537246561686597"><ele>317.0</ele><time>2026-04-24T11:21:31Z</time></trkpt><trkpt lat="43.37016500154513" lon="5.537224352403423"><ele>317.0</ele><time>2026-04-24T11:21:34Z</time></trkpt><trkpt lat="43.37022846562178" lon="5.537207685235157"><ele>317.0</ele><time>2026-04-24T11:21:38Z</time></trkpt><trkpt lat="43.370286908247905" lon="5.537173377679306"><ele>317.0</ele><time>2026-04-24T11:21:43Z</time></trkpt><trkpt lat="43.37035875912132" lon="5.537155174333638"><ele>317.0</ele><time>2026-04-24T11:22:37Z</time></trkpt><trkpt lat="43.37043711277373" lon="5.537144449548402"><ele>317.0</ele><time>2026-04-24T11:22:54Z</time></trkpt><trkpt lat="43.370505387982305" lon="5.537097027430646"><ele>317.0</ele><time>2026-04-24T11:22:57Z</time></trkpt><trkpt lat="43.37054549435283" lon="5.537026710214288"><ele>317.0</ele><time>2026-04-24T11:23:50Z</time></trkpt><trkpt lat="43.37058354998257" lon="5.53694393353871"><ele>317.2</ele><time>2026-04-24T11:23:54Z</time></trkpt><trkpt lat="43.37057693490208" lon="5.5368360616314884"><ele>317.4</ele><time>2026-04-24T11:23:56Z</time></trkpt><trkpt lat="43.37056121029669" lon="5.536699107349297"><ele>317.6</ele><time>2026-04-24T11:23:58Z</time></trkpt><trkpt lat="43.37053088678348" lon="5.536558117148264"><ele>317.8</ele><time>2026-04-24T11:24:00Z</time></trkpt><trkpt lat="43.3705536468699" lon="5.536392233255751"><ele>318.0</ele><time>2026-04-24T11:24:02Z</time></trkpt><trkpt lat="43.370580549411706" lon="5.536312022158938"><ele>318.0</ele><time>2026-04-24T11:24:03Z</time></trkpt><trkpt lat="43.37062044501169" lon="5.536234026031643"><ele>318.0</ele><time>2026-04-24T11:24:04Z</time></trkpt><trkpt lat="43.37068874961395" lon="5.536125229537162"><ele>318.0</ele><time>2026-04-24T11:24:06Z</time></trkpt><trkpt lat="43.37076362956256" lon="5.536006491820498"><ele>318.0</ele><time>2026-04-24T11:24:08Z</time></trkpt><trkpt lat="43.37083945778595" lon="5.535894263078533"><ele>318.0</ele><time>2026-04-24T11:24:10Z</time></trkpt><trkpt lat="43.370921313796345" lon="5.535793563427853"><ele>316.2</ele><time>2026-04-24T11:24:12Z</time></trkpt><trkpt lat="43.3709972993748" lon="5.535686782365193"><ele>314.4</ele><time>2026-04-24T11:24:14Z</time></trkpt><trkpt lat="43.37106852290069" lon="5.535588620837249"><ele>312.59999999999997</ele><time>2026-04-24T11:24:16Z</time></trkpt><trkpt lat="43.371145658098925" lon="5.535492946686185"><ele>310.8</ele><time>2026-04-24T11:24:18Z</time></trkpt><trkpt lat="43.37122158760227" lon="5.535449979238853"><ele>309.0</ele><time>2026-04-24T11:24:20Z</time></trkpt><trkpt lat="43.3712795539572" lon="5.535515455247972"><ele>309.0</ele><time>2026-04-24T11:24:21Z</time></trkpt><trkpt lat="43.371345969732175" lon="5.535583527420984"><ele>309.0</ele><time>2026-04-24T11:24:23Z</time></trkpt><trkpt lat="43.3714267815515" lon="5.535605912334807"><ele>309.0</ele><time>2026-04-24T11:24:25Z</time></trkpt><trkpt lat="43.37151147868758" lon="5.535610425404772"><ele>309.0</ele><time>2026-04-24T11:24:27Z</time></trkpt><trkpt lat="43.37160141802571" lon="5.5356151644798155"><ele>309.0</ele><time>2026-04-24T11:24:29Z</time></trkpt><trkpt lat="43.37167666389413" lon="5.535618654706358"><ele>309.0</ele><time>2026-04-24T11:24:31Z</time></trkpt><trkpt lat="43.371753131612046" lon="5.535630702094341"><ele>310.0</ele><time>2026-04-24T11:24:33Z</time></trkpt><trkpt lat="43.37183037266427" lon="5.535636381865739"><ele>311.0</ele><time>2026-04-24T11:24:35Z</time></trkpt><trkpt lat="43.37190324664684" lon="5.535642787592978"><ele>312.0</ele><time>2026-04-24T11:24:37Z</time></trkpt><trkpt lat="43.37197099303245" lon="5.535651784199914"><ele>313.0</ele><time>2026-04-24T11:24:39Z</time></trkpt><trkpt lat="43.372037204425084" lon="5.535674138727746"><ele>314.0</ele><time>2026-04-24T11:24:41Z</time></trkpt><trkpt lat="43.37212021965423" lon="5.535718884186852"><ele>315.0</ele><time>2026-04-24T11:24:44Z</time></trkpt><trkpt lat="43.37218266979512" lon="5.535801984536617"><ele>315.6666666666667</ele><time>2026-04-24T11:24:47Z</time></trkpt><trkpt lat="43.372191948069045" lon="5.535938638096082"><ele>316.3333333333333</ele><time>2026-04-24T11:24:50Z</time></trkpt><trkpt lat="43.37223067811914" lon="5.536019650531141"><ele>317.0</ele><time>2026-04-24T11:24:52Z</time></trkpt><trkpt lat="43.37225511208566" lon="5.536116839497602"><ele>317.66666666666663</ele><time>2026-04-24T11:24:54Z</time></trkpt><trkpt lat="43.37227971467038" lon="5.536206785108241"><ele>318.3333333333333</ele><time>2026-04-24T11:24:56Z</time></trkpt><trkpt lat="43.372323103021536" lon="5.536317151977885"><ele>319.0</ele><time>2026-04-24T11:24:59Z</time></trkpt><trkpt lat="43.37236405605101" lon="5.536397049771868"><ele>319.14285714285717</ele><time>2026-04-24T11:25:02Z</time></trkpt><trkpt lat="43.37238063172582" lon="5.53648333554337"><ele>319.2857142857143</ele><time>2026-04-24T11:25:06Z</time></trkpt><trkpt lat="43.37240606302604" lon="5.536572809478337"><ele>319.42857142857144</ele><time>2026-04-24T11:25:10Z</time></trkpt><trkpt lat="43.37244798159648" lon="5.536657311047903"><ele>319.57142857142856</ele><time>2026-04-24T11:28:35.999Z</time></trkpt><trkpt lat="43.37246596365062" lon="5.536741947577518"><ele>319.7142857142857</ele><time>2026-04-24T11:29:34.999Z</time></trkpt><trkpt lat="43.37247858661974" lon="5.536840888367822"><ele>319.85714285714283</ele><time>2026-04-24T11:29:37.999Z</time></trkpt><trkpt lat="43.37250639298152" lon="5.536938543733802"><ele>320.0</ele><time>2026-04-24T11:29:42.999Z</time></trkpt><trkpt lat="43.37254921109261" lon="5.53703572148215"><ele>320.5</ele><time>2026-04-24T11:29:45.999Z</time></trkpt><trkpt lat="43.37260185816782" lon="5.537131260126392"><ele>321.0</ele><time>2026-04-24T11:29:48.999Z</time></trkpt><trkpt lat="43.372642585436175" lon="5.5372050935091615"><ele>321.5</ele><time>2026-04-24T11:29:50.999Z</time></trkpt><trkpt lat="43.3726809982241" lon="5.537299674834877"><ele>322.0</ele><time>2026-04-24T11:29:52.999Z</time></trkpt><trkpt lat="43.37271308132977" lon="5.537388366215834"><ele>322.5</ele><time>2026-04-24T11:29:54.999Z</time></trkpt><trkpt lat="43.37273571806182" lon="5.537500892668182"><ele>323.0</ele><time>2026-04-24T11:29:59.999Z</time></trkpt><trkpt lat="43.37272967951761" lon="5.537587301927051"><ele>323.0</ele><time>2026-04-24T11:30:01.999Z</time></trkpt><trkpt lat="43.372697112971814" lon="5.537694697694969"><ele>323.0</ele><time>2026-04-24T11:30:04.999Z</time></trkpt><trkpt lat="43.372692329969915" lon="5.537805826696591"><ele>323.0</ele><time>2026-04-24T11:30:07.999Z</time></trkpt><trkpt lat="43.372676718934564" lon="5.537907524470737"><ele>323.0</ele><time>2026-04-24T11:30:10.999Z</time></trkpt><trkpt lat="43.37273076680597" lon="5.537989498580191"><ele>323.0</ele><time>2026-04-24T11:30:13.999Z</time></trkpt><trkpt lat="43.37277942417666" lon="5.5380633119548275"><ele>323.0</ele><time>2026-04-24T11:30:19.999Z</time></trkpt><trkpt lat="43.37283003563358" lon="5.538118164229485"><ele>323.33333333333337</ele><time>2026-04-24T11:30:28.999Z</time></trkpt><trkpt lat="43.37290523238823" lon="5.538143679676683"><ele>323.6666666666667</ele><time>2026-04-24T11:30:34.999Z</time></trkpt><trkpt lat="43.37298197765257" lon="5.538176793749691"><ele>324.0</ele><time>2026-04-24T11:30:38.999Z</time></trkpt><trkpt lat="43.37305144627866" lon="5.53820161428855"><ele>324.3333333333333</ele><time>2026-04-24T11:30:41.999Z</time></trkpt><trkpt lat="43.373124852031644" lon="5.538193250915519"><ele>324.66666666666663</ele><time>2026-04-24T11:30:44.999Z</time></trkpt><trkpt lat="43.37320944665438" lon="5.538172048678752"><ele>325.0</ele><time>2026-04-24T11:30:47.999Z</time></trkpt><trkpt lat="43.37327257176131" lon="5.538143429310405"><ele>325.0</ele><time>2026-04-24T11:30:49.999Z</time></trkpt><trkpt lat="43.37333205488632" lon="5.538112138277284"><ele>325.0</ele><time>2026-04-24T11:30:51.999Z</time></trkpt><trkpt lat="43.373400689441674" lon="5.53807586943558"><ele>325.0</ele><time>2026-04-24T11:30:53.999Z</time></trkpt><trkpt lat="43.37348040028427" lon="5.538043327422992"><ele>325.0</ele><time>2026-04-24T11:30:56.999Z</time></trkpt><trkpt lat="43.373543318161445" lon="5.538017790295131"><ele>325.0</ele><time>2026-04-24T11:30:58.999Z</time></trkpt><trkpt lat="43.37360649955745" lon="5.537996296929325"><ele>325.0</ele><time>2026-04-24T11:31:00.999Z</time></trkpt><trkpt lat="43.37367080918107" lon="5.537988548282099"><ele>325.0</ele><time>2026-04-24T11:31:02.999Z</time></trkpt><trkpt lat="43.37374692962247" lon="5.53795995494841"><ele>325.0</ele><time>2026-04-24T11:31:05.999Z</time></trkpt><trkpt lat="43.37383038922459" lon="5.537933587700047"><ele>325.0</ele><time>2026-04-24T11:31:08.999Z</time></trkpt><trkpt lat="43.37391193234236" lon="5.537912545147314"><ele>325.0</ele><time>2026-04-24T11:31:11.999Z</time></trkpt><trkpt lat="43.37399708868763" lon="5.53788030054583"><ele>325.0</ele><time>2026-04-24T11:31:15.999Z</time></trkpt><trkpt lat="43.37408351176628" lon="5.53784991659612"><ele>325.0</ele><time>2026-04-24T11:31:18.999Z</time></trkpt><trkpt lat="43.374144850413586" lon="5.537821773028812"><ele>325.0</ele><time>2026-04-24T11:31:20.999Z</time></trkpt><trkpt lat="43.374227280010786" lon="5.537786380677179"><ele>325.16666666666663</ele><time>2026-04-24T11:31:23.999Z</time></trkpt><trkpt lat="43.37430695449266" lon="5.537746722726218"><ele>325.3333333333333</ele><time>2026-04-24T11:31:26.999Z</time></trkpt><trkpt lat="43.374391034409186" lon="5.537716734407941"><ele>325.5</ele><time>2026-04-24T11:31:29.999Z</time></trkpt><trkpt lat="43.374467886203895" lon="5.537693270631572"><ele>325.6666666666667</ele><time>2026-04-24T11:31:32.999Z</time></trkpt><trkpt lat="43.37455359911032" lon="5.537661316709473"><ele>325.83333333333337</ele><time>2026-04-24T11:31:35.999Z</time></trkpt><trkpt lat="43.37463552257007" lon="5.537636940382441"><ele>326.0</ele><time>2026-04-24T11:31:38.999Z</time></trkpt><trkpt lat="43.37472302513563" lon="5.537637880218233"><ele>326.42857142857144</ele><time>2026-04-24T11:31:41.999Z</time></trkpt><trkpt lat="43.374789656405625" lon="5.537647601009511"><ele>326.85714285714283</ele><time>2026-04-24T11:31:44Z</time></trkpt><trkpt lat="43.37487965661441" lon="5.537683058798653"><ele>327.2857142857143</ele><time>2026-04-24T11:31:47Z</time></trkpt><trkpt lat="43.374957317058154" lon="5.537741268926014"><ele>327.7142857142857</ele><time>2026-04-24T11:31:50Z</time></trkpt><trkpt lat="43.37501297690815" lon="5.537784964735921"><ele>328.1428571428571</ele><time>2026-04-24T11:31:52Z</time></trkpt><trkpt lat="43.375074003486546" lon="5.537822709553306"><ele>328.57142857142856</ele><time>2026-04-24T11:31:54Z</time></trkpt><trkpt lat="43.37513850379226" lon="5.537848117016067"><ele>329.0</ele><time>2026-04-24T11:31:56Z</time></trkpt><trkpt lat="43.37522155466103" lon="5.53787024930066"><ele>329.5</ele><time>2026-04-24T11:31:58Z</time></trkpt><trkpt lat="43.375281491827266" lon="5.5379117800182565"><ele>330.0</ele><time>2026-04-24T11:32:00Z</time></trkpt><trkpt lat="43.37536463439335" lon="5.537969827336075"><ele>330.5</ele><time>2026-04-24T11:32:03Z</time></trkpt><trkpt lat="43.37542970018059" lon="5.538022891739068"><ele>331.0</ele><time>2026-04-24T11:32:05Z</time></trkpt><trkpt lat="43.37549858893671" lon="5.538102379990669"><ele>331.5</ele><time>2026-04-24T11:32:08Z</time></trkpt><trkpt lat="43.37554225038464" lon="5.538181152813811"><ele>332.0</ele><time>2026-04-24T11:32:10Z</time></trkpt><trkpt lat="43.37558455054895" lon="5.538254341062717"><ele>332.33333333333337</ele><time>2026-04-24T11:32:12Z</time></trkpt><trkpt lat="43.37564471101644" lon="5.538322563416939"><ele>332.6666666666667</ele><time>2026-04-24T11:32:15Z</time></trkpt><trkpt lat="43.37570221922839" lon="5.538398031754909"><ele>333.0</ele><time>2026-04-24T11:32:18Z</time></trkpt><trkpt lat="43.3757839820268" lon="5.538442653010544"><ele>333.3333333333333</ele><time>2026-04-24T11:32:21Z</time></trkpt><trkpt lat="43.375851296809614" lon="5.538483041516551"><ele>333.66666666666663</ele><time>2026-04-24T11:32:24Z</time></trkpt><trkpt lat="43.37593374134625" lon="5.538498036065491"><ele>334.0</ele><time>2026-04-24T11:33:02Z</time></trkpt><trkpt lat="43.375990892287994" lon="5.5385353334491265"><ele>334.0</ele><time>2026-04-24T11:33:04Z</time></trkpt><trkpt lat="43.37606673888344" lon="5.538567603246908"><ele>334.0</ele><time>2026-04-24T11:33:06Z</time></trkpt><trkpt lat="43.37612224365393" lon="5.538617012584545"><ele>334.0</ele><time>2026-04-24T11:33:08Z</time></trkpt><trkpt lat="43.376191067485564" lon="5.538672924250802"><ele>334.0</ele><time>2026-04-24T11:33:11Z</time></trkpt><trkpt lat="43.37626293455399" lon="5.538726100652929"><ele>334.0</ele><time>2026-04-24T11:33:14Z</time></trkpt><trkpt lat="43.37632331180303" lon="5.538777787335127"><ele>334.0</ele><time>2026-04-24T11:33:17Z</time></trkpt><trkpt lat="43.37639580435885" lon="5.538834276024445"><ele>334.0</ele><time>2026-04-24T11:33:21Z</time></trkpt><trkpt lat="43.37646440646503" lon="5.538893073384661"><ele>334.0</ele><time>2026-04-24T11:33:25Z</time></trkpt><trkpt lat="43.37651027539131" lon="5.538953461248363"><ele>334.0</ele><time>2026-04-24T11:33:28Z</time></trkpt><trkpt lat="43.37656710420115" lon="5.539001642725223"><ele>334.0</ele><time>2026-04-24T11:33:31Z</time></trkpt><trkpt lat="43.3766309464685" lon="5.539048904312443"><ele>334.0</ele><time>2026-04-24T11:33:34Z</time></trkpt><trkpt lat="43.37669929352558" lon="5.539100673482855"><ele>334.0</ele><time>2026-04-24T11:33:37Z</time></trkpt><trkpt lat="43.37678003962461" lon="5.539163006985542"><ele>334.0</ele><time>2026-04-24T11:33:40Z</time></trkpt><trkpt lat="43.376834273815774" lon="5.539210680255141"><ele>334.0</ele><time>2026-04-24T11:33:42Z</time></trkpt><trkpt lat="43.37689252581402" lon="5.539243653677342"><ele>334.0</ele><time>2026-04-24T11:33:44Z</time></trkpt><trkpt lat="43.376971726681916" lon="5.539257005330959"><ele>334.0</ele><time>2026-04-24T11:33:47Z</time></trkpt><trkpt lat="43.377057078533454" lon="5.539300442804146"><ele>334.0</ele><time>2026-04-24T11:33:50Z</time></trkpt><trkpt lat="43.37713419264718" lon="5.53930103211683"><ele>334.0</ele><time>2026-04-24T11:33:53Z</time></trkpt><trkpt lat="43.377203699763555" lon="5.539299737522405"><ele>334.0</ele><time>2026-04-24T11:33:56Z</time></trkpt><trkpt lat="43.37727471509952" lon="5.539281427368449"><ele>334.57142857142856</ele><time>2026-04-24T11:33:59Z</time></trkpt><trkpt lat="43.37734990734081" lon="5.539252003132477"><ele>335.14285714285717</ele><time>2026-04-24T11:34:02Z</time></trkpt><trkpt lat="43.377414256930976" lon="5.539223902510775"><ele>335.7142857142857</ele><time>2026-04-24T11:34:06Z</time></trkpt><trkpt lat="43.37747595531818" lon="5.53919038603379"><ele>336.2857142857143</ele><time>2026-04-24T11:34:09Z</time></trkpt><trkpt lat="43.3775441882583" lon="5.539157811525361"><ele>336.85714285714283</ele><time>2026-04-24T11:34:13Z</time></trkpt><trkpt lat="43.377603076534456" lon="5.539078225938431"><ele>337.42857142857144</ele><time>2026-04-24T11:34:17Z</time></trkpt><trkpt lat="43.37765912326142" lon="5.538995968616577"><ele>338.0</ele><time>2026-04-24T11:34:20Z</time></trkpt><trkpt lat="43.37771890387555" lon="5.538935628344403"><ele>338.0</ele><time>2026-04-24T11:34:23Z</time></trkpt><trkpt lat="43.37778623293345" lon="5.538884458235258"><ele>338.0</ele><time>2026-04-24T11:34:26Z</time></trkpt><trkpt lat="43.37785541460477" lon="5.538834372554205"><ele>338.0</ele><time>2026-04-24T11:34:29Z</time></trkpt><trkpt lat="43.37793679194789" lon="5.53881836736915"><ele>338.0</ele><time>2026-04-24T11:34:32Z</time></trkpt><trkpt lat="43.378020502378874" lon="5.538824767395703"><ele>338.0</ele><time>2026-04-24T11:34:35Z</time></trkpt><trkpt lat="43.37811031426467" lon="5.53885134296398"><ele>338.0</ele><time>2026-04-24T11:34:38Z</time></trkpt><trkpt lat="43.378179943280195" lon="5.538918566473141"><ele>338.2857142857143</ele><time>2026-04-24T11:34:41Z</time></trkpt><trkpt lat="43.3782299584817" lon="5.539000543270664"><ele>338.57142857142856</ele><time>2026-04-24T11:34:44Z</time></trkpt><trkpt lat="43.37826741339561" lon="5.539070410799918"><ele>338.8571428571429</ele><time>2026-04-24T11:34:48Z</time></trkpt><trkpt lat="43.378283972317334" lon="5.539162572796417"><ele>339.1428571428571</ele><time>2026-04-24T11:34:54Z</time></trkpt><trkpt lat="43.37827429200754" lon="5.539249114558837"><ele>339.4285714285714</ele><time>2026-04-24T11:34:58Z</time></trkpt><trkpt lat="43.37825527543918" lon="5.539347107208226"><ele>339.7142857142857</ele><time>2026-04-24T11:35:03Z</time></trkpt><trkpt lat="43.37821956360582" lon="5.539446199618096"><ele>340.0</ele><time>2026-04-24T11:35:07Z</time></trkpt><trkpt lat="43.37820622783278" lon="5.539533889225375"><ele>340.3333333333333</ele><time>2026-04-24T11:35:10Z</time></trkpt><trkpt lat="43.37820021712354" lon="5.539622394972364"><ele>340.66666666666663</ele><time>2026-04-24T11:35:15Z</time></trkpt><trkpt lat="43.37819806393452" lon="5.539710085807862"><ele>341.0</ele><time>2026-04-24T11:35:19Z</time></trkpt><trkpt lat="43.378184961283516" lon="5.539810261915447"><ele>341.3333333333333</ele><time>2026-04-24T11:36:08.001Z</time></trkpt><trkpt lat="43.37819542662632" lon="5.539935096711616"><ele>341.6666666666667</ele><time>2026-04-24T11:36:11.001Z</time></trkpt><trkpt lat="43.37821051082554" lon="5.540072354143452"><ele>342.0</ele><time>2026-04-24T11:36:14Z</time></trkpt><trkpt lat="43.37819245307211" lon="5.5401735359841116"><ele>342.0</ele><time>2026-04-24T11:36:16Z</time></trkpt><trkpt lat="43.378209763226906" lon="5.540289044825649"><ele>342.0</ele><time>2026-04-24T11:36:18Z</time></trkpt><trkpt lat="43.378219877630755" lon="5.540412642735882"><ele>342.0</ele><time>2026-04-24T11:36:20Z</time></trkpt><trkpt lat="43.378224696815984" lon="5.540543052288679"><ele>342.0</ele><time>2026-04-24T11:36:22Z</time></trkpt><trkpt lat="43.37824346438218" lon="5.540683688344598"><ele>342.0</ele><time>2026-04-24T11:36:24Z</time></trkpt><trkpt lat="43.3782721406646" lon="5.540825947286559"><ele>342.0</ele><time>2026-04-24T11:36:26Z</time></trkpt><trkpt lat="43.37835523088159" lon="5.540918227732185"><ele>342.0</ele><time>2026-04-24T11:36:28Z</time></trkpt><trkpt lat="43.3784302533631" lon="5.540982962048732"><ele>342.0</ele><time>2026-04-24T11:36:30Z</time></trkpt><trkpt lat="43.37847742197155" lon="5.54107389266283"><ele>342.0</ele><time>2026-04-24T11:36:32Z</time></trkpt><trkpt lat="43.37853603793338" lon="5.541169448037109"><ele>342.0</ele><time>2026-04-24T11:36:35Z</time></trkpt><trkpt lat="43.37859251562747" lon="5.5412155936322565"><ele>342.0</ele><time>2026-04-24T11:36:37Z</time></trkpt><trkpt lat="43.378619334017635" lon="5.541301834362477"><ele>341.85714285714283</ele><time>2026-04-24T11:36:39Z</time></trkpt><trkpt lat="43.37866833154786" lon="5.541379720999952"><ele>341.7142857142857</ele><time>2026-04-24T11:36:41Z</time></trkpt><trkpt lat="43.37872295433085" lon="5.541435536878374"><ele>341.57142857142856</ele><time>2026-04-24T11:36:44Z</time></trkpt><trkpt lat="43.37879947331481" lon="5.541466367641376"><ele>341.42857142857144</ele><time>2026-04-24T11:36:47Z</time></trkpt><trkpt lat="43.37885890536051" lon="5.541410953984894"><ele>341.2857142857143</ele><time>2026-04-24T11:36:52Z</time></trkpt><trkpt lat="43.37891378110528" lon="5.541361516202429"><ele>341.1428571428571</ele><time>2026-04-24T11:37:14Z</time></trkpt><trkpt lat="43.37895491321036" lon="5.541285364754336"><ele>341.0</ele><time>2026-04-24T11:37:21Z</time></trkpt><trkpt lat="43.37902111264105" lon="5.541247602801428"><ele>341.0</ele><time>2026-04-24T11:37:42Z</time></trkpt><trkpt lat="43.37909200216126" lon="5.54121647539389"><ele>341.0</ele><time>2026-04-24T11:38:02.001Z</time></trkpt><trkpt lat="43.379154743492755" lon="5.541190474768015"><ele>341.0</ele><time>2026-04-24T11:38:05.001Z</time></trkpt><trkpt lat="43.37921628765557" lon="5.541165398217167"><ele>341.0</ele><time>2026-04-24T11:38:08.001Z</time></trkpt><trkpt lat="43.379278722426" lon="5.5411193844699795"><ele>341.0</ele><time>2026-04-24T11:38:12.001Z</time></trkpt><trkpt lat="43.37934613461713" lon="5.5410925657463626"><ele>341.0</ele><time>2026-04-24T11:38:16.001Z</time></trkpt><trkpt lat="43.37941847933884" lon="5.541059357112297"><ele>341.0</ele><time>2026-04-24T11:38:20Z</time></trkpt><trkpt lat="43.3794908871978" lon="5.541031398088244"><ele>341.42857142857144</ele><time>2026-04-24T11:38:24Z</time></trkpt><trkpt lat="43.379566015353156" lon="5.541024368053687"><ele>341.8571428571429</ele><time>2026-04-24T11:38:28Z</time></trkpt><trkpt lat="43.37963415353388" lon="5.541041910514412"><ele>342.28571428571433</ele><time>2026-04-24T11:38:32Z</time></trkpt><trkpt lat="43.37969772232304" lon="5.54107033320474"><ele>342.7142857142857</ele><time>2026-04-24T11:38:36Z</time></trkpt><trkpt lat="43.37975164956383" lon="5.541127092637536"><ele>343.14285714285717</ele><time>2026-04-24T11:38:41Z</time></trkpt><trkpt lat="43.37981209614472" lon="5.541188767426411"><ele>343.5714285714286</ele><time>2026-04-24T11:38:47Z</time></trkpt><trkpt lat="43.37987817609967" lon="5.541245359035782"><ele>344.0</ele><time>2026-04-24T11:38:53Z</time></trkpt><trkpt lat="43.37994235582816" lon="5.541293064703188"><ele>345.00000000000006</ele><time>2026-04-24T11:38:57Z</time></trkpt><trkpt lat="43.38000747316944" lon="5.541343067344693"><ele>346.0</ele><time>2026-04-24T11:39:02Z</time></trkpt><trkpt lat="43.38007074552385" lon="5.5413870814624655"><ele>347.0</ele><time>2026-04-24T11:39:07Z</time></trkpt><trkpt lat="43.38012786301396" lon="5.541426993476454"><ele>348.0</ele><time>2026-04-24T11:39:13Z</time></trkpt><trkpt lat="43.38019642527401" lon="5.541467595321839"><ele>349.0</ele><time>2026-04-24T11:39:20Z</time></trkpt><trkpt lat="43.38025457738222" lon="5.54151274329641"><ele>350.00000000000006</ele><time>2026-04-24T11:39:25Z</time></trkpt><trkpt lat="43.38031593341647" lon="5.541548308747869"><ele>351.0</ele><time>2026-04-24T11:39:30Z</time></trkpt><trkpt lat="43.38038552756797" lon="5.541599843967528"><ele>351.0</ele><time>2026-04-24T11:39:35Z</time></trkpt><trkpt lat="43.380458023918735" lon="5.54164251463645"><ele>351.0</ele><time>2026-04-24T11:39:40Z</time></trkpt><trkpt lat="43.3805277265868" lon="5.541683490331578"><ele>351.0</ele><time>2026-04-24T11:39:45Z</time></trkpt><trkpt lat="43.38060468208389" lon="5.541727313719969"><ele>351.0</ele><time>2026-04-24T11:39:50Z</time></trkpt><trkpt lat="43.38068002936151" lon="5.541767234598659"><ele>351.0</ele><time>2026-04-24T11:39:53Z</time></trkpt><trkpt lat="43.38075818999529" lon="5.541796754788003"><ele>351.0</ele><time>2026-04-24T11:39:57Z</time></trkpt><trkpt lat="43.38083558516003" lon="5.541823583976686"><ele>352.6666666666667</ele><time>2026-04-24T11:40:01Z</time></trkpt><trkpt lat="43.38090552852839" lon="5.541842013754076"><ele>354.3333333333333</ele><time>2026-04-24T11:40:05Z</time></trkpt><trkpt lat="43.38096839640171" lon="5.5418566131129685"><ele>356.0</ele><time>2026-04-24T11:40:09.001Z</time></trkpt><trkpt lat="43.381045454345745" lon="5.541871494920463"><ele>357.66666666666663</ele><time>2026-04-24T11:40:14.001Z</time></trkpt><trkpt lat="43.38112871440977" lon="5.541887835733324"><ele>359.3333333333333</ele><time>2026-04-24T11:40:18Z</time></trkpt><trkpt lat="43.38120980072694" lon="5.541892862282899"><ele>361.0</ele><time>2026-04-24T11:40:23Z</time></trkpt><trkpt lat="43.38128205175778" lon="5.541916037676366"><ele>361.0</ele><time>2026-04-24T11:40:27Z</time></trkpt><trkpt lat="43.38134602725439" lon="5.541933489140019"><ele>361.0</ele><time>2026-04-24T11:40:31Z</time></trkpt><trkpt lat="43.38142286453684" lon="5.5419492461122335"><ele>361.0</ele><time>2026-04-24T11:40:35Z</time></trkpt><trkpt lat="43.38149676296853" lon="5.541951344686703"><ele>361.0</ele><time>2026-04-24T11:40:39Z</time></trkpt><trkpt lat="43.381570934161296" lon="5.541943842779359"><ele>361.0</ele><time>2026-04-24T11:40:43Z</time></trkpt><trkpt lat="43.38164859743241" lon="5.541908085604944"><ele>361.0</ele><time>2026-04-24T11:40:46Z</time></trkpt><trkpt lat="43.3817146209538" lon="5.541875307150191"><ele>361.0</ele><time>2026-04-24T11:40:49Z</time></trkpt><trkpt lat="43.38177201897378" lon="5.541823560068343"><ele>362.2857142857143</ele><time>2026-04-24T11:40:52Z</time></trkpt><trkpt lat="43.381830377277716" lon="5.541780564362836"><ele>363.57142857142856</ele><time>2026-04-24T11:40:55Z</time></trkpt><trkpt lat="43.381890036217335" lon="5.5417214665278225"><ele>364.85714285714283</ele><time>2026-04-24T11:40:58Z</time></trkpt><trkpt lat="43.38194604000083" lon="5.541655580266815"><ele>366.1428571428571</ele><time>2026-04-24T11:41:01Z</time></trkpt><trkpt lat="43.38200869571697" lon="5.541613049766508"><ele>367.42857142857144</ele><time>2026-04-24T11:41:04Z</time></trkpt><trkpt lat="43.382073406966114" lon="5.541579080186947"><ele>368.71428571428567</ele><time>2026-04-24T11:41:07Z</time></trkpt><trkpt lat="43.382136905672944" lon="5.54155102860125"><ele>370.0</ele><time>2026-04-24T11:41:10Z</time></trkpt><trkpt lat="43.382200331792376" lon="5.541559012021929"><ele>370.8333333333333</ele><time>2026-04-24T11:41:13Z</time></trkpt><trkpt lat="43.38228425542321" lon="5.541567146413709"><ele>371.66666666666663</ele><time>2026-04-24T11:41:17Z</time></trkpt><trkpt lat="43.382347101673524" lon="5.541580394205525"><ele>372.5</ele><time>2026-04-24T11:41:20Z</time></trkpt><trkpt lat="43.38241287811839" lon="5.541586391581935"><ele>373.3333333333333</ele><time>2026-04-24T11:41:23Z</time></trkpt><trkpt lat="43.382502208960155" lon="5.541600813795691"><ele>374.1666666666667</ele><time>2026-04-24T11:41:26Z</time></trkpt><trkpt lat="43.382595133939944" lon="5.541609251194826"><ele>375.0</ele><time>2026-04-24T11:41:29Z</time></trkpt><trkpt lat="43.38267931260889" lon="5.541609228279956"><ele>375.0</ele><time>2026-04-24T11:41:32Z</time></trkpt><trkpt lat="43.382761772390175" lon="5.541601448705045"><ele>375.0</ele><time>2026-04-24T11:41:35Z</time></trkpt><trkpt lat="43.38284017019384" lon="5.541591810860733"><ele>375.0</ele><time>2026-04-24T11:41:38Z</time></trkpt><trkpt lat="43.382921788431815" lon="5.5415811365602545"><ele>375.0</ele><time>2026-04-24T11:41:40.999Z</time></trkpt><trkpt lat="43.38301182651153" lon="5.541562749329844"><ele>375.0</ele><time>2026-04-24T11:41:43.999Z</time></trkpt><trkpt lat="43.38310634189491" lon="5.541558434597131"><ele>375.0</ele><time>2026-04-24T11:41:46.999Z</time></trkpt><trkpt lat="43.383169568986915" lon="5.541550079136074"><ele>375.42857142857144</ele><time>2026-04-24T11:41:48.999Z</time></trkpt><trkpt lat="43.38323829777533" lon="5.541561563552161"><ele>375.85714285714283</ele><time>2026-04-24T11:41:50.999Z</time></trkpt><trkpt lat="43.383321802289224" lon="5.541570797819496"><ele>376.2857142857143</ele><time>2026-04-24T11:41:53.999Z</time></trkpt><trkpt lat="43.38338422603962" lon="5.54159526609441"><ele>376.7142857142857</ele><time>2026-04-24T11:41:56.999Z</time></trkpt><trkpt lat="43.38344924185349" lon="5.5416177104570465"><ele>377.1428571428571</ele><time>2026-04-24T11:42:00.999Z</time></trkpt><trkpt lat="43.38351097297461" lon="5.5416690115690335"><ele>377.57142857142856</ele><time>2026-04-24T11:42:05.999Z</time></trkpt><trkpt lat="43.38357878659294" lon="5.541715710163015"><ele>378.0</ele><time>2026-04-24T11:42:10.999Z</time></trkpt><trkpt lat="43.38363610193315" lon="5.541765985008935"><ele>378.0</ele><time>2026-04-24T11:42:15Z</time></trkpt><trkpt lat="43.38369698406735" lon="5.541817442685013"><ele>378.0</ele><time>2026-04-24T11:42:21Z</time></trkpt><trkpt lat="43.38375795193071" lon="5.541875660710299"><ele>378.0</ele><time>2026-04-24T11:42:27Z</time></trkpt><trkpt lat="43.383814212557745" lon="5.541925304336566"><ele>378.0</ele><time>2026-04-24T11:42:32Z</time></trkpt><trkpt lat="43.38387786366147" lon="5.541977034480155"><ele>378.0</ele><time>2026-04-24T11:42:38Z</time></trkpt><trkpt lat="43.38393447238979" lon="5.542023780561029"><ele>378.0</ele><time>2026-04-24T11:42:43Z</time></trkpt><trkpt lat="43.38399293628388" lon="5.542072666817393"><ele>378.0</ele><time>2026-04-24T11:42:48Z</time></trkpt><trkpt lat="43.384062958229606" lon="5.542140490438085"><ele>380.8333333333333</ele><time>2026-04-24T11:42:52Z</time></trkpt><trkpt lat="43.38412735437544" lon="5.542198817287413"><ele>383.66666666666663</ele><time>2026-04-24T11:42:55Z</time></trkpt><trkpt lat="43.38419354188275" lon="5.542258908819029"><ele>386.5</ele><time>2026-04-24T11:42:59Z</time></trkpt><trkpt lat="43.38427080415176" lon="5.542308546641158"><ele>389.3333333333333</ele><time>2026-04-24T11:43:03Z</time></trkpt><trkpt lat="43.38434088918955" lon="5.5423569793544525"><ele>392.16666666666663</ele><time>2026-04-24T11:43:07Z</time></trkpt><trkpt lat="43.38440932142348" lon="5.54238744066594"><ele>395.0</ele><time>2026-04-24T11:43:11Z</time></trkpt><trkpt lat="43.38447683078702" lon="5.542413998124133"><ele>395.0</ele><time>2026-04-24T11:43:15Z</time></trkpt><trkpt lat="43.38454628356591" lon="5.54245725997101"><ele>395.0</ele><time>2026-04-24T11:43:19Z</time></trkpt><trkpt lat="43.38458505136526" lon="5.542545915618237"><ele>395.0</ele><time>2026-04-24T11:43:23Z</time></trkpt><trkpt lat="43.384598583295606" lon="5.542645531322929"><ele>395.0</ele><time>2026-04-24T11:43:27Z</time></trkpt><trkpt lat="43.384575562836055" lon="5.542744830526737"><ele>395.0</ele><time>2026-04-24T11:43:31Z</time></trkpt><trkpt lat="43.38454183826112" lon="5.5428384803312145"><ele>395.0</ele><time>2026-04-24T11:43:34Z</time></trkpt><trkpt lat="43.384500323387215" lon="5.542917995334881"><ele>395.0</ele><time>2026-04-24T11:43:37Z</time></trkpt><trkpt lat="43.384465191507324" lon="5.54300518061407"><ele>395.1428571428571</ele><time>2026-04-24T11:43:41Z</time></trkpt><trkpt lat="43.38447213691686" lon="5.543107386857464"><ele>395.28571428571433</ele><time>2026-04-24T11:43:44.999Z</time></trkpt><trkpt lat="43.3845287540317" lon="5.543174822494922"><ele>395.42857142857144</ele><time>2026-04-24T11:43:48.999Z</time></trkpt><trkpt lat="43.3845911783507" lon="5.543201049638716"><ele>395.57142857142856</ele><time>2026-04-24T11:43:52.999Z</time></trkpt><trkpt lat="43.384661576634315" lon="5.543191579615188"><ele>395.71428571428567</ele><time>2026-04-24T11:43:57.999Z</time></trkpt><trkpt lat="43.384731863603086" lon="5.543183811166088"><ele>395.8571428571429</ele><time>2026-04-24T11:44:01.999Z</time></trkpt><trkpt lat="43.38479746342498" lon="5.543176843591979"><ele>396.0</ele><time>2026-04-24T11:44:06.999Z</time></trkpt><trkpt lat="43.38486030611863" lon="5.543167607905042"><ele>396.8571428571429</ele><time>2026-04-24T11:44:11.999Z</time></trkpt><trkpt lat="43.3849286096449" lon="5.543163591079815"><ele>397.71428571428567</ele><time>2026-04-24T11:44:16.999Z</time></trkpt><trkpt lat="43.38499639199507" lon="5.543157787468591"><ele>398.57142857142856</ele><time>2026-04-24T11:44:22Z</time></trkpt><trkpt lat="43.3850677733473" lon="5.543147946396814"><ele>399.42857142857144</ele><time>2026-04-24T11:44:27Z</time></trkpt><trkpt lat="43.38513571472613" lon="5.543144646698765"><ele>400.28571428571433</ele><time>2026-04-24T11:44:32Z</time></trkpt><trkpt lat="43.38521622946208" lon="5.543150084914945"><ele>401.1428571428571</ele><time>2026-04-24T11:44:37Z</time></trkpt><trkpt lat="43.38528411656315" lon="5.543182682832562"><ele>402.0</ele><time>2026-04-24T11:44:41Z</time></trkpt><trkpt lat="43.385348248601815" lon="5.543220535674693"><ele>402.0</ele><time>2026-04-24T11:44:45Z</time></trkpt><trkpt lat="43.385407994025876" lon="5.54325654142636"><ele>402.0</ele><time>2026-04-24T11:44:48Z</time></trkpt><trkpt lat="43.38547786806425" lon="5.543311665616711"><ele>402.0</ele><time>2026-04-24T11:44:52Z</time></trkpt><trkpt lat="43.3855348790647" lon="5.5433526303876155"><ele>402.0</ele><time>2026-04-24T11:44:56Z</time></trkpt><trkpt lat="43.385601191462925" lon="5.543397442138338"><ele>402.0</ele><time>2026-04-24T11:45:01Z</time></trkpt><trkpt lat="43.38566640789201" lon="5.543451319577981"><ele>402.0</ele><time>2026-04-24T11:45:06Z</time></trkpt><trkpt lat="43.38572388203491" lon="5.543492182186958"><ele>402.0</ele><time>2026-04-24T11:45:10Z</time></trkpt><trkpt lat="43.38579447037551" lon="5.543532941034783"><ele>401.6666666666667</ele><time>2026-04-24T11:45:14Z</time></trkpt><trkpt lat="43.38585341114878" lon="5.543573978710086"><ele>401.33333333333337</ele><time>2026-04-24T11:45:18Z</time></trkpt><trkpt lat="43.38592130744018" lon="5.543606959534035"><ele>401.0</ele><time>2026-04-24T11:45:22Z</time></trkpt><trkpt lat="43.38599816420303" lon="5.543653932301745"><ele>400.6666666666667</ele><time>2026-04-24T11:45:26Z</time></trkpt><trkpt lat="43.38606803335126" lon="5.54367967225604"><ele>400.33333333333337</ele><time>2026-04-24T11:45:28.999Z</time></trkpt><trkpt lat="43.38615717497741" lon="5.543706611810947"><ele>400.0</ele><time>2026-04-24T11:45:31.999Z</time></trkpt><trkpt lat="43.386224765960954" lon="5.543730167918581"><ele>400.00000000000006</ele><time>2026-04-24T11:45:33.999Z</time></trkpt><trkpt lat="43.3863074302828" lon="5.543741176249972"><ele>400.0</ele><time>2026-04-24T11:45:35.999Z</time></trkpt><trkpt lat="43.3863846386194" lon="5.543730308532565"><ele>400.0</ele><time>2026-04-24T11:45:37.999Z</time></trkpt><trkpt lat="43.38644821961508" lon="5.543704856758686"><ele>400.0</ele><time>2026-04-24T11:45:39.999Z</time></trkpt><trkpt lat="43.38650865677138" lon="5.543668844316703"><ele>400.0</ele><time>2026-04-24T11:45:41.999Z</time></trkpt><trkpt lat="43.38656513162565" lon="5.54361967787892"><ele>400.00000000000006</ele><time>2026-04-24T11:45:43.999Z</time></trkpt><trkpt lat="43.38663091029845" lon="5.543575926479177"><ele>400.0</ele><time>2026-04-24T11:45:46.999Z</time></trkpt><trkpt lat="43.38670668938384" lon="5.543512741895171"><ele>402.00000000000006</ele><time>2026-04-24T11:45:49.999Z</time></trkpt><trkpt lat="43.38677864934831" lon="5.543534271003263"><ele>404.0</ele><time>2026-04-24T11:45:52.999Z</time></trkpt><trkpt lat="43.38682963603354" lon="5.543596452970037"><ele>406.0</ele><time>2026-04-24T11:45:55.999Z</time></trkpt><trkpt lat="43.386878954804466" lon="5.543680372732484"><ele>408.0</ele><time>2026-04-24T11:45:58.999Z</time></trkpt><trkpt lat="43.386929302489506" lon="5.543745387355269"><ele>410.0</ele><time>2026-04-24T11:46:01.999Z</time></trkpt><trkpt lat="43.386976524218866" lon="5.543810692120631"><ele>412.00000000000006</ele><time>2026-04-24T11:46:04.999Z</time></trkpt><trkpt lat="43.387035001395276" lon="5.5438616598766535"><ele>414.0</ele><time>2026-04-24T11:46:07.999Z</time></trkpt><trkpt lat="43.387114920144754" lon="5.5438842460592195"><ele>413.79999999999995</ele><time>2026-04-24T11:46:11.999Z</time></trkpt><trkpt lat="43.38719066964297" lon="5.543846997559807"><ele>413.59999999999997</ele><time>2026-04-24T11:46:14.999Z</time></trkpt><trkpt lat="43.38726181185103" lon="5.543766476119379"><ele>413.4</ele><time>2026-04-24T11:46:17.999Z</time></trkpt><trkpt lat="43.38731569941391" lon="5.543683117371234"><ele>413.2</ele><time>2026-04-24T11:46:19.999Z</time></trkpt><trkpt lat="43.387381406297315" lon="5.54357063610918"><ele>413.0</ele><time>2026-04-24T11:46:21.999Z</time></trkpt><trkpt lat="43.38747745960666" lon="5.543440036044295"><ele>414.0</ele><time>2026-04-24T11:46:23.999Z</time></trkpt><trkpt lat="43.3875245099488" lon="5.543378095723959"><ele>415.0</ele><time>2026-04-24T11:46:24.999Z</time></trkpt><trkpt lat="43.387615973153565" lon="5.54326986408438"><ele>416.0</ele><time>2026-04-24T11:46:27Z</time></trkpt><trkpt lat="43.3877078476461" lon="5.543161362948738"><ele>417.0</ele><time>2026-04-24T11:46:29Z</time></trkpt><trkpt lat="43.38779479509003" lon="5.543067008437766"><ele>418.0</ele><time>2026-04-24T11:46:31Z</time></trkpt><trkpt lat="43.38786966446197" lon="5.543015306130768"><ele>418.00000000000006</ele><time>2026-04-24T11:46:33Z</time></trkpt><trkpt lat="43.38794172857216" lon="5.543002389239167"><ele>418.0</ele><time>2026-04-24T11:46:35Z</time></trkpt><trkpt lat="43.38801791199498" lon="5.542981253045233"><ele>418.0</ele><time>2026-04-24T11:46:37Z</time></trkpt><trkpt lat="43.38810186000018" lon="5.5429651234706645"><ele>418.0</ele><time>2026-04-24T11:46:39Z</time></trkpt><trkpt lat="43.38818727498629" lon="5.542941485604781"><ele>418.00000000000006</ele><time>2026-04-24T11:46:41Z</time></trkpt><trkpt lat="43.38826895913906" lon="5.542910161602023"><ele>418.0</ele><time>2026-04-24T11:46:43Z</time></trkpt><trkpt lat="43.38834481680984" lon="5.542864042799316"><ele>419.2857142857143</ele><time>2026-04-24T11:46:45Z</time></trkpt><trkpt lat="43.388410324882784" lon="5.54281540952316"><ele>420.57142857142856</ele><time>2026-04-24T11:46:47Z</time></trkpt><trkpt lat="43.388466944488606" lon="5.542763569315873"><ele>421.8571428571429</ele><time>2026-04-24T11:46:49Z</time></trkpt><trkpt lat="43.38852849309343" lon="5.542699041132103"><ele>423.1428571428571</ele><time>2026-04-24T11:46:52Z</time></trkpt><trkpt lat="43.38859308041964" lon="5.542664810373426"><ele>424.42857142857144</ele><time>2026-04-24T11:46:54Z</time></trkpt><trkpt lat="43.38868155383213" lon="5.542682590069198"><ele>425.7142857142857</ele><time>2026-04-24T11:46:57Z</time></trkpt><trkpt lat="43.38874466895359" lon="5.5427125808921245"><ele>427.0</ele><time>2026-04-24T11:46:59Z</time></trkpt><trkpt lat="43.388827450555794" lon="5.542743546260316"><ele>427.14285714285717</ele><time>2026-04-24T11:47:02Z</time></trkpt><trkpt lat="43.38890709583083" lon="5.542769361412748"><ele>427.2857142857143</ele><time>2026-04-24T11:47:05Z</time></trkpt><trkpt lat="43.388983884354886" lon="5.5427781679130534"><ele>427.42857142857144</ele><time>2026-04-24T11:47:08Z</time></trkpt><trkpt lat="43.3890489601741" lon="5.542769047367237"><ele>427.57142857142856</ele><time>2026-04-24T11:47:11Z</time></trkpt><trkpt lat="43.389087843813144" lon="5.542695666631697"><ele>427.7142857142857</ele><time>2026-04-24T11:47:15Z</time></trkpt><trkpt lat="43.38915925854952" lon="5.54265592983088"><ele>427.8571428571429</ele><time>2026-04-24T11:56:34.999Z</time></trkpt><trkpt lat="43.38921739854108" lon="5.542604301751279"><ele>428.0</ele><time>2026-04-24T11:56:39.999Z</time></trkpt><trkpt lat="43.389263330445466" lon="5.5425425997940625"><ele>428.00000000000006</ele><time>2026-04-24T11:56:43.999Z</time></trkpt><trkpt lat="43.38931569660598" lon="5.542475855862314"><ele>428.0</ele><time>2026-04-24T11:56:47.999Z</time></trkpt><trkpt lat="43.3893681763805" lon="5.542395328600278"><ele>428.0</ele><time>2026-04-24T11:56:51.999Z</time></trkpt><trkpt lat="43.38942020208938" lon="5.542317749947442"><ele>428.0</ele><time>2026-04-24T11:56:56.001Z</time></trkpt><trkpt lat="43.389466032305194" lon="5.542246760514358"><ele>428.0</ele><time>2026-04-24T11:57:00.001Z</time></trkpt><trkpt lat="43.389513763132214" lon="5.54218092197374"><ele>428.00000000000006</ele><time>2026-04-24T11:57:04.001Z</time></trkpt><trkpt lat="43.389557895333475" lon="5.542106595225659"><ele>428.0</ele><time>2026-04-24T11:57:08Z</time></trkpt><trkpt lat="43.38961771478507" lon="5.5420556996932655"><ele>429.5714285714286</ele><time>2026-04-24T11:57:12Z</time></trkpt><trkpt lat="43.38966883539707" lon="5.541976940638732"><ele>431.14285714285717</ele><time>2026-04-24T11:57:16Z</time></trkpt><trkpt lat="43.38973197459296" lon="5.541930880901879"><ele>432.7142857142857</ele><time>2026-04-24T11:57:20Z</time></trkpt><trkpt lat="43.38978488628559" lon="5.541870229228167"><ele>434.28571428571433</ele><time>2026-04-24T11:57:25Z</time></trkpt><trkpt lat="43.389815632889515" lon="5.5417766951988465"><ele>435.85714285714283</ele><time>2026-04-24T11:57:30Z</time></trkpt><trkpt lat="43.38977192098858" lon="5.541700267259553"><ele>437.42857142857144</ele><time>2026-04-24T11:57:35Z</time></trkpt><trkpt lat="43.38970300030769" lon="5.541743006866176"><ele>439.0</ele><time>2026-04-24T11:57:41Z</time></trkpt><trkpt lat="43.38963008934402" lon="5.5417422589033425"><ele>439.42857142857144</ele><time>2026-04-24T11:57:47Z</time></trkpt><trkpt lat="43.38956152691909" lon="5.541761715647024"><ele>439.85714285714283</ele><time>2026-04-24T11:57:53Z</time></trkpt><trkpt lat="43.38949152348861" lon="5.54176826912981"><ele>440.28571428571433</ele><time>2026-04-24T11:57:58Z</time></trkpt><trkpt lat="43.38942585844116" lon="5.541758465060397"><ele>440.7142857142857</ele><time>2026-04-24T11:58:07Z</time></trkpt><trkpt lat="43.3893547520707" lon="5.5417483440401725"><ele>441.14285714285717</ele><time>2026-04-24T11:58:10.999Z</time></trkpt><trkpt lat="43.38928795636425" lon="5.541727458939784"><ele>441.5714285714286</ele><time>2026-04-24T11:58:14.999Z</time></trkpt><trkpt lat="43.389216810934" lon="5.54170410588186"><ele>442.0</ele><time>2026-04-24T11:58:18.999Z</time></trkpt><trkpt lat="43.38915810157657" lon="5.541660867886149"><ele>442.00000000000006</ele><time>2026-04-24T11:58:21.999Z</time></trkpt><trkpt lat="43.38911326377842" lon="5.541595665889602"><ele>442.0</ele><time>2026-04-24T11:58:25.999Z</time></trkpt><trkpt lat="43.38909639139708" lon="5.541504193986353"><ele>442.0</ele><time>2026-04-24T11:58:29.999Z</time></trkpt><trkpt lat="43.38909142875853" lon="5.5414014531592475"><ele>442.0</ele><time>2026-04-24T11:58:34.999Z</time></trkpt><trkpt lat="43.38908816870489" lon="5.541301520316259"><ele>442.0</ele><time>2026-04-24T11:58:39.999Z</time></trkpt><trkpt lat="43.38908154031676" lon="5.541212311758209"><ele>442.00000000000006</ele><time>2026-04-24T11:58:42.999Z</time></trkpt><trkpt lat="43.389056504634304" lon="5.541118333059098"><ele>442.0</ele><time>2026-04-24T11:58:46.999Z</time></trkpt><trkpt lat="43.38899030984054" lon="5.541049078511411"><ele>441.8571428571429</ele><time>2026-04-24T11:58:50.999Z</time></trkpt><trkpt lat="43.38892065177848" lon="5.5410627370745456"><ele>441.7142857142857</ele><time>2026-04-24T11:58:53.999Z</time></trkpt><trkpt lat="43.3888645529138" lon="5.541109490673489"><ele>441.57142857142856</ele><time>2026-04-24T11:58:56.999Z</time></trkpt><trkpt lat="43.38880151230458" lon="5.541170205597289"><ele>441.42857142857144</ele><time>2026-04-24T11:58:59.999Z</time></trkpt><trkpt lat="43.38872886141575" lon="5.5412243007794"><ele>441.2857142857143</ele><time>2026-04-24T11:59:04Z</time></trkpt><trkpt lat="43.38866727848637" lon="5.541255727725382"><ele>441.14285714285717</ele><time>2026-04-24T11:59:07Z</time></trkpt><trkpt lat="43.388604068479324" lon="5.541284355731636"><ele>441.0</ele><time>2026-04-24T11:59:10Z</time></trkpt><trkpt lat="43.38852731405174" lon="5.541304153883895"><ele>441.0</ele><time>2026-04-24T11:59:14Z</time></trkpt><trkpt lat="43.38846521532473" lon="5.54128062697629"><ele>441.0</ele><time>2026-04-24T11:59:18Z</time></trkpt><trkpt lat="43.38840725257527" lon="5.541235183424351"><ele>441.0</ele><time>2026-04-24T11:59:22Z</time></trkpt><trkpt lat="43.388387867797476" lon="5.541135234707041"><ele>441.0</ele><time>2026-04-24T11:59:26Z</time></trkpt><trkpt lat="43.38836957022844" lon="5.5410441023995896"><ele>441.0</ele><time>2026-04-24T11:59:30Z</time></trkpt><trkpt lat="43.38835333483166" lon="5.540949532394849"><ele>441.0</ele><time>2026-04-24T11:59:35Z</time></trkpt><trkpt lat="43.388330381289265" lon="5.540847492863492"><ele>441.0</ele><time>2026-04-24T11:59:41Z</time></trkpt><trkpt lat="43.38830848126121" lon="5.5407554968277015"><ele>443.7142857142857</ele><time>2026-04-24T11:59:46Z</time></trkpt><trkpt lat="43.388285436600164" lon="5.540653359214108"><ele>446.42857142857144</ele><time>2026-04-24T11:59:50.999Z</time></trkpt><trkpt lat="43.38824926780456" lon="5.540581527692354"><ele>449.1428571428571</ele><time>2026-04-24T11:59:54.999Z</time></trkpt><trkpt lat="43.38818553593032" lon="5.540554648958955"><ele>451.85714285714283</ele><time>2026-04-24T11:59:58.999Z</time></trkpt><trkpt lat="43.388120596208" lon="5.540588058948034"><ele>454.57142857142856</ele><time>2026-04-24T12:00:01.999Z</time></trkpt><trkpt lat="43.38807335563581" lon="5.540653018662497"><ele>457.2857142857142</ele><time>2026-04-24T12:00:04.999Z</time></trkpt><trkpt lat="43.38802124293367" lon="5.54072832366445"><ele>459.99999999999994</ele><time>2026-04-24T12:00:08.999Z</time></trkpt><trkpt lat="43.38796746417238" lon="5.540781373132062"><ele>459.5714285714285</ele><time>2026-04-24T12:00:12.999Z</time></trkpt><trkpt lat="43.387911598076606" lon="5.5408417718619996"><ele>459.1428571428571</ele><time>2026-04-24T12:00:16.999Z</time></trkpt><trkpt lat="43.38786434986524" lon="5.540903998198963"><ele>458.7142857142857</ele><time>2026-04-24T12:00:20.999Z</time></trkpt><trkpt lat="43.3878068305822" lon="5.540976215564466"><ele>458.2857142857143</ele><time>2026-04-24T12:00:25.999Z</time></trkpt><trkpt lat="43.387744496955456" lon="5.541037427433946"><ele>457.8571428571429</ele><time>2026-04-24T12:00:30.999Z</time></trkpt><trkpt lat="43.38769485825561" lon="5.541095699223893"><ele>457.4285714285715</ele><time>2026-04-24T12:00:34.999Z</time></trkpt><trkpt lat="43.387626892473286" lon="5.541151277208892"><ele>457.00000000000006</ele><time>2026-04-24T12:00:39.999Z</time></trkpt><trkpt lat="43.387562345091524" lon="5.54121634752003"><ele>457.00000000000006</ele><time>2026-04-24T12:00:43.999Z</time></trkpt><trkpt lat="43.38751357014235" lon="5.541283755049643"><ele>457.0</ele><time>2026-04-24T12:00:47.999Z</time></trkpt><trkpt lat="43.38746856194936" lon="5.541347633355598"><ele>457.00000000000006</ele><time>2026-04-24T12:00:50.999Z</time></trkpt><trkpt lat="43.38740847890945" lon="5.541443438989833"><ele>457.00000000000006</ele><time>2026-04-24T12:00:54.999Z</time></trkpt><trkpt lat="43.387359459677086" lon="5.5415247945323065"><ele>457.0</ele><time>2026-04-24T12:00:58.999Z</time></trkpt><trkpt lat="43.387304431489" lon="5.541589942377236"><ele>457.00000000000006</ele><time>2026-04-24T12:01:02.999Z</time></trkpt><trkpt lat="43.3872490399758" lon="5.541640291610803"><ele>457.00000000000006</ele><time>2026-04-24T12:01:06.999Z</time></trkpt><trkpt lat="43.38719447835484" lon="5.5416904947723795"><ele>459.7142857142858</ele><time>2026-04-24T12:01:11Z</time></trkpt><trkpt lat="43.38713395868542" lon="5.541729875164373"><ele>462.42857142857144</ele><time>2026-04-24T12:01:15Z</time></trkpt><trkpt lat="43.38707390866319" lon="5.541757847638549"><ele>465.14285714285717</ele><time>2026-04-24T12:01:20Z</time></trkpt><trkpt lat="43.38699140142639" lon="5.54178183867286"><ele>467.8571428571429</ele><time>2026-04-24T12:01:25Z</time></trkpt><trkpt lat="43.386918224628424" lon="5.541806963929171"><ele>470.57142857142856</ele><time>2026-04-24T12:01:30Z</time></trkpt><trkpt lat="43.38684556944267" lon="5.541808950986246"><ele>473.2857142857143</ele><time>2026-04-24T12:01:34Z</time></trkpt><trkpt lat="43.386766369983455" lon="5.541809699249509"><ele>476.0</ele><time>2026-04-24T12:01:39Z</time></trkpt><trkpt lat="43.386693199436394" lon="5.541815559615374"><ele>476.0</ele><time>2026-04-24T12:01:44Z</time></trkpt><trkpt lat="43.3866256170401" lon="5.541801337614974"><ele>476.0</ele><time>2026-04-24T12:01:48Z</time></trkpt><trkpt lat="43.38655101351963" lon="5.54178370731018"><ele>476.0</ele><time>2026-04-24T12:01:52.999Z</time></trkpt><trkpt lat="43.386489209869225" lon="5.541751952551272"><ele>476.0</ele><time>2026-04-24T12:01:57.999Z</time></trkpt><trkpt lat="43.38642844452257" lon="5.541714425262334"><ele>476.0</ele><time>2026-04-24T12:02:02.999Z</time></trkpt><trkpt lat="43.38637578607048" lon="5.541661713209769"><ele>476.0</ele><time>2026-04-24T12:02:06.999Z</time></trkpt><trkpt lat="43.38632412331498" lon="5.5416090192357075"><ele>476.0</ele><time>2026-04-24T12:02:10.999Z</time></trkpt><trkpt lat="43.38627299757893" lon="5.54153544014804"><ele>476.16666666666663</ele><time>2026-04-24T12:02:14.999Z</time></trkpt><trkpt lat="43.38623410100398" lon="5.541429145601345"><ele>476.3333333333333</ele><time>2026-04-24T12:02:19.999Z</time></trkpt><trkpt lat="43.38618483338375" lon="5.541345873319301"><ele>476.5</ele><time>2026-04-24T12:02:23.999Z</time></trkpt><trkpt lat="43.38614883873114" lon="5.541256152388397"><ele>476.66666666666663</ele><time>2026-04-24T12:02:27.999Z</time></trkpt><trkpt lat="43.38611693272262" lon="5.541176839688685"><ele>476.8333333333333</ele><time>2026-04-24T12:02:30.999Z</time></trkpt><trkpt lat="43.386079727641246" lon="5.541085978143803"><ele>477.0</ele><time>2026-04-24T12:02:34.999Z</time></trkpt><trkpt lat="43.386042880455996" lon="5.540991163285689"><ele>477.0</ele><time>2026-04-24T12:02:38.999Z</time></trkpt><trkpt lat="43.38601316385405" lon="5.540900126296341"><ele>476.99999999999994</ele><time>2026-04-24T12:02:42.999Z</time></trkpt><trkpt lat="43.38599221974231" lon="5.540801460118994"><ele>477.0</ele><time>2026-04-24T12:02:47.999Z</time></trkpt><trkpt lat="43.38597535129905" lon="5.540712791683863"><ele>477.0</ele><time>2026-04-24T12:02:51.999Z</time></trkpt><trkpt lat="43.385958002502726" lon="5.540620100589799"><ele>476.99999999999994</ele><time>2026-04-24T12:02:55.999Z</time></trkpt><trkpt lat="43.38593724585788" lon="5.540520684571583"><ele>477.0</ele><time>2026-04-24T12:02:59.999Z</time></trkpt><trkpt lat="43.38592219353169" lon="5.540435491388267"><ele>477.0</ele><time>2026-04-24T12:03:02.999Z</time></trkpt><trkpt lat="43.38590913122657" lon="5.5403275533350715"><ele>479.0</ele><time>2026-04-24T12:03:06.999Z</time></trkpt><trkpt lat="43.38588518054643" lon="5.540226658084211"><ele>480.99999999999994</ele><time>2026-04-24T12:03:10.999Z</time></trkpt><trkpt lat="43.38586928787414" lon="5.540139744291632"><ele>483.0</ele><time>2026-04-24T12:03:14Z</time></trkpt><trkpt lat="43.38585183331672" lon="5.540034554315845"><ele>485.0</ele><time>2026-04-24T12:03:18Z</time></trkpt><trkpt lat="43.385825645610396" lon="5.5399492179807375"><ele>486.99999999999994</ele><time>2026-04-24T12:03:21Z</time></trkpt><trkpt lat="43.385799940825805" lon="5.539863801990511"><ele>489.0</ele><time>2026-04-24T12:03:24Z</time></trkpt><trkpt lat="43.38577247450602" lon="5.53976691477983"><ele>491.0</ele><time>2026-04-24T12:03:28Z</time></trkpt><trkpt lat="43.385739057488756" lon="5.539679853152039"><ele>491.0</ele><time>2026-04-24T12:03:32Z</time></trkpt><trkpt lat="43.385712013521555" lon="5.539591600992754"><ele>490.99999999999994</ele><time>2026-04-24T12:03:36Z</time></trkpt><trkpt lat="43.385682173805044" lon="5.53949557470323"><ele>491.0</ele><time>2026-04-24T12:03:41Z</time></trkpt><trkpt lat="43.38564264200427" lon="5.539411059456917"><ele>491.0</ele><time>2026-04-24T12:03:46Z</time></trkpt><trkpt lat="43.385601110052335" lon="5.539321834175358"><ele>490.99999999999994</ele><time>2026-04-24T12:03:51Z</time></trkpt><trkpt lat="43.38558613327242" lon="5.539216770074137"><ele>491.0</ele><time>2026-04-24T12:03:55.999Z</time></trkpt><trkpt lat="43.38555841157825" lon="5.53913018152205"><ele>491.0</ele><time>2026-04-24T12:03:59.999Z</time></trkpt><trkpt lat="43.38552807261884" lon="5.539030349286129"><ele>488.71428571428567</ele><time>2026-04-24T12:04:02.999Z</time></trkpt><trkpt lat="43.385500506377326" lon="5.538939075519954"><ele>486.4285714285714</ele><time>2026-04-24T12:04:05.999Z</time></trkpt><trkpt lat="43.38547529898845" lon="5.538841359572433"><ele>484.1428571428571</ele><time>2026-04-24T12:04:08.999Z</time></trkpt><trkpt lat="43.38544538739578" lon="5.53875278538187"><ele>481.8571428571429</ele><time>2026-04-24T12:04:11.999Z</time></trkpt><trkpt lat="43.385421111991974" lon="5.538663668702424"><ele>479.5714285714286</ele><time>2026-04-24T12:04:14.999Z</time></trkpt><trkpt lat="43.385420343677886" lon="5.53856047367007"><ele>477.28571428571433</ele><time>2026-04-24T12:04:18.999Z</time></trkpt><trkpt lat="43.38544010570816" lon="5.5384748875902154"><ele>475.0</ele><time>2026-04-24T12:04:21.999Z</time></trkpt><trkpt lat="43.38548408280968" lon="5.538409939567947"><ele>478.8571428571429</ele><time>2026-04-24T12:04:24.999Z</time></trkpt><trkpt lat="43.38555337516639" lon="5.538397620879571"><ele>482.7142857142858</ele><time>2026-04-24T12:04:29.999Z</time></trkpt><trkpt lat="43.385616618880235" lon="5.538371885915249"><ele>486.57142857142856</ele><time>2026-04-24T12:04:33.999Z</time></trkpt><trkpt lat="43.38568364220513" lon="5.5383549274678305"><ele>490.42857142857144</ele><time>2026-04-24T12:04:37.999Z</time></trkpt><trkpt lat="43.38574727088926" lon="5.538338819652632"><ele>494.2857142857143</ele><time>2026-04-24T12:04:42.999Z</time></trkpt><trkpt lat="43.385811783583506" lon="5.538319043904279"><ele>498.1428571428571</ele><time>2026-04-24T12:04:47.999Z</time></trkpt><trkpt lat="43.38588435932294" lon="5.538300166654016"><ele>501.99999999999994</ele><time>2026-04-24T12:04:53.999Z</time></trkpt><trkpt lat="43.385956305093394" lon="5.538276799181564"><ele>501.99999999999994</ele><time>2026-04-24T12:04:59.999Z</time></trkpt><trkpt lat="43.38601651411057" lon="5.538238644417512"><ele>502.0</ele><time>2026-04-24T12:05:05.999Z</time></trkpt><trkpt lat="43.38607634206393" lon="5.538192698403831"><ele>501.99999999999994</ele><time>2026-04-24T12:05:11.999Z</time></trkpt><trkpt lat="43.38613446038175" lon="5.538148604659307"><ele>501.99999999999994</ele><time>2026-04-24T12:05:18.999Z</time></trkpt><trkpt lat="43.386194605486914" lon="5.538102968012098"><ele>502.0</ele><time>2026-04-24T12:05:25Z</time></trkpt><trkpt lat="43.386259782552784" lon="5.538089798845374"><ele>501.99999999999994</ele><time>2026-04-24T12:05:31Z</time></trkpt><trkpt lat="43.38632684702819" lon="5.538064780073434"><ele>501.99999999999994</ele><time>2026-04-24T12:05:37Z</time></trkpt><trkpt lat="43.386396630878885" lon="5.538036687124538"><ele>503.71428571428567</ele><time>2026-04-24T12:05:43Z</time></trkpt><trkpt lat="43.38646340033367" lon="5.538014128377509"><ele>505.42857142857144</ele><time>2026-04-24T12:05:49Z</time></trkpt><trkpt lat="43.38653200368783" lon="5.5379924467707475"><ele>507.1428571428571</ele><time>2026-04-24T12:05:55Z</time></trkpt><trkpt lat="43.38659663230124" lon="5.5379654731318615"><ele>508.85714285714283</ele><time>2026-04-24T12:06:01Z</time></trkpt><trkpt lat="43.386655413280984" lon="5.537927762330193"><ele>510.57142857142856</ele><time>2026-04-24T12:06:05.999Z</time></trkpt><trkpt lat="43.386715538512966" lon="5.537896408373909"><ele>512.2857142857142</ele><time>2026-04-24T12:06:10.999Z</time></trkpt><trkpt lat="43.38678452694" lon="5.537861786245324"><ele>514.0</ele><time>2026-04-24T12:06:15.999Z</time></trkpt><trkpt lat="43.38684606049098" lon="5.537833551425721"><ele>514.0</ele><time>2026-04-24T12:06:20.999Z</time></trkpt><trkpt lat="43.386894796818964" lon="5.537775159946147"><ele>514.0</ele><time>2026-04-24T12:06:24.999Z</time></trkpt><trkpt lat="43.386917092928485" lon="5.537686449616116"><ele>514.0</ele><time>2026-04-24T12:06:28.999Z</time></trkpt><trkpt lat="43.386924164577565" lon="5.5375848777582775"><ele>514.0</ele><time>2026-04-24T12:06:33.999Z</time></trkpt><trkpt lat="43.38689360050806" lon="5.537485399401046"><ele>514.0</ele><time>2026-04-24T12:06:37.999Z</time></trkpt><trkpt lat="43.386843816957" lon="5.5374041031685355"><ele>514.0</ele><time>2026-04-24T12:06:40.999Z</time></trkpt><trkpt lat="43.38679280303089" lon="5.537320201266758"><ele>514.0</ele><time>2026-04-24T12:06:43.999Z</time></trkpt><trkpt lat="43.38673657514442" lon="5.537236278192539"><ele>514.0</ele><time>2026-04-24T12:06:46.999Z</time></trkpt><trkpt lat="43.3866770421387" lon="5.5371703956349245"><ele>514.0</ele><time>2026-04-24T12:06:49.999Z</time></trkpt><trkpt lat="43.386611866183564" lon="5.537110888781978"><ele>514.0</ele><time>2026-04-24T12:06:52.999Z</time></trkpt><trkpt lat="43.38653524259399" lon="5.537045245519235"><ele>514.0</ele><time>2026-04-24T12:06:55.999Z</time></trkpt><trkpt lat="43.38645963201961" lon="5.536981947117623"><ele>514.0</ele><time>2026-04-24T12:06:58.999Z</time></trkpt><trkpt lat="43.38640193382287" lon="5.536939014412276"><ele>514.0</ele><time>2026-04-24T12:07:00.999Z</time></trkpt><trkpt lat="43.386333492202915" lon="5.536871666434075"><ele>513.4285714285714</ele><time>2026-04-24T12:07:03.999Z</time></trkpt><trkpt lat="43.38626282118159" lon="5.536795867520781"><ele>512.8571428571429</ele><time>2026-04-24T12:07:06.999Z</time></trkpt><trkpt lat="43.38620642441333" lon="5.536720563040073"><ele>512.2857142857143</ele><time>2026-04-24T12:07:09.999Z</time></trkpt><trkpt lat="43.38615397906048" lon="5.536662305154306"><ele>511.7142857142857</ele><time>2026-04-24T12:07:12.999Z</time></trkpt><trkpt lat="43.38610733238745" lon="5.536588756590083"><ele>511.1428571428572</ele><time>2026-04-24T12:07:15.999Z</time></trkpt><trkpt lat="43.38607157113812" lon="5.536503889793408"><ele>510.5714285714286</ele><time>2026-04-24T12:07:19.999Z</time></trkpt><trkpt lat="43.38606901877621" lon="5.53641079872442"><ele>510.0</ele><time>2026-04-24T12:07:22.999Z</time></trkpt><trkpt lat="43.386124550806535" lon="5.536352559048008"><ele>510.0</ele><time>2026-04-24T12:07:27.999Z</time></trkpt><trkpt lat="43.38618737197375" lon="5.536386704254839"><ele>510.00000000000006</ele><time>2026-04-24T12:07:31.999Z</time></trkpt><trkpt lat="43.38621709831246" lon="5.5363085478011005"><ele>510.0</ele><time>2026-04-24T12:07:39Z</time></trkpt><trkpt lat="43.38614348779774" lon="5.536327591899066"><ele>510.0</ele><time>2026-04-24T12:07:54Z</time></trkpt><trkpt lat="43.38606730292904" lon="5.536374499166704"><ele>510.00000000000006</ele><time>2026-04-24T12:07:57Z</time></trkpt><trkpt lat="43.38604981910513" lon="5.536462370499383"><ele>510.0</ele><time>2026-04-24T12:08:00Z</time></trkpt><trkpt lat="43.38609339045544" lon="5.536571032557797"><ele>510.0</ele><time>2026-04-24T12:08:03Z</time></trkpt><trkpt lat="43.38614137528292" lon="5.536649396106619"><ele>510.0</ele><time>2026-04-24T12:08:05Z</time></trkpt><trkpt lat="43.386193293367015" lon="5.536725975778894"><ele>510.0</ele><time>2026-04-24T12:08:07Z</time></trkpt><trkpt lat="43.38626701497198" lon="5.536799496831158"><ele>510.0</ele><time>2026-04-24T12:08:09Z</time></trkpt><trkpt lat="43.38634699221591" lon="5.536899981612708"><ele>510.0</ele><time>2026-04-24T12:08:10.999Z</time></trkpt><trkpt lat="43.38643879216648" lon="5.536969372267252"><ele>510.0</ele><time>2026-04-24T12:08:12.999Z</time></trkpt><trkpt lat="43.38652937977302" lon="5.53705146130679"><ele>510.8</ele><time>2026-04-24T12:08:14.999Z</time></trkpt><trkpt lat="43.386629416405036" lon="5.5371445898214775"><ele>511.6</ele><time>2026-04-24T12:08:16.999Z</time></trkpt><trkpt lat="43.38672493407984" lon="5.537247187547295"><ele>512.4</ele><time>2026-04-24T12:08:18.999Z</time></trkpt><trkpt lat="43.386817003885625" lon="5.53735305869506"><ele>513.2</ele><time>2026-04-24T12:08:20.999Z</time></trkpt><trkpt lat="43.38685746830465" lon="5.537420210022392"><ele>514.0</ele><time>2026-04-24T12:08:21.999Z</time></trkpt><trkpt lat="43.38691922908793" lon="5.537564461436158"><ele>514.0</ele><time>2026-04-24T12:08:23.999Z</time></trkpt><trkpt lat="43.38691497143507" lon="5.53766407920036"><ele>514.0</ele><time>2026-04-24T12:08:24.999Z</time></trkpt><trkpt lat="43.38687832003559" lon="5.5377620797109675"><ele>514.0</ele><time>2026-04-24T12:08:25.999Z</time></trkpt><trkpt lat="43.38684720637545" lon="5.537853219420645"><ele>514.0</ele><time>2026-04-24T12:08:26.999Z</time></trkpt><trkpt lat="43.38689084562517" lon="5.53777305562988"><ele>514.0</ele><time>2026-04-24T12:08:48.999Z</time></trkpt><trkpt lat="43.3869334432585" lon="5.5377088696703165"><ele>514.0</ele><time>2026-04-24T12:08:51.999Z</time></trkpt><trkpt lat="43.38692934558104" lon="5.5375998948290315"><ele>514.0</ele><time>2026-04-24T12:08:54.999Z</time></trkpt><trkpt lat="43.38690899801831" lon="5.537509165127253"><ele>514.0</ele><time>2026-04-24T12:08:58.999Z</time></trkpt><trkpt lat="43.38688373254737" lon="5.537426313766282"><ele>514.0</ele><time>2026-04-24T12:09:02.999Z</time></trkpt><trkpt lat="43.38684043780817" lon="5.537356666454292"><ele>514.0</ele><time>2026-04-24T12:09:06.999Z</time></trkpt><trkpt lat="43.38678991473016" lon="5.537298618805536"><ele>514.0</ele><time>2026-04-24T12:09:10.999Z</time></trkpt><trkpt lat="43.38673370364838" lon="5.537229168617872"><ele>514.0</ele><time>2026-04-24T12:09:15.999Z</time></trkpt><trkpt lat="43.386681972374404" lon="5.537171496109122"><ele>514.0</ele><time>2026-04-24T12:09:19.999Z</time></trkpt><trkpt lat="43.386616797412486" lon="5.5371103744887495"><ele>514.0</ele><time>2026-04-24T12:09:24.999Z</time></trkpt><trkpt lat="43.386561195411545" lon="5.537060500426162"><ele>513.4285714285714</ele><time>2026-04-24T12:09:28.999Z</time></trkpt><trkpt lat="43.38649487451321" lon="5.53701168481931"><ele>512.8571428571429</ele><time>2026-04-24T12:09:34Z</time></trkpt><trkpt lat="43.38643971449463" lon="5.536967540159719"><ele>512.2857142857143</ele><time>2026-04-24T12:09:38Z</time></trkpt><trkpt lat="43.386384443709574" lon="5.536921960188675"><ele>511.7142857142857</ele><time>2026-04-24T12:09:42Z</time></trkpt><trkpt lat="43.386328137266055" lon="5.536861591992761"><ele>511.1428571428572</ele><time>2026-04-24T12:09:46Z</time></trkpt><trkpt lat="43.38626201080451" lon="5.536798729252631"><ele>510.5714285714286</ele><time>2026-04-24T12:09:50Z</time></trkpt><trkpt lat="43.38621610103656" lon="5.536738938320836"><ele>510.0</ele><time>2026-04-24T12:09:53Z</time></trkpt><trkpt lat="43.38616511339362" lon="5.5366875446923265"><ele>510.0</ele><time>2026-04-24T12:09:56Z</time></trkpt><trkpt lat="43.38610512625227" lon="5.536606394100089"><ele>510.00000000000006</ele><time>2026-04-24T12:10:00Z</time></trkpt><trkpt lat="43.386066898355544" lon="5.536522135876754"><ele>510.0</ele><time>2026-04-24T12:10:04Z</time></trkpt><trkpt lat="43.3860474344858" lon="5.5364297858800535"><ele>510.0</ele><time>2026-04-24T12:10:09Z</time></trkpt><trkpt lat="43.386098858764846" lon="5.536366016440143"><ele>510.00000000000006</ele><time>2026-04-24T12:10:49.999Z</time></trkpt><trkpt lat="43.38616058489095" lon="5.536388331944807"><ele>510.0</ele><time>2026-04-24T12:10:53.999Z</time></trkpt><trkpt lat="43.386222349493465" lon="5.536453915313086"><ele>510.0</ele><time>2026-04-24T12:10:58.999Z</time></trkpt><trkpt lat="43.38627106723316" lon="5.536519868906103"><ele>510.0</ele><time>2026-04-24T12:11:02.999Z</time></trkpt><trkpt lat="43.38632545542745" lon="5.536593021419745"><ele>510.00000000000006</ele><time>2026-04-24T12:11:07.999Z</time></trkpt><trkpt lat="43.3863727649316" lon="5.536652217073961"><ele>510.0</ele><time>2026-04-24T12:11:11.999Z</time></trkpt><trkpt lat="43.38643425359785" lon="5.536701973180991"><ele>510.0</ele><time>2026-04-24T12:11:16.999Z</time></trkpt><trkpt lat="43.38649468403496" lon="5.536737043883091"><ele>510.00000000000006</ele><time>2026-04-24T12:11:20.999Z</time></trkpt><trkpt lat="43.38655728779782" lon="5.5367772251411616"><ele>510.0</ele><time>2026-04-24T12:11:23.999Z</time></trkpt><trkpt lat="43.38662958300484" lon="5.53682287242728"><ele>510.0</ele><time>2026-04-24T12:11:26.999Z</time></trkpt><trkpt lat="43.38670830036688" lon="5.536865143686706"><ele>510.6666666666667</ele><time>2026-04-24T12:11:29.999Z</time></trkpt><trkpt lat="43.386784641656796" lon="5.53692611702208"><ele>511.33333333333337</ele><time>2026-04-24T12:11:32.999Z</time></trkpt><trkpt lat="43.386851194491236" lon="5.537009353814242"><ele>512.0</ele><time>2026-04-24T12:11:35.999Z</time></trkpt><trkpt lat="43.38690499601916" lon="5.537058178394968"><ele>512.6666666666667</ele><time>2026-04-24T12:11:38Z</time></trkpt><trkpt lat="43.386958033589885" lon="5.537113478398387"><ele>513.3333333333334</ele><time>2026-04-24T12:11:40Z</time></trkpt><trkpt lat="43.38701537263632" lon="5.537170724161548"><ele>514.0</ele><time>2026-04-24T12:11:42Z</time></trkpt><trkpt lat="43.387081224333" lon="5.537233640787867"><ele>514.0</ele><time>2026-04-24T12:11:44Z</time></trkpt><trkpt lat="43.38715034168041" lon="5.537313984098945"><ele>514.0</ele><time>2026-04-24T12:11:46Z</time></trkpt><trkpt lat="43.38722414681438" lon="5.537387176352572"><ele>514.0</ele><time>2026-04-24T12:11:48Z</time></trkpt><trkpt lat="43.38729036884723" lon="5.5374708261107575"><ele>514.0</ele><time>2026-04-24T12:11:50Z</time></trkpt><trkpt lat="43.38734600276715" lon="5.537522646020923"><ele>514.0</ele><time>2026-04-24T12:11:52Z</time></trkpt><trkpt lat="43.387397918898486" lon="5.537574044791218"><ele>514.0</ele><time>2026-04-24T12:11:54Z</time></trkpt><trkpt lat="43.38745701038539" lon="5.537604363051901"><ele>515.2857142857142</ele><time>2026-04-24T12:11:57Z</time></trkpt><trkpt lat="43.38752850635985" lon="5.537659370063478"><ele>516.5714285714286</ele><time>2026-04-24T12:12:01Z</time></trkpt><trkpt lat="43.38759858380494" lon="5.537703194158342"><ele>517.8571428571429</ele><time>2026-04-24T12:12:05Z</time></trkpt><trkpt lat="43.38766660115605" lon="5.537767589880714"><ele>519.1428571428571</ele><time>2026-04-24T12:12:09Z</time></trkpt><trkpt lat="43.3877192985756" lon="5.537818159212297"><ele>520.4285714285714</ele><time>2026-04-24T12:12:12Z</time></trkpt><trkpt lat="43.387771920719906" lon="5.537877121235819"><ele>521.7142857142857</ele><time>2026-04-24T12:12:15Z</time></trkpt><trkpt lat="43.38783043698092" lon="5.5379433624858985"><ele>523.0</ele><time>2026-04-24T12:12:18Z</time></trkpt><trkpt lat="43.387893034906725" lon="5.538001307678647"><ele>524.4285714285713</ele><time>2026-04-24T12:12:21Z</time></trkpt><trkpt lat="43.38796798868189" lon="5.538067963447053"><ele>525.8571428571429</ele><time>2026-04-24T12:12:24Z</time></trkpt><trkpt lat="43.38803278858327" lon="5.538080679952495"><ele>527.2857142857142</ele><time>2026-04-24T12:12:26Z</time></trkpt><trkpt lat="43.388095493195586" lon="5.538070429026354"><ele>528.7142857142857</ele><time>2026-04-24T12:12:28Z</time></trkpt><trkpt lat="43.38816020808527" lon="5.53802897730301"><ele>530.1428571428571</ele><time>2026-04-24T12:12:31Z</time></trkpt><trkpt lat="43.38821420948707" lon="5.537977886263122"><ele>531.5714285714286</ele><time>2026-04-24T12:12:34Z</time></trkpt><trkpt lat="43.3882716706463" lon="5.537937279921848"><ele>533.0</ele><time>2026-04-24T12:12:37Z</time></trkpt><trkpt lat="43.3883117101642" lon="5.537840957490648"><ele>533.1428571428571</ele><time>2026-04-24T12:12:41Z</time></trkpt><trkpt lat="43.38836880218545" lon="5.537775613989164"><ele>533.2857142857142</ele><time>2026-04-24T12:12:45Z</time></trkpt><trkpt lat="43.38842070278796" lon="5.53770153453956"><ele>533.4285714285714</ele><time>2026-04-24T12:12:48.999Z</time></trkpt><trkpt lat="43.38846887841332" lon="5.537629362202799"><ele>533.5714285714286</ele><time>2026-04-24T12:12:52.999Z</time></trkpt><trkpt lat="43.38851493300188" lon="5.537557673024173"><ele>533.7142857142858</ele><time>2026-04-24T12:12:56.999Z</time></trkpt><trkpt lat="43.38856482948059" lon="5.53749091904195"><ele>533.8571428571429</ele><time>2026-04-24T12:13:01.999Z</time></trkpt><trkpt lat="43.38861165996723" lon="5.537418795489602"><ele>534.0</ele><time>2026-04-24T12:13:05.999Z</time></trkpt><trkpt lat="43.38865763863298" lon="5.537358548337673"><ele>534.0000000000001</ele><time>2026-04-24T12:13:09.999Z</time></trkpt><trkpt lat="43.388706447026344" lon="5.53729083385205"><ele>534.0</ele><time>2026-04-24T12:13:14.999Z</time></trkpt><trkpt lat="43.38875058643821" lon="5.53722333583151"><ele>534.0</ele><time>2026-04-24T12:13:18.999Z</time></trkpt><trkpt lat="43.388801996355234" lon="5.537159196580118"><ele>534.0</ele><time>2026-04-24T12:13:23.999Z</time></trkpt><trkpt lat="43.38885723295945" lon="5.537082873337394"><ele>534.0</ele><time>2026-04-24T12:13:28.999Z</time></trkpt><trkpt lat="43.3889054757508" lon="5.537015138312228"><ele>534.0000000000001</ele><time>2026-04-24T12:13:31.999Z</time></trkpt><trkpt lat="43.388971762371575" lon="5.536944203019286"><ele>534.0</ele><time>2026-04-24T12:13:35.999Z</time></trkpt><trkpt lat="43.38902539549683" lon="5.536879338463773"><ele>536.1666666666666</ele><time>2026-04-24T12:13:39.999Z</time></trkpt><trkpt lat="43.38908559947363" lon="5.536821513669144"><ele>538.3333333333334</ele><time>2026-04-24T12:13:42.999Z</time></trkpt><trkpt lat="43.38916140253601" lon="5.536751334450702"><ele>540.5</ele><time>2026-04-24T12:13:46Z</time></trkpt><trkpt lat="43.38922968444209" lon="5.5366863487569535"><ele>542.6666666666667</ele><time>2026-04-24T12:13:49Z</time></trkpt><trkpt lat="43.38930757341359" lon="5.536643018751984"><ele>544.8333333333334</ele><time>2026-04-24T12:13:52Z</time></trkpt><trkpt lat="43.38937484196288" lon="5.536595864920141"><ele>547.0</ele><time>2026-04-24T12:13:55Z</time></trkpt><trkpt lat="43.3894430015472" lon="5.536545403017489"><ele>547.0</ele><time>2026-04-24T12:13:59Z</time></trkpt><trkpt lat="43.3895141046091" lon="5.5364967040574165"><ele>547.0</ele><time>2026-04-24T12:14:03Z</time></trkpt><trkpt lat="43.389575890848946" lon="5.536456389730063"><ele>547.0</ele><time>2026-04-24T12:14:06Z</time></trkpt><trkpt lat="43.38964440400321" lon="5.536409060580313"><ele>547.0</ele><time>2026-04-24T12:14:10Z</time></trkpt><trkpt lat="43.38969705849015" lon="5.536328944963719"><ele>547.0</ele><time>2026-04-24T12:14:14Z</time></trkpt><trkpt lat="43.389730870989446" lon="5.536243964185735"><ele>547.0</ele><time>2026-04-24T12:14:18Z</time></trkpt><trkpt lat="43.38972737972838" lon="5.536151369362525"><ele>547.0</ele><time>2026-04-24T12:14:22Z</time></trkpt><trkpt lat="43.38971187204826" lon="5.5360651834858405"><ele>544.6666666666667</ele><time>2026-04-24T12:14:25Z</time></trkpt><trkpt lat="43.38969692328936" lon="5.535954736782663"><ele>542.3333333333334</ele><time>2026-04-24T12:14:29Z</time></trkpt><trkpt lat="43.38968717045589" lon="5.535846671478082"><ele>540.0</ele><time>2026-04-24T12:14:33Z</time></trkpt><trkpt lat="43.389676260822824" lon="5.53573986575027"><ele>537.6666666666666</ele><time>2026-04-24T12:14:37Z</time></trkpt><trkpt lat="43.38966248869686" lon="5.535641914174286"><ele>535.3333333333333</ele><time>2026-04-24T12:14:41Z</time></trkpt><trkpt lat="43.38964467570205" lon="5.535547607036766"><ele>533.0</ele><time>2026-04-24T12:14:45Z</time></trkpt><trkpt lat="43.38963057285941" lon="5.535439306431648"><ele>534.5714285714286</ele><time>2026-04-24T12:14:49Z</time></trkpt><trkpt lat="43.389610231033124" lon="5.535334141936237"><ele>536.1428571428571</ele><time>2026-04-24T12:14:53Z</time></trkpt><trkpt lat="43.389588430358216" lon="5.535239175875712"><ele>537.7142857142857</ele><time>2026-04-24T12:14:56.999Z</time></trkpt><trkpt lat="43.38956307981435" lon="5.53514588270923"><ele>539.2857142857142</ele><time>2026-04-24T12:15:01.999Z</time></trkpt><trkpt lat="43.3895451236" lon="5.535057149976219"><ele>540.8571428571429</ele><time>2026-04-24T12:15:06.999Z</time></trkpt><trkpt lat="43.389519471842334" lon="5.534972203599539"><ele>542.4285714285713</ele><time>2026-04-24T12:15:11.999Z</time></trkpt><trkpt lat="43.389488489880854" lon="5.534875953042716"><ele>544.0</ele><time>2026-04-24T12:15:17.999Z</time></trkpt><trkpt lat="43.3894663228351" lon="5.534793589692571"><ele>543.9999999999999</ele><time>2026-04-24T12:15:22.999Z</time></trkpt><trkpt lat="43.38944385650085" lon="5.534704839035222"><ele>544.0</ele><time>2026-04-24T12:15:27.999Z</time></trkpt><trkpt lat="43.38941499982657" lon="5.53461100917632"><ele>544.0</ele><time>2026-04-24T12:15:32.999Z</time></trkpt><trkpt lat="43.389385540151196" lon="5.534527952967123"><ele>544.0</ele><time>2026-04-24T12:15:36.999Z</time></trkpt><trkpt lat="43.38935751506352" lon="5.53443916999083"><ele>544.0</ele><time>2026-04-24T12:15:40.999Z</time></trkpt><trkpt lat="43.389321975527544" lon="5.534348731470861"><ele>543.9999999999999</ele><time>2026-04-24T12:15:44.999Z</time></trkpt><trkpt lat="43.3892778571875" lon="5.534256536460303"><ele>544.0</ele><time>2026-04-24T12:15:48.999Z</time></trkpt><trkpt lat="43.38924341465007" lon="5.534181101910694"><ele>546.5714285714286</ele><time>2026-04-24T12:15:52Z</time></trkpt><trkpt lat="43.389201391394174" lon="5.5341058678226"><ele>549.1428571428571</ele><time>2026-04-24T12:15:55Z</time></trkpt><trkpt lat="43.389159714693115" lon="5.534028082070623"><ele>551.7142857142858</ele><time>2026-04-24T12:15:59Z</time></trkpt><trkpt lat="43.38910990544872" lon="5.533950922643986"><ele>554.2857142857142</ele><time>2026-04-24T12:16:02Z</time></trkpt><trkpt lat="43.38905912811922" lon="5.533860935786713"><ele>556.8571428571429</ele><time>2026-04-24T12:16:06Z</time></trkpt><trkpt lat="43.38900582021555" lon="5.5337852094278395"><ele>559.4285714285714</ele><time>2026-04-24T12:16:10Z</time></trkpt><trkpt lat="43.38895993435286" lon="5.5337056423515"><ele>562.0</ele><time>2026-04-24T12:16:14Z</time></trkpt><trkpt lat="43.38892855761215" lon="5.533605428174388"><ele>563.1428571428572</ele><time>2026-04-24T12:16:17Z</time></trkpt><trkpt lat="43.38892285165206" lon="5.53350502399219"><ele>564.2857142857143</ele><time>2026-04-24T12:16:20Z</time></trkpt><trkpt lat="43.38892539476129" lon="5.533404807996693"><ele>565.4285714285714</ele><time>2026-04-24T12:16:23Z</time></trkpt><trkpt lat="43.38893868198035" lon="5.533288521568848"><ele>566.5714285714287</ele><time>2026-04-24T12:16:26Z</time></trkpt><trkpt lat="43.388952151882634" lon="5.533202153670294"><ele>567.7142857142858</ele><time>2026-04-24T12:16:28Z</time></trkpt><trkpt lat="43.38897563552319" lon="5.533116913854669"><ele>568.8571428571429</ele><time>2026-04-24T12:16:31Z</time></trkpt><trkpt lat="43.38899507393314" lon="5.533011342777666"><ele>570.0</ele><time>2026-04-24T12:16:35Z</time></trkpt><trkpt lat="43.38898880124166" lon="5.532918030735423"><ele>567.4</ele><time>2026-04-24T12:16:39Z</time></trkpt><trkpt lat="43.388993215694356" lon="5.5328238397950855"><ele>564.8</ele><time>2026-04-24T12:16:43Z</time></trkpt><trkpt lat="43.388945889407864" lon="5.532714172697951"><ele>562.2</ele><time>2026-04-24T12:16:46Z</time></trkpt><trkpt lat="43.3888900693126" lon="5.53261664187893"><ele>559.6</ele><time>2026-04-24T12:16:48Z</time></trkpt><trkpt lat="43.388808873151575" lon="5.532511846804977"><ele>557.0</ele><time>2026-04-24T12:16:50Z</time></trkpt><trkpt lat="43.38871693494349" lon="5.532402389645766"><ele>556.8000000000001</ele><time>2026-04-24T12:16:52Z</time></trkpt><trkpt lat="43.38870036834223" lon="5.532302613508511"><ele>556.6</ele><time>2026-04-24T12:16:53Z</time></trkpt><trkpt lat="43.38865792215361" lon="5.532172077178231"><ele>556.4000000000001</ele><time>2026-04-24T12:16:55Z</time></trkpt><trkpt lat="43.388604622185866" lon="5.532017889027364"><ele>556.2</ele><time>2026-04-24T12:16:57Z</time></trkpt><trkpt lat="43.38854348271075" lon="5.53189451074661"><ele>556.0</ele><time>2026-04-24T12:16:59Z</time></trkpt><trkpt lat="43.388492085103586" lon="5.53179890083071"><ele>556.0</ele><time>2026-04-24T12:17:01Z</time></trkpt><trkpt lat="43.38844837734407" lon="5.531717594993084"><ele>556.0</ele><time>2026-04-24T12:17:03Z</time></trkpt><trkpt lat="43.38840340553546" lon="5.531628343068635"><ele>556.0</ele><time>2026-04-24T12:17:07Z</time></trkpt><trkpt lat="43.38835927524101" lon="5.531541646821207"><ele>556.0</ele><time>2026-04-24T12:17:12Z</time></trkpt><trkpt lat="43.3883152270222" lon="5.531451643923218"><ele>556.0</ele><time>2026-04-24T12:17:17.999Z</time></trkpt><trkpt lat="43.387976960810825" lon="5.531706164134293"><ele>556.0</ele><time>2026-04-24T12:17:19.999Z</time></trkpt><trkpt lat="43.38792080900654" lon="5.531646789555558"><ele>556.0</ele><time>2026-04-24T12:17:23.999Z</time></trkpt><trkpt lat="43.38787266883576" lon="5.531580512705775"><ele>556.0</ele><time>2026-04-24T12:17:27.999Z</time></trkpt><trkpt lat="43.38781683689972" lon="5.531512432094418"><ele>556.0</ele><time>2026-04-24T12:17:32.999Z</time></trkpt><trkpt lat="43.387869561714204" lon="5.531593486227413"><ele>556.0</ele><time>2026-04-24T12:25:35Z</time></trkpt><trkpt lat="43.38793994341119" lon="5.531666564704263"><ele>556.0</ele><time>2026-04-24T12:25:40Z</time></trkpt><trkpt lat="43.38801537589293" lon="5.531742294269424"><ele>556.0</ele><time>2026-04-24T12:25:42Z</time></trkpt><trkpt lat="43.388118354706485" lon="5.531844659282511"><ele>556.0</ele><time>2026-04-24T12:25:44Z</time></trkpt><trkpt lat="43.38816756450128" lon="5.531903873859835"><ele>556.0</ele><time>2026-04-24T12:25:45Z</time></trkpt><trkpt lat="43.38823042417369" lon="5.531966982616706"><ele>556.0</ele><time>2026-04-24T12:25:46Z</time></trkpt><trkpt lat="43.388292040603496" lon="5.532023618594063"><ele>556.0</ele><time>2026-04-24T12:25:47Z</time></trkpt><trkpt lat="43.38835630705623" lon="5.532080913990623"><ele>556.0</ele><time>2026-04-24T12:25:48Z</time></trkpt><trkpt lat="43.38841690009039" lon="5.532145516043776"><ele>556.0</ele><time>2026-04-24T12:25:49Z</time></trkpt><trkpt lat="43.38848187598086" lon="5.532196989611933"><ele>556.0</ele><time>2026-04-24T12:25:50Z</time></trkpt><trkpt lat="43.38854595393415" lon="5.532240691652324"><ele>556.0</ele><time>2026-04-24T12:25:51Z</time></trkpt><trkpt lat="43.38863291823489" lon="5.532280995781818"><ele>556.0</ele><time>2026-04-24T12:25:53Z</time></trkpt><trkpt lat="43.3886102984234" lon="5.53216864643241"><ele>556.0</ele><time>2026-04-24T12:25:57Z</time></trkpt><trkpt lat="43.388583420581604" lon="5.532063381790302"><ele>556.0</ele><time>2026-04-24T12:25:59Z</time></trkpt><trkpt lat="43.38852640238466" lon="5.5319357749833085"><ele>556.0</ele><time>2026-04-24T12:26:01Z</time></trkpt><trkpt lat="43.38847915634678" lon="5.531874287388002"><ele>556.0</ele><time>2026-04-24T12:26:02Z</time></trkpt><trkpt lat="43.38843701927538" lon="5.531803420083688"><ele>556.0</ele><time>2026-04-24T12:26:03Z</time></trkpt><trkpt lat="43.388437743705815" lon="5.53169580223565"><ele>556.0</ele><time>2026-04-24T12:26:04Z</time></trkpt><trkpt lat="43.38839644879193" lon="5.531614676122995"><ele>556.0</ele><time>2026-04-24T12:26:05Z</time></trkpt><trkpt lat="43.38835223474352" lon="5.531527815355657"><ele>556.0</ele><time>2026-04-24T12:26:06Z</time></trkpt><trkpt lat="43.38830809252461" lon="5.5314369174932665"><ele>556.0</ele><time>2026-04-24T12:26:07Z</time></trkpt><trkpt lat="43.38825459287447" lon="5.531353834611013"><ele>556.0</ele><time>2026-04-24T12:26:08Z</time></trkpt><trkpt lat="43.388218875409315" lon="5.531249239325453"><ele>556.0</ele><time>2026-04-24T12:26:09Z</time></trkpt><trkpt lat="43.38817719797193" lon="5.531152005100938"><ele>556.0</ele><time>2026-04-24T12:26:10Z</time></trkpt><trkpt lat="43.38813713959144" lon="5.531053089319103"><ele>556.0</ele><time>2026-04-24T12:26:11Z</time></trkpt><trkpt lat="43.38809929171685" lon="5.53094978356311"><ele>556.0</ele><time>2026-04-24T12:26:12Z</time></trkpt><trkpt lat="43.3880572270055" lon="5.530831156240788"><ele>556.0</ele><time>2026-04-24T12:26:13Z</time></trkpt><trkpt lat="43.388015969635255" lon="5.530704666629287"><ele>554.0</ele><time>2026-04-24T12:26:14Z</time></trkpt><trkpt lat="43.3879741315438" lon="5.53057187475485"><ele>552.0</ele><time>2026-04-24T12:26:15Z</time></trkpt><trkpt lat="43.387931047486305" lon="5.530430203943447"><ele>550.0</ele><time>2026-04-24T12:26:16Z</time></trkpt><trkpt lat="43.387889059290146" lon="5.530284142443805"><ele>548.0</ele><time>2026-04-24T12:26:17Z</time></trkpt><trkpt lat="43.38782966312738" lon="5.5301367255589495"><ele>545.75</ele><time>2026-04-24T12:26:18Z</time></trkpt><trkpt lat="43.38779586882157" lon="5.529977806813197"><ele>543.5</ele><time>2026-04-24T12:26:19Z</time></trkpt><trkpt lat="43.38774916827274" lon="5.529819679071545"><ele>541.25</ele><time>2026-04-24T12:26:20.001Z</time></trkpt><trkpt lat="43.38770399600887" lon="5.52966196657999"><ele>539.0</ele><time>2026-04-24T12:26:21.001Z</time></trkpt><trkpt lat="43.38766035020299" lon="5.529503743099107"><ele>535.25</ele><time>2026-04-24T12:26:22.001Z</time></trkpt><trkpt lat="43.387616534467035" lon="5.529337786923984"><ele>531.5</ele><time>2026-04-24T12:26:23.001Z</time></trkpt><trkpt lat="43.3875592780133" lon="5.529185279434352"><ele>527.75</ele><time>2026-04-24T12:26:24.001Z</time></trkpt><trkpt lat="43.38751922438571" lon="5.529032133161465"><ele>524.0</ele><time>2026-04-24T12:26:25.001Z</time></trkpt><trkpt lat="43.38748640627717" lon="5.528904906631641"><ele>524.0</ele><time>2026-04-24T12:26:26.001Z</time></trkpt><trkpt lat="43.38745803463565" lon="5.528800938726336"><ele>524.0</ele><time>2026-04-24T12:26:27.001Z</time></trkpt><trkpt lat="43.387446945285426" lon="5.528702304163956"><ele>524.0</ele><time>2026-04-24T12:26:28.001Z</time></trkpt><trkpt lat="43.387429612302576" lon="5.528565651751219"><ele>524.0</ele><time>2026-04-24T12:26:30.001Z</time></trkpt><trkpt lat="43.38741401302588" lon="5.528452554876333"><ele>524.0</ele><time>2026-04-24T12:26:32.001Z</time></trkpt><trkpt lat="43.387417980029916" lon="5.528299078041075"><ele>524.0</ele><time>2026-04-24T12:26:34.001Z</time></trkpt><trkpt lat="43.387434337659386" lon="5.52813267610448"><ele>522.5</ele><time>2026-04-24T12:26:36.001Z</time></trkpt><trkpt lat="43.387445020648826" lon="5.528045828361463"><ele>521.0</ele><time>2026-04-24T12:26:37.001Z</time></trkpt><trkpt lat="43.38745791831509" lon="5.527953898874124"><ele>519.5</ele><time>2026-04-24T12:26:38Z</time></trkpt><trkpt lat="43.387488955212405" lon="5.527866741196711"><ele>518.0</ele><time>2026-04-24T12:26:39Z</time></trkpt><trkpt lat="43.387525904298144" lon="5.527741744648133"><ele>516.5</ele><time>2026-04-24T12:26:41Z</time></trkpt><trkpt lat="43.387548194139434" lon="5.527619203677578"><ele>515.0</ele><time>2026-04-24T12:26:43Z</time></trkpt><trkpt lat="43.3875993059504" lon="5.527488924165038"><ele>515.0</ele><time>2026-04-24T12:26:45Z</time></trkpt><trkpt lat="43.387651485904016" lon="5.527325132616041"><ele>515.0</ele><time>2026-04-24T12:26:47Z</time></trkpt><trkpt lat="43.38769395585659" lon="5.527238057310976"><ele>515.0</ele><time>2026-04-24T12:26:48Z</time></trkpt><trkpt lat="43.38772282644574" lon="5.527151660441586"><ele>515.0</ele><time>2026-04-24T12:26:49Z</time></trkpt><trkpt lat="43.387742330261005" lon="5.52703835295238"><ele>515.0</ele><time>2026-04-24T12:26:50Z</time></trkpt><trkpt lat="43.387782068811184" lon="5.526931055700809"><ele>515.0</ele><time>2026-04-24T12:26:51Z</time></trkpt><trkpt lat="43.38782705294683" lon="5.526825553722476"><ele>515.0</ele><time>2026-04-24T12:26:52Z</time></trkpt><trkpt lat="43.38785995490221" lon="5.526719274671934"><ele>515.0</ele><time>2026-04-24T12:26:53Z</time></trkpt><trkpt lat="43.387892503384215" lon="5.5266219547808735"><ele>515.0</ele><time>2026-04-24T12:26:54Z</time></trkpt><trkpt lat="43.38792450117263" lon="5.526532010813428"><ele>515.0</ele><time>2026-04-24T12:26:55Z</time></trkpt><trkpt lat="43.387957042368" lon="5.526440539068603"><ele>515.0</ele><time>2026-04-24T12:26:56Z</time></trkpt><trkpt lat="43.38797357454918" lon="5.526350481839037"><ele>515.0</ele><time>2026-04-24T12:26:57Z</time></trkpt><trkpt lat="43.388020065818324" lon="5.526205678383994"><ele>513.3333333333333</ele><time>2026-04-24T12:26:59Z</time></trkpt><trkpt lat="43.38803179907718" lon="5.5260591639594505"><ele>511.66666666666663</ele><time>2026-04-24T12:27:01Z</time></trkpt><trkpt lat="43.387985464930416" lon="5.525989844623036"><ele>510.0</ele><time>2026-04-24T12:27:02Z</time></trkpt><trkpt lat="43.38793369653978" lon="5.525937392327227"><ele>508.33333333333337</ele><time>2026-04-24T12:27:03Z</time></trkpt><trkpt lat="43.38785919185358" lon="5.525835298826313"><ele>506.6666666666667</ele><time>2026-04-24T12:27:05Z</time></trkpt><trkpt lat="43.38782311652486" lon="5.5257263917574315"><ele>505.0</ele><time>2026-04-24T12:27:07Z</time></trkpt><trkpt lat="43.387784645444334" lon="5.5256505151365225"><ele>505.00000000000006</ele><time>2026-04-24T12:27:09Z</time></trkpt><trkpt lat="43.38773037526481" lon="5.525562707548047"><ele>505.0</ele><time>2026-04-24T12:27:12Z</time></trkpt><trkpt lat="43.3876632650563" lon="5.525475668676608"><ele>505.0</ele><time>2026-04-24T12:27:15Z</time></trkpt><trkpt lat="43.38760248656573" lon="5.525388005865835"><ele>505.0</ele><time>2026-04-24T12:27:18Z</time></trkpt><trkpt lat="43.3875970168508" lon="5.52529878033145"><ele>505.00000000000006</ele><time>2026-04-24T12:27:20Z</time></trkpt><trkpt lat="43.38756671595913" lon="5.525202668894711"><ele>505.0</ele><time>2026-04-24T12:27:22Z</time></trkpt><trkpt lat="43.38752610695542" lon="5.5250846686708375"><ele>502.5</ele><time>2026-04-24T12:27:24Z</time></trkpt><trkpt lat="43.38748226782536" lon="5.524953978203106"><ele>500.0</ele><time>2026-04-24T12:27:26Z</time></trkpt><trkpt lat="43.38743918992707" lon="5.524813583541034"><ele>497.5</ele><time>2026-04-24T12:27:28Z</time></trkpt><trkpt lat="43.3874068500673" lon="5.524666491141795"><ele>495.0</ele><time>2026-04-24T12:27:30Z</time></trkpt><trkpt lat="43.38738466451128" lon="5.524500269166399"><ele>492.8</ele><time>2026-04-24T12:27:32Z</time></trkpt><trkpt lat="43.387367200790216" lon="5.524315364208652"><ele>490.6</ele><time>2026-04-24T12:27:34Z</time></trkpt><trkpt lat="43.38734419250815" lon="5.524205728122532"><ele>488.4</ele><time>2026-04-24T12:27:35Z</time></trkpt><trkpt lat="43.38730658972044" lon="5.524090106519596"><ele>486.2</ele><time>2026-04-24T12:27:36Z</time></trkpt><trkpt lat="43.38725961424179" lon="5.5239752488914755"><ele>484.0</ele><time>2026-04-24T12:27:37Z</time></trkpt><trkpt lat="43.38721395651208" lon="5.523846558708188"><ele>483.4</ele><time>2026-04-24T12:27:38Z</time></trkpt><trkpt lat="43.387145364493804" lon="5.523713829006164"><ele>482.79999999999995</ele><time>2026-04-24T12:27:39Z</time></trkpt><trkpt lat="43.3870688063175" lon="5.523594102735369"><ele>482.20000000000005</ele><time>2026-04-24T12:27:40Z</time></trkpt><trkpt lat="43.38698852843029" lon="5.523489578786901"><ele>481.6</ele><time>2026-04-24T12:27:41Z</time></trkpt><trkpt lat="43.38692470855504" lon="5.523379336946137"><ele>481.0</ele><time>2026-04-24T12:27:42Z</time></trkpt><trkpt lat="43.386864709581445" lon="5.523300000354802"><ele>481.00000000000006</ele><time>2026-04-24T12:27:43Z</time></trkpt><trkpt lat="43.386832303743866" lon="5.523216371357729"><ele>481.0</ele><time>2026-04-24T12:27:44Z</time></trkpt><trkpt lat="43.38679131632595" lon="5.523118309997692"><ele>481.0</ele><time>2026-04-24T12:27:45Z</time></trkpt><trkpt lat="43.38672142973566" lon="5.523032567350575"><ele>481.0</ele><time>2026-04-24T12:27:46Z</time></trkpt><trkpt lat="43.38665079677588" lon="5.522967204714349"><ele>481.00000000000006</ele><time>2026-04-24T12:27:47Z</time></trkpt><trkpt lat="43.38656739648149" lon="5.522913397758416"><ele>481.0</ele><time>2026-04-24T12:27:48Z</time></trkpt><trkpt lat="43.38648939583627" lon="5.522830169373811"><ele>481.4</ele><time>2026-04-24T12:27:49Z</time></trkpt><trkpt lat="43.38641348993944" lon="5.522756148367827"><ele>481.8</ele><time>2026-04-24T12:27:50Z</time></trkpt><trkpt lat="43.38634287390639" lon="5.522677466644571"><ele>482.19999999999993</ele><time>2026-04-24T12:27:51Z</time></trkpt><trkpt lat="43.38626876073627" lon="5.5225851358750475"><ele>482.59999999999997</ele><time>2026-04-24T12:27:52Z</time></trkpt><trkpt lat="43.38619192220997" lon="5.5224912368312955"><ele>483.0</ele><time>2026-04-24T12:27:53Z</time></trkpt><trkpt lat="43.38609891607159" lon="5.522423002343354"><ele>480.79999999999995</ele><time>2026-04-24T12:27:54Z</time></trkpt><trkpt lat="43.38601175232882" lon="5.522346557106541"><ele>478.59999999999997</ele><time>2026-04-24T12:27:55Z</time></trkpt><trkpt lat="43.385915988714245" lon="5.5222873530735175"><ele>476.40000000000003</ele><time>2026-04-24T12:27:56Z</time></trkpt><trkpt lat="43.38582503043984" lon="5.522204659664092"><ele>474.20000000000005</ele><time>2026-04-24T12:27:57Z</time></trkpt><trkpt lat="43.38572512352933" lon="5.52213892162146"><ele>472.0</ele><time>2026-04-24T12:27:58Z</time></trkpt><trkpt lat="43.38562800887498" lon="5.522071912825423"><ele>474.40000000000003</ele><time>2026-04-24T12:27:59Z</time></trkpt><trkpt lat="43.38553437499273" lon="5.52199972823701"><ele>476.80000000000007</ele><time>2026-04-24T12:28:00Z</time></trkpt><trkpt lat="43.38544563565958" lon="5.521916495517216"><ele>479.2</ele><time>2026-04-24T12:28:01Z</time></trkpt><trkpt lat="43.38537795459918" lon="5.521834504431789"><ele>481.6</ele><time>2026-04-24T12:28:02Z</time></trkpt><trkpt lat="43.38533613065499" lon="5.521768671659244"><ele>484.0</ele><time>2026-04-24T12:28:03Z</time></trkpt><trkpt lat="43.38530340029911" lon="5.521648035714106"><ele>480.00000000000006</ele><time>2026-04-24T12:28:05Z</time></trkpt><trkpt lat="43.385280981378955" lon="5.521472964854488"><ele>476.0</ele><time>2026-04-24T12:28:07Z</time></trkpt><trkpt lat="43.38527207168479" lon="5.521379094828945"><ele>472.0</ele><time>2026-04-24T12:28:08Z</time></trkpt><trkpt lat="43.38526398547998" lon="5.521283665123442"><ele>468.0</ele><time>2026-04-24T12:28:09Z</time></trkpt><trkpt lat="43.38524079023411" lon="5.52118459671499"><ele>464.00000000000006</ele><time>2026-04-24T12:28:10Z</time></trkpt><trkpt lat="43.385234946019345" lon="5.521081976410268"><ele>460.0</ele><time>2026-04-24T12:28:11Z</time></trkpt><trkpt lat="43.38522744297886" lon="5.520971871027579"><ele>459.6666666666667</ele><time>2026-04-24T12:28:12Z</time></trkpt><trkpt lat="43.38521937695348" lon="5.520864308520474"><ele>459.33333333333337</ele><time>2026-04-24T12:28:13Z</time></trkpt><trkpt lat="43.385204799185246" lon="5.520779888409497"><ele>459.0</ele><time>2026-04-24T12:28:14Z</time></trkpt><trkpt lat="43.38523247527677" lon="5.520637406064949"><ele>458.66666666666663</ele><time>2026-04-24T12:28:16Z</time></trkpt><trkpt lat="43.38531854014489" lon="5.520502663247851"><ele>458.3333333333333</ele><time>2026-04-24T12:28:18Z</time></trkpt><trkpt lat="43.38536492606976" lon="5.520437274872661"><ele>458.0</ele><time>2026-04-24T12:28:18.999Z</time></trkpt><trkpt lat="43.38545326225735" lon="5.520428556905819"><ele>458.99999999999994</ele><time>2026-04-24T12:28:21.999Z</time></trkpt><trkpt lat="43.38551939414205" lon="5.520507693555577"><ele>460.0</ele><time>2026-04-24T12:28:23.999Z</time></trkpt><trkpt lat="43.38561437977077" lon="5.520590470449715"><ele>461.0</ele><time>2026-04-24T12:28:26Z</time></trkpt><trkpt lat="43.38566700019672" lon="5.520644484225219"><ele>462.0</ele><time>2026-04-24T12:28:27Z</time></trkpt><trkpt lat="43.38572584042815" lon="5.520697579317528"><ele>462.99999999999994</ele><time>2026-04-24T12:28:28Z</time></trkpt><trkpt lat="43.38579206227944" lon="5.520740056972219"><ele>464.0</ele><time>2026-04-24T12:28:29Z</time></trkpt><trkpt lat="43.3858773428529" lon="5.5207771721949985"><ele>463.99999999999994</ele><time>2026-04-24T12:28:30Z</time></trkpt><trkpt lat="43.38595955537662" lon="5.520813345601413"><ele>464.0</ele><time>2026-04-24T12:28:31Z</time></trkpt><trkpt lat="43.386040970455376" lon="5.5208581734368485"><ele>464.0</ele><time>2026-04-24T12:28:32Z</time></trkpt><trkpt lat="43.386124910410864" lon="5.520895834573086"><ele>464.0</ele><time>2026-04-24T12:28:33Z</time></trkpt><trkpt lat="43.386205880834574" lon="5.520936422997099"><ele>463.99999999999994</ele><time>2026-04-24T12:28:34Z</time></trkpt><trkpt lat="43.38626690566817" lon="5.520967620126343"><ele>464.0</ele><time>2026-04-24T12:28:35Z</time></trkpt><trkpt lat="43.3863369991669" lon="5.521024121714758"><ele>463.99999999999994</ele><time>2026-04-24T12:28:37Z</time></trkpt><trkpt lat="43.3864236693601" lon="5.521053366021383"><ele>464.0</ele><time>2026-04-24T12:28:39Z</time></trkpt><trkpt lat="43.38651022777151" lon="5.520989032192091"><ele>464.0</ele><time>2026-04-24T12:28:42Z</time></trkpt><trkpt lat="43.38648622039346" lon="5.520881598947403"><ele>464.0</ele><time>2026-04-24T12:28:44Z</time></trkpt><trkpt lat="43.38641026390917" lon="5.520852484857638"><ele>463.99999999999994</ele><time>2026-04-24T12:28:46Z</time></trkpt><trkpt lat="43.386323769923344" lon="5.520823344237722"><ele>464.0</ele><time>2026-04-24T12:28:48Z</time></trkpt><trkpt lat="43.38623334286416" lon="5.520772809027626"><ele>464.0</ele><time>2026-04-24T12:28:50Z</time></trkpt><trkpt lat="43.38614795354608" lon="5.520689500363527"><ele>464.0</ele><time>2026-04-24T12:28:52Z</time></trkpt><trkpt lat="43.38604869645646" lon="5.520577824638095"><ele>464.0</ele><time>2026-04-24T12:28:54Z</time></trkpt><trkpt lat="43.385990257837875" lon="5.520505823117761"><ele>464.0</ele><time>2026-04-24T12:28:55Z</time></trkpt><trkpt lat="43.385937284918775" lon="5.520426917333863"><ele>464.0</ele><time>2026-04-24T12:28:56Z</time></trkpt><trkpt lat="43.3858842853632" lon="5.520338142021406"><ele>459.99999999999994</ele><time>2026-04-24T12:28:57Z</time></trkpt><trkpt lat="43.38584604209666" lon="5.5202393438003465"><ele>456.0</ele><time>2026-04-24T12:28:58Z</time></trkpt><trkpt lat="43.38580266585511" lon="5.520135492890505"><ele>452.0</ele><time>2026-04-24T12:28:59Z</time></trkpt><trkpt lat="43.385759188795404" lon="5.520032739576345"><ele>448.0</ele><time>2026-04-24T12:29:00Z</time></trkpt><trkpt lat="43.38571477689105" lon="5.519944548362286"><ele>443.99999999999994</ele><time>2026-04-24T12:29:01Z</time></trkpt><trkpt lat="43.38567187304022" lon="5.519878709073857"><ele>440.0</ele><time>2026-04-24T12:29:02Z</time></trkpt><trkpt lat="43.385563850478434" lon="5.519794423351027"><ele>440.49999999999994</ele><time>2026-04-24T12:29:04Z</time></trkpt><trkpt lat="43.38549208131696" lon="5.519763911289917"><ele>441.0</ele><time>2026-04-24T12:29:05Z</time></trkpt><trkpt lat="43.38542413949902" lon="5.519711300020276"><ele>441.5</ele><time>2026-04-24T12:29:06Z</time></trkpt><trkpt lat="43.385350014492346" lon="5.5196682098320595"><ele>442.0</ele><time>2026-04-24T12:29:07Z</time></trkpt><trkpt lat="43.385276541372214" lon="5.519622968808694"><ele>442.49999999999994</ele><time>2026-04-24T12:29:08Z</time></trkpt><trkpt lat="43.38519967798988" lon="5.5195665572787895"><ele>443.0</ele><time>2026-04-24T12:29:09Z</time></trkpt><trkpt lat="43.38513314018586" lon="5.519494149017029"><ele>440.2</ele><time>2026-04-24T12:29:10Z</time></trkpt><trkpt lat="43.385080309919914" lon="5.51939556214756"><ele>437.4</ele><time>2026-04-24T12:29:11Z</time></trkpt><trkpt lat="43.38503615062308" lon="5.519278677646747"><ele>434.59999999999997</ele><time>2026-04-24T12:29:12Z</time></trkpt><trkpt lat="43.38500184294854" lon="5.519144671468742"><ele>431.79999999999995</ele><time>2026-04-24T12:29:13Z</time></trkpt><trkpt lat="43.38499854430332" lon="5.519015845033287"><ele>429.0</ele><time>2026-04-24T12:29:14Z</time></trkpt><trkpt lat="43.38499156292273" lon="5.518880813094758"><ele>429.0</ele><time>2026-04-24T12:29:15Z</time></trkpt><trkpt lat="43.38499487654703" lon="5.51875031672845"><ele>429.0</ele><time>2026-04-24T12:29:16Z</time></trkpt><trkpt lat="43.385006130902134" lon="5.518619828840581"><ele>429.0</ele><time>2026-04-24T12:29:17Z</time></trkpt><trkpt lat="43.38501721914035" lon="5.518491250164801"><ele>429.0</ele><time>2026-04-24T12:29:18Z</time></trkpt><trkpt lat="43.38501190335822" lon="5.518366698189417"><ele>429.0</ele><time>2026-04-24T12:29:19Z</time></trkpt><trkpt lat="43.38501750601888" lon="5.518262462611171"><ele>428.1666666666667</ele><time>2026-04-24T12:29:20Z</time></trkpt><trkpt lat="43.385005073709316" lon="5.518157889228713"><ele>427.33333333333337</ele><time>2026-04-24T12:29:21Z</time></trkpt><trkpt lat="43.385007349079146" lon="5.518041323706113"><ele>426.5</ele><time>2026-04-24T12:29:22Z</time></trkpt><trkpt lat="43.38498791380579" lon="5.517930500534174"><ele>425.6666666666667</ele><time>2026-04-24T12:29:23Z</time></trkpt><trkpt lat="43.38494949445865" lon="5.5178280376794575"><ele>424.83333333333337</ele><time>2026-04-24T12:29:24Z</time></trkpt><trkpt lat="43.38492092307039" lon="5.517723315190918"><ele>424.0</ele><time>2026-04-24T12:29:25Z</time></trkpt><trkpt lat="43.384901323223616" lon="5.517616480745661"><ele>423.50000000000006</ele><time>2026-04-24T12:29:26Z</time></trkpt><trkpt lat="43.38485456529418" lon="5.517527327549322"><ele>423.0</ele><time>2026-04-24T12:29:27Z</time></trkpt><trkpt lat="43.38480821161609" lon="5.517443409085572"><ele>422.5</ele><time>2026-04-24T12:29:28Z</time></trkpt><trkpt lat="43.38476346411786" lon="5.51734395998292"><ele>422.0</ele><time>2026-04-24T12:29:29Z</time></trkpt><trkpt lat="43.38472158644884" lon="5.517258469646926"><ele>421.50000000000006</ele><time>2026-04-24T12:29:30Z</time></trkpt><trkpt lat="43.384674157170195" lon="5.517177308059947"><ele>421.0</ele><time>2026-04-24T12:29:31Z</time></trkpt><trkpt lat="43.384641539213156" lon="5.517078327291328"><ele>422.7142857142857</ele><time>2026-04-24T12:29:32Z</time></trkpt><trkpt lat="43.384586768376295" lon="5.51700623878292"><ele>424.42857142857144</ele><time>2026-04-24T12:29:33Z</time></trkpt><trkpt lat="43.384542695650474" lon="5.51692710278175"><ele>426.1428571428571</ele><time>2026-04-24T12:29:34Z</time></trkpt><trkpt lat="43.38450601065504" lon="5.516831510816848"><ele>427.8571428571429</ele><time>2026-04-24T12:29:35Z</time></trkpt><trkpt lat="43.38446100530254" lon="5.516752140421679"><ele>429.57142857142856</ele><time>2026-04-24T12:29:36Z</time></trkpt><trkpt lat="43.38440493778414" lon="5.516690404320887"><ele>431.2857142857143</ele><time>2026-04-24T12:29:37Z</time></trkpt><trkpt lat="43.38435778954442" lon="5.516612224484595"><ele>433.0</ele><time>2026-04-24T12:29:38Z</time></trkpt><trkpt lat="43.38431374983296" lon="5.51653428968695"><ele>432.99999999999994</ele><time>2026-04-24T12:29:39Z</time></trkpt><trkpt lat="43.38426243695533" lon="5.516473529629184"><ele>433.0</ele><time>2026-04-24T12:29:40Z</time></trkpt><trkpt lat="43.38420433434097" lon="5.516429432008956"><ele>433.0</ele><time>2026-04-24T12:29:41Z</time></trkpt><trkpt lat="43.384143878588105" lon="5.516382584894342"><ele>433.0</ele><time>2026-04-24T12:29:42Z</time></trkpt><trkpt lat="43.38409030254752" lon="5.516319209530277"><ele>433.0</ele><time>2026-04-24T12:29:43Z</time></trkpt><trkpt lat="43.384029627687575" lon="5.516273243731536"><ele>432.99999999999994</ele><time>2026-04-24T12:29:44Z</time></trkpt><trkpt lat="43.383969666290504" lon="5.516224691360374"><ele>433.0</ele><time>2026-04-24T12:29:45Z</time></trkpt><trkpt lat="43.38391342466152" lon="5.5161774056389925"><ele>432.99999999999994</ele><time>2026-04-24T12:29:46Z</time></trkpt><trkpt lat="43.38385521256844" lon="5.516125273441771"><ele>433.0</ele><time>2026-04-24T12:29:47Z</time></trkpt><trkpt lat="43.38380557801654" lon="5.516069213406846"><ele>433.0</ele><time>2026-04-24T12:29:48Z</time></trkpt><trkpt lat="43.383760946028424" lon="5.516001483926842"><ele>433.0</ele><time>2026-04-24T12:29:48.999Z</time></trkpt><trkpt lat="43.38371968826287" lon="5.5159319563796165"><ele>433.0</ele><time>2026-04-24T12:29:49.999Z</time></trkpt><trkpt lat="43.3836841246403" lon="5.515857440969376"><ele>432.99999999999994</ele><time>2026-04-24T12:29:50.999Z</time></trkpt><trkpt lat="43.38365243581369" lon="5.515776635846174"><ele>433.0</ele><time>2026-04-24T12:29:51.999Z</time></trkpt><trkpt lat="43.38362439873519" lon="5.515693019299037"><ele>432.99999999999994</ele><time>2026-04-24T12:29:52.999Z</time></trkpt><trkpt lat="43.383597937704415" lon="5.51560189840062"><ele>433.0</ele><time>2026-04-24T12:29:53.999Z</time></trkpt><trkpt lat="43.3835750348533" lon="5.515508363936669"><ele>433.0</ele><time>2026-04-24T12:29:54.999Z</time></trkpt><trkpt lat="43.383554892212274" lon="5.5154116696952515"><ele>433.0</ele><time>2026-04-24T12:29:55.999Z</time></trkpt><trkpt lat="43.383539576260794" lon="5.515311354479252"><ele>433.0</ele><time>2026-04-24T12:29:56.999Z</time></trkpt><trkpt lat="43.383533218359304" lon="5.515212871778374"><ele>432.99999999999994</ele><time>2026-04-24T12:29:57.999Z</time></trkpt><trkpt lat="43.38353128438443" lon="5.5151101321692435"><ele>433.0</ele><time>2026-04-24T12:29:58.999Z</time></trkpt><trkpt lat="43.383536495430896" lon="5.5150034368554754"><ele>432.00000000000006</ele><time>2026-04-24T12:29:59.999Z</time></trkpt><trkpt lat="43.383525978530116" lon="5.514892822620969"><ele>431.0</ele><time>2026-04-24T12:30:00.999Z</time></trkpt><trkpt lat="43.38353391493559" lon="5.514783011576443"><ele>430.0</ele><time>2026-04-24T12:30:01.999Z</time></trkpt><trkpt lat="43.38354458947988" lon="5.514671006559236"><ele>429.0</ele><time>2026-04-24T12:30:02.999Z</time></trkpt><trkpt lat="43.38355480622699" lon="5.5145636054365355"><ele>428.00000000000006</ele><time>2026-04-24T12:30:03.999Z</time></trkpt><trkpt lat="43.3835577569218" lon="5.514450960140093"><ele>427.0</ele><time>2026-04-24T12:30:04.999Z</time></trkpt><trkpt lat="43.38354956649807" lon="5.514347952828884"><ele>426.6666666666667</ele><time>2026-04-24T12:30:05.999Z</time></trkpt><trkpt lat="43.383536584416106" lon="5.514242578327835"><ele>426.33333333333337</ele><time>2026-04-24T12:30:06.999Z</time></trkpt><trkpt lat="43.38353188162024" lon="5.514134264933744"><ele>426.0</ele><time>2026-04-24T12:30:07.999Z</time></trkpt><trkpt lat="43.38352610152042" lon="5.514032665607612"><ele>425.66666666666663</ele><time>2026-04-24T12:30:08.999Z</time></trkpt><trkpt lat="43.38353733825734" lon="5.513920953778406"><ele>425.3333333333333</ele><time>2026-04-24T12:30:09.999Z</time></trkpt><trkpt lat="43.38356297617269" lon="5.513820869763838"><ele>425.0</ele><time>2026-04-24T12:30:10.999Z</time></trkpt><trkpt lat="43.38359054217265" lon="5.513716228404397"><ele>424.49999999999994</ele><time>2026-04-24T12:30:11.999Z</time></trkpt><trkpt lat="43.38360186956615" lon="5.513599082841116"><ele>424.0</ele><time>2026-04-24T12:30:12.999Z</time></trkpt><trkpt lat="43.383627278471344" lon="5.513491906422566"><ele>423.5</ele><time>2026-04-24T12:30:13.999Z</time></trkpt><trkpt lat="43.38363311474397" lon="5.5133828619643905"><ele>423.0</ele><time>2026-04-24T12:30:14.999Z</time></trkpt><trkpt lat="43.383630455636904" lon="5.51327050278412"><ele>422.49999999999994</ele><time>2026-04-24T12:30:15.999Z</time></trkpt><trkpt lat="43.383602476504585" lon="5.51316194842288"><ele>422.0</ele><time>2026-04-24T12:30:16.999Z</time></trkpt><trkpt lat="43.383550856169855" lon="5.5130702393989965"><ele>421.99999999999994</ele><time>2026-04-24T12:30:17.999Z</time></trkpt><trkpt lat="43.38350569518725" lon="5.512983555825115"><ele>422.0</ele><time>2026-04-24T12:30:18.999Z</time></trkpt><trkpt lat="43.38344885084075" lon="5.51289395499424"><ele>422.0</ele><time>2026-04-24T12:30:19.999Z</time></trkpt><trkpt lat="43.383395690611195" lon="5.512806484801874"><ele>422.0</ele><time>2026-04-24T12:30:20.999Z</time></trkpt><trkpt lat="43.383352338658796" lon="5.512713661065567"><ele>421.99999999999994</ele><time>2026-04-24T12:30:21.999Z</time></trkpt><trkpt lat="43.383314593109546" lon="5.512608993613266"><ele>422.0</ele><time>2026-04-24T12:30:22.999Z</time></trkpt><trkpt lat="43.38328389962122" lon="5.512503205059256"><ele>419.0</ele><time>2026-04-24T12:30:23.999Z</time></trkpt><trkpt lat="43.38325603042547" lon="5.512386189766267"><ele>416.0</ele><time>2026-04-24T12:30:24.999Z</time></trkpt><trkpt lat="43.38323279296857" lon="5.512265699594396"><ele>413.0</ele><time>2026-04-24T12:30:25.999Z</time></trkpt><trkpt lat="43.38321170392519" lon="5.51213248197849"><ele>410.0</ele><time>2026-04-24T12:30:26.999Z</time></trkpt><trkpt lat="43.383196451480686" lon="5.51200467611594"><ele>407.0</ele><time>2026-04-24T12:30:27.999Z</time></trkpt><trkpt lat="43.383179640050116" lon="5.511874981548401"><ele>406.8</ele><time>2026-04-24T12:30:28.999Z</time></trkpt><trkpt lat="43.383129280754396" lon="5.511755475677923"><ele>406.6</ele><time>2026-04-24T12:30:29.999Z</time></trkpt><trkpt lat="43.383072957741874" lon="5.51163528885145"><ele>406.40000000000003</ele><time>2026-04-24T12:30:30.999Z</time></trkpt><trkpt lat="43.383041093859305" lon="5.511515105431687"><ele>406.20000000000005</ele><time>2026-04-24T12:30:32Z</time></trkpt><trkpt lat="43.38299208661884" lon="5.511407663725838"><ele>406.0</ele><time>2026-04-24T12:30:33Z</time></trkpt><trkpt lat="43.382932726531855" lon="5.511303161932789"><ele>402.50000000000006</ele><time>2026-04-24T12:30:34Z</time></trkpt><trkpt lat="43.382876918610265" lon="5.511232297490793"><ele>399.0</ele><time>2026-04-24T12:30:35Z</time></trkpt><trkpt lat="43.382789817318574" lon="5.511226870471063"><ele>395.5</ele><time>2026-04-24T12:30:36Z</time></trkpt><trkpt lat="43.38271227207927" lon="5.511192087382765"><ele>392.0</ele><time>2026-04-24T12:30:37Z</time></trkpt><trkpt lat="43.382636639278545" lon="5.5111716103206225"><ele>388.50000000000006</ele><time>2026-04-24T12:30:38Z</time></trkpt><trkpt lat="43.3825603664315" lon="5.511154519106812"><ele>385.0</ele><time>2026-04-24T12:30:39Z</time></trkpt><trkpt lat="43.3824747885469" lon="5.511146093234281"><ele>385.00000000000006</ele><time>2026-04-24T12:30:40Z</time></trkpt><trkpt lat="43.38238909976637" lon="5.511179566088753"><ele>385.0</ele><time>2026-04-24T12:30:41Z</time></trkpt><trkpt lat="43.382302304206206" lon="5.511211204090367"><ele>385.0</ele><time>2026-04-24T12:30:42Z</time></trkpt><trkpt lat="43.38222247265832" lon="5.511265731343264"><ele>385.0</ele><time>2026-04-24T12:30:43Z</time></trkpt><trkpt lat="43.382154248388254" lon="5.511344582578209"><ele>385.00000000000006</ele><time>2026-04-24T12:30:44Z</time></trkpt><trkpt lat="43.382097815222075" lon="5.511434474503429"><ele>385.0</ele><time>2026-04-24T12:30:45Z</time></trkpt><trkpt lat="43.38203779082111" lon="5.511529565636994"><ele>385.50000000000006</ele><time>2026-04-24T12:30:46Z</time></trkpt><trkpt lat="43.381966763555184" lon="5.51159756828656"><ele>386.0</ele><time>2026-04-24T12:30:47Z</time></trkpt><trkpt lat="43.38190308035773" lon="5.511678694375022"><ele>386.5</ele><time>2026-04-24T12:30:48Z</time></trkpt><trkpt lat="43.38183315808101" lon="5.51175659480004"><ele>387.0</ele><time>2026-04-24T12:30:49Z</time></trkpt><trkpt lat="43.38176075609259" lon="5.511827617828279"><ele>387.50000000000006</ele><time>2026-04-24T12:30:50Z</time></trkpt><trkpt lat="43.38168187299053" lon="5.511884385693787"><ele>388.0</ele><time>2026-04-24T12:30:51Z</time></trkpt><trkpt lat="43.381595586073416" lon="5.511902651439824"><ele>388.0</ele><time>2026-04-24T12:30:52Z</time></trkpt><trkpt lat="43.381498393273425" lon="5.511900313158411"><ele>388.0</ele><time>2026-04-24T12:30:53Z</time></trkpt><trkpt lat="43.381400810868094" lon="5.511879525548902"><ele>388.0</ele><time>2026-04-24T12:30:54Z</time></trkpt><trkpt lat="43.38129701485506" lon="5.511856384716672"><ele>388.0</ele><time>2026-04-24T12:30:55Z</time></trkpt><trkpt lat="43.38118346666585" lon="5.511824712924447"><ele>388.0</ele><time>2026-04-24T12:30:56Z</time></trkpt><trkpt lat="43.38107896752353" lon="5.511782147419893"><ele>386.79999999999995</ele><time>2026-04-24T12:30:57Z</time></trkpt><trkpt lat="43.380982174468194" lon="5.511739237200355"><ele>385.6</ele><time>2026-04-24T12:30:58Z</time></trkpt><trkpt lat="43.3808703562095" lon="5.511712358390667"><ele>384.4</ele><time>2026-04-24T12:30:59Z</time></trkpt><trkpt lat="43.380764156532315" lon="5.511658664471573"><ele>383.20000000000005</ele><time>2026-04-24T12:31:00Z</time></trkpt><trkpt lat="43.38066049369311" lon="5.511622385315199"><ele>382.0</ele><time>2026-04-24T12:31:01Z</time></trkpt><trkpt lat="43.38054677455466" lon="5.51160503292282"><ele>380.8</ele><time>2026-04-24T12:31:02Z</time></trkpt><trkpt lat="43.3804399832805" lon="5.511548480144867"><ele>379.6</ele><time>2026-04-24T12:31:03Z</time></trkpt><trkpt lat="43.380327833650036" lon="5.511512189392251"><ele>378.40000000000003</ele><time>2026-04-24T12:31:04Z</time></trkpt><trkpt lat="43.38023491826434" lon="5.511482739153778"><ele>377.20000000000005</ele><time>2026-04-24T12:31:05Z</time></trkpt><trkpt lat="43.38014250626164" lon="5.511477015138587"><ele>376.0</ele><time>2026-04-24T12:31:06Z</time></trkpt><trkpt lat="43.380063264597865" lon="5.511465825166346"><ele>376.0</ele><time>2026-04-24T12:31:07Z</time></trkpt><trkpt lat="43.37999449469615" lon="5.511462524678741"><ele>376.0</ele><time>2026-04-24T12:31:08Z</time></trkpt><trkpt lat="43.37993181183185" lon="5.511475946104342"><ele>376.0</ele><time>2026-04-24T12:31:09Z</time></trkpt><trkpt lat="43.37983737176697" lon="5.511564636941695"><ele>376.0</ele><time>2026-04-24T12:31:11Z</time></trkpt><trkpt lat="43.37977814607121" lon="5.511688671690755"><ele>376.0</ele><time>2026-04-24T12:31:13Z</time></trkpt><trkpt lat="43.379750447946066" lon="5.51184916863212"><ele>376.0</ele><time>2026-04-24T12:31:15Z</time></trkpt><trkpt lat="43.37974609630626" lon="5.512018583313598"><ele>376.0</ele><time>2026-04-24T12:31:17Z</time></trkpt><trkpt lat="43.379757461767134" lon="5.512189157697773"><ele>376.0</ele><time>2026-04-24T12:31:19Z</time></trkpt><trkpt lat="43.3797617829713" lon="5.512280690340531"><ele>376.0</ele><time>2026-04-24T12:31:20Z</time></trkpt><trkpt lat="43.37976860204696" lon="5.5123717743857386"><ele>376.0</ele><time>2026-04-24T12:31:21Z</time></trkpt><trkpt lat="43.37978333416398" lon="5.512469908536165"><ele>375.8333333333333</ele><time>2026-04-24T12:31:22Z</time></trkpt><trkpt lat="43.37980062921277" lon="5.512567827751651"><ele>375.66666666666663</ele><time>2026-04-24T12:31:23Z</time></trkpt><trkpt lat="43.37981063896278" lon="5.512672848680563"><ele>375.5</ele><time>2026-04-24T12:31:24Z</time></trkpt><trkpt lat="43.37979704933052" lon="5.512767618128209"><ele>375.3333333333333</ele><time>2026-04-24T12:31:25Z</time></trkpt><trkpt lat="43.3797914151006" lon="5.512860902793732"><ele>375.1666666666667</ele><time>2026-04-24T12:31:26Z</time></trkpt><trkpt lat="43.37974740557769" lon="5.512962479626193"><ele>375.0</ele><time>2026-04-24T12:31:28Z</time></trkpt><trkpt lat="43.37971633030902" lon="5.512861281378389"><ele>375.8333333333333</ele><time>2026-04-24T12:31:31Z</time></trkpt><trkpt lat="43.37975711131783" lon="5.512782533141965"><ele>376.6666666666667</ele><time>2026-04-24T12:35:21Z</time></trkpt><trkpt lat="43.379739567939566" lon="5.512674193510342"><ele>377.5</ele><time>2026-04-24T12:35:36Z</time></trkpt><trkpt lat="43.37971465491893" lon="5.512576790732428"><ele>378.33333333333337</ele><time>2026-04-24T12:35:38Z</time></trkpt><trkpt lat="43.379673157888135" lon="5.512466560922868"><ele>379.1666666666667</ele><time>2026-04-24T12:35:40Z</time></trkpt><trkpt lat="43.37963792114574" lon="5.512338084783565"><ele>380.0</ele><time>2026-04-24T12:35:42Z</time></trkpt><trkpt lat="43.379607692931025" lon="5.512210715311986"><ele>375.6666666666667</ele><time>2026-04-24T12:35:44Z</time></trkpt><trkpt lat="43.37954100549484" lon="5.512075426073678"><ele>371.33333333333337</ele><time>2026-04-24T12:35:46Z</time></trkpt><trkpt lat="43.37952021400498" lon="5.511982568060448"><ele>367.0</ele><time>2026-04-24T12:35:47Z</time></trkpt><trkpt lat="43.37948340085624" lon="5.511906364836351"><ele>362.6666666666667</ele><time>2026-04-24T12:35:48Z</time></trkpt><trkpt lat="43.37944198589806" lon="5.511828275440446"><ele>358.3333333333333</ele><time>2026-04-24T12:35:49Z</time></trkpt><trkpt lat="43.37940905851094" lon="5.511730987733058"><ele>354.0</ele><time>2026-04-24T12:35:51Z</time></trkpt><trkpt lat="43.37939483108503" lon="5.511614862267298"><ele>354.0</ele><time>2026-04-24T12:35:54Z</time></trkpt><trkpt lat="43.37938488088047" lon="5.511490607119384"><ele>354.0</ele><time>2026-04-24T12:35:56Z</time></trkpt><trkpt lat="43.37937417422108" lon="5.511320904367126"><ele>354.0</ele><time>2026-04-24T12:35:58Z</time></trkpt><trkpt lat="43.37936502152418" lon="5.511212567299813"><ele>354.0</ele><time>2026-04-24T12:35:58.999Z</time></trkpt><trkpt lat="43.37933524732882" lon="5.511105714330932"><ele>354.0</ele><time>2026-04-24T12:35:59.999Z</time></trkpt><trkpt lat="43.37931336176333" lon="5.511001242655202"><ele>353.5</ele><time>2026-04-24T12:36:00.999Z</time></trkpt><trkpt lat="43.379286222031595" lon="5.510896102519895"><ele>353.0</ele><time>2026-04-24T12:36:01.999Z</time></trkpt><trkpt lat="43.37924413138531" lon="5.510791410986964"><ele>352.5</ele><time>2026-04-24T12:36:02.999Z</time></trkpt><trkpt lat="43.37923334550195" lon="5.510704899758659"><ele>352.0</ele><time>2026-04-24T12:36:03.999Z</time></trkpt><trkpt lat="43.379182105821954" lon="5.510584174663413"><ele>351.5</ele><time>2026-04-24T12:36:05.999Z</time></trkpt><trkpt lat="43.379161083416584" lon="5.510490994589255"><ele>351.0</ele><time>2026-04-24T12:36:06.999Z</time></trkpt><trkpt lat="43.37912724043095" lon="5.510387294867549"><ele>349.3333333333333</ele><time>2026-04-24T12:36:07.999Z</time></trkpt><trkpt lat="43.379095991053525" lon="5.510285115207206"><ele>347.6666666666667</ele><time>2026-04-24T12:36:08.999Z</time></trkpt><trkpt lat="43.379058058586146" lon="5.510173336339711"><ele>346.0</ele><time>2026-04-24T12:36:09.999Z</time></trkpt><trkpt lat="43.37901971880135" lon="5.510037765946052"><ele>344.33333333333337</ele><time>2026-04-24T12:36:10.999Z</time></trkpt><trkpt lat="43.37900360404583" lon="5.509924746984421"><ele>342.6666666666667</ele><time>2026-04-24T12:36:11.999Z</time></trkpt><trkpt lat="43.378979735492" lon="5.50982935323295"><ele>341.0</ele><time>2026-04-24T12:36:12.999Z</time></trkpt><trkpt lat="43.37903106480977" lon="5.509742809755572"><ele>341.0</ele><time>2026-04-24T12:36:16.999Z</time></trkpt><trkpt lat="43.37910501204196" lon="5.50980759916152"><ele>341.0</ele><time>2026-04-24T12:36:19.999Z</time></trkpt><trkpt lat="43.37914850116132" lon="5.509877317265574"><ele>341.0</ele><time>2026-04-24T12:36:23.999Z</time></trkpt><trkpt lat="43.379209283028565" lon="5.509926119223757"><ele>341.0</ele><time>2026-04-24T12:36:28.999Z</time></trkpt><trkpt lat="43.3792877851508" lon="5.509976260933803"><ele>341.0</ele><time>2026-04-24T12:36:31.999Z</time></trkpt><trkpt lat="43.37936027860033" lon="5.5100415986579545"><ele>341.0</ele><time>2026-04-24T12:36:34.999Z</time></trkpt><trkpt lat="43.37942650733684" lon="5.5101126095166535"><ele>341.0</ele><time>2026-04-24T12:36:37.999Z</time></trkpt><trkpt lat="43.37950324381248" lon="5.510192274910091"><ele>341.0</ele><time>2026-04-24T12:36:40.999Z</time></trkpt><trkpt lat="43.37957123996458" lon="5.510221171378433"><ele>341.0</ele><time>2026-04-24T12:36:42.999Z</time></trkpt><trkpt lat="43.37964448669951" lon="5.510255498695946"><ele>341.0</ele><time>2026-04-24T12:36:44.999Z</time></trkpt><trkpt lat="43.37974486278686" lon="5.510283043028545"><ele>341.0</ele><time>2026-04-24T12:36:47.999Z</time></trkpt><trkpt lat="43.37984394842421" lon="5.510278613891233"><ele>341.0</ele><time>2026-04-24T12:36:50Z</time></trkpt><trkpt lat="43.37992483090817" lon="5.5102893828534"><ele>339.1428571428571</ele><time>2026-04-24T12:36:52Z</time></trkpt><trkpt lat="43.37999034205405" lon="5.510293020272492"><ele>337.2857142857143</ele><time>2026-04-24T12:36:54Z</time></trkpt><trkpt lat="43.38006579672382" lon="5.510292102099478"><ele>335.42857142857144</ele><time>2026-04-24T12:36:56Z</time></trkpt><trkpt lat="43.380131697517626" lon="5.510290062773757"><ele>333.57142857142856</ele><time>2026-04-24T12:36:58Z</time></trkpt><trkpt lat="43.38020646647997" lon="5.510289765388794"><ele>331.7142857142857</ele><time>2026-04-24T12:37:00Z</time></trkpt><trkpt lat="43.380285602716675" lon="5.510297522245639"><ele>329.85714285714283</ele><time>2026-04-24T12:37:02Z</time></trkpt><trkpt lat="43.380360522015465" lon="5.510300288215518"><ele>328.0</ele><time>2026-04-24T12:37:04Z</time></trkpt><trkpt lat="43.38045137631125" lon="5.510316541889636"><ele>328.5</ele><time>2026-04-24T12:37:06Z</time></trkpt><trkpt lat="43.38053793257989" lon="5.510333877881722"><ele>329.0</ele><time>2026-04-24T12:37:08Z</time></trkpt><trkpt lat="43.38065710941566" lon="5.510355836020308"><ele>329.5</ele><time>2026-04-24T12:37:10Z</time></trkpt><trkpt lat="43.380725897357" lon="5.510368999698021"><ele>330.0</ele><time>2026-04-24T12:37:11Z</time></trkpt><trkpt lat="43.38079831755637" lon="5.510381881231649"><ele>330.5</ele><time>2026-04-24T12:37:12Z</time></trkpt><trkpt lat="43.3808735715716" lon="5.510393643117368"><ele>331.0</ele><time>2026-04-24T12:37:13Z</time></trkpt><trkpt lat="43.38094561138887" lon="5.5103967301007435"><ele>331.0</ele><time>2026-04-24T12:37:14Z</time></trkpt><trkpt lat="43.38101335222278" lon="5.510412426251746"><ele>331.0</ele><time>2026-04-24T12:37:15Z</time></trkpt><trkpt lat="43.38107080599757" lon="5.510375914742518"><ele>331.0</ele><time>2026-04-24T12:37:16Z</time></trkpt><trkpt lat="43.38113520102508" lon="5.510242615733866"><ele>331.0</ele><time>2026-04-24T12:37:18Z</time></trkpt><trkpt lat="43.38111104365196" lon="5.510161438800712"><ele>331.0</ele><time>2026-04-24T12:37:19Z</time></trkpt><trkpt lat="43.38106641120976" lon="5.510092992461172"><ele>331.0</ele><time>2026-04-24T12:37:20Z</time></trkpt><trkpt lat="43.38101876616847" lon="5.509926507952851"><ele>331.0</ele><time>2026-04-24T12:37:22Z</time></trkpt><trkpt lat="43.381001675228674" lon="5.5098238704236655"><ele>331.0</ele><time>2026-04-24T12:37:23Z</time></trkpt><trkpt lat="43.380981013447965" lon="5.509726015363803"><ele>331.0</ele><time>2026-04-24T12:37:24Z</time></trkpt><trkpt lat="43.38095907010777" lon="5.509611441697531"><ele>331.0</ele><time>2026-04-24T12:37:25Z</time></trkpt><trkpt lat="43.38093260957076" lon="5.509506039693175"><ele>331.0</ele><time>2026-04-24T12:37:26Z</time></trkpt><trkpt lat="43.38090139051518" lon="5.50939006892627"><ele>331.0</ele><time>2026-04-24T12:37:27Z</time></trkpt><trkpt lat="43.38087078917779" lon="5.509260502728356"><ele>329.3333333333333</ele><time>2026-04-24T12:37:28Z</time></trkpt><trkpt lat="43.38082237465728" lon="5.509141021150309"><ele>327.66666666666663</ele><time>2026-04-24T12:37:29Z</time></trkpt><trkpt lat="43.38078646615203" lon="5.509019405896226"><ele>326.0</ele><time>2026-04-24T12:37:30Z</time></trkpt><trkpt lat="43.38075020605208" lon="5.508908769432739"><ele>324.3333333333333</ele><time>2026-04-24T12:37:31Z</time></trkpt><trkpt lat="43.380731944842175" lon="5.50879422895917"><ele>322.6666666666667</ele><time>2026-04-24T12:37:32Z</time></trkpt><trkpt lat="43.380709118380736" lon="5.508689275400143"><ele>321.0</ele><time>2026-04-24T12:37:33Z</time></trkpt><trkpt lat="43.380716628165494" lon="5.5085750957652335"><ele>319.5</ele><time>2026-04-24T12:37:34Z</time></trkpt><trkpt lat="43.38069841282249" lon="5.508473915563611"><ele>318.0</ele><time>2026-04-24T12:37:35Z</time></trkpt><trkpt lat="43.38071172487161" lon="5.508388127003673"><ele>316.5</ele><time>2026-04-24T12:37:36Z</time></trkpt><trkpt lat="43.38079956867135" lon="5.508261932295336"><ele>315.0</ele><time>2026-04-24T12:37:38Z</time></trkpt><trkpt lat="43.38086978104032" lon="5.5081906735576975"><ele>313.5</ele><time>2026-04-24T12:37:39Z</time></trkpt><trkpt lat="43.380944306656566" lon="5.508127007994107"><ele>312.0</ele><time>2026-04-24T12:37:40Z</time></trkpt><trkpt lat="43.38103444436601" lon="5.508065216140256"><ele>312.0</ele><time>2026-04-24T12:37:41Z</time></trkpt><trkpt lat="43.38111743737276" lon="5.508001961212991"><ele>312.0</ele><time>2026-04-24T12:37:42Z</time></trkpt><trkpt lat="43.38119290794232" lon="5.50790250426705"><ele>312.0</ele><time>2026-04-24T12:37:43Z</time></trkpt><trkpt lat="43.38126856972093" lon="5.507861190328862"><ele>312.0</ele><time>2026-04-24T12:37:44Z</time></trkpt><trkpt lat="43.38134301286295" lon="5.507891531550872"><ele>312.0</ele><time>2026-04-24T12:37:45Z</time></trkpt><trkpt lat="43.38140692910845" lon="5.507948511593834"><ele>312.0</ele><time>2026-04-24T12:37:47Z</time></trkpt><trkpt lat="43.38144219565245" lon="5.508074860792784"><ele>311.6666666666667</ele><time>2026-04-24T12:37:49Z</time></trkpt><trkpt lat="43.381498702742434" lon="5.508228700474354"><ele>311.3333333333333</ele><time>2026-04-24T12:37:51Z</time></trkpt><trkpt lat="43.38155498012806" lon="5.5082960868092"><ele>311.0</ele><time>2026-04-24T12:37:52Z</time></trkpt><trkpt lat="43.38161132646163" lon="5.508354237172553"><ele>310.66666666666663</ele><time>2026-04-24T12:37:53Z</time></trkpt><trkpt lat="43.381687237051814" lon="5.508409980006489"><ele>310.3333333333333</ele><time>2026-04-24T12:37:54Z</time></trkpt><trkpt lat="43.381770615144475" lon="5.508428905990035"><ele>310.0</ele><time>2026-04-24T12:37:55Z</time></trkpt><trkpt lat="43.38185792905676" lon="5.508391255772652"><ele>310.0</ele><time>2026-04-24T12:37:55.999Z</time></trkpt><trkpt lat="43.38192905682267" lon="5.508306854375268"><ele>310.0</ele><time>2026-04-24T12:37:56.999Z</time></trkpt><trkpt lat="43.38199857446042" lon="5.508237276785759"><ele>310.0</ele><time>2026-04-24T12:37:57.999Z</time></trkpt><trkpt lat="43.382069350226246" lon="5.508234761415763"><ele>310.0</ele><time>2026-04-24T12:37:58.999Z</time></trkpt><trkpt lat="43.3821901289441" lon="5.508232116337907"><ele>310.0</ele><time>2026-04-24T12:38:00.999Z</time></trkpt><trkpt lat="43.3822717849166" lon="5.50826484431979"><ele>307.0</ele><time>2026-04-24T12:38:02.999Z</time></trkpt><trkpt lat="43.382326947023806" lon="5.508372563418482"><ele>304.0</ele><time>2026-04-24T12:38:04.999Z</time></trkpt><trkpt lat="43.38238530749703" lon="5.508509814036972"><ele>301.0</ele><time>2026-04-24T12:38:06.999Z</time></trkpt><trkpt lat="43.38245443851881" lon="5.508651810442989"><ele>298.0</ele><time>2026-04-24T12:38:08.999Z</time></trkpt><trkpt lat="43.38251537200067" lon="5.508690711389147"><ele>295.0</ele><time>2026-04-24T12:38:09.999Z</time></trkpt><trkpt lat="43.38257938455396" lon="5.508714427447192"><ele>295.0</ele><time>2026-04-24T12:38:10.999Z</time></trkpt><trkpt lat="43.382652325956464" lon="5.508729000368675"><ele>295.0</ele><time>2026-04-24T12:38:11.999Z</time></trkpt><trkpt lat="43.38272712856739" lon="5.508751556181309"><ele>295.0</ele><time>2026-04-24T12:38:12.999Z</time></trkpt><trkpt lat="43.38281226031715" lon="5.508753629086679"><ele>295.0</ele><time>2026-04-24T12:38:13.999Z</time></trkpt><trkpt lat="43.38290130924073" lon="5.508717055565897"><ele>295.0</ele><time>2026-04-24T12:38:14.999Z</time></trkpt><trkpt lat="43.38298008275838" lon="5.508682138492115"><ele>295.0</ele><time>2026-04-24T12:38:15.999Z</time></trkpt><trkpt lat="43.38306635848962" lon="5.508623202488917"><ele>294.8</ele><time>2026-04-24T12:38:16.999Z</time></trkpt><trkpt lat="43.383158741971556" lon="5.508539148491907"><ele>294.6</ele><time>2026-04-24T12:38:17.999Z</time></trkpt><trkpt lat="43.38322471751125" lon="5.508437333646853"><ele>294.4</ele><time>2026-04-24T12:38:18.999Z</time></trkpt><trkpt lat="43.383300335538976" lon="5.508337162795785"><ele>294.2</ele><time>2026-04-24T12:38:19.999Z</time></trkpt><trkpt lat="43.383384358273254" lon="5.508233296204506"><ele>294.0</ele><time>2026-04-24T12:38:20.999Z</time></trkpt><trkpt lat="43.38346416127056" lon="5.508159029595996"><ele>294.0</ele><time>2026-04-24T12:38:21.999Z</time></trkpt><trkpt lat="43.38353364238316" lon="5.508110820848526"><ele>294.0</ele><time>2026-04-24T12:38:22.999Z</time></trkpt><trkpt lat="43.38365524013725" lon="5.508088026228525"><ele>294.0</ele><time>2026-04-24T12:38:24.999Z</time></trkpt><trkpt lat="43.38376773251052" lon="5.508133362244635"><ele>294.0</ele><time>2026-04-24T12:38:26.999Z</time></trkpt><trkpt lat="43.38381502034098" lon="5.508062245955522"><ele>294.0</ele><time>2026-04-24T12:38:28.999Z</time></trkpt><trkpt lat="43.383730589872584" lon="5.50793075786059"><ele>295.5</ele><time>2026-04-24T12:38:50.999Z</time></trkpt><trkpt lat="43.383669794047826" lon="5.507871315939753"><ele>297.0</ele><time>2026-04-24T12:38:52.999Z</time></trkpt><trkpt lat="43.383598916490996" lon="5.5078269824870185"><ele>298.5</ele><time>2026-04-24T12:38:54.999Z</time></trkpt><trkpt lat="43.383520033875044" lon="5.507789023317288"><ele>300.0</ele><time>2026-04-24T12:38:57Z</time></trkpt><trkpt lat="43.3834256443656" lon="5.507770498861975"><ele>301.5</ele><time>2026-04-24T12:38:59Z</time></trkpt><trkpt lat="43.383328825969016" lon="5.507789320416314"><ele>303.0</ele><time>2026-04-24T12:39:01Z</time></trkpt><trkpt lat="43.38323335516806" lon="5.507888056819815"><ele>301.4</ele><time>2026-04-24T12:39:03Z</time></trkpt><trkpt lat="43.38315597058578" lon="5.507993376986823"><ele>299.8</ele><time>2026-04-24T12:39:05Z</time></trkpt><trkpt lat="43.38308324924696" lon="5.508071028117784"><ele>298.2</ele><time>2026-04-24T12:39:07Z</time></trkpt><trkpt lat="43.38301233795743" lon="5.508131132932922"><ele>296.6</ele><time>2026-04-24T12:39:09Z</time></trkpt><trkpt lat="43.38294266255184" lon="5.5081959223254815"><ele>295.0</ele><time>2026-04-24T12:39:11Z</time></trkpt><trkpt lat="43.38284854396468" lon="5.508241149153569"><ele>295.0</ele><time>2026-04-24T12:39:13Z</time></trkpt><trkpt lat="43.382751542443955" lon="5.508191381274846"><ele>295.0</ele><time>2026-04-24T12:39:15Z</time></trkpt><trkpt lat="43.38270152893093" lon="5.50805120291669"><ele>295.0</ele><time>2026-04-24T12:39:17Z</time></trkpt><trkpt lat="43.38269333359842" lon="5.507964335759673"><ele>295.0</ele><time>2026-04-24T12:39:18Z</time></trkpt><trkpt lat="43.38268055480217" lon="5.507879234438927"><ele>295.0</ele><time>2026-04-24T12:39:19Z</time></trkpt><trkpt lat="43.382651653389836" lon="5.50780158544066"><ele>295.0</ele><time>2026-04-24T12:39:20Z</time></trkpt><trkpt lat="43.382633981501186" lon="5.507646169156998"><ele>293.6</ele><time>2026-04-24T12:39:22Z</time></trkpt><trkpt lat="43.38259910004924" lon="5.507564312523012"><ele>292.2</ele><time>2026-04-24T12:39:23Z</time></trkpt><trkpt lat="43.38254552929798" lon="5.507506257035935"><ele>290.8</ele><time>2026-04-24T12:39:24Z</time></trkpt><trkpt lat="43.38244538460357" lon="5.5074315820541875"><ele>289.4</ele><time>2026-04-24T12:39:26Z</time></trkpt><trkpt lat="43.38233830810676" lon="5.507377696018496"><ele>288.0</ele><time>2026-04-24T12:39:28Z</time></trkpt><trkpt lat="43.38224225236075" lon="5.507330296180665"><ele>289.2</ele><time>2026-04-24T12:39:30Z</time></trkpt><trkpt lat="43.38215892898843" lon="5.507259449000076"><ele>290.4</ele><time>2026-04-24T12:39:32Z</time></trkpt><trkpt lat="43.3820866563951" lon="5.507174720116319"><ele>291.59999999999997</ele><time>2026-04-24T12:39:34Z</time></trkpt><trkpt lat="43.382052291221186" lon="5.507064959057202"><ele>292.8</ele><time>2026-04-24T12:39:36Z</time></trkpt><trkpt lat="43.38201735905998" lon="5.506910262701281"><ele>294.0</ele><time>2026-04-24T12:39:38Z</time></trkpt><trkpt lat="43.381998929316" lon="5.506826679671677"><ele>292.2857142857143</ele><time>2026-04-24T12:39:39Z</time></trkpt><trkpt lat="43.38198048419715" lon="5.506737922213565"><ele>290.57142857142856</ele><time>2026-04-24T12:39:40Z</time></trkpt><trkpt lat="43.38195663834218" lon="5.506650966430537"><ele>288.8571428571429</ele><time>2026-04-24T12:39:41Z</time></trkpt><trkpt lat="43.38192971819084" lon="5.506572065411799"><ele>287.1428571428571</ele><time>2026-04-24T12:39:42Z</time></trkpt><trkpt lat="43.38190067522113" lon="5.506488876506304"><ele>285.42857142857144</ele><time>2026-04-24T12:39:43Z</time></trkpt><trkpt lat="43.381865554517866" lon="5.506414639612766"><ele>283.7142857142857</ele><time>2026-04-24T12:39:44Z</time></trkpt><trkpt lat="43.38178930264255" lon="5.506303143099665"><ele>282.0</ele><time>2026-04-24T12:39:46Z</time></trkpt><trkpt lat="43.38167613932869" lon="5.506221659440802"><ele>282.0</ele><time>2026-04-24T12:39:48Z</time></trkpt><trkpt lat="43.381601595635615" lon="5.5062176631310225"><ele>282.0</ele><time>2026-04-24T12:39:49Z</time></trkpt><trkpt lat="43.381516608766724" lon="5.506240815794865"><ele>282.0</ele><time>2026-04-24T12:39:50Z</time></trkpt><trkpt lat="43.38145315248415" lon="5.506290921648938"><ele>282.0</ele><time>2026-04-24T12:39:51Z</time></trkpt><trkpt lat="43.381397121562784" lon="5.506344134271171"><ele>282.0</ele><time>2026-04-24T12:39:51.999Z</time></trkpt><trkpt lat="43.381343499747175" lon="5.506393717335435"><ele>282.0</ele><time>2026-04-24T12:39:52.999Z</time></trkpt><trkpt lat="43.38124433502028" lon="5.506476831615362"><ele>282.4</ele><time>2026-04-24T12:39:54.999Z</time></trkpt><trkpt lat="43.38114726611704" lon="5.506543535273621"><ele>282.79999999999995</ele><time>2026-04-24T12:39:56.999Z</time></trkpt><trkpt lat="43.381034314190714" lon="5.506605730523365"><ele>283.2</ele><time>2026-04-24T12:39:58.999Z</time></trkpt><trkpt lat="43.380937734462655" lon="5.506637460132772"><ele>283.59999999999997</ele><time>2026-04-24T12:40:00.999Z</time></trkpt><trkpt lat="43.38082474979503" lon="5.5066576933224445"><ele>284.0</ele><time>2026-04-24T12:40:02.999Z</time></trkpt><trkpt lat="43.38076216793446" lon="5.506682314720832"><ele>284.0</ele><time>2026-04-24T12:40:03.999Z</time></trkpt><trkpt lat="43.38064370394347" lon="5.506676962664014"><ele>284.0</ele><time>2026-04-24T12:40:05.999Z</time></trkpt><trkpt lat="43.38055347102969" lon="5.506677270855284"><ele>284.0</ele><time>2026-04-24T12:40:07.999Z</time></trkpt><trkpt lat="43.380479277582644" lon="5.506679377629412"><ele>284.0</ele><time>2026-04-24T12:40:08.999Z</time></trkpt><trkpt lat="43.380359482848775" lon="5.506698972913586"><ele>284.0</ele><time>2026-04-24T12:40:10.999Z</time></trkpt><trkpt lat="43.38024357550695" lon="5.506754708200444"><ele>285.0</ele><time>2026-04-24T12:40:12.999Z</time></trkpt><trkpt lat="43.38016805658515" lon="5.5068330686625835"><ele>286.0</ele><time>2026-04-24T12:40:14.999Z</time></trkpt><trkpt lat="43.38009068901877" lon="5.5068668289977385"><ele>287.0</ele><time>2026-04-24T12:40:16.999Z</time></trkpt><trkpt lat="43.38001453769572" lon="5.5068411420874686"><ele>288.0</ele><time>2026-04-24T12:40:18.999Z</time></trkpt><trkpt lat="43.37992321101901" lon="5.506866496757989"><ele>289.0</ele><time>2026-04-24T12:40:20.999Z</time></trkpt><trkpt lat="43.379833470063765" lon="5.506860253119762"><ele>290.0</ele><time>2026-04-24T12:40:22.999Z</time></trkpt><trkpt lat="43.37973007551021" lon="5.506866351017089"><ele>288.8</ele><time>2026-04-24T12:40:24.999Z</time></trkpt><trkpt lat="43.37961363779373" lon="5.506881525192173"><ele>287.6</ele><time>2026-04-24T12:40:26.999Z</time></trkpt><trkpt lat="43.379542119744414" lon="5.507048908130113"><ele>286.4</ele><time>2026-04-24T12:40:28.999Z</time></trkpt><trkpt lat="43.37954314805477" lon="5.507157025004747"><ele>285.2</ele><time>2026-04-24T12:40:29.999Z</time></trkpt><trkpt lat="43.37951422512299" lon="5.507237740862081"><ele>284.0</ele><time>2026-04-24T12:40:30.999Z</time></trkpt><trkpt lat="43.37942544945457" lon="5.507354087162248"><ele>284.0</ele><time>2026-04-24T12:40:32.999Z</time></trkpt><trkpt lat="43.37931695936965" lon="5.50730725049839"><ele>284.0</ele><time>2026-04-24T12:40:34.999Z</time></trkpt><trkpt lat="43.37920793645682" lon="5.507291636081441"><ele>284.0</ele><time>2026-04-24T12:40:36.999Z</time></trkpt><trkpt lat="43.37910438698896" lon="5.507259017741053"><ele>284.0</ele><time>2026-04-24T12:40:38.999Z</time></trkpt><trkpt lat="43.379022163775986" lon="5.507234052593833"><ele>284.0</ele><time>2026-04-24T12:40:40.999Z</time></trkpt><trkpt lat="43.37893468672784" lon="5.507209169877795"><ele>284.0</ele><time>2026-04-24T12:40:42.999Z</time></trkpt><trkpt lat="43.378855268367595" lon="5.507163427216482"><ele>284.0</ele><time>2026-04-24T12:40:44.999Z</time></trkpt><trkpt lat="43.37877245100238" lon="5.507129327163351"><ele>284.0</ele><time>2026-04-24T12:40:46.999Z</time></trkpt><trkpt lat="43.3786906257699" lon="5.507073413954352"><ele>284.0</ele><time>2026-04-24T12:40:48.999Z</time></trkpt><trkpt lat="43.37861066003063" lon="5.507009484479197"><ele>284.0</ele><time>2026-04-24T12:40:50.999Z</time></trkpt><trkpt lat="43.37852957552253" lon="5.506935323583001"><ele>283.0</ele><time>2026-04-24T12:40:52.999Z</time></trkpt><trkpt lat="43.378452406421964" lon="5.506849614335668"><ele>282.0</ele><time>2026-04-24T12:40:54.999Z</time></trkpt><trkpt lat="43.37838194685294" lon="5.506754138675834"><ele>281.0</ele><time>2026-04-24T12:40:56.999Z</time></trkpt><trkpt lat="43.37830905467573" lon="5.506637652615332"><ele>280.0</ele><time>2026-04-24T12:40:58.999Z</time></trkpt><trkpt lat="43.37825249601116" lon="5.506511466996002"><ele>279.0</ele><time>2026-04-24T12:41:00.999Z</time></trkpt><trkpt lat="43.37822824763885" lon="5.50643118131843"><ele>279.0</ele><time>2026-04-24T12:41:01.999Z</time></trkpt><trkpt lat="43.37820338761071" lon="5.5063494857776805"><ele>279.0</ele><time>2026-04-24T12:41:02.999Z</time></trkpt><trkpt lat="43.37816700228665" lon="5.506204501304628"><ele>279.0</ele><time>2026-04-24T12:41:04.999Z</time></trkpt><trkpt lat="43.378162880156765" lon="5.5060545904804"><ele>279.0</ele><time>2026-04-24T12:41:06.999Z</time></trkpt><trkpt lat="43.37815147347262" lon="5.505882661449819"><ele>279.0</ele><time>2026-04-24T12:41:08.999Z</time></trkpt><trkpt lat="43.37812749850053" lon="5.505736848121323"><ele>278.0</ele><time>2026-04-24T12:41:10.999Z</time></trkpt><trkpt lat="43.37805457659836" lon="5.505610036603985"><ele>277.0</ele><time>2026-04-24T12:41:13Z</time></trkpt><trkpt lat="43.37802349760337" lon="5.505533901465433"><ele>276.0</ele><time>2026-04-24T12:41:14Z</time></trkpt><trkpt lat="43.377944832712934" lon="5.505386407741541"><ele>275.0</ele><time>2026-04-24T12:41:16Z</time></trkpt><trkpt lat="43.37789605899219" lon="5.505315005028541"><ele>274.0</ele><time>2026-04-24T12:41:17Z</time></trkpt><trkpt lat="43.377842277139315" lon="5.505252468088072"><ele>274.0</ele><time>2026-04-24T12:41:18Z</time></trkpt><trkpt lat="43.37778430372647" lon="5.505179823400597"><ele>274.0</ele><time>2026-04-24T12:41:19Z</time></trkpt><trkpt lat="43.37772669809418" lon="5.505113367741016"><ele>274.0</ele><time>2026-04-24T12:41:20Z</time></trkpt><trkpt lat="43.37766000208462" lon="5.505046105952113"><ele>274.0</ele><time>2026-04-24T12:41:21Z</time></trkpt><trkpt lat="43.377587833457966" lon="5.504993234191759"><ele>274.0</ele><time>2026-04-24T12:41:22Z</time></trkpt><trkpt lat="43.37751790202742" lon="5.5049451717720075"><ele>274.0</ele><time>2026-04-24T12:41:23Z</time></trkpt><trkpt lat="43.37745238489745" lon="5.504894466609274"><ele>274.00000000000006</ele><time>2026-04-24T12:41:24Z</time></trkpt><trkpt lat="43.377383746431526" lon="5.504833005937659"><ele>274.0</ele><time>2026-04-24T12:41:25Z</time></trkpt><trkpt lat="43.37732201880648" lon="5.5047788943604985"><ele>274.0</ele><time>2026-04-24T12:41:26Z</time></trkpt><trkpt lat="43.37726185950378" lon="5.504737644117116"><ele>274.0</ele><time>2026-04-24T12:41:27Z</time></trkpt><trkpt lat="43.377195004452986" lon="5.5047096305002015"><ele>274.0</ele><time>2026-04-24T12:41:28Z</time></trkpt><trkpt lat="43.37712943560607" lon="5.5047023782664875"><ele>274.00000000000006</ele><time>2026-04-24T12:41:29Z</time></trkpt><trkpt lat="43.377063639168405" lon="5.504693258823042"><ele>274.0</ele><time>2026-04-24T12:41:30Z</time></trkpt><trkpt lat="43.377000897857535" lon="5.504681987869855"><ele>273.16666666666663</ele><time>2026-04-24T12:41:31Z</time></trkpt><trkpt lat="43.376948289224565" lon="5.504612175979161"><ele>272.3333333333333</ele><time>2026-04-24T12:41:32Z</time></trkpt><trkpt lat="43.37685902981049" lon="5.504580836034279"><ele>271.5</ele><time>2026-04-24T12:41:34Z</time></trkpt><trkpt lat="43.37678554807115" lon="5.5045431694630045"><ele>270.6666666666667</ele><time>2026-04-24T12:41:36Z</time></trkpt><trkpt lat="43.37670053041008" lon="5.504484897900129"><ele>269.83333333333337</ele><time>2026-04-24T12:41:39Z</time></trkpt><trkpt lat="43.376635839022846" lon="5.504435984924793"><ele>269.0</ele><time>2026-04-24T12:41:41Z</time></trkpt><trkpt lat="43.37656085669853" lon="5.504383824802136"><ele>269.0</ele><time>2026-04-24T12:41:43Z</time></trkpt><trkpt lat="43.3764625799447" lon="5.504333658417514"><ele>269.0</ele><time>2026-04-24T12:41:45Z</time></trkpt><trkpt lat="43.37635997321612" lon="5.504288164025105"><ele>269.0</ele><time>2026-04-24T12:41:47Z</time></trkpt><trkpt lat="43.37625771712236" lon="5.50424443192148"><ele>269.0</ele><time>2026-04-24T12:41:49Z</time></trkpt><trkpt lat="43.37614121019467" lon="5.5041984950722584"><ele>269.0</ele><time>2026-04-24T12:41:50.999Z</time></trkpt><trkpt lat="43.376027069841655" lon="5.504164999822243"><ele>267.8</ele><time>2026-04-24T12:41:52.999Z</time></trkpt><trkpt lat="43.37592471845207" lon="5.504145541897351"><ele>266.59999999999997</ele><time>2026-04-24T12:41:54.999Z</time></trkpt><trkpt lat="43.37580780902337" lon="5.504140507324255"><ele>265.4</ele><time>2026-04-24T12:41:56.999Z</time></trkpt><trkpt lat="43.37570942364905" lon="5.504156729389701"><ele>264.2</ele><time>2026-04-24T12:41:58.999Z</time></trkpt><trkpt lat="43.375649465322006" lon="5.50426637228224"><ele>263.0</ele><time>2026-04-24T12:42:00.999Z</time></trkpt><trkpt lat="43.37555596276764" lon="5.504341246694155"><ele>262.5</ele><time>2026-04-24T12:42:02.999Z</time></trkpt><trkpt lat="43.37546742118443" lon="5.504377477766555"><ele>262.0</ele><time>2026-04-24T12:42:04.999Z</time></trkpt><trkpt lat="43.37539319444561" lon="5.504413924608173"><ele>261.5</ele><time>2026-04-24T12:42:06.999Z</time></trkpt><trkpt lat="43.375308918131246" lon="5.5044460674795666"><ele>261.0</ele><time>2026-04-24T12:42:08.999Z</time></trkpt><trkpt lat="43.3752248448101" lon="5.504472810405213"><ele>260.5</ele><time>2026-04-24T12:42:10.999Z</time></trkpt><trkpt lat="43.37513485557804" lon="5.504493685946933"><ele>260.0</ele><time>2026-04-24T12:42:12.999Z</time></trkpt><trkpt lat="43.37504306089315" lon="5.504509660668387"><ele>260.0</ele><time>2026-04-24T12:42:14.999Z</time></trkpt><trkpt lat="43.374942926614565" lon="5.504504770161681"><ele>260.0</ele><time>2026-04-24T12:42:16.999Z</time></trkpt><trkpt lat="43.3748484038519" lon="5.504454737944685"><ele>260.0</ele><time>2026-04-24T12:42:18.999Z</time></trkpt><trkpt lat="43.37474324586875" lon="5.504429178700596"><ele>260.0</ele><time>2026-04-24T12:42:20.999Z</time></trkpt><trkpt lat="43.37463853991664" lon="5.504380841991592"><ele>260.0</ele><time>2026-04-24T12:42:22.999Z</time></trkpt><trkpt lat="43.3745782536429" lon="5.504338963364286"><ele>260.14285714285717</ele><time>2026-04-24T12:42:23.999Z</time></trkpt><trkpt lat="43.37452877820662" lon="5.50428506720014"><ele>260.2857142857143</ele><time>2026-04-24T12:42:24.999Z</time></trkpt><trkpt lat="43.37448803800175" lon="5.504200105869856"><ele>260.42857142857144</ele><time>2026-04-24T12:42:25.999Z</time></trkpt><trkpt lat="43.374447953084584" lon="5.504112675811145"><ele>260.57142857142856</ele><time>2026-04-24T12:42:26.999Z</time></trkpt><trkpt lat="43.37441287656595" lon="5.504038199511354"><ele>260.7142857142857</ele><time>2026-04-24T12:42:27.999Z</time></trkpt><trkpt lat="43.374377381225095" lon="5.503962833944612"><ele>260.8571428571429</ele><time>2026-04-24T12:42:28.999Z</time></trkpt><trkpt lat="43.3743419570273" lon="5.503887619433138"><ele>261.0</ele><time>2026-04-24T12:42:29.999Z</time></trkpt><trkpt lat="43.37417489283733" lon="5.503931035958476"><ele>261.0</ele><time>2026-04-24T12:42:30.999Z</time></trkpt><trkpt lat="43.374093198323635" lon="5.503915959749272"><ele>261.0</ele><time>2026-04-24T12:42:31.999Z</time></trkpt><trkpt lat="43.373999521210884" lon="5.503929019205527"><ele>261.0</ele><time>2026-04-24T12:42:32.999Z</time></trkpt><trkpt lat="43.37391915544911" lon="5.503956954908374"><ele>261.0</ele><time>2026-04-24T12:42:33.999Z</time></trkpt><trkpt lat="43.37383642986296" lon="5.503996813999935"><ele>261.0</ele><time>2026-04-24T12:42:34.999Z</time></trkpt><trkpt lat="43.37374767911276" lon="5.504039343408437"><ele>261.0</ele><time>2026-04-24T12:42:35.999Z</time></trkpt><trkpt lat="43.373669480549495" lon="5.504064031722288"><ele>260.0</ele><time>2026-04-24T12:42:36.999Z</time></trkpt><trkpt lat="43.373579159859574" lon="5.504069374687255"><ele>259.0</ele><time>2026-04-24T12:42:37.999Z</time></trkpt><trkpt lat="43.37349337893899" lon="5.504062891007724"><ele>258.0</ele><time>2026-04-24T12:42:38.999Z</time></trkpt><trkpt lat="43.37341396780578" lon="5.5040395338193875"><ele>257.0</ele><time>2026-04-24T12:42:39.999Z</time></trkpt><trkpt lat="43.373362959028924" lon="5.503980655858709"><ele>256.0</ele><time>2026-04-24T12:42:40.999Z</time></trkpt><trkpt lat="43.37335099655835" lon="5.503894171202665"><ele>255.0</ele><time>2026-04-24T12:42:41.999Z</time></trkpt><trkpt lat="43.37332750324259" lon="5.503801649310581"><ele>255.0</ele><time>2026-04-24T12:42:42.999Z</time></trkpt><trkpt lat="43.37327561490141" lon="5.503743624969493"><ele>255.0</ele><time>2026-04-24T12:42:43.999Z</time></trkpt><trkpt lat="43.37320709094338" lon="5.503746371336574"><ele>255.0</ele><time>2026-04-24T12:42:44.999Z</time></trkpt><trkpt lat="43.37310047446941" lon="5.503805586686611"><ele>255.0</ele><time>2026-04-24T12:42:46.999Z</time></trkpt><trkpt lat="43.37298319819633" lon="5.503880948442039"><ele>255.0</ele><time>2026-04-24T12:42:48.999Z</time></trkpt><trkpt lat="43.37292769968256" lon="5.503938077012413"><ele>255.0</ele><time>2026-04-24T12:42:49.999Z</time></trkpt><trkpt lat="43.37286888794058" lon="5.504005936188895"><ele>254.42857142857144</ele><time>2026-04-24T12:42:50.999Z</time></trkpt><trkpt lat="43.372820122604864" lon="5.504074489688839"><ele>253.8571428571429</ele><time>2026-04-24T12:42:51.999Z</time></trkpt><trkpt lat="43.372758551516256" lon="5.504151670872813"><ele>253.28571428571428</ele><time>2026-04-24T12:42:52.999Z</time></trkpt><trkpt lat="43.37271246350128" lon="5.504219946542235"><ele>252.71428571428572</ele><time>2026-04-24T12:42:53.999Z</time></trkpt><trkpt lat="43.37265443011453" lon="5.5042708396562565"><ele>252.14285714285714</ele><time>2026-04-24T12:42:54.999Z</time></trkpt><trkpt lat="43.37258448215776" lon="5.504296222016159"><ele>251.57142857142856</ele><time>2026-04-24T12:42:55.999Z</time></trkpt><trkpt lat="43.37250646678603" lon="5.504270481821129"><ele>250.99999999999997</ele><time>2026-04-24T12:42:56.999Z</time></trkpt><trkpt lat="43.37243202304488" lon="5.504224355993328"><ele>251.00000000000003</ele><time>2026-04-24T12:42:57.999Z</time></trkpt><trkpt lat="43.372367892369" lon="5.504154896144899"><ele>251.0</ele><time>2026-04-24T12:42:58.999Z</time></trkpt><trkpt lat="43.372321589866424" lon="5.504065700594772"><ele>251.0</ele><time>2026-04-24T12:42:59.999Z</time></trkpt><trkpt lat="43.372274420763674" lon="5.503971104345417"><ele>251.0</ele><time>2026-04-24T12:43:00.999Z</time></trkpt><trkpt lat="43.37222453059444" lon="5.503888348932924"><ele>251.00000000000003</ele><time>2026-04-24T12:43:01.999Z</time></trkpt><trkpt lat="43.372181092481604" lon="5.503802333544902"><ele>251.0</ele><time>2026-04-24T12:43:02.999Z</time></trkpt><trkpt lat="43.37213927511971" lon="5.503715978079495"><ele>252.57142857142856</ele><time>2026-04-24T12:43:03.999Z</time></trkpt><trkpt lat="43.37210458087799" lon="5.503635993350539"><ele>254.14285714285714</ele><time>2026-04-24T12:43:04.999Z</time></trkpt><trkpt lat="43.372067703356976" lon="5.503555783121733"><ele>255.71428571428572</ele><time>2026-04-24T12:43:05.999Z</time></trkpt><trkpt lat="43.37201793860873" lon="5.503479828350649"><ele>257.2857142857143</ele><time>2026-04-24T12:43:06.999Z</time></trkpt><trkpt lat="43.37197579974321" lon="5.5033998477511945"><ele>258.8571428571429</ele><time>2026-04-24T12:43:07.999Z</time></trkpt><trkpt lat="43.37196712712107" lon="5.503300426651415"><ele>260.42857142857144</ele><time>2026-04-24T12:43:08.999Z</time></trkpt><trkpt lat="43.37198297747051" lon="5.503203292825981"><ele>262.0</ele><time>2026-04-24T12:43:09.999Z</time></trkpt><trkpt lat="43.372007675905486" lon="5.50311615705366"><ele>262.0</ele><time>2026-04-24T12:43:10.999Z</time></trkpt><trkpt lat="43.37202394668629" lon="5.5030292050984055"><ele>262.0</ele><time>2026-04-24T12:43:11.999Z</time></trkpt><trkpt lat="43.37204265153156" lon="5.502940693633694"><ele>262.0</ele><time>2026-04-24T12:43:12.999Z</time></trkpt><trkpt lat="43.37206014656667" lon="5.502854451571279"><ele>262.0</ele><time>2026-04-24T12:43:14Z</time></trkpt><trkpt lat="43.37211414870353" lon="5.5027109097576545"><ele>262.0</ele><time>2026-04-24T12:43:16Z</time></trkpt><trkpt lat="43.37220961513873" lon="5.502634805727249"><ele>262.0</ele><time>2026-04-24T12:43:18Z</time></trkpt><trkpt lat="43.372298111694874" lon="5.502563498927157"><ele>258.0</ele><time>2026-04-24T12:43:20Z</time></trkpt><trkpt lat="43.37237358866017" lon="5.50246039942793"><ele>254.0</ele><time>2026-04-24T12:43:22Z</time></trkpt><trkpt lat="43.37246580770299" lon="5.502369212544152"><ele>250.0</ele><time>2026-04-24T12:43:24Z</time></trkpt><trkpt lat="43.37253025651731" lon="5.502259013041721"><ele>246.0</ele><time>2026-04-24T12:43:26Z</time></trkpt><trkpt lat="43.37257912510827" lon="5.502126149613593"><ele>242.0</ele><time>2026-04-24T12:43:28Z</time></trkpt><trkpt lat="43.37258110704794" lon="5.501963071638265"><ele>241.83333333333334</ele><time>2026-04-24T12:43:30Z</time></trkpt><trkpt lat="43.372505291131255" lon="5.501817412732888"><ele>241.66666666666669</ele><time>2026-04-24T12:43:32Z</time></trkpt><trkpt lat="43.37245356144968" lon="5.5017635343498466"><ele>241.5</ele><time>2026-04-24T12:43:33Z</time></trkpt><trkpt lat="43.3723942723434" lon="5.50170333993524"><ele>241.33333333333331</ele><time>2026-04-24T12:43:34Z</time></trkpt><trkpt lat="43.3723427144001" lon="5.50164463637217"><ele>241.16666666666666</ele><time>2026-04-24T12:43:35Z</time></trkpt><trkpt lat="43.372285757702485" lon="5.501581582097642"><ele>241.0</ele><time>2026-04-24T12:43:36Z</time></trkpt><trkpt lat="43.37221671260188" lon="5.5014737093410835"><ele>240.99999999999997</ele><time>2026-04-24T12:43:38Z</time></trkpt><trkpt lat="43.37220126604672" lon="5.501372763944025"><ele>241.0</ele><time>2026-04-24T12:44:06.999Z</time></trkpt><trkpt lat="43.372147463370375" lon="5.501320545824952"><ele>241.0</ele><time>2026-04-24T12:44:13.999Z</time></trkpt><trkpt lat="43.37207665706883" lon="5.5013007631056405"><ele>241.0</ele><time>2026-04-24T12:44:17.999Z</time></trkpt><trkpt lat="43.3719901037504" lon="5.501321081883536"><ele>240.99999999999997</ele><time>2026-04-24T12:44:19.999Z</time></trkpt><trkpt lat="43.37190269621263" lon="5.501345443331138"><ele>241.0</ele><time>2026-04-24T12:44:21.999Z</time></trkpt><trkpt lat="43.371815784652306" lon="5.501283894191855"><ele>240.99999999999997</ele><time>2026-04-24T12:44:23.999Z</time></trkpt><trkpt lat="43.37173736903357" lon="5.501255802101797"><ele>241.0</ele><time>2026-04-24T12:44:25.999Z</time></trkpt><trkpt lat="43.37164998049508" lon="5.501205934616859"><ele>241.0</ele><time>2026-04-24T12:44:27.999Z</time></trkpt><trkpt lat="43.371528748350485" lon="5.5011649283718835"><ele>241.0</ele><time>2026-04-24T12:44:29.999Z</time></trkpt><trkpt lat="43.37145648844579" lon="5.50118242953211"><ele>240.99999999999997</ele><time>2026-04-24T12:44:30.999Z</time></trkpt><trkpt lat="43.37139125496315" lon="5.5012209974858814"><ele>241.0</ele><time>2026-04-24T12:44:31.999Z</time></trkpt><trkpt lat="43.37133438357236" lon="5.501276484478516"><ele>240.99999999999997</ele><time>2026-04-24T12:44:32.999Z</time></trkpt><trkpt lat="43.37123446085576" lon="5.501391814711176"><ele>241.0</ele><time>2026-04-24T12:44:34.999Z</time></trkpt><trkpt lat="43.37118808336634" lon="5.501454699615824"><ele>241.0</ele><time>2026-04-24T12:44:35.999Z</time></trkpt><trkpt lat="43.371138138633036" lon="5.501513334685346"><ele>241.0</ele><time>2026-04-24T12:44:36.999Z</time></trkpt><trkpt lat="43.371077659170865" lon="5.501552243573623"><ele>240.99999999999997</ele><time>2026-04-24T12:44:37.999Z</time></trkpt><trkpt lat="43.370994798468494" lon="5.501595592820244"><ele>241.0</ele><time>2026-04-24T12:44:38.999Z</time></trkpt><trkpt lat="43.37087695468119" lon="5.501590532963798"><ele>240.99999999999997</ele><time>2026-04-24T12:44:40.999Z</time></trkpt><trkpt lat="43.370808918408535" lon="5.501565493489509"><ele>241.0</ele><time>2026-04-24T12:44:41.999Z</time></trkpt><trkpt lat="43.370752730493194" lon="5.501513763331334"><ele>241.0</ele><time>2026-04-24T12:44:42.999Z</time></trkpt><trkpt lat="43.37068773912132" lon="5.5014811926852945"><ele>241.0</ele><time>2026-04-24T12:44:43.999Z</time></trkpt><trkpt lat="43.370602572782964" lon="5.50145420092705"><ele>240.99999999999997</ele><time>2026-04-24T12:44:44.999Z</time></trkpt><trkpt lat="43.37052031277879" lon="5.501497164570663"><ele>241.0</ele><time>2026-04-24T12:44:45.999Z</time></trkpt><trkpt lat="43.3704501953117" lon="5.501600635258778"><ele>240.33333333333331</ele><time>2026-04-24T12:44:46.999Z</time></trkpt><trkpt lat="43.37037997702459" lon="5.501670316772348"><ele>239.66666666666666</ele><time>2026-04-24T12:44:47.999Z</time></trkpt><trkpt lat="43.37028459913908" lon="5.50166780064327"><ele>239.0</ele><time>2026-04-24T12:44:48.999Z</time></trkpt><trkpt lat="43.37021916670226" lon="5.5017223169181015"><ele>238.33333333333331</ele><time>2026-04-24T12:44:49.999Z</time></trkpt><trkpt lat="43.37015520085871" lon="5.501779545546724"><ele>237.66666666666666</ele><time>2026-04-24T12:44:50.999Z</time></trkpt><trkpt lat="43.37009906565423" lon="5.501856469828354"><ele>237.0</ele><time>2026-04-24T12:44:51.999Z</time></trkpt><trkpt lat="43.37003700226636" lon="5.5019009514911685"><ele>237.0</ele><time>2026-04-24T12:44:52.999Z</time></trkpt><trkpt lat="43.369974525756895" lon="5.50194200615151"><ele>237.0</ele><time>2026-04-24T12:44:53.999Z</time></trkpt><trkpt lat="43.369901307996926" lon="5.501935410807987"><ele>237.0</ele><time>2026-04-24T12:44:54.999Z</time></trkpt><trkpt lat="43.369819207316446" lon="5.5019461842698"><ele>237.0</ele><time>2026-04-24T12:44:55.999Z</time></trkpt><trkpt lat="43.369743477124665" lon="5.501956148944269"><ele>237.0</ele><time>2026-04-24T12:44:56.999Z</time></trkpt><trkpt lat="43.36966130984769" lon="5.501968734172407"><ele>237.0</ele><time>2026-04-24T12:44:57.999Z</time></trkpt><trkpt lat="43.36951642070288" lon="5.501986279375195"><ele>236.57142857142856</ele><time>2026-04-24T12:44:59.999Z</time></trkpt><trkpt lat="43.36945218865348" lon="5.501964853591613"><ele>236.14285714285714</ele><time>2026-04-24T12:45:00.999Z</time></trkpt><trkpt lat="43.36938920072842" lon="5.501917937812146"><ele>235.71428571428572</ele><time>2026-04-24T12:45:01.999Z</time></trkpt><trkpt lat="43.369316770444705" lon="5.50188757843948"><ele>235.28571428571428</ele><time>2026-04-24T12:45:02.999Z</time></trkpt><trkpt lat="43.369249353458464" lon="5.50183973343499"><ele>234.8571428571429</ele><time>2026-04-24T12:45:03.999Z</time></trkpt><trkpt lat="43.3691931576883" lon="5.501776514653473"><ele>234.42857142857144</ele><time>2026-04-24T12:45:04.999Z</time></trkpt><trkpt lat="43.36913810959576" lon="5.501693791059216"><ele>234.0</ele><time>2026-04-24T12:45:05.999Z</time></trkpt><trkpt lat="43.3690069959981" lon="5.501652687419317"><ele>234.0</ele><time>2026-04-24T12:45:07.999Z</time></trkpt><trkpt lat="43.36895740965128" lon="5.501755801085077"><ele>234.0</ele><time>2026-04-24T12:45:08.999Z</time></trkpt><trkpt lat="43.368896770159935" lon="5.501780417290741"><ele>234.0</ele><time>2026-04-24T12:45:09.999Z</time></trkpt><trkpt lat="43.368823519936385" lon="5.501830419968205"><ele>234.0</ele><time>2026-04-24T12:45:10.999Z</time></trkpt><trkpt lat="43.36875772144924" lon="5.501879410044015"><ele>234.0</ele><time>2026-04-24T12:45:11.999Z</time></trkpt><trkpt lat="43.368682857948286" lon="5.501955895490639"><ele>234.0</ele><time>2026-04-24T12:45:12.999Z</time></trkpt><trkpt lat="43.36861059872306" lon="5.502021339671622"><ele>232.6</ele><time>2026-04-24T12:45:13.999Z</time></trkpt><trkpt lat="43.368536494707335" lon="5.502081047174091"><ele>231.2</ele><time>2026-04-24T12:45:14.999Z</time></trkpt><trkpt lat="43.368452781950005" lon="5.501988645321755"><ele>229.79999999999998</ele><time>2026-04-24T12:45:15.999Z</time></trkpt><trkpt lat="43.368374145813625" lon="5.501991753943775"><ele>228.39999999999998</ele><time>2026-04-24T12:45:16.999Z</time></trkpt><trkpt lat="43.36825768798212" lon="5.5020064663385"><ele>227.0</ele><time>2026-04-24T12:45:18.999Z</time></trkpt><trkpt lat="43.368166973263186" lon="5.502028059683721"><ele>227.00000000000003</ele><time>2026-04-24T12:45:20Z</time></trkpt><trkpt lat="43.368098594569446" lon="5.502072596018485"><ele>227.0</ele><time>2026-04-24T12:45:21Z</time></trkpt><trkpt lat="43.36803303013534" lon="5.502081958105544"><ele>227.0</ele><time>2026-04-24T12:45:22Z</time></trkpt><trkpt lat="43.36796652477068" lon="5.502110212879579"><ele>227.0</ele><time>2026-04-24T12:45:23Z</time></trkpt><trkpt lat="43.367898416526884" lon="5.502152794662958"><ele>227.00000000000003</ele><time>2026-04-24T12:45:25Z</time></trkpt><trkpt lat="43.36784192639162" lon="5.5020463240304895"><ele>227.0</ele><time>2026-04-24T12:45:27Z</time></trkpt><trkpt lat="43.36776846496212" lon="5.50197044984877"><ele>227.8</ele><time>2026-04-24T12:45:29Z</time></trkpt><trkpt lat="43.36766662506034" lon="5.501934899754321"><ele>228.6</ele><time>2026-04-24T12:45:31Z</time></trkpt><trkpt lat="43.36755414094078" lon="5.501921760334662"><ele>229.40000000000003</ele><time>2026-04-24T12:45:33Z</time></trkpt><trkpt lat="43.367440774639824" lon="5.501922973330349"><ele>230.20000000000002</ele><time>2026-04-24T12:45:35Z</time></trkpt><trkpt lat="43.36737703455018" lon="5.501928310013018"><ele>231.0</ele><time>2026-04-24T12:45:36Z</time></trkpt><trkpt lat="43.36725467449268" lon="5.50192992572701"><ele>229.42857142857142</ele><time>2026-04-24T12:45:38Z</time></trkpt><trkpt lat="43.36718837773029" lon="5.501934504951548"><ele>227.85714285714286</ele><time>2026-04-24T12:45:39Z</time></trkpt><trkpt lat="43.36712121810782" lon="5.5019392098105415"><ele>226.28571428571428</ele><time>2026-04-24T12:45:40Z</time></trkpt><trkpt lat="43.367052564089164" lon="5.501947192912861"><ele>224.71428571428572</ele><time>2026-04-24T12:45:41Z</time></trkpt><trkpt lat="43.36698336724698" lon="5.501966260520859"><ele>223.14285714285714</ele><time>2026-04-24T12:45:42Z</time></trkpt><trkpt lat="43.366917570072694" lon="5.502013731711841"><ele>221.57142857142856</ele><time>2026-04-24T12:45:43Z</time></trkpt><trkpt lat="43.36686544417541" lon="5.502086627002385"><ele>220.0</ele><time>2026-04-24T12:45:44Z</time></trkpt><trkpt lat="43.36681110797535" lon="5.502164701598781"><ele>217.66666666666666</ele><time>2026-04-24T12:45:45Z</time></trkpt><trkpt lat="43.36677827659725" lon="5.502271707929289"><ele>215.33333333333331</ele><time>2026-04-24T12:45:46Z</time></trkpt><trkpt lat="43.366747872825265" lon="5.50236968887296"><ele>213.0</ele><time>2026-04-24T12:45:47Z</time></trkpt><trkpt lat="43.366718066322406" lon="5.502468590385517"><ele>210.66666666666669</ele><time>2026-04-24T12:45:48Z</time></trkpt><trkpt lat="43.36667141430917" lon="5.502559508739662"><ele>208.33333333333334</ele><time>2026-04-24T12:45:49Z</time></trkpt><trkpt lat="43.366628373167956" lon="5.502657590637408"><ele>206.0</ele><time>2026-04-24T12:45:50Z</time></trkpt><trkpt lat="43.366594097326896" lon="5.502758569636491"><ele>206.00000000000003</ele><time>2026-04-24T12:45:51Z</time></trkpt><trkpt lat="43.3665738171188" lon="5.50286866208227"><ele>206.0</ele><time>2026-04-24T12:45:52Z</time></trkpt><trkpt lat="43.36655715604086" lon="5.502980733283159"><ele>206.0</ele><time>2026-04-24T12:45:53Z</time></trkpt><trkpt lat="43.36655333291924" lon="5.503095706736388"><ele>206.0</ele><time>2026-04-24T12:45:54Z</time></trkpt><trkpt lat="43.36654868796235" lon="5.50321662856331"><ele>206.00000000000003</ele><time>2026-04-24T12:45:55Z</time></trkpt><trkpt lat="43.36654512743599" lon="5.503336537387633"><ele>206.0</ele><time>2026-04-24T12:45:56Z</time></trkpt><trkpt lat="43.366528613552234" lon="5.503454843838469"><ele>208.20000000000002</ele><time>2026-04-24T12:45:57Z</time></trkpt><trkpt lat="43.36648451720656" lon="5.503563501265533"><ele>210.4</ele><time>2026-04-24T12:45:58Z</time></trkpt><trkpt lat="43.36641095821885" lon="5.503646347004487"><ele>212.6</ele><time>2026-04-24T12:45:59Z</time></trkpt><trkpt lat="43.36631807755959" lon="5.503691407132952"><ele>214.8</ele><time>2026-04-24T12:46:00Z</time></trkpt><trkpt lat="43.36621769554485" lon="5.503684230217005"><ele>217.0</ele><time>2026-04-24T12:46:01Z</time></trkpt><trkpt lat="43.36612288654768" lon="5.503643516429683"><ele>218.8</ele><time>2026-04-24T12:46:02Z</time></trkpt><trkpt lat="43.36603355567221" lon="5.503593400706853"><ele>220.6</ele><time>2026-04-24T12:46:03Z</time></trkpt><trkpt lat="43.365946662099994" lon="5.503536082089821"><ele>222.40000000000003</ele><time>2026-04-24T12:46:04Z</time></trkpt><trkpt lat="43.365869028478905" lon="5.503450121227353"><ele>224.20000000000002</ele><time>2026-04-24T12:46:05Z</time></trkpt><trkpt lat="43.36581627958069" lon="5.503327910677456"><ele>226.0</ele><time>2026-04-24T12:46:06Z</time></trkpt><trkpt lat="43.365786570335466" lon="5.503191906613792"><ele>226.0</ele><time>2026-04-24T12:46:07Z</time></trkpt><trkpt lat="43.365771332737125" lon="5.503047831236721"><ele>226.00000000000003</ele><time>2026-04-24T12:46:08Z</time></trkpt><trkpt lat="43.36576225143922" lon="5.5029046846012735"><ele>226.00000000000003</ele><time>2026-04-24T12:46:09Z</time></trkpt><trkpt lat="43.36577940588538" lon="5.502752835583921"><ele>226.0</ele><time>2026-04-24T12:46:10Z</time></trkpt><trkpt lat="43.3657950471496" lon="5.50260775403567"><ele>226.0</ele><time>2026-04-24T12:46:11Z</time></trkpt><trkpt lat="43.36581859182053" lon="5.502461225709672"><ele>222.8</ele><time>2026-04-24T12:46:12Z</time></trkpt><trkpt lat="43.36583574330731" lon="5.5023160674478735"><ele>219.60000000000002</ele><time>2026-04-24T12:46:13Z</time></trkpt><trkpt lat="43.365851961276995" lon="5.5021714855709405"><ele>216.4</ele><time>2026-04-24T12:46:14Z</time></trkpt><trkpt lat="43.36586030394473" lon="5.502029062838578"><ele>213.2</ele><time>2026-04-24T12:46:15Z</time></trkpt><trkpt lat="43.365849352779456" lon="5.501892525736156"><ele>210.0</ele><time>2026-04-24T12:46:16Z</time></trkpt><trkpt lat="43.365826011084614" lon="5.501755535789028"><ele>210.4</ele><time>2026-04-24T12:46:17Z</time></trkpt><trkpt lat="43.365791493581966" lon="5.501635792108171"><ele>210.8</ele><time>2026-04-24T12:46:18Z</time></trkpt><trkpt lat="43.36574195695426" lon="5.501511469783921"><ele>211.2</ele><time>2026-04-24T12:46:19Z</time></trkpt><trkpt lat="43.36569352353592" lon="5.501396427613005"><ele>211.6</ele><time>2026-04-24T12:46:20Z</time></trkpt><trkpt lat="43.36564082119627" lon="5.501288872647293"><ele>212.0</ele><time>2026-04-24T12:46:21Z</time></trkpt><trkpt lat="43.36559100061186" lon="5.5011889680079795"><ele>212.00000000000003</ele><time>2026-04-24T12:46:22Z</time></trkpt><trkpt lat="43.36554244231173" lon="5.50109335159045"><ele>212.0</ele><time>2026-04-24T12:46:23Z</time></trkpt><trkpt lat="43.36549303354954" lon="5.5009979441283265"><ele>212.0</ele><time>2026-04-24T12:46:24Z</time></trkpt><trkpt lat="43.36544914723511" lon="5.5009009950675"><ele>212.0</ele><time>2026-04-24T12:46:25Z</time></trkpt><trkpt lat="43.3654049248685" lon="5.500802737759975"><ele>212.00000000000003</ele><time>2026-04-24T12:46:26Z</time></trkpt><trkpt lat="43.36536059719234" lon="5.500711712857914"><ele>212.0</ele><time>2026-04-24T12:46:27Z</time></trkpt><trkpt lat="43.3653163149954" lon="5.5006222629345505"><ele>212.66666666666669</ele><time>2026-04-24T12:46:28Z</time></trkpt><trkpt lat="43.3652780239638" lon="5.500526464336932"><ele>213.33333333333334</ele><time>2026-04-24T12:46:29Z</time></trkpt><trkpt lat="43.36522903428867" lon="5.5004464825880754"><ele>214.0</ele><time>2026-04-24T12:46:30Z</time></trkpt><trkpt lat="43.36518025876252" lon="5.500367404342486"><ele>214.66666666666669</ele><time>2026-04-24T12:46:31Z</time></trkpt><trkpt lat="43.365128743438824" lon="5.500292731313374"><ele>215.33333333333334</ele><time>2026-04-24T12:46:32Z</time></trkpt><trkpt lat="43.365072706658786" lon="5.500222144287264"><ele>216.0</ele><time>2026-04-24T12:46:33Z</time></trkpt><trkpt lat="43.36502145024327" lon="5.500145687983336"><ele>216.14285714285714</ele><time>2026-04-24T12:46:34Z</time></trkpt><trkpt lat="43.36496649899319" lon="5.500074846975655"><ele>216.28571428571428</ele><time>2026-04-24T12:46:35Z</time></trkpt><trkpt lat="43.36491414150909" lon="5.500003388944667"><ele>216.42857142857144</ele><time>2026-04-24T12:46:36Z</time></trkpt><trkpt lat="43.36486635071175" lon="5.499928212378272"><ele>216.57142857142856</ele><time>2026-04-24T12:46:37Z</time></trkpt><trkpt lat="43.364818611184766" lon="5.499852842760533"><ele>216.71428571428572</ele><time>2026-04-24T12:46:38Z</time></trkpt><trkpt lat="43.364770109672364" lon="5.499778294187043"><ele>216.85714285714286</ele><time>2026-04-24T12:46:39Z</time></trkpt><trkpt lat="43.3647288204468" lon="5.499693781280079"><ele>217.0</ele><time>2026-04-24T12:46:40Z</time></trkpt><trkpt lat="43.36468813345851" lon="5.499608341187166"><ele>215.14285714285714</ele><time>2026-04-24T12:46:41Z</time></trkpt><trkpt lat="43.36464197363189" lon="5.499530629776615"><ele>213.28571428571428</ele><time>2026-04-24T12:46:42Z</time></trkpt><trkpt lat="43.36460181549662" lon="5.499450379574355"><ele>211.42857142857144</ele><time>2026-04-24T12:46:43Z</time></trkpt><trkpt lat="43.36456597380892" lon="5.499363857054707"><ele>209.57142857142856</ele><time>2026-04-24T12:46:44Z</time></trkpt><trkpt lat="43.364530383564436" lon="5.4992776585521845"><ele>207.71428571428572</ele><time>2026-04-24T12:46:45Z</time></trkpt><trkpt lat="43.36450372481762" lon="5.499183894304779"><ele>205.85714285714286</ele><time>2026-04-24T12:46:46Z</time></trkpt><trkpt lat="43.36447380823773" lon="5.499087855277118"><ele>204.0</ele><time>2026-04-24T12:46:47Z</time></trkpt><trkpt lat="43.36445232768841" lon="5.4989999703962695"><ele>204.0</ele><time>2026-04-24T12:46:48Z</time></trkpt><trkpt lat="43.36443442140462" lon="5.498903788578236"><ele>204.0</ele><time>2026-04-24T12:46:49Z</time></trkpt><trkpt lat="43.36441204870924" lon="5.4988095826605115"><ele>204.0</ele><time>2026-04-24T12:46:50Z</time></trkpt><trkpt lat="43.36438249375587" lon="5.4987224500009475"><ele>204.0</ele><time>2026-04-24T12:46:51Z</time></trkpt><trkpt lat="43.364357977575864" lon="5.4986340829014955"><ele>204.0</ele><time>2026-04-24T12:46:52Z</time></trkpt><trkpt lat="43.36433255980955" lon="5.4985485646575345"><ele>204.0</ele><time>2026-04-24T12:46:52.999Z</time></trkpt><trkpt lat="43.364306923073855" lon="5.498464636731836"><ele>204.0</ele><time>2026-04-24T12:46:53.999Z</time></trkpt><trkpt lat="43.36429283611113" lon="5.498372172367062"><ele>202.79999999999998</ele><time>2026-04-24T12:46:54.999Z</time></trkpt><trkpt lat="43.36426668071547" lon="5.498280794326735"><ele>201.6</ele><time>2026-04-24T12:46:55.999Z</time></trkpt><trkpt lat="43.36424561094273" lon="5.498194581212381"><ele>200.4</ele><time>2026-04-24T12:46:56.999Z</time></trkpt><trkpt lat="43.36422336933554" lon="5.498103651989204"><ele>199.2</ele><time>2026-04-24T12:46:57.999Z</time></trkpt><trkpt lat="43.364203346084246" lon="5.497916618413492"><ele>198.0</ele><time>2026-04-24T12:46:59.999Z</time></trkpt><trkpt lat="43.364187424113915" lon="5.4977386391261085"><ele>196.57142857142858</ele><time>2026-04-24T12:47:01.999Z</time></trkpt><trkpt lat="43.364185620999734" lon="5.49764727044148"><ele>195.14285714285714</ele><time>2026-04-24T12:47:02.999Z</time></trkpt><trkpt lat="43.36416149332153" lon="5.497558932968199"><ele>193.71428571428572</ele><time>2026-04-24T12:47:03.999Z</time></trkpt><trkpt lat="43.36416704894565" lon="5.497462977864253"><ele>192.28571428571428</ele><time>2026-04-24T12:47:04.999Z</time></trkpt><trkpt lat="43.36414214048008" lon="5.497373933450659"><ele>190.85714285714283</ele><time>2026-04-24T12:47:05.999Z</time></trkpt><trkpt lat="43.36413554544063" lon="5.497282042351519"><ele>189.42857142857142</ele><time>2026-04-24T12:47:06.999Z</time></trkpt><trkpt lat="43.3641261506747" lon="5.497191927133112"><ele>188.0</ele><time>2026-04-24T12:47:07.999Z</time></trkpt><trkpt lat="43.36411579443558" lon="5.497102443672596"><ele>187.33333333333331</ele><time>2026-04-24T12:47:08.999Z</time></trkpt><trkpt lat="43.36409785517801" lon="5.496927432456693"><ele>186.66666666666666</ele><time>2026-04-24T12:47:10.999Z</time></trkpt><trkpt lat="43.364080867749365" lon="5.49683846850618"><ele>186.0</ele><time>2026-04-24T12:47:11.999Z</time></trkpt><trkpt lat="43.36405927217036" lon="5.496756530427261"><ele>185.33333333333334</ele><time>2026-04-24T12:47:12.999Z</time></trkpt><trkpt lat="43.3640320458868" lon="5.496675210640165"><ele>184.66666666666669</ele><time>2026-04-24T12:47:13.999Z</time></trkpt><trkpt lat="43.36399692102965" lon="5.496601749844563"><ele>184.0</ele><time>2026-04-24T12:47:14.999Z</time></trkpt><trkpt lat="43.3639545736107" lon="5.496536863039623"><ele>184.0</ele><time>2026-04-24T12:47:15.999Z</time></trkpt><trkpt lat="43.36386506264022" lon="5.496413197239506"><ele>184.0</ele><time>2026-04-24T12:47:17.999Z</time></trkpt><trkpt lat="43.36382024577064" lon="5.496349297452834"><ele>184.0</ele><time>2026-04-24T12:47:18.999Z</time></trkpt><trkpt lat="43.363719034995846" lon="5.4962400513846825"><ele>184.0</ele><time>2026-04-24T12:47:21Z</time></trkpt><trkpt lat="43.36362156300816" lon="5.496137909636773"><ele>184.0</ele><time>2026-04-24T12:47:23Z</time></trkpt><trkpt lat="43.36356994133683" lon="5.496081465172269"><ele>182.83333333333334</ele><time>2026-04-24T12:47:24Z</time></trkpt><trkpt lat="43.363516867281405" lon="5.496026672890858"><ele>181.66666666666669</ele><time>2026-04-24T12:47:25Z</time></trkpt><trkpt lat="43.3634673062502" lon="5.495965844749659"><ele>180.5</ele><time>2026-04-24T12:47:26Z</time></trkpt><trkpt lat="43.36341391648632" lon="5.495907361345604"><ele>179.33333333333334</ele><time>2026-04-24T12:47:27Z</time></trkpt><trkpt lat="43.363316222304626" lon="5.495795641874101"><ele>178.16666666666666</ele><time>2026-04-24T12:47:29Z</time></trkpt><trkpt lat="43.363272697907696" lon="5.495729642273509"><ele>177.0</ele><time>2026-04-24T12:47:30Z</time></trkpt><trkpt lat="43.36318998490917" lon="5.495602448741127"><ele>177.0</ele><time>2026-04-24T12:47:32Z</time></trkpt><trkpt lat="43.363116471148416" lon="5.495456261646346"><ele>177.0</ele><time>2026-04-24T12:47:34Z</time></trkpt><trkpt lat="43.363092642081554" lon="5.495372953897677"><ele>177.0</ele><time>2026-04-24T12:47:35Z</time></trkpt><trkpt lat="43.36306979417885" lon="5.495287233768111"><ele>177.0</ele><time>2026-04-24T12:47:36Z</time></trkpt><trkpt lat="43.36306461413294" lon="5.495113020364719"><ele>177.0</ele><time>2026-04-24T12:47:38Z</time></trkpt><trkpt lat="43.36305794822376" lon="5.495023534874407"><ele>177.0</ele><time>2026-04-24T12:47:39Z</time></trkpt><trkpt lat="43.36302673010135" lon="5.494862585695473"><ele>177.0</ele><time>2026-04-24T12:47:41Z</time></trkpt><trkpt lat="43.362986967324666" lon="5.494701367230313"><ele>177.0</ele><time>2026-04-24T12:47:43Z</time></trkpt><trkpt lat="43.36293404978271" lon="5.494545631808998"><ele>177.0</ele><time>2026-04-24T12:47:45Z</time></trkpt><trkpt lat="43.36289815380676" lon="5.494473224132504"><ele>177.0</ele><time>2026-04-24T12:47:46Z</time></trkpt><trkpt lat="43.362858405272924" lon="5.494402593389957"><ele>176.5</ele><time>2026-04-24T12:47:47Z</time></trkpt><trkpt lat="43.36281787525429" lon="5.4943316261331026"><ele>176.0</ele><time>2026-04-24T12:47:48Z</time></trkpt><trkpt lat="43.362769435122026" lon="5.494274206300399"><ele>175.5</ele><time>2026-04-24T12:47:49Z</time></trkpt><trkpt lat="43.36271637578537" lon="5.494225282107854"><ele>175.0</ele><time>2026-04-24T12:47:50Z</time></trkpt><trkpt lat="43.362604117368335" lon="5.494139129150492"><ele>174.5</ele><time>2026-04-24T12:47:52Z</time></trkpt><trkpt lat="43.362545869767985" lon="5.49409989154655"><ele>174.0</ele><time>2026-04-24T12:47:53Z</time></trkpt><trkpt lat="43.36248493175891" lon="5.494066373629073"><ele>174.0</ele><time>2026-04-24T12:47:54Z</time></trkpt><trkpt lat="43.36242387206733" lon="5.494039513585822"><ele>174.0</ele><time>2026-04-24T12:47:55Z</time></trkpt><trkpt lat="43.36235764375078" lon="5.494021379633033"><ele>174.0</ele><time>2026-04-24T12:47:56Z</time></trkpt><trkpt lat="43.362293623980335" lon="5.494003020393613"><ele>174.0</ele><time>2026-04-24T12:47:57Z</time></trkpt><trkpt lat="43.36222936003599" lon="5.493988333921232"><ele>174.0</ele><time>2026-04-24T12:47:58Z</time></trkpt><trkpt lat="43.362165012700686" lon="5.493976636345547"><ele>174.0</ele><time>2026-04-24T12:47:59Z</time></trkpt><trkpt lat="43.36203980383021" lon="5.493948336640641"><ele>173.2</ele><time>2026-04-24T12:48:01Z</time></trkpt><trkpt lat="43.361976641065844" lon="5.493934483473747"><ele>172.39999999999998</ele><time>2026-04-24T12:48:02Z</time></trkpt><trkpt lat="43.36186174777688" lon="5.493891562813402"><ele>171.6</ele><time>2026-04-24T12:48:04Z</time></trkpt><trkpt lat="43.36174266661959" lon="5.493867125913695"><ele>170.8</ele><time>2026-04-24T12:48:06Z</time></trkpt><trkpt lat="43.36162505557537" lon="5.493839005283972"><ele>170.0</ele><time>2026-04-24T12:48:08Z</time></trkpt><trkpt lat="43.3615111603279" lon="5.4938061651729555"><ele>170.0</ele><time>2026-04-24T12:48:10Z</time></trkpt><trkpt lat="43.361396588287406" lon="5.4937789245643325"><ele>170.0</ele><time>2026-04-24T12:48:12Z</time></trkpt><trkpt lat="43.36128448202554" lon="5.493808141643302"><ele>170.0</ele><time>2026-04-24T12:48:14Z</time></trkpt><trkpt lat="43.361165507939404" lon="5.4938436449102"><ele>170.0</ele><time>2026-04-24T12:48:16Z</time></trkpt><trkpt lat="43.36110333922194" lon="5.493867723248332"><ele>170.0</ele><time>2026-04-24T12:48:17Z</time></trkpt><trkpt lat="43.36103518057561" lon="5.4938875278920944"><ele>170.16666666666666</ele><time>2026-04-24T12:48:18Z</time></trkpt><trkpt lat="43.360964316039635" lon="5.4939147488460245"><ele>170.33333333333331</ele><time>2026-04-24T12:48:19Z</time></trkpt><trkpt lat="43.360890666972914" lon="5.493936838887875"><ele>170.5</ele><time>2026-04-24T12:48:20Z</time></trkpt><trkpt lat="43.36081204026518" lon="5.493970104303875"><ele>170.66666666666666</ele><time>2026-04-24T12:48:21Z</time></trkpt><trkpt lat="43.360734070670084" lon="5.494008007409684"><ele>170.83333333333334</ele><time>2026-04-24T12:48:22Z</time></trkpt><trkpt lat="43.360652687441004" lon="5.494042936744022"><ele>171.0</ele><time>2026-04-24T12:48:23Z</time></trkpt><trkpt lat="43.36057061343983" lon="5.494063549707849"><ele>171.0</ele><time>2026-04-24T12:48:24Z</time></trkpt><trkpt lat="43.36049188548658" lon="5.494084823986844"><ele>171.0</ele><time>2026-04-24T12:48:25Z</time></trkpt><trkpt lat="43.360407015472674" lon="5.4940976952458165"><ele>171.0</ele><time>2026-04-24T12:48:26Z</time></trkpt><trkpt lat="43.36032814729877" lon="5.4940934296785295"><ele>171.0</ele><time>2026-04-24T12:48:27Z</time></trkpt><trkpt lat="43.36024581797703" lon="5.494091234797474"><ele>171.0</ele><time>2026-04-24T12:48:28Z</time></trkpt><trkpt lat="43.36016915212383" lon="5.494078768420315"><ele>171.0</ele><time>2026-04-24T12:48:29Z</time></trkpt><trkpt lat="43.36009493897212" lon="5.494071259782301"><ele>171.0</ele><time>2026-04-24T12:48:30Z</time></trkpt><trkpt lat="43.36001988985154" lon="5.4940645823868595"><ele>171.0</ele><time>2026-04-24T12:48:31Z</time></trkpt><trkpt lat="43.35994659944098" lon="5.494055816276191"><ele>171.0</ele><time>2026-04-24T12:48:32Z</time></trkpt><trkpt lat="43.35987243340285" lon="5.494042603464487"><ele>171.0</ele><time>2026-04-24T12:48:33Z</time></trkpt><trkpt lat="43.35979762348042" lon="5.494015484532034"><ele>171.0</ele><time>2026-04-24T12:48:34Z</time></trkpt><trkpt lat="43.359721094936454" lon="5.493989958830865"><ele>171.0</ele><time>2026-04-24T12:48:35Z</time></trkpt><trkpt lat="43.35964579459762" lon="5.493972385066909"><ele>170.83333333333334</ele><time>2026-04-24T12:48:36Z</time></trkpt><trkpt lat="43.359571544920534" lon="5.493953583924379"><ele>170.66666666666666</ele><time>2026-04-24T12:48:37Z</time></trkpt><trkpt lat="43.35949704194334" lon="5.493925015091624"><ele>170.5</ele><time>2026-04-24T12:48:38Z</time></trkpt><trkpt lat="43.35942578774754" lon="5.493888091653937"><ele>170.33333333333331</ele><time>2026-04-24T12:48:39Z</time></trkpt><trkpt lat="43.359354659323785" lon="5.493846874271899"><ele>170.16666666666666</ele><time>2026-04-24T12:48:40Z</time></trkpt><trkpt lat="43.35928848005526" lon="5.493798683820034"><ele>170.0</ele><time>2026-04-24T12:48:41Z</time></trkpt><trkpt lat="43.35922355227156" lon="5.493747974494577"><ele>170.0</ele><time>2026-04-24T12:48:42Z</time></trkpt><trkpt lat="43.359164984818825" lon="5.493684007137908"><ele>170.0</ele><time>2026-04-24T12:48:43Z</time></trkpt><trkpt lat="43.35910846253986" lon="5.493620210133746"><ele>170.0</ele><time>2026-04-24T12:48:44Z</time></trkpt><trkpt lat="43.35905209651851" lon="5.493550388825019"><ele>170.0</ele><time>2026-04-24T12:48:45Z</time></trkpt><trkpt lat="43.35899731987778" lon="5.493479005686005"><ele>170.0</ele><time>2026-04-24T12:48:46Z</time></trkpt><trkpt lat="43.358946480758405" lon="5.493406563961208"><ele>170.0</ele><time>2026-04-24T12:48:47Z</time></trkpt><trkpt lat="43.35889687590452" lon="5.493333885610081"><ele>170.0</ele><time>2026-04-24T12:48:48Z</time></trkpt><trkpt lat="43.35884886081952" lon="5.493257935071354"><ele>169.71428571428572</ele><time>2026-04-24T12:48:49Z</time></trkpt><trkpt lat="43.35880527023556" lon="5.493182384324934"><ele>169.42857142857142</ele><time>2026-04-24T12:48:50Z</time></trkpt><trkpt lat="43.358761610739" lon="5.493106232410263"><ele>169.14285714285714</ele><time>2026-04-24T12:48:51Z</time></trkpt><trkpt lat="43.35872471633181" lon="5.493024786789716"><ele>168.85714285714286</ele><time>2026-04-24T12:48:52Z</time></trkpt><trkpt lat="43.3586853417439" lon="5.492946103147193"><ele>168.57142857142856</ele><time>2026-04-24T12:48:53Z</time></trkpt><trkpt lat="43.35864721366569" lon="5.492865539141148"><ele>168.28571428571428</ele><time>2026-04-24T12:48:54Z</time></trkpt><trkpt lat="43.35861183731127" lon="5.49278622919154"><ele>168.0</ele><time>2026-04-24T12:48:55Z</time></trkpt><trkpt lat="43.358572793576414" lon="5.492705809391339"><ele>168.0</ele><time>2026-04-24T12:48:56Z</time></trkpt><trkpt lat="43.35853407428215" lon="5.492628788212366"><ele>168.0</ele><time>2026-04-24T12:48:57Z</time></trkpt><trkpt lat="43.3585011304424" lon="5.492549638554526"><ele>168.0</ele><time>2026-04-24T12:48:58Z</time></trkpt><trkpt lat="43.35846331721211" lon="5.492470874765638"><ele>168.0</ele><time>2026-04-24T12:48:59Z</time></trkpt><trkpt lat="43.358427943046195" lon="5.4923920528007555"><ele>168.0</ele><time>2026-04-24T12:49:00Z</time></trkpt><trkpt lat="43.35838793662388" lon="5.492307916923055"><ele>168.0</ele><time>2026-04-24T12:49:01Z</time></trkpt><trkpt lat="43.358332689971085" lon="5.492154866250774"><ele>167.66666666666666</ele><time>2026-04-24T12:49:03Z</time></trkpt><trkpt lat="43.35828647355565" lon="5.492071420776166"><ele>167.33333333333334</ele><time>2026-04-24T12:49:04Z</time></trkpt><trkpt lat="43.35825905521875" lon="5.491990893322583"><ele>167.0</ele><time>2026-04-24T12:49:05Z</time></trkpt><trkpt lat="43.35822551103366" lon="5.491911098965532"><ele>166.66666666666669</ele><time>2026-04-24T12:49:06Z</time></trkpt><trkpt lat="43.358187449773276" lon="5.491836198680742"><ele>166.33333333333334</ele><time>2026-04-24T12:49:07Z</time></trkpt><trkpt lat="43.35814762262521" lon="5.491763087546744"><ele>166.0</ele><time>2026-04-24T12:49:08Z</time></trkpt><trkpt lat="43.358078096262105" lon="5.49161047519251"><ele>166.20000000000002</ele><time>2026-04-24T12:49:10Z</time></trkpt><trkpt lat="43.35800738669048" lon="5.491462821385997"><ele>166.4</ele><time>2026-04-24T12:49:12Z</time></trkpt><trkpt lat="43.3579386239133" lon="5.491316642312417"><ele>166.6</ele><time>2026-04-24T12:49:14Z</time></trkpt><trkpt lat="43.35787234039458" lon="5.491168394950408"><ele>166.8</ele><time>2026-04-24T12:49:16Z</time></trkpt><trkpt lat="43.35783721865316" lon="5.491094617592731"><ele>167.0</ele><time>2026-04-24T12:49:17Z</time></trkpt><trkpt lat="43.35780364348736" lon="5.491015792726833"><ele>167.0</ele><time>2026-04-24T12:49:18Z</time></trkpt><trkpt lat="43.35776471775943" lon="5.490944102184426"><ele>167.0</ele><time>2026-04-24T12:49:19Z</time></trkpt><trkpt lat="43.35773647886421" lon="5.49086457940099"><ele>167.0</ele><time>2026-04-24T12:49:20Z</time></trkpt><trkpt lat="43.357702358052464" lon="5.490786589385649"><ele>167.0</ele><time>2026-04-24T12:49:21Z</time></trkpt><trkpt lat="43.35766974989305" lon="5.490707879435106"><ele>167.0</ele><time>2026-04-24T12:49:22Z</time></trkpt><trkpt lat="43.3576442546364" lon="5.490623160151371"><ele>167.0</ele><time>2026-04-24T12:49:23Z</time></trkpt><trkpt lat="43.35761993959866" lon="5.490539830953451"><ele>167.0</ele><time>2026-04-24T12:49:24Z</time></trkpt><trkpt lat="43.357595641830265" lon="5.490452646006553"><ele>166.42857142857142</ele><time>2026-04-24T12:49:25Z</time></trkpt><trkpt lat="43.35757331237726" lon="5.490367055051606"><ele>165.85714285714286</ele><time>2026-04-24T12:49:26.001Z</time></trkpt><trkpt lat="43.3575563868023" lon="5.490276061358727"><ele>165.28571428571428</ele><time>2026-04-24T12:49:27.001Z</time></trkpt><trkpt lat="43.35753739199197" lon="5.490185748056027"><ele>164.71428571428572</ele><time>2026-04-24T12:49:28.001Z</time></trkpt><trkpt lat="43.357517775846546" lon="5.490100889458994"><ele>164.14285714285714</ele><time>2026-04-24T12:49:29.001Z</time></trkpt><trkpt lat="43.35749985087149" lon="5.490012992279885"><ele>163.57142857142858</ele><time>2026-04-24T12:49:30.001Z</time></trkpt><trkpt lat="43.35748239823095" lon="5.489924019102191"><ele>163.0</ele><time>2026-04-24T12:49:31.001Z</time></trkpt><trkpt lat="43.35746631697806" lon="5.489834451233787"><ele>163.0</ele><time>2026-04-24T12:49:32.001Z</time></trkpt><trkpt lat="43.35744715066792" lon="5.489745040281935"><ele>163.0</ele><time>2026-04-24T12:49:33.001Z</time></trkpt><trkpt lat="43.3574282343843" lon="5.489657806849213"><ele>163.0</ele><time>2026-04-24T12:49:34.001Z</time></trkpt><trkpt lat="43.357408195188604" lon="5.489571990286666"><ele>163.0</ele><time>2026-04-24T12:49:35.001Z</time></trkpt><trkpt lat="43.357383269231256" lon="5.489480382132986"><ele>163.0</ele><time>2026-04-24T12:49:36.001Z</time></trkpt><trkpt lat="43.35736546677605" lon="5.489391133337024"><ele>163.0</ele><time>2026-04-24T12:49:37.001Z</time></trkpt><trkpt lat="43.35734344485033" lon="5.489297680965898"><ele>163.0</ele><time>2026-04-24T12:49:38.001Z</time></trkpt><trkpt lat="43.357331431608664" lon="5.489205365910156"><ele>162.71428571428572</ele><time>2026-04-24T12:49:39.001Z</time></trkpt><trkpt lat="43.357311987827025" lon="5.489111345606815"><ele>162.42857142857142</ele><time>2026-04-24T12:49:40.001Z</time></trkpt><trkpt lat="43.3572895248929" lon="5.489020354105866"><ele>162.14285714285714</ele><time>2026-04-24T12:49:41Z</time></trkpt><trkpt lat="43.35727926161576" lon="5.488931708332512"><ele>161.85714285714286</ele><time>2026-04-24T12:49:42Z</time></trkpt><trkpt lat="43.35725525521399" lon="5.488841518175152"><ele>161.57142857142856</ele><time>2026-04-24T12:49:43Z</time></trkpt><trkpt lat="43.357237255829595" lon="5.488756277211215"><ele>161.28571428571428</ele><time>2026-04-24T12:49:44Z</time></trkpt><trkpt lat="43.3572130686337" lon="5.488665409118079"><ele>161.0</ele><time>2026-04-24T12:49:45Z</time></trkpt><trkpt lat="43.357191577779474" lon="5.488581610078125"><ele>161.0</ele><time>2026-04-24T12:49:46Z</time></trkpt><trkpt lat="43.35719298080686" lon="5.488485720297563"><ele>161.0</ele><time>2026-04-24T12:49:47Z</time></trkpt><trkpt lat="43.35722621899419" lon="5.488393112242118"><ele>161.0</ele><time>2026-04-24T12:49:48Z</time></trkpt><trkpt lat="43.35726404957378" lon="5.488305669780314"><ele>161.0</ele><time>2026-04-24T12:49:49Z</time></trkpt><trkpt lat="43.35727339742782" lon="5.4882194981532475"><ele>161.0</ele><time>2026-04-24T12:49:50Z</time></trkpt><trkpt lat="43.35725175061886" lon="5.488134001705484"><ele>161.0</ele><time>2026-04-24T12:49:51Z</time></trkpt><trkpt lat="43.35715901636419" lon="5.488114217611715"><ele>161.0</ele><time>2026-04-24T12:49:52Z</time></trkpt><trkpt lat="43.357096977327515" lon="5.488093544510187"><ele>160.83333333333331</ele><time>2026-04-24T12:49:53Z</time></trkpt><trkpt lat="43.35698270716082" lon="5.488009880793962"><ele>160.66666666666666</ele><time>2026-04-24T12:49:55Z</time></trkpt><trkpt lat="43.35693465892453" lon="5.48793174209636"><ele>160.5</ele><time>2026-04-24T12:49:56Z</time></trkpt><trkpt lat="43.356885729595795" lon="5.4878693626855"><ele>160.33333333333334</ele><time>2026-04-24T12:49:57Z</time></trkpt><trkpt lat="43.356830176705245" lon="5.487798538975211"><ele>160.16666666666669</ele><time>2026-04-24T12:49:58Z</time></trkpt><trkpt lat="43.35677709876507" lon="5.487730870531314"><ele>160.0</ele><time>2026-04-24T12:49:59Z</time></trkpt><trkpt lat="43.35671678848479" lon="5.487676135993248"><ele>159.71428571428572</ele><time>2026-04-24T12:50:00Z</time></trkpt><trkpt lat="43.35667451747262" lon="5.4876000910589875"><ele>159.42857142857144</ele><time>2026-04-24T12:50:01Z</time></trkpt><trkpt lat="43.35662147780643" lon="5.487532760054547"><ele>159.14285714285717</ele><time>2026-04-24T12:50:02Z</time></trkpt><trkpt lat="43.356568101208936" lon="5.4874720164658015"><ele>158.85714285714286</ele><time>2026-04-24T12:50:03Z</time></trkpt><trkpt lat="43.356524424105345" lon="5.487402186206697"><ele>158.57142857142858</ele><time>2026-04-24T12:50:04Z</time></trkpt><trkpt lat="43.35646719149155" lon="5.487340944053095"><ele>158.2857142857143</ele><time>2026-04-24T12:50:05Z</time></trkpt><trkpt lat="43.35641712844753" lon="5.4872846314705495"><ele>158.0</ele><time>2026-04-24T12:50:06Z</time></trkpt><trkpt lat="43.356335918622314" lon="5.487166033659675"><ele>157.71428571428572</ele><time>2026-04-24T12:50:08Z</time></trkpt><trkpt lat="43.35627458028792" lon="5.4870924735856486"><ele>157.42857142857144</ele><time>2026-04-24T12:50:10Z</time></trkpt><trkpt lat="43.35622268256258" lon="5.487025091233584"><ele>157.14285714285717</ele><time>2026-04-24T12:50:12Z</time></trkpt><trkpt lat="43.35616178028401" lon="5.486966216416509"><ele>156.85714285714286</ele><time>2026-04-24T12:50:14Z</time></trkpt><trkpt lat="43.356146343108115" lon="5.486868593769086"><ele>156.57142857142856</ele><time>2026-04-24T12:50:16Z</time></trkpt><trkpt lat="43.3561696144188" lon="5.486779024452391"><ele>156.2857142857143</ele><time>2026-04-24T12:50:18Z</time></trkpt><trkpt lat="43.35610246393463" lon="5.4867249904666044"><ele>156.0</ele><time>2026-04-24T12:50:19Z</time></trkpt><trkpt lat="43.356021168272335" lon="5.486727176524773"><ele>156.0</ele><time>2026-04-24T12:50:21Z</time></trkpt><trkpt lat="43.35596144138781" lon="5.486803838046649"><ele>156.0</ele><time>2026-04-24T12:50:23Z</time></trkpt><trkpt lat="43.35599149900636" lon="5.48689690918187"><ele>156.0</ele><time>2026-04-24T12:50:24Z</time></trkpt><trkpt lat="43.35606508629148" lon="5.486961659160384"><ele>156.0</ele><time>2026-04-24T12:50:26Z</time></trkpt><trkpt lat="43.35613641315419" lon="5.486979078954435"><ele>156.0</ele><time>2026-04-24T12:50:28Z</time></trkpt><trkpt lat="43.35620629613297" lon="5.487091118318285"><ele>156.0</ele><time>2026-04-24T12:50:30Z</time></trkpt><trkpt lat="43.35615323193919" lon="5.486997790567236"><ele>156.0</ele><time>2026-04-24T12:50:39Z</time></trkpt><trkpt lat="43.35608754473398" lon="5.486905716503237"><ele>156.0</ele><time>2026-04-24T12:50:42Z</time></trkpt><trkpt lat="43.35612130127721" lon="5.486701378460163"><ele>156.0</ele><time>2026-04-24T12:50:44Z</time></trkpt><trkpt lat="43.356047350493995" lon="5.4866970775941954"><ele>156.0</ele><time>2026-04-24T12:50:45Z</time></trkpt><trkpt lat="43.355954287491805" lon="5.4867028875666195"><ele>156.0</ele><time>2026-04-24T12:50:47Z</time></trkpt><trkpt lat="43.35582703677342" lon="5.4865638764991855"><ele>156.0</ele><time>2026-04-24T12:50:49Z</time></trkpt><trkpt lat="43.35571158035607" lon="5.486486831719468"><ele>156.0</ele><time>2026-04-24T12:50:51Z</time></trkpt><trkpt lat="43.355647374417494" lon="5.48644301535132"><ele>156.0</ele><time>2026-04-24T12:50:52Z</time></trkpt><trkpt lat="43.35557815139284" lon="5.486397963801266"><ele>156.0</ele><time>2026-04-24T12:50:53Z</time></trkpt><trkpt lat="43.35551444222453" lon="5.486355768727637"><ele>156.0</ele><time>2026-04-24T12:50:54Z</time></trkpt><trkpt lat="43.35544842809539" lon="5.48631380608958"><ele>156.0</ele><time>2026-04-24T12:50:55Z</time></trkpt><trkpt lat="43.355380183752374" lon="5.486263914863506"><ele>156.16666666666666</ele><time>2026-04-24T12:50:56Z</time></trkpt><trkpt lat="43.35531171219713" lon="5.48621848461345"><ele>156.33333333333334</ele><time>2026-04-24T12:50:57Z</time></trkpt><trkpt lat="43.355244818805936" lon="5.486170351262963"><ele>156.5</ele><time>2026-04-24T12:50:58Z</time></trkpt><trkpt lat="43.35517417405475" lon="5.4861247689039505"><ele>156.66666666666669</ele><time>2026-04-24T12:50:59Z</time></trkpt><trkpt lat="43.35510155105989" lon="5.486077229911985"><ele>156.83333333333334</ele><time>2026-04-24T12:51:00Z</time></trkpt><trkpt lat="43.355028092514466" lon="5.4860281084726905"><ele>157.0</ele><time>2026-04-24T12:51:01Z</time></trkpt><trkpt lat="43.3549522742498" lon="5.485980263921317"><ele>157.0</ele><time>2026-04-24T12:51:02Z</time></trkpt><trkpt lat="43.354884095438074" lon="5.48592798676372"><ele>157.0</ele><time>2026-04-24T12:51:03Z</time></trkpt><trkpt lat="43.35482158279969" lon="5.485868438373972"><ele>157.0</ele><time>2026-04-24T12:51:04Z</time></trkpt><trkpt lat="43.3547616381384" lon="5.485796026705487"><ele>157.0</ele><time>2026-04-24T12:51:05Z</time></trkpt><trkpt lat="43.35470422415889" lon="5.485721106378049"><ele>157.0</ele><time>2026-04-24T12:51:06Z</time></trkpt><trkpt lat="43.354653897969065" lon="5.485641210689935"><ele>157.0</ele><time>2026-04-24T12:51:07Z</time></trkpt><trkpt lat="43.354613269834815" lon="5.485553827247776"><ele>157.28571428571428</ele><time>2026-04-24T12:51:08Z</time></trkpt><trkpt lat="43.35458162810063" lon="5.485460525480977"><ele>157.57142857142856</ele><time>2026-04-24T12:51:09Z</time></trkpt><trkpt lat="43.35455228471195" lon="5.485368145250261"><ele>157.85714285714283</ele><time>2026-04-24T12:51:10Z</time></trkpt><trkpt lat="43.35452210885707" lon="5.485280928480601"><ele>158.14285714285714</ele><time>2026-04-24T12:51:11Z</time></trkpt><trkpt lat="43.35449201965828" lon="5.485198085079813"><ele>158.42857142857144</ele><time>2026-04-24T12:51:12Z</time></trkpt><trkpt lat="43.35445967886419" lon="5.485117896307821"><ele>158.7142857142857</ele><time>2026-04-24T12:51:13Z</time></trkpt><trkpt lat="43.35442775935452" lon="5.485041306781778"><ele>159.0</ele><time>2026-04-24T12:51:14Z</time></trkpt><trkpt lat="43.35440297303738" lon="5.484887730201724"><ele>159.2</ele><time>2026-04-24T12:51:16Z</time></trkpt><trkpt lat="43.354417542654694" lon="5.484749077988115"><ele>159.4</ele><time>2026-04-24T12:51:18Z</time></trkpt><trkpt lat="43.354370571381665" lon="5.484618430499171"><ele>159.6</ele><time>2026-04-24T12:51:20Z</time></trkpt><trkpt lat="43.354243052915606" lon="5.484603359348476"><ele>159.8</ele><time>2026-04-24T12:51:22Z</time></trkpt><trkpt lat="43.35413000405406" lon="5.484587953356717"><ele>160.0</ele><time>2026-04-24T12:51:24Z</time></trkpt><trkpt lat="43.35402962031429" lon="5.484508187798663"><ele>160.0</ele><time>2026-04-24T12:51:26Z</time></trkpt><trkpt lat="43.35392119044056" lon="5.484456683969302"><ele>160.0</ele><time>2026-04-24T12:51:28Z</time></trkpt><trkpt lat="43.35381483064745" lon="5.4843825573365255"><ele>160.0</ele><time>2026-04-24T12:51:30Z</time></trkpt><trkpt lat="43.35370618345266" lon="5.484316322888372"><ele>160.0</ele><time>2026-04-24T12:51:32.001Z</time></trkpt><trkpt lat="43.353600458629636" lon="5.484229476872562"><ele>159.2</ele><time>2026-04-24T12:51:34.001Z</time></trkpt><trkpt lat="43.35349587824131" lon="5.484129327976994"><ele>158.4</ele><time>2026-04-24T12:51:36.001Z</time></trkpt><trkpt lat="43.35344478525354" lon="5.484075054982369"><ele>157.6</ele><time>2026-04-24T12:51:37.001Z</time></trkpt><trkpt lat="43.353398304708506" lon="5.484015113891568"><ele>156.8</ele><time>2026-04-24T12:51:38.001Z</time></trkpt><trkpt lat="43.353310270453356" lon="5.483887126264191"><ele>156.0</ele><time>2026-04-24T12:51:40.001Z</time></trkpt><trkpt lat="43.35322207991318" lon="5.483756066396651"><ele>156.0</ele><time>2026-04-24T12:51:42.001Z</time></trkpt><trkpt lat="43.35314016907798" lon="5.483626684430505"><ele>156.0</ele><time>2026-04-24T12:51:44.001Z</time></trkpt><trkpt lat="43.35309770530195" lon="5.483560492075205"><ele>156.0</ele><time>2026-04-24T12:51:45.001Z</time></trkpt><trkpt lat="43.35302105223378" lon="5.483421697754613"><ele>156.0</ele><time>2026-04-24T12:51:47.001Z</time></trkpt><trkpt lat="43.35296250308444" lon="5.4832763627602334"><ele>156.0</ele><time>2026-04-24T12:51:49.001Z</time></trkpt><trkpt lat="43.35291033844802" lon="5.483119841404398"><ele>154.8</ele><time>2026-04-24T12:51:51.001Z</time></trkpt><trkpt lat="43.352869109496275" lon="5.482956785050013"><ele>153.6</ele><time>2026-04-24T12:51:53Z</time></trkpt><trkpt lat="43.35284808727602" lon="5.482871806609046"><ele>152.4</ele><time>2026-04-24T12:51:54Z</time></trkpt><trkpt lat="43.352829473841545" lon="5.482785065217579"><ele>151.2</ele><time>2026-04-24T12:51:55Z</time></trkpt><trkpt lat="43.35279237942557" lon="5.4826193981504785"><ele>150.0</ele><time>2026-04-24T12:51:57Z</time></trkpt><trkpt lat="43.352750367656434" lon="5.482458184805011"><ele>149.85714285714283</ele><time>2026-04-24T12:51:59Z</time></trkpt><trkpt lat="43.3527308706218" lon="5.482372252542728"><ele>149.71428571428572</ele><time>2026-04-24T12:52:00Z</time></trkpt><trkpt lat="43.35271300791366" lon="5.482288154111058"><ele>149.57142857142856</ele><time>2026-04-24T12:52:01Z</time></trkpt><trkpt lat="43.35269201582247" lon="5.482205539063587"><ele>149.42857142857142</ele><time>2026-04-24T12:52:02Z</time></trkpt><trkpt lat="43.352672796614414" lon="5.4821208850608"><ele>149.28571428571428</ele><time>2026-04-24T12:52:03Z</time></trkpt><trkpt lat="43.35265326506612" lon="5.482034642201331"><ele>149.14285714285714</ele><time>2026-04-24T12:52:04Z</time></trkpt><trkpt lat="43.35263068444587" lon="5.481946771923003"><ele>149.0</ele><time>2026-04-24T12:52:05Z</time></trkpt><trkpt lat="43.35261028377229" lon="5.481861157530177"><ele>149.0</ele><time>2026-04-24T12:52:06Z</time></trkpt><trkpt lat="43.352590761836225" lon="5.4817773143041855"><ele>149.0</ele><time>2026-04-24T12:52:07Z</time></trkpt><trkpt lat="43.352568370357446" lon="5.48169103402114"><ele>149.0</ele><time>2026-04-24T12:52:08Z</time></trkpt><trkpt lat="43.35254696493712" lon="5.481602104352659"><ele>149.0</ele><time>2026-04-24T12:52:09Z</time></trkpt><trkpt lat="43.352525862821494" lon="5.481514105644544"><ele>149.0</ele><time>2026-04-24T12:52:10Z</time></trkpt><trkpt lat="43.35251715180801" lon="5.481420824852627"><ele>149.0</ele><time>2026-04-24T12:52:11Z</time></trkpt><trkpt lat="43.352496483469686" lon="5.48133476035775"><ele>149.0</ele><time>2026-04-24T12:52:12Z</time></trkpt><trkpt lat="43.352475655224666" lon="5.481248030006265"><ele>148.85714285714286</ele><time>2026-04-24T12:52:13Z</time></trkpt><trkpt lat="43.35245399921366" lon="5.4811578075159275"><ele>148.7142857142857</ele><time>2026-04-24T12:52:14Z</time></trkpt><trkpt lat="43.352433744066786" lon="5.4810733720079545"><ele>148.57142857142856</ele><time>2026-04-24T12:52:15Z</time></trkpt><trkpt lat="43.352407135508905" lon="5.480989721011665"><ele>148.42857142857142</ele><time>2026-04-24T12:52:16Z</time></trkpt><trkpt lat="43.352380892458875" lon="5.480904512808212"><ele>148.28571428571428</ele><time>2026-04-24T12:52:17Z</time></trkpt><trkpt lat="43.35236013391313" lon="5.4808111019749655"><ele>148.14285714285714</ele><time>2026-04-24T12:52:18Z</time></trkpt><trkpt lat="43.352343525942764" lon="5.48071769218593"><ele>148.0</ele><time>2026-04-24T12:52:19Z</time></trkpt><trkpt lat="43.35232594290625" lon="5.480628534857385"><ele>148.0</ele><time>2026-04-24T12:52:20Z</time></trkpt><trkpt lat="43.35230058978981" lon="5.4805343615089654"><ele>148.0</ele><time>2026-04-24T12:52:21Z</time></trkpt><trkpt lat="43.35227948752271" lon="5.480415533531839"><ele>148.0</ele><time>2026-04-24T12:52:22Z</time></trkpt><trkpt lat="43.35222954537855" lon="5.4802476846173995"><ele>148.0</ele><time>2026-04-24T12:52:24Z</time></trkpt><trkpt lat="43.352206260132554" lon="5.480151958370658"><ele>148.0</ele><time>2026-04-24T12:52:25Z</time></trkpt><trkpt lat="43.35218583392707" lon="5.480062974468284"><ele>148.0</ele><time>2026-04-24T12:52:26Z</time></trkpt><trkpt lat="43.35216941764864" lon="5.479971300354271"><ele>147.66666666666669</ele><time>2026-04-24T12:52:27Z</time></trkpt><trkpt lat="43.35212869999065" lon="5.479795627187505"><ele>147.33333333333334</ele><time>2026-04-24T12:52:29Z</time></trkpt><trkpt lat="43.352111659523736" lon="5.479699361696594"><ele>147.0</ele><time>2026-04-24T12:52:30Z</time></trkpt><trkpt lat="43.35209513492541" lon="5.479610385925595"><ele>146.66666666666666</ele><time>2026-04-24T12:52:31Z</time></trkpt><trkpt lat="43.352083459464254" lon="5.479518359069127"><ele>146.33333333333331</ele><time>2026-04-24T12:52:32Z</time></trkpt><trkpt lat="43.35207034209392" lon="5.47942606485438"><ele>146.0</ele><time>2026-04-24T12:52:33Z</time></trkpt><trkpt lat="43.35206432187273" lon="5.47933107083024"><ele>146.0</ele><time>2026-04-24T12:52:34Z</time></trkpt><trkpt lat="43.352059753416164" lon="5.479239387661658"><ele>146.0</ele><time>2026-04-24T12:52:35Z</time></trkpt><trkpt lat="43.35205193726746" lon="5.4791415208525285"><ele>146.0</ele><time>2026-04-24T12:52:36Z</time></trkpt><trkpt lat="43.35204943239001" lon="5.479046930938226"><ele>146.0</ele><time>2026-04-24T12:52:37Z</time></trkpt><trkpt lat="43.352040851237085" lon="5.478953834097148"><ele>146.0</ele><time>2026-04-24T12:52:38Z</time></trkpt><trkpt lat="43.35203653883053" lon="5.4788537883659245"><ele>146.0</ele><time>2026-04-24T12:52:39Z</time></trkpt><trkpt lat="43.35203316475154" lon="5.478757696742351"><ele>146.0</ele><time>2026-04-24T12:52:40Z</time></trkpt><trkpt lat="43.35202804726032" lon="5.478660559508313"><ele>145.71428571428572</ele><time>2026-04-24T12:52:41Z</time></trkpt><trkpt lat="43.35202228283756" lon="5.47856659600662"><ele>145.42857142857144</ele><time>2026-04-24T12:52:42Z</time></trkpt><trkpt lat="43.352016724426484" lon="5.4784705123206345"><ele>145.14285714285717</ele><time>2026-04-24T12:52:43Z</time></trkpt><trkpt lat="43.35201174902826" lon="5.47837223206305"><ele>144.85714285714286</ele><time>2026-04-24T12:52:44Z</time></trkpt><trkpt lat="43.352008630219956" lon="5.478275238779697"><ele>144.57142857142858</ele><time>2026-04-24T12:52:45Z</time></trkpt><trkpt lat="43.35200404131405" lon="5.478181791825209"><ele>144.2857142857143</ele><time>2026-04-24T12:52:46Z</time></trkpt><trkpt lat="43.351999239414745" lon="5.478083605013486"><ele>144.0</ele><time>2026-04-24T12:52:47Z</time></trkpt><trkpt lat="43.351998578164455" lon="5.477988758633941"><ele>144.14285714285717</ele><time>2026-04-24T12:52:48Z</time></trkpt><trkpt lat="43.35199791107469" lon="5.477891378986698"><ele>144.28571428571428</ele><time>2026-04-24T12:52:49Z</time></trkpt><trkpt lat="43.35199621965448" lon="5.477796212292601"><ele>144.42857142857144</ele><time>2026-04-24T12:52:50Z</time></trkpt><trkpt lat="43.35199244347251" lon="5.4776982853245055"><ele>144.57142857142858</ele><time>2026-04-24T12:52:51Z</time></trkpt><trkpt lat="43.35198883883346" lon="5.477600197958397"><ele>144.71428571428572</ele><time>2026-04-24T12:52:52Z</time></trkpt><trkpt lat="43.351985656459476" lon="5.4775051898211276"><ele>144.85714285714286</ele><time>2026-04-24T12:52:53Z</time></trkpt><trkpt lat="43.35198038045626" lon="5.477408773344244"><ele>145.0</ele><time>2026-04-24T12:52:54Z</time></trkpt><trkpt lat="43.35197647968254" lon="5.477313299855143"><ele>145.0</ele><time>2026-04-24T12:52:55Z</time></trkpt><trkpt lat="43.35197200885256" lon="5.477220724943125"><ele>145.0</ele><time>2026-04-24T12:52:56Z</time></trkpt><trkpt lat="43.35196678994138" lon="5.47712967348327"><ele>145.0</ele><time>2026-04-24T12:52:57Z</time></trkpt><trkpt lat="43.351964425788765" lon="5.477036568883771"><ele>145.0</ele><time>2026-04-24T12:52:58Z</time></trkpt><trkpt lat="43.351954859495514" lon="5.47694180420457"><ele>145.0</ele><time>2026-04-24T12:52:59Z</time></trkpt><trkpt lat="43.35194831621706" lon="5.476849673139436"><ele>145.0</ele><time>2026-04-24T12:53:00Z</time></trkpt><trkpt lat="43.35194119520322" lon="5.476754406954194"><ele>145.0</ele><time>2026-04-24T12:53:01Z</time></trkpt><trkpt lat="43.35193666967001" lon="5.476662163333703"><ele>144.85714285714286</ele><time>2026-04-24T12:53:02Z</time></trkpt><trkpt lat="43.351934428638536" lon="5.476567160462337"><ele>144.71428571428572</ele><time>2026-04-24T12:53:03Z</time></trkpt><trkpt lat="43.35192805797764" lon="5.476472716610773"><ele>144.57142857142858</ele><time>2026-04-24T12:53:04Z</time></trkpt><trkpt lat="43.35191913951276" lon="5.476379834339464"><ele>144.42857142857144</ele><time>2026-04-24T12:53:05Z</time></trkpt><trkpt lat="43.351914735358605" lon="5.476288468414402"><ele>144.28571428571428</ele><time>2026-04-24T12:53:06Z</time></trkpt><trkpt lat="43.351925320992734" lon="5.476194571913196"><ele>144.14285714285717</ele><time>2026-04-24T12:53:07Z</time></trkpt><trkpt lat="43.35190750788629" lon="5.476106215430346"><ele>144.0</ele><time>2026-04-24T12:53:08Z</time></trkpt><trkpt lat="43.35191722735646" lon="5.47601499905813"><ele>143.71428571428572</ele><time>2026-04-24T12:53:09Z</time></trkpt><trkpt lat="43.351913128439406" lon="5.475924057071078"><ele>143.42857142857144</ele><time>2026-04-24T12:53:10Z</time></trkpt><trkpt lat="43.351908472290965" lon="5.475831165231124"><ele>143.14285714285714</ele><time>2026-04-24T12:53:11Z</time></trkpt><trkpt lat="43.351887888494915" lon="5.475742346579803"><ele>142.85714285714286</ele><time>2026-04-24T12:53:12Z</time></trkpt><trkpt lat="43.35188441203343" lon="5.475650438315953"><ele>142.57142857142856</ele><time>2026-04-24T12:53:13Z</time></trkpt><trkpt lat="43.35187961900285" lon="5.475561227181205"><ele>142.28571428571428</ele><time>2026-04-24T12:53:14Z</time></trkpt><trkpt lat="43.35189052886426" lon="5.475468020671462"><ele>142.0</ele><time>2026-04-24T12:53:15Z</time></trkpt><trkpt lat="43.351866150654466" lon="5.475294568077902"><ele>142.0</ele><time>2026-04-24T12:53:17Z</time></trkpt><trkpt lat="43.35185905457179" lon="5.475116791926462"><ele>142.0</ele><time>2026-04-24T12:53:19Z</time></trkpt><trkpt lat="43.3518553100631" lon="5.474944969104355"><ele>142.0</ele><time>2026-04-24T12:53:21Z</time></trkpt><trkpt lat="43.35184911488759" lon="5.474855527902642"><ele>142.0</ele><time>2026-04-24T12:53:22Z</time></trkpt><trkpt lat="43.35184207074413" lon="5.474768198475397"><ele>142.0</ele><time>2026-04-24T12:53:23Z</time></trkpt><trkpt lat="43.35185072315159" lon="5.4746624203358705"><ele>142.0</ele><time>2026-04-24T12:53:24Z</time></trkpt><trkpt lat="43.351831239937674" lon="5.474562418878736"><ele>142.0</ele><time>2026-04-24T12:53:25Z</time></trkpt><trkpt lat="43.35182596478866" lon="5.474460847790763"><ele>142.0</ele><time>2026-04-24T12:53:26Z</time></trkpt><trkpt lat="43.351826474069895" lon="5.47436862026474"><ele>142.0</ele><time>2026-04-24T12:53:26.999Z</time></trkpt><trkpt lat="43.351818404971716" lon="5.474264961044855"><ele>142.0</ele><time>2026-04-24T12:53:27.999Z</time></trkpt><trkpt lat="43.351813706616504" lon="5.4741624299259435"><ele>142.0</ele><time>2026-04-24T12:53:28.999Z</time></trkpt><trkpt lat="43.35180668300095" lon="5.47405836010219"><ele>142.0</ele><time>2026-04-24T12:53:29.999Z</time></trkpt><trkpt lat="43.35180458190691" lon="5.473959937674489"><ele>142.0</ele><time>2026-04-24T12:53:30.999Z</time></trkpt><trkpt lat="43.35179962507055" lon="5.473855271765096"><ele>142.0</ele><time>2026-04-24T12:53:31.999Z</time></trkpt><trkpt lat="43.35179417946636" lon="5.473758368368336"><ele>142.0</ele><time>2026-04-24T12:53:32.999Z</time></trkpt><trkpt lat="43.35179022406156" lon="5.473652403282101"><ele>142.0</ele><time>2026-04-24T12:53:33.999Z</time></trkpt><trkpt lat="43.35178819710767" lon="5.473552863862915"><ele>142.0</ele><time>2026-04-24T12:53:34.999Z</time></trkpt><trkpt lat="43.35178155082646" lon="5.473442828173064"><ele>142.0</ele><time>2026-04-24T12:53:35.999Z</time></trkpt><trkpt lat="43.35177652566837" lon="5.473339404778656"><ele>141.85714285714286</ele><time>2026-04-24T12:53:37.001Z</time></trkpt><trkpt lat="43.351770953407694" lon="5.473237176010538"><ele>141.7142857142857</ele><time>2026-04-24T12:53:38.001Z</time></trkpt><trkpt lat="43.35175791515833" lon="5.473139331715983"><ele>141.57142857142856</ele><time>2026-04-24T12:53:39.001Z</time></trkpt><trkpt lat="43.3517409911191" lon="5.473037763035944"><ele>141.42857142857142</ele><time>2026-04-24T12:53:40.001Z</time></trkpt><trkpt lat="43.35171775866281" lon="5.472938363278681"><ele>141.28571428571428</ele><time>2026-04-24T12:53:41.001Z</time></trkpt><trkpt lat="43.35169194628603" lon="5.472843624284747"><ele>141.14285714285714</ele><time>2026-04-24T12:53:42.001Z</time></trkpt><trkpt lat="43.35166360675402" lon="5.472750586823727"><ele>141.0</ele><time>2026-04-24T12:53:43.001Z</time></trkpt><trkpt lat="43.35163246461443" lon="5.472654428259598"><ele>141.0</ele><time>2026-04-24T12:53:44.001Z</time></trkpt><trkpt lat="43.35159406683656" lon="5.472567098433197"><ele>141.0</ele><time>2026-04-24T12:53:45.001Z</time></trkpt><trkpt lat="43.35155255783495" lon="5.472482051201386"><ele>141.0</ele><time>2026-04-24T12:53:46.001Z</time></trkpt><trkpt lat="43.351507552226465" lon="5.4724017770407745"><ele>141.0</ele><time>2026-04-24T12:53:47.001Z</time></trkpt><trkpt lat="43.35145901568547" lon="5.472324582042249"><ele>141.0</ele><time>2026-04-24T12:53:48.001Z</time></trkpt><trkpt lat="43.35141112612404" lon="5.472253605568527"><ele>141.0</ele><time>2026-04-24T12:53:49.001Z</time></trkpt><trkpt lat="43.351361507519215" lon="5.472178442749444"><ele>141.0</ele><time>2026-04-24T12:53:50.001Z</time></trkpt><trkpt lat="43.35131246454551" lon="5.472102897883288"><ele>140.57142857142858</ele><time>2026-04-24T12:53:51.001Z</time></trkpt><trkpt lat="43.35126204113855" lon="5.472027193401814"><ele>140.14285714285714</ele><time>2026-04-24T12:53:52.001Z</time></trkpt><trkpt lat="43.35121222678437" lon="5.471957005702768"><ele>139.71428571428572</ele><time>2026-04-24T12:53:53.001Z</time></trkpt><trkpt lat="43.35116455950836" lon="5.471886351838801"><ele>139.28571428571428</ele><time>2026-04-24T12:53:54.001Z</time></trkpt><trkpt lat="43.35111940409821" lon="5.471813351486847"><ele>138.85714285714286</ele><time>2026-04-24T12:53:55Z</time></trkpt><trkpt lat="43.35107117797607" lon="5.471739524795257"><ele>138.42857142857144</ele><time>2026-04-24T12:53:56Z</time></trkpt><trkpt lat="43.35102567923593" lon="5.471668870708539"><ele>138.0</ele><time>2026-04-24T12:53:57Z</time></trkpt><trkpt lat="43.35098027918256" lon="5.471594630958369"><ele>138.0</ele><time>2026-04-24T12:53:58Z</time></trkpt><trkpt lat="43.350930330887174" lon="5.471524141369409"><ele>138.0</ele><time>2026-04-24T12:53:59Z</time></trkpt><trkpt lat="43.35088280775731" lon="5.4714537529639715"><ele>138.0</ele><time>2026-04-24T12:54:00Z</time></trkpt><trkpt lat="43.35083560147754" lon="5.471386088669463"><ele>138.0</ele><time>2026-04-24T12:54:01Z</time></trkpt><trkpt lat="43.35078507870685" lon="5.47131854246677"><ele>138.0</ele><time>2026-04-24T12:54:02Z</time></trkpt><trkpt lat="43.35073290030146" lon="5.4712605686450315"><ele>138.0</ele><time>2026-04-24T12:54:03Z</time></trkpt><trkpt lat="43.35067821810747" lon="5.471200796684965"><ele>138.0</ele><time>2026-04-24T12:54:04Z</time></trkpt><trkpt lat="43.35062471094377" lon="5.4711434760225455"><ele>138.0</ele><time>2026-04-24T12:54:05Z</time></trkpt><trkpt lat="43.3505721069092" lon="5.471093849243385"><ele>138.0</ele><time>2026-04-24T12:54:06Z</time></trkpt><trkpt lat="43.35051546493864" lon="5.471042514064341"><ele>138.0</ele><time>2026-04-24T12:54:07Z</time></trkpt><trkpt lat="43.35047430577839" lon="5.4709665898367605"><ele>138.0</ele><time>2026-04-24T12:54:08Z</time></trkpt><trkpt lat="43.35042287655558" lon="5.4709083901985744"><ele>138.0</ele><time>2026-04-24T12:54:09Z</time></trkpt><trkpt lat="43.35036379765978" lon="5.470867456638641"><ele>138.0</ele><time>2026-04-24T12:54:10Z</time></trkpt><trkpt lat="43.35032665731007" lon="5.4707968273540395"><ele>138.0</ele><time>2026-04-24T12:54:11Z</time></trkpt><trkpt lat="43.35027806400225" lon="5.470739237631033"><ele>138.0</ele><time>2026-04-24T12:54:12Z</time></trkpt><trkpt lat="43.350185310247646" lon="5.4706372974616455"><ele>138.0</ele><time>2026-04-24T12:54:14Z</time></trkpt><trkpt lat="43.35009352558931" lon="5.470526084882967"><ele>138.0</ele><time>2026-04-24T12:54:16Z</time></trkpt><trkpt lat="43.350002439923365" lon="5.470420500103806"><ele>138.0</ele><time>2026-04-24T12:54:18Z</time></trkpt><trkpt lat="43.349930491721814" lon="5.470306047605114"><ele>138.6</ele><time>2026-04-24T12:54:20Z</time></trkpt><trkpt lat="43.349850849493336" lon="5.470206089211283"><ele>139.20000000000002</ele><time>2026-04-24T12:54:22Z</time></trkpt><trkpt lat="43.34977850535041" lon="5.470089106577182"><ele>139.8</ele><time>2026-04-24T12:54:24Z</time></trkpt><trkpt lat="43.34969848022528" lon="5.469976554075445"><ele>140.4</ele><time>2026-04-24T12:54:26Z</time></trkpt><trkpt lat="43.349630548277965" lon="5.469851595624208"><ele>141.0</ele><time>2026-04-24T12:54:28Z</time></trkpt><trkpt lat="43.34957419401943" lon="5.469716007214735"><ele>140.0</ele><time>2026-04-24T12:54:30Z</time></trkpt><trkpt lat="43.349526165954785" lon="5.469577395986257"><ele>139.0</ele><time>2026-04-24T12:54:32Z</time></trkpt><trkpt lat="43.34948085044162" lon="5.469449998553887"><ele>138.0</ele><time>2026-04-24T12:54:34Z</time></trkpt><trkpt lat="43.34941888666334" lon="5.469334915820748"><ele>137.0</ele><time>2026-04-24T12:54:36Z</time></trkpt><trkpt lat="43.34936318207321" lon="5.4692061858642695"><ele>136.0</ele><time>2026-04-24T12:54:38Z</time></trkpt><trkpt lat="43.34930816019257" lon="5.469072721625571"><ele>136.0</ele><time>2026-04-24T12:54:40Z</time></trkpt><trkpt lat="43.34926863090865" lon="5.468933879080011"><ele>136.0</ele><time>2026-04-24T12:54:42Z</time></trkpt><trkpt lat="43.34928628413447" lon="5.468844382690756"><ele>136.0</ele><time>2026-04-24T12:54:45Z</time></trkpt><trkpt lat="43.34935688523348" lon="5.46879900971824"><ele>136.0</ele><time>2026-04-24T12:54:48Z</time></trkpt><trkpt lat="43.34943296323813" lon="5.468782529195445"><ele>136.0</ele><time>2026-04-24T12:54:52Z</time></trkpt><trkpt lat="43.34949502978177" lon="5.468745569826579"><ele>136.0</ele><time>2026-04-24T12:54:56Z</time></trkpt><trkpt lat="43.34956874122938" lon="5.468713183333213"><ele>135.99999999999997</ele><time>2026-04-24T12:55:00Z</time></trkpt><trkpt lat="43.349642116496355" lon="5.468682995185754"><ele>136.0</ele><time>2026-04-24T12:55:04Z</time></trkpt><trkpt lat="43.34971520176095" lon="5.468648939453173"><ele>136.0</ele><time>2026-04-24T12:55:09Z</time></trkpt><trkpt lat="43.34978966939546" lon="5.468624210596857"><ele>136.0</ele><time>2026-04-24T12:55:13Z</time></trkpt><trkpt lat="43.349861846922835" lon="5.468588425121397"><ele>136.0</ele><time>2026-04-24T12:55:15.999Z</time></trkpt><trkpt lat="43.34992324645092" lon="5.4685670582141555"><ele>135.99999999999997</ele><time>2026-04-24T12:55:17.999Z</time></trkpt><trkpt lat="43.34998779338801" lon="5.468539674466736"><ele>136.0</ele><time>2026-04-24T12:55:19.999Z</time></trkpt><trkpt lat="43.350084644792666" lon="5.468500917417916"><ele>136.5</ele><time>2026-04-24T12:55:23.999Z</time></trkpt><trkpt lat="43.350192114929776" lon="5.468441798288924"><ele>137.0</ele><time>2026-04-24T12:55:26.999Z</time></trkpt><trkpt lat="43.35026174932407" lon="5.468431006542484"><ele>137.5</ele><time>2026-04-24T12:55:28.999Z</time></trkpt><trkpt lat="43.35034001901437" lon="5.468402297958497"><ele>138.0</ele><time>2026-04-24T12:55:30.999Z</time></trkpt><trkpt lat="43.35041711072438" lon="5.468375194647278"><ele>138.5</ele><time>2026-04-24T12:55:32.999Z</time></trkpt><trkpt lat="43.350489764557956" lon="5.468354176947816"><ele>139.0</ele><time>2026-04-24T12:55:34.999Z</time></trkpt><trkpt lat="43.35057292381392" lon="5.468332077987365"><ele>139.0</ele><time>2026-04-24T12:55:36.999Z</time></trkpt><trkpt lat="43.35065784157697" lon="5.468308238621921"><ele>139.0</ele><time>2026-04-24T12:55:39.999Z</time></trkpt><trkpt lat="43.350732907455665" lon="5.468303741917141"><ele>139.0</ele><time>2026-04-24T12:55:41.999Z</time></trkpt><trkpt lat="43.3508279076975" lon="5.468279392698478"><ele>139.0</ele><time>2026-04-24T12:55:44.001Z</time></trkpt><trkpt lat="43.35091545944727" lon="5.468271313890172"><ele>139.0</ele><time>2026-04-24T12:55:46.001Z</time></trkpt><trkpt lat="43.350995664860584" lon="5.4682626034556785"><ele>139.0</ele><time>2026-04-24T12:55:48.001Z</time></trkpt><trkpt lat="43.35107584775385" lon="5.468266757161528"><ele>139.0</ele><time>2026-04-24T12:55:50.001Z</time></trkpt><trkpt lat="43.35115287488236" lon="5.468235043773178"><ele>139.0</ele><time>2026-04-24T12:55:52Z</time></trkpt><trkpt lat="43.351223783164755" lon="5.468212040660866"><ele>139.0</ele><time>2026-04-24T12:55:54Z</time></trkpt><trkpt lat="43.351308132527514" lon="5.46820892880734"><ele>139.0</ele><time>2026-04-24T12:55:56Z</time></trkpt><trkpt lat="43.35137687066605" lon="5.468204402896923"><ele>139.0</ele><time>2026-04-24T12:55:58Z</time></trkpt><trkpt lat="43.3514664870206" lon="5.468194075967359"><ele>139.0</ele><time>2026-04-24T12:56:01Z</time></trkpt><trkpt lat="43.351541160580794" lon="5.4681805272012065"><ele>139.42857142857142</ele><time>2026-04-24T12:56:04Z</time></trkpt><trkpt lat="43.351605344987135" lon="5.468143351543876"><ele>139.85714285714286</ele><time>2026-04-24T12:56:07Z</time></trkpt><trkpt lat="43.351683859933274" lon="5.468126736648928"><ele>140.28571428571428</ele><time>2026-04-24T12:56:11Z</time></trkpt><trkpt lat="43.3517447935508" lon="5.468093323747671"><ele>140.71428571428572</ele><time>2026-04-24T12:56:14Z</time></trkpt><trkpt lat="43.35180531427883" lon="5.468059939654456"><ele>141.14285714285714</ele><time>2026-04-24T12:56:17Z</time></trkpt><trkpt lat="43.351861657401614" lon="5.468020088289184"><ele>141.57142857142856</ele><time>2026-04-24T12:56:21Z</time></trkpt><trkpt lat="43.35192520858299" lon="5.467969882141149"><ele>142.0</ele><time>2026-04-24T12:56:24Z</time></trkpt><trkpt lat="43.35198687114934" lon="5.467907952364489"><ele>142.16666666666669</ele><time>2026-04-24T12:56:28Z</time></trkpt><trkpt lat="43.35205914011627" lon="5.467824876934552"><ele>142.33333333333334</ele><time>2026-04-24T12:56:31Z</time></trkpt><trkpt lat="43.35211579231095" lon="5.467764741364564"><ele>142.5</ele><time>2026-04-24T12:56:34Z</time></trkpt><trkpt lat="43.352174808887696" lon="5.467698553490761"><ele>142.66666666666666</ele><time>2026-04-24T12:56:37Z</time></trkpt><trkpt lat="43.35222233615722" lon="5.4676336105043335"><ele>142.83333333333331</ele><time>2026-04-24T12:56:39Z</time></trkpt><trkpt lat="43.35229250402943" lon="5.467574988242436"><ele>143.0</ele><time>2026-04-24T12:56:42Z</time></trkpt><trkpt lat="43.35234724858099" lon="5.46752203882111"><ele>143.57142857142856</ele><time>2026-04-24T12:56:44Z</time></trkpt><trkpt lat="43.35241127528824" lon="5.467472028670491"><ele>144.14285714285714</ele><time>2026-04-24T12:56:47Z</time></trkpt><trkpt lat="43.3524758815879" lon="5.467426329040227"><ele>144.71428571428572</ele><time>2026-04-24T12:56:49Z</time></trkpt><trkpt lat="43.3525447424883" lon="5.4673828193601155"><ele>145.28571428571428</ele><time>2026-04-24T12:56:52Z</time></trkpt><trkpt lat="43.352607249244194" lon="5.467339232824046"><ele>145.85714285714286</ele><time>2026-04-24T12:56:54Z</time></trkpt><trkpt lat="43.35267262729811" lon="5.467287584560353"><ele>146.42857142857142</ele><time>2026-04-24T12:56:57Z</time></trkpt><trkpt lat="43.352731344758276" lon="5.4672431211899575"><ele>147.0</ele><time>2026-04-24T12:56:58.999Z</time></trkpt><trkpt lat="43.35279184753139" lon="5.46719338005296"><ele>147.0</ele><time>2026-04-24T12:57:01.999Z</time></trkpt><trkpt lat="43.35285161704324" lon="5.467152580943875"><ele>147.0</ele><time>2026-04-24T12:57:03.999Z</time></trkpt><trkpt lat="43.35291585625285" lon="5.4671151591775455"><ele>147.0</ele><time>2026-04-24T12:57:06.999Z</time></trkpt><trkpt lat="43.352972899904124" lon="5.467074632001561"><ele>147.0</ele><time>2026-04-24T12:57:08.999Z</time></trkpt><trkpt lat="43.35304103488867" lon="5.467031518315569"><ele>147.0</ele><time>2026-04-24T12:57:11.999Z</time></trkpt><trkpt lat="43.35311391013528" lon="5.467035595264646"><ele>147.0</ele><time>2026-04-24T12:57:14.999Z</time></trkpt><trkpt lat="43.353180389850955" lon="5.467065757063343"><ele>147.0</ele><time>2026-04-24T12:57:16.999Z</time></trkpt><trkpt lat="43.35325290683515" lon="5.4670717659575345"><ele>147.57142857142858</ele><time>2026-04-24T12:57:19.999Z</time></trkpt><trkpt lat="43.35331720688082" lon="5.467060081223267"><ele>148.14285714285714</ele><time>2026-04-24T12:57:21.999Z</time></trkpt><trkpt lat="43.35337473089932" lon="5.467014591384504"><ele>148.71428571428572</ele><time>2026-04-24T12:57:23.999Z</time></trkpt><trkpt lat="43.35343092608014" lon="5.466952235787014"><ele>149.28571428571428</ele><time>2026-04-24T12:57:26.999Z</time></trkpt><trkpt lat="43.35346221105167" lon="5.466860768231948"><ele>149.85714285714286</ele><time>2026-04-24T12:57:29.999Z</time></trkpt><trkpt lat="43.353512049027856" lon="5.466788649283236"><ele>150.42857142857144</ele><time>2026-04-24T12:57:32.999Z</time></trkpt><trkpt lat="43.353588484879175" lon="5.466730486531247"><ele>151.0</ele><time>2026-04-24T12:57:34.999Z</time></trkpt><trkpt lat="43.35366596441052" lon="5.466694930408748"><ele>151.0</ele><time>2026-04-24T12:57:37.999Z</time></trkpt><trkpt lat="43.35374213163093" lon="5.46664390876844"><ele>151.0</ele><time>2026-04-24T12:57:40.999Z</time></trkpt><trkpt lat="43.3538238642457" lon="5.466593785471538"><ele>151.0</ele><time>2026-04-24T12:57:43.999Z</time></trkpt><trkpt lat="43.35391335932967" lon="5.466554861478139"><ele>151.0</ele><time>2026-04-24T12:57:46.999Z</time></trkpt><trkpt lat="43.354002637511826" lon="5.46651972016265"><ele>151.0</ele><time>2026-04-24T12:57:50Z</time></trkpt><trkpt lat="43.354089599753685" lon="5.466480966220516"><ele>151.5</ele><time>2026-04-24T12:57:53Z</time></trkpt><trkpt lat="43.35417755365256" lon="5.4664484712387456"><ele>152.0</ele><time>2026-04-24T12:57:56Z</time></trkpt><trkpt lat="43.35426115326107" lon="5.466412097583688"><ele>152.5</ele><time>2026-04-24T12:57:59Z</time></trkpt><trkpt lat="43.35433516511213" lon="5.466380664034623"><ele>153.0</ele><time>2026-04-24T12:58:02Z</time></trkpt><trkpt lat="43.35441192004701" lon="5.466355046122535"><ele>153.5</ele><time>2026-04-24T12:58:05Z</time></trkpt><trkpt lat="43.35449095787617" lon="5.466350374190295"><ele>154.0</ele><time>2026-04-24T12:58:08Z</time></trkpt><trkpt lat="43.35457670723794" lon="5.466346966442882"><ele>154.0</ele><time>2026-04-24T12:58:11Z</time></trkpt><trkpt lat="43.35464168209541" lon="5.466430026873659"><ele>154.0</ele><time>2026-04-24T12:58:14Z</time></trkpt><trkpt lat="43.35471422180795" lon="5.466502198738572"><ele>154.0</ele><time>2026-04-24T12:58:17Z</time></trkpt><trkpt lat="43.35480524733997" lon="5.466519184178719"><ele>154.0</ele><time>2026-04-24T12:58:20Z</time></trkpt><trkpt lat="43.35488662946145" lon="5.466542141273754"><ele>154.0</ele><time>2026-04-24T12:58:23Z</time></trkpt><trkpt lat="43.35495510901491" lon="5.466497443316308"><ele>154.0</ele><time>2026-04-24T12:58:26Z</time></trkpt></trkseg><trkseg><trkpt lat="43.35502286105569" lon="5.466431901471543"><ele>154.0</ele><time>2026-04-24T13:17:55Z</time></trkpt><trkpt lat="43.35509421072594" lon="5.466434219480308"><ele>154.0</ele><time>2026-04-24T13:18:05Z</time></trkpt><trkpt lat="43.35516654858103" lon="5.466460026023759"><ele>154.0</ele><time>2026-04-24T13:18:09Z</time></trkpt><trkpt lat="43.3552336847277" lon="5.466463776236356"><ele>154.0</ele><time>2026-04-24T13:18:12Z</time></trkpt><trkpt lat="43.35530201349518" lon="5.466482735743132"><ele>154.0</ele><time>2026-04-24T13:18:16Z</time></trkpt><trkpt lat="43.35537241990667" lon="5.4665070554907365"><ele>154.0</ele><time>2026-04-24T13:18:21.999Z</time></trkpt><trkpt lat="43.35545423422136" lon="5.466530614438881"><ele>154.0</ele><time>2026-04-24T13:18:26.999Z</time></trkpt><trkpt lat="43.355537229819376" lon="5.466555660134831"><ele>154.57142857142858</ele><time>2026-04-24T13:18:30.999Z</time></trkpt><trkpt lat="43.355613280174815" lon="5.46656260229397"><ele>155.14285714285714</ele><time>2026-04-24T13:18:33.999Z</time></trkpt><trkpt lat="43.355686180500406" lon="5.466583246904796"><ele>155.71428571428572</ele><time>2026-04-24T13:18:36.999Z</time></trkpt><trkpt lat="43.35576519866957" lon="5.466609851173055"><ele>156.28571428571428</ele><time>2026-04-24T13:18:40.999Z</time></trkpt><trkpt lat="43.355834583425754" lon="5.466625994260368"><ele>156.85714285714286</ele><time>2026-04-24T13:18:43.999Z</time></trkpt><trkpt lat="43.35590254878545" lon="5.466645891774591"><ele>157.42857142857144</ele><time>2026-04-24T13:18:46.999Z</time></trkpt><trkpt lat="43.35596812939447" lon="5.466658674233291"><ele>158.0</ele><time>2026-04-24T13:18:49.999Z</time></trkpt><trkpt lat="43.356039806991355" lon="5.466678002049712"><ele>158.00000000000003</ele><time>2026-04-24T13:18:52.999Z</time></trkpt><trkpt lat="43.356108221119115" lon="5.466694324241092"><ele>158.0</ele><time>2026-04-24T13:18:55.999Z</time></trkpt><trkpt lat="43.356174409967984" lon="5.466707940990813"><ele>158.0</ele><time>2026-04-24T13:18:58.999Z</time></trkpt><trkpt lat="43.3562393398358" lon="5.466727784216912"><ele>158.0</ele><time>2026-04-24T13:19:01.999Z</time></trkpt><trkpt lat="43.3563106926735" lon="5.466726146333565"><ele>158.0</ele><time>2026-04-24T13:19:04.999Z</time></trkpt><trkpt lat="43.356376236722944" lon="5.46673980349808"><ele>158.00000000000003</ele><time>2026-04-24T13:19:07.999Z</time></trkpt><trkpt lat="43.35645578205106" lon="5.466742903330952"><ele>158.0</ele><time>2026-04-24T13:19:11.999Z</time></trkpt><trkpt lat="43.356528801811216" lon="5.4667340144383125"><ele>158.71428571428572</ele><time>2026-04-24T13:19:15.999Z</time></trkpt><trkpt lat="43.35660995920502" lon="5.466706228798643"><ele>159.42857142857144</ele><time>2026-04-24T13:19:19.999Z</time></trkpt><trkpt lat="43.35667050498943" lon="5.466674770522406"><ele>160.14285714285717</ele><time>2026-04-24T13:19:22.999Z</time></trkpt><trkpt lat="43.35675214405532" lon="5.4666458083659775"><ele>160.85714285714286</ele><time>2026-04-24T13:19:26.999Z</time></trkpt><trkpt lat="43.35681523132292" lon="5.466621007784154"><ele>161.57142857142856</ele><time>2026-04-24T13:19:29.999Z</time></trkpt><trkpt lat="43.35687817462059" lon="5.4665905349378185"><ele>162.2857142857143</ele><time>2026-04-24T13:19:32.999Z</time></trkpt><trkpt lat="43.356958757018695" lon="5.466569769545531"><ele>163.0</ele><time>2026-04-24T13:19:36.999Z</time></trkpt><trkpt lat="43.35703396106073" lon="5.466548500597075"><ele>163.0</ele><time>2026-04-24T13:19:40.999Z</time></trkpt><trkpt lat="43.357097674031365" lon="5.466542787955921"><ele>163.0</ele><time>2026-04-24T13:19:43.999Z</time></trkpt><trkpt lat="43.35716043599017" lon="5.4665330877970035"><ele>163.0</ele><time>2026-04-24T13:19:46.999Z</time></trkpt><trkpt lat="43.35722990857261" lon="5.466526595823293"><ele>163.0</ele><time>2026-04-24T13:19:49.999Z</time></trkpt><trkpt lat="43.35730544862163" lon="5.466519633321583"><ele>163.0</ele><time>2026-04-24T13:19:52.999Z</time></trkpt><trkpt lat="43.357382080410716" lon="5.466514070087009"><ele>163.0</ele><time>2026-04-24T13:19:55.999Z</time></trkpt><trkpt lat="43.35745973987986" lon="5.466516061391251"><ele>163.0</ele><time>2026-04-24T13:19:58.999Z</time></trkpt><trkpt lat="43.357532947736274" lon="5.466514798694338"><ele>163.57142857142858</ele><time>2026-04-24T13:20:01.999Z</time></trkpt><trkpt lat="43.35760232042197" lon="5.466533470239894"><ele>164.14285714285714</ele><time>2026-04-24T13:20:04.999Z</time></trkpt><trkpt lat="43.35767072966079" lon="5.466536545601165"><ele>164.71428571428572</ele><time>2026-04-24T13:20:07.999Z</time></trkpt><trkpt lat="43.35773947354278" lon="5.466543404462614"><ele>165.28571428571428</ele><time>2026-04-24T13:20:10.999Z</time></trkpt><trkpt lat="43.35781932203491" lon="5.466555732804769"><ele>165.85714285714286</ele><time>2026-04-24T13:20:14.999Z</time></trkpt><trkpt lat="43.35788900708593" lon="5.466541500936339"><ele>166.42857142857142</ele><time>2026-04-24T13:20:17.999Z</time></trkpt><trkpt lat="43.357954552707426" lon="5.466550764704711"><ele>167.0</ele><time>2026-04-24T13:20:20.999Z</time></trkpt><trkpt lat="43.35803465374716" lon="5.466559572898456"><ele>167.83333333333331</ele><time>2026-04-24T13:20:23.999Z</time></trkpt><trkpt lat="43.35810929399476" lon="5.4665749324251935"><ele>168.66666666666666</ele><time>2026-04-24T13:20:26.999Z</time></trkpt><trkpt lat="43.35817883963244" lon="5.466566634497319"><ele>169.5</ele><time>2026-04-24T13:20:29.999Z</time></trkpt><trkpt lat="43.3582623599575" lon="5.466569153565012"><ele>170.33333333333334</ele><time>2026-04-24T13:20:32.999Z</time></trkpt><trkpt lat="43.35835030265578" lon="5.4665934175497375"><ele>171.16666666666669</ele><time>2026-04-24T13:20:36.999Z</time></trkpt><trkpt lat="43.35842287284188" lon="5.46659773903974"><ele>172.0</ele><time>2026-04-24T13:20:39.999Z</time></trkpt><trkpt lat="43.35849223003817" lon="5.466599704864483"><ele>172.00000000000003</ele><time>2026-04-24T13:20:42.999Z</time></trkpt><trkpt lat="43.35856382531262" lon="5.466602374650809"><ele>172.0</ele><time>2026-04-24T13:20:45.999Z</time></trkpt><trkpt lat="43.35864145864496" lon="5.466618102779223"><ele>172.0</ele><time>2026-04-24T13:20:48.999Z</time></trkpt><trkpt lat="43.35870930246207" lon="5.46662047772616"><ele>172.0</ele><time>2026-04-24T13:20:51.999Z</time></trkpt><trkpt lat="43.35878339052379" lon="5.46659968346084"><ele>172.0</ele><time>2026-04-24T13:20:54.999Z</time></trkpt><trkpt lat="43.35885182376677" lon="5.466606823528044"><ele>172.00000000000003</ele><time>2026-04-24T13:20:57.999Z</time></trkpt><trkpt lat="43.35892320725127" lon="5.466628523454828"><ele>172.0</ele><time>2026-04-24T13:21:00.999Z</time></trkpt><trkpt lat="43.35900153712922" lon="5.466661952640216"><ele>172.2857142857143</ele><time>2026-04-24T13:21:03.999Z</time></trkpt><trkpt lat="43.359077089383504" lon="5.466704162740924"><ele>172.57142857142858</ele><time>2026-04-24T13:21:06.999Z</time></trkpt><trkpt lat="43.3591541545776" lon="5.466730422962484"><ele>172.85714285714286</ele><time>2026-04-24T13:21:09.999Z</time></trkpt><trkpt lat="43.359226296708286" lon="5.4667652058262535"><ele>173.14285714285717</ele><time>2026-04-24T13:21:12.999Z</time></trkpt><trkpt lat="43.35929319137684" lon="5.466788087920583"><ele>173.42857142857144</ele><time>2026-04-24T13:21:15.999Z</time></trkpt><trkpt lat="43.35936121389781" lon="5.46682003005762"><ele>173.71428571428572</ele><time>2026-04-24T13:21:18.999Z</time></trkpt><trkpt lat="43.35942597786112" lon="5.466833311616741"><ele>174.0</ele><time>2026-04-24T13:21:21.999Z</time></trkpt><trkpt lat="43.35949959507646" lon="5.466875157675758"><ele>174.0</ele><time>2026-04-24T13:21:25.999Z</time></trkpt><trkpt lat="43.35956608518689" lon="5.466908767615157"><ele>174.0</ele><time>2026-04-24T13:21:29.999Z</time></trkpt><trkpt lat="43.359627319230725" lon="5.46694560942171"><ele>174.0</ele><time>2026-04-24T13:21:33.999Z</time></trkpt><trkpt lat="43.359691186700665" lon="5.467013150728465"><ele>174.0</ele><time>2026-04-24T13:21:38.998Z</time></trkpt><trkpt lat="43.359701567352246" lon="5.467111675937613"><ele>174.0</ele><time>2026-04-24T13:21:41.998Z</time></trkpt><trkpt lat="43.35970502685383" lon="5.4672158047871635"><ele>174.0</ele><time>2026-04-24T13:21:44.998Z</time></trkpt><trkpt lat="43.35969585885008" lon="5.467328234357326"><ele>174.0</ele><time>2026-04-24T13:21:47.998Z</time></trkpt><trkpt lat="43.35969175423378" lon="5.467435386105378"><ele>174.5</ele><time>2026-04-24T13:21:50.999Z</time></trkpt><trkpt lat="43.35968466958758" lon="5.467551428142571"><ele>175.0</ele><time>2026-04-24T13:21:53.999Z</time></trkpt><trkpt lat="43.35967699337305" lon="5.4676610136493995"><ele>175.5</ele><time>2026-04-24T13:21:56.999Z</time></trkpt><trkpt lat="43.35965268855229" lon="5.467767143596693"><ele>176.0</ele><time>2026-04-24T13:21:59.999Z</time></trkpt><trkpt lat="43.35965169066321" lon="5.4678702132747405"><ele>176.5</ele><time>2026-04-24T13:22:02.999Z</time></trkpt><trkpt lat="43.359650014314376" lon="5.46796035621684"><ele>177.0</ele><time>2026-04-24T13:22:05.999Z</time></trkpt><trkpt lat="43.3596395880614" lon="5.468049834810033"><ele>177.57142857142858</ele><time>2026-04-24T13:22:08.999Z</time></trkpt><trkpt lat="43.35962967515782" lon="5.4681554458761115"><ele>178.14285714285714</ele><time>2026-04-24T13:22:12.999Z</time></trkpt><trkpt lat="43.35961905987333" lon="5.468251441418735"><ele>178.71428571428572</ele><time>2026-04-24T13:22:16.999Z</time></trkpt><trkpt lat="43.35962011065304" lon="5.468347399648717"><ele>179.28571428571428</ele><time>2026-04-24T13:22:20.999Z</time></trkpt><trkpt lat="43.359609875692485" lon="5.468448481317549"><ele>179.85714285714283</ele><time>2026-04-24T13:22:24.999Z</time></trkpt><trkpt lat="43.35959476366484" lon="5.468553998863219"><ele>180.42857142857142</ele><time>2026-04-24T13:22:28.999Z</time></trkpt><trkpt lat="43.359595523198315" lon="5.468656868467155"><ele>181.0</ele><time>2026-04-24T13:22:32.999Z</time></trkpt><trkpt lat="43.35959307933678" lon="5.468757608818538"><ele>182.16666666666669</ele><time>2026-04-24T13:22:36.999Z</time></trkpt><trkpt lat="43.35958608614394" lon="5.468859126357459"><ele>183.33333333333334</ele><time>2026-04-24T13:22:40.999Z</time></trkpt><trkpt lat="43.359580192289414" lon="5.468957764553506"><ele>184.5</ele><time>2026-04-24T13:22:44.999Z</time></trkpt><trkpt lat="43.35957615443225" lon="5.469054275640135"><ele>185.66666666666666</ele><time>2026-04-24T13:22:48.999Z</time></trkpt><trkpt lat="43.35956812806672" lon="5.469162420016903"><ele>186.83333333333331</ele><time>2026-04-24T13:22:52.999Z</time></trkpt><trkpt lat="43.35956431126388" lon="5.469276657990907"><ele>188.0</ele><time>2026-04-24T13:22:56.999Z</time></trkpt><trkpt lat="43.35955323164969" lon="5.469381800545158"><ele>188.0</ele><time>2026-04-24T13:22:59.999Z</time></trkpt><trkpt lat="43.3595485888941" lon="5.4694932106879675"><ele>188.0</ele><time>2026-04-24T13:23:02.999Z</time></trkpt><trkpt lat="43.35954502057105" lon="5.46957982202643"><ele>188.0</ele><time>2026-04-24T13:23:04.999Z</time></trkpt><trkpt lat="43.359532189205446" lon="5.469685833857656"><ele>188.0</ele><time>2026-04-24T13:23:06.999Z</time></trkpt><trkpt lat="43.35951482429343" lon="5.469820579344689"><ele>188.0</ele><time>2026-04-24T13:23:08.999Z</time></trkpt><trkpt lat="43.35950793470642" lon="5.4699771724002995"><ele>188.0</ele><time>2026-04-24T13:23:10.999Z</time></trkpt><trkpt lat="43.359504173251565" lon="5.470153215698479"><ele>187.85714285714286</ele><time>2026-04-24T13:23:12.999Z</time></trkpt><trkpt lat="43.3595069055765" lon="5.470242618463233"><ele>187.71428571428572</ele><time>2026-04-24T13:23:13.999Z</time></trkpt><trkpt lat="43.35948900679147" lon="5.4703334023877765"><ele>187.57142857142856</ele><time>2026-04-24T13:23:14.999Z</time></trkpt><trkpt lat="43.35949788359827" lon="5.470425659048435"><ele>187.42857142857144</ele><time>2026-04-24T13:23:15.999Z</time></trkpt><trkpt lat="43.35947507670721" lon="5.470515748340369"><ele>187.2857142857143</ele><time>2026-04-24T13:23:16.999Z</time></trkpt><trkpt lat="43.35945911596425" lon="5.470607463584501"><ele>187.14285714285714</ele><time>2026-04-24T13:23:17.999Z</time></trkpt><trkpt lat="43.359464402041255" lon="5.4706974695991555"><ele>187.0</ele><time>2026-04-24T13:23:18.999Z</time></trkpt><trkpt lat="43.35945372435747" lon="5.470860844836625"><ele>186.5</ele><time>2026-04-24T13:23:20.999Z</time></trkpt><trkpt lat="43.35945311973634" lon="5.470999861337987"><ele>186.0</ele><time>2026-04-24T13:23:22.999Z</time></trkpt><trkpt lat="43.35944604349755" lon="5.471115455857651"><ele>185.5</ele><time>2026-04-24T13:23:24.999Z</time></trkpt><trkpt lat="43.359436513170564" lon="5.471225261051586"><ele>185.0</ele><time>2026-04-24T13:23:26.999Z</time></trkpt><trkpt lat="43.359392779131866" lon="5.471305829946911"><ele>184.5</ele><time>2026-04-24T13:23:28.999Z</time></trkpt><trkpt lat="43.35933165372839" lon="5.471375437287512"><ele>184.0</ele><time>2026-04-24T13:23:30.999Z</time></trkpt><trkpt lat="43.359282088856716" lon="5.471455495993623"><ele>184.0</ele><time>2026-04-24T13:23:32.999Z</time></trkpt><trkpt lat="43.35925883751283" lon="5.471550477866581"><ele>184.0</ele><time>2026-04-24T13:23:34.999Z</time></trkpt><trkpt lat="43.35926037024311" lon="5.471674982651796"><ele>184.0</ele><time>2026-04-24T13:23:37.999Z</time></trkpt><trkpt lat="43.359250343920536" lon="5.471788708124388"><ele>184.0</ele><time>2026-04-24T13:23:41.999Z</time></trkpt><trkpt lat="43.3592501651381" lon="5.471891058843355"><ele>184.0</ele><time>2026-04-24T13:23:44.998Z</time></trkpt><trkpt lat="43.35925105900379" lon="5.471979761352389"><ele>184.0</ele><time>2026-04-24T13:23:47.998Z</time></trkpt><trkpt lat="43.35925267049676" lon="5.472098323701727"><ele>184.33333333333334</ele><time>2026-04-24T13:23:51.998Z</time></trkpt><trkpt lat="43.35925222515109" lon="5.472204746880771"><ele>184.66666666666669</ele><time>2026-04-24T13:23:54.998Z</time></trkpt><trkpt lat="43.35925448771907" lon="5.472325201701113"><ele>185.0</ele><time>2026-04-24T13:23:57.998Z</time></trkpt><trkpt lat="43.359250824235424" lon="5.472441697859965"><ele>185.33333333333334</ele><time>2026-04-24T13:24:00.999Z</time></trkpt><trkpt lat="43.35925775312884" lon="5.472567585450361"><ele>185.66666666666666</ele><time>2026-04-24T13:24:03.999Z</time></trkpt><trkpt lat="43.359269295826884" lon="5.472654106433737"><ele>186.0</ele><time>2026-04-24T13:24:05.999Z</time></trkpt><trkpt lat="43.3592621784482" lon="5.472777884170335"><ele>186.0</ele><time>2026-04-24T13:24:08.999Z</time></trkpt><trkpt lat="43.359260680014465" lon="5.472880442823303"><ele>186.0</ele><time>2026-04-24T13:24:10.999Z</time></trkpt><trkpt lat="43.359253833058" lon="5.472989666430313"><ele>186.0</ele><time>2026-04-24T13:24:12.999Z</time></trkpt><trkpt lat="43.359272364179745" lon="5.473093035515795"><ele>186.0</ele><time>2026-04-24T13:24:14.999Z</time></trkpt><trkpt lat="43.35926525280295" lon="5.473196192317682"><ele>186.0</ele><time>2026-04-24T13:24:16.999Z</time></trkpt><trkpt lat="43.35923506595663" lon="5.473335441480196"><ele>186.0</ele><time>2026-04-24T13:24:18.999Z</time></trkpt><trkpt lat="43.35918044863414" lon="5.473389918339416"><ele>185.66666666666666</ele><time>2026-04-24T13:24:19.999Z</time></trkpt><trkpt lat="43.35911132363512" lon="5.473378843732376"><ele>185.33333333333334</ele><time>2026-04-24T13:24:20.999Z</time></trkpt><trkpt lat="43.35903431877635" lon="5.473480168614438"><ele>185.0</ele><time>2026-04-24T13:24:22.999Z</time></trkpt><trkpt lat="43.358949182012275" lon="5.473533691571101"><ele>184.66666666666669</ele><time>2026-04-24T13:24:24.999Z</time></trkpt><trkpt lat="43.35887094559703" lon="5.473587959488432"><ele>184.33333333333334</ele><time>2026-04-24T13:24:26.999Z</time></trkpt><trkpt lat="43.35879854108364" lon="5.473632035781538"><ele>184.0</ele><time>2026-04-24T13:24:28.999Z</time></trkpt><trkpt lat="43.3587230775195" lon="5.473670537574164"><ele>184.14285714285714</ele><time>2026-04-24T13:24:31.999Z</time></trkpt><trkpt lat="43.35865724108153" lon="5.473712232385275"><ele>184.28571428571428</ele><time>2026-04-24T13:24:35.999Z</time></trkpt><trkpt lat="43.35859703831404" lon="5.473747335636612"><ele>184.42857142857142</ele><time>2026-04-24T13:24:38.999Z</time></trkpt><trkpt lat="43.35853761859543" lon="5.473795459167166"><ele>184.57142857142856</ele><time>2026-04-24T13:24:41.999Z</time></trkpt><trkpt lat="43.35847120761597" lon="5.473832657794521"><ele>184.71428571428572</ele><time>2026-04-24T13:24:45.999Z</time></trkpt><trkpt lat="43.35841226284019" lon="5.473871583692234"><ele>184.85714285714283</ele><time>2026-04-24T13:24:49.999Z</time></trkpt><trkpt lat="43.35834476424823" lon="5.473903231943318"><ele>185.0</ele><time>2026-04-24T13:24:53.999Z</time></trkpt><trkpt lat="43.35826488038282" lon="5.473958910383646"><ele>185.0</ele><time>2026-04-24T13:24:57.999Z</time></trkpt><trkpt lat="43.35818412060476" lon="5.474013617169756"><ele>185.0</ele><time>2026-04-24T13:25:00.999Z</time></trkpt><trkpt lat="43.35812728825971" lon="5.474060838065609"><ele>185.0</ele><time>2026-04-24T13:25:03.999Z</time></trkpt><trkpt lat="43.35806424564141" lon="5.474093165641484"><ele>185.0</ele><time>2026-04-24T13:25:07.999Z</time></trkpt><trkpt lat="43.35799653580766" lon="5.474119534540977"><ele>185.0</ele><time>2026-04-24T13:25:10.999Z</time></trkpt><trkpt lat="43.35789839631672" lon="5.474144857618539"><ele>185.0</ele><time>2026-04-24T13:25:13.999Z</time></trkpt><trkpt lat="43.35780081741806" lon="5.474174574603719"><ele>183.83333333333331</ele><time>2026-04-24T13:25:15.999Z</time></trkpt><trkpt lat="43.35772732382734" lon="5.47418473775041"><ele>182.66666666666666</ele><time>2026-04-24T13:25:16.999Z</time></trkpt><trkpt lat="43.35764325760715" lon="5.4741961091753675"><ele>181.5</ele><time>2026-04-24T13:25:17.999Z</time></trkpt><trkpt lat="43.35754971664658" lon="5.474163531365971"><ele>180.33333333333334</ele><time>2026-04-24T13:25:18.999Z</time></trkpt><trkpt lat="43.35745566127672" lon="5.474171389090244"><ele>179.16666666666669</ele><time>2026-04-24T13:25:19.999Z</time></trkpt><trkpt lat="43.35735938307747" lon="5.474185455749229"><ele>178.0</ele><time>2026-04-24T13:25:20.999Z</time></trkpt><trkpt lat="43.35725615195491" lon="5.4742130547640695"><ele>178.0</ele><time>2026-04-24T13:25:21.999Z</time></trkpt><trkpt lat="43.357162114507865" lon="5.474236455116969"><ele>173.0</ele><time>2026-04-24T13:25:22.999Z</time></trkpt><trkpt lat="43.357068634386636" lon="5.474262283538755"><ele>173.0</ele><time>2026-04-24T13:25:23.999Z</time></trkpt><trkpt lat="43.35698281871611" lon="5.474287204164694"><ele>173.0</ele><time>2026-04-24T13:25:24.999Z</time></trkpt><trkpt lat="43.35691005805843" lon="5.47430833365224"><ele>173.0</ele><time>2026-04-24T13:25:25.999Z</time></trkpt><trkpt lat="43.356828928289595" lon="5.474331893506184"><ele>173.0</ele><time>2026-04-24T13:25:27.999Z</time></trkpt></trkseg></trk></gpx>